<?xml version='1.0' encoding='UTF-8'?><gpx version="1.1" creator="JPX - https://github.com/jenetics/jpx" xmlns="http://www.topografix.com/GPX/1/1"><trk><trkseg><trkpt lat="45.6635914" lon="11.9444549"><ele>35.166666666666664</ele><time>2026-05-03T08:09:17.045Z</time></trkpt><trkpt lat="45.663683" lon="11.9444743"><ele>35.33333333333333</ele><time>2026-05-03T08:09:19.043Z</time></trkpt><trkpt lat="45.6637848" lon="11.9444351"><ele>35.5</ele><time>2026-05-03T08:09:21.045Z</time></trkpt><trkpt lat="45.6638488" lon="11.9444042"><ele>35.666666666666664</ele><time>2026-05-03T08:09:22.044Z</time></trkpt><trkpt lat="45.6639177" lon="11.9443831"><ele>35.833333333333336</ele><time>2026-05-03T08:09:23.043Z</time></trkpt><trkpt lat="45.6639925" lon="11.9443529"><ele>36.0</ele><time>2026-05-03T08:09:24.044Z</time></trkpt><trkpt lat="45.6640564" lon="11.9443145"><ele>36.0</ele><time>2026-05-03T08:09:25.044Z</time></trkpt><trkpt lat="45.6641317" lon="11.9442519"><ele>36.0</ele><time>2026-05-03T08:09:27.044Z</time></trkpt><trkpt lat="45.6641941" lon="11.9442241"><ele>36.0</ele><time>2026-05-03T08:09:29.044Z</time></trkpt><trkpt lat="45.66429" lon="11.9441907"><ele>36.0</ele><time>2026-05-03T08:09:31.044Z</time></trkpt><trkpt lat="45.664389" lon="11.944074"><ele>36.0</ele><time>2026-05-03T08:09:33.045Z</time></trkpt><trkpt lat="45.6644412" lon="11.9439963"><ele>36.0</ele><time>2026-05-03T08:09:34.045Z</time></trkpt><trkpt lat="45.6644928" lon="11.9439193"><ele>36.0</ele><time>2026-05-03T08:09:35.044Z</time></trkpt><trkpt lat="45.6645494" lon="11.9438372"><ele>36.0</ele><time>2026-05-03T08:09:36.044Z</time></trkpt><trkpt lat="45.6646061" lon="11.9437546"><ele>36.0</ele><time>2026-05-03T08:09:37.043Z</time></trkpt><trkpt lat="45.6646689" lon="11.9436811"><ele>36.0</ele><time>2026-05-03T08:09:38.044Z</time></trkpt><trkpt lat="45.6647447" lon="11.9436344"><ele>36.0</ele><time>2026-05-03T08:09:39.044Z</time></trkpt><trkpt lat="45.664829" lon="11.9436222"><ele>36.0</ele><time>2026-05-03T08:09:40.043Z</time></trkpt><trkpt lat="45.6649189" lon="11.9436228"><ele>36.0</ele><time>2026-05-03T08:09:41.044Z</time></trkpt><trkpt lat="45.6650154" lon="11.9436317"><ele>36.0</ele><time>2026-05-03T08:09:42.044Z</time></trkpt><trkpt lat="45.6651148" lon="11.9436453"><ele>36.0</ele><time>2026-05-03T08:09:43.045Z</time></trkpt><trkpt lat="45.6652219" lon="11.9436683"><ele>36.0</ele><time>2026-05-03T08:09:44.043Z</time></trkpt><trkpt lat="45.665328" lon="11.9437012"><ele>36.25</ele><time>2026-05-03T08:09:45.045Z</time></trkpt><trkpt lat="45.6654406" lon="11.9437402"><ele>36.5</ele><time>2026-05-03T08:09:46.044Z</time></trkpt><trkpt lat="45.6655566" lon="11.9437843"><ele>36.75</ele><time>2026-05-03T08:09:47.045Z</time></trkpt><trkpt lat="45.6656749" lon="11.9438332"><ele>37.0</ele><time>2026-05-03T08:09:48.044Z</time></trkpt><trkpt lat="45.6658013" lon="11.9438871"><ele>37.0</ele><time>2026-05-03T08:09:49.044Z</time></trkpt><trkpt lat="45.6659305" lon="11.9439313"><ele>37.0</ele><time>2026-05-03T08:09:50.044Z</time></trkpt><trkpt lat="45.6660646" lon="11.9439579"><ele>37.0</ele><time>2026-05-03T08:09:51.044Z</time></trkpt><trkpt lat="45.6662091" lon="11.9439809"><ele>37.0</ele><time>2026-05-03T08:09:52.044Z</time></trkpt><trkpt lat="45.6663563" lon="11.9439965"><ele>36.66666666666667</ele><time>2026-05-03T08:09:53.043Z</time></trkpt><trkpt lat="45.6665095" lon="11.9440056"><ele>36.333333333333336</ele><time>2026-05-03T08:09:54.045Z</time></trkpt><trkpt lat="45.6666667" lon="11.9440112"><ele>36.0</ele><time>2026-05-03T08:09:55.045Z</time></trkpt><trkpt lat="45.6668203" lon="11.9440244"><ele>36.0</ele><time>2026-05-03T08:09:56.044Z</time></trkpt><trkpt lat="45.6669707" lon="11.9440303"><ele>36.0</ele><time>2026-05-03T08:09:57.045Z</time></trkpt><trkpt lat="45.6671299" lon="11.9440431"><ele>36.0</ele><time>2026-05-03T08:09:58.044Z</time></trkpt><trkpt lat="45.6672803" lon="11.9440513"><ele>36.0</ele><time>2026-05-03T08:09:59.044Z</time></trkpt><trkpt lat="45.6674357" lon="11.9440607"><ele>36.0</ele><time>2026-05-03T08:10:00.044Z</time></trkpt><trkpt lat="45.6675875" lon="11.9440751"><ele>36.0</ele><time>2026-05-03T08:10:01.044Z</time></trkpt><trkpt lat="45.6677399" lon="11.94408"><ele>36.0</ele><time>2026-05-03T08:10:02.044Z</time></trkpt><trkpt lat="45.6678867" lon="11.9440867"><ele>36.0</ele><time>2026-05-03T08:10:03.044Z</time></trkpt><trkpt lat="45.6680271" lon="11.9441116"><ele>36.0</ele><time>2026-05-03T08:10:04.044Z</time></trkpt><trkpt lat="45.6681572" lon="11.9441266"><ele>36.0</ele><time>2026-05-03T08:10:05.043Z</time></trkpt><trkpt lat="45.6682879" lon="11.9441549"><ele>36.0</ele><time>2026-05-03T08:10:06.044Z</time></trkpt><trkpt lat="45.6684014" lon="11.9441868"><ele>36.0</ele><time>2026-05-03T08:10:07.044Z</time></trkpt><trkpt lat="45.6685015" lon="11.944216"><ele>36.0</ele><time>2026-05-03T08:10:08.045Z</time></trkpt><trkpt lat="45.6685863" lon="11.9442332"><ele>36.0</ele><time>2026-05-03T08:10:09.045Z</time></trkpt><trkpt lat="45.6686628" lon="11.9442589"><ele>36.0</ele><time>2026-05-03T08:10:10.043Z</time></trkpt><trkpt lat="45.6687262" lon="11.9443059"><ele>36.0</ele><time>2026-05-03T08:10:11.045Z</time></trkpt><trkpt lat="45.668781" lon="11.9443768"><ele>36.0</ele><time>2026-05-03T08:10:12.044Z</time></trkpt><trkpt lat="45.6688291" lon="11.944445"><ele>36.0</ele><time>2026-05-03T08:10:13.044Z</time></trkpt><trkpt lat="45.668941" lon="11.9444849"><ele>36.0</ele><time>2026-05-03T08:10:15.044Z</time></trkpt><trkpt lat="45.6690561" lon="11.9444166"><ele>36.0</ele><time>2026-05-03T08:10:17.045Z</time></trkpt><trkpt lat="45.6691166" lon="11.9443625"><ele>36.0</ele><time>2026-05-03T08:10:18.045Z</time></trkpt><trkpt lat="45.6691903" lon="11.94432"><ele>36.0</ele><time>2026-05-03T08:10:19.044Z</time></trkpt><trkpt lat="45.6692752" lon="11.9442924"><ele>36.0</ele><time>2026-05-03T08:10:20.044Z</time></trkpt><trkpt lat="45.6693667" lon="11.9442716"><ele>36.0</ele><time>2026-05-03T08:10:21.044Z</time></trkpt><trkpt lat="45.6694654" lon="11.9442608"><ele>36.0</ele><time>2026-05-03T08:10:22.044Z</time></trkpt><trkpt lat="45.6695651" lon="11.944248"><ele>36.25</ele><time>2026-05-03T08:10:23.044Z</time></trkpt><trkpt lat="45.669673" lon="11.9442332"><ele>36.5</ele><time>2026-05-03T08:10:24.044Z</time></trkpt><trkpt lat="45.6697835" lon="11.9442246"><ele>36.75</ele><time>2026-05-03T08:10:25.043Z</time></trkpt><trkpt lat="45.6698984" lon="11.9442228"><ele>37.0</ele><time>2026-05-03T08:10:26.044Z</time></trkpt><trkpt lat="45.6700218" lon="11.9442194"><ele>37.0</ele><time>2026-05-03T08:10:27.045Z</time></trkpt><trkpt lat="45.6701442" lon="11.9442157"><ele>37.0</ele><time>2026-05-03T08:10:28.044Z</time></trkpt><trkpt lat="45.6702646" lon="11.9442159"><ele>37.0</ele><time>2026-05-03T08:10:29.044Z</time></trkpt><trkpt lat="45.6703786" lon="11.9442087"><ele>37.0</ele><time>2026-05-03T08:10:30.045Z</time></trkpt><trkpt lat="45.6704914" lon="11.9442015"><ele>37.2</ele><time>2026-05-03T08:10:31.044Z</time></trkpt><trkpt lat="45.6706043" lon="11.9442031"><ele>37.400000000000006</ele><time>2026-05-03T08:10:32.045Z</time></trkpt><trkpt lat="45.6707152" lon="11.9442084"><ele>37.599999999999994</ele><time>2026-05-03T08:10:33.045Z</time></trkpt><trkpt lat="45.6708212" lon="11.9442207"><ele>37.8</ele><time>2026-05-03T08:10:34.043Z</time></trkpt><trkpt lat="45.6709279" lon="11.9442407"><ele>38.0</ele><time>2026-05-03T08:10:35.044Z</time></trkpt><trkpt lat="45.6710325" lon="11.9442675"><ele>38.4</ele><time>2026-05-03T08:10:36.045Z</time></trkpt><trkpt lat="45.6711324" lon="11.944305"><ele>38.8</ele><time>2026-05-03T08:10:37.045Z</time></trkpt><trkpt lat="45.6712287" lon="11.9443532"><ele>39.2</ele><time>2026-05-03T08:10:38.044Z</time></trkpt><trkpt lat="45.671327" lon="11.9444064"><ele>39.6</ele><time>2026-05-03T08:10:39.043Z</time></trkpt><trkpt lat="45.6714184" lon="11.9444575"><ele>40.0</ele><time>2026-05-03T08:10:40.044Z</time></trkpt><trkpt lat="45.6715047" lon="11.9445011"><ele>40.0</ele><time>2026-05-03T08:10:41.044Z</time></trkpt><trkpt lat="45.6715821" lon="11.9445405"><ele>40.0</ele><time>2026-05-03T08:10:42.043Z</time></trkpt><trkpt lat="45.6716497" lon="11.9445727"><ele>40.0</ele><time>2026-05-03T08:10:43.045Z</time></trkpt><trkpt lat="45.6717173" lon="11.9446082"><ele>40.0</ele><time>2026-05-03T08:10:44.044Z</time></trkpt><trkpt lat="45.6717859" lon="11.944637"><ele>40.0</ele><time>2026-05-03T08:10:45.044Z</time></trkpt><trkpt lat="45.6718599" lon="11.9446516"><ele>40.0</ele><time>2026-05-03T08:10:46.044Z</time></trkpt><trkpt lat="45.6719321" lon="11.9446584"><ele>40.0</ele><time>2026-05-03T08:10:47.044Z</time></trkpt><trkpt lat="45.672004" lon="11.9446564"><ele>39.833333333333336</ele><time>2026-05-03T08:10:48.044Z</time></trkpt><trkpt lat="45.6720816" lon="11.9446491"><ele>39.66666666666667</ele><time>2026-05-03T08:10:49.044Z</time></trkpt><trkpt lat="45.67216" lon="11.9446412"><ele>39.5</ele><time>2026-05-03T08:10:50.043Z</time></trkpt><trkpt lat="45.6722404" lon="11.9446321"><ele>39.333333333333336</ele><time>2026-05-03T08:10:51.043Z</time></trkpt><trkpt lat="45.6723149" lon="11.9446272"><ele>39.166666666666664</ele><time>2026-05-03T08:10:52.044Z</time></trkpt><trkpt lat="45.672387" lon="11.9446198"><ele>39.0</ele><time>2026-05-03T08:10:53.045Z</time></trkpt><trkpt lat="45.6724554" lon="11.9446145"><ele>39.0</ele><time>2026-05-03T08:10:54.043Z</time></trkpt><trkpt lat="45.6725222" lon="11.9446091"><ele>39.0</ele><time>2026-05-03T08:10:55.044Z</time></trkpt><trkpt lat="45.6726383" lon="11.9446063"><ele>39.0</ele><time>2026-05-03T08:10:57.045Z</time></trkpt><trkpt lat="45.6727531" lon="11.9446125"><ele>39.0</ele><time>2026-05-03T08:10:59.044Z</time></trkpt><trkpt lat="45.6728666" lon="11.9446852"><ele>39.0</ele><time>2026-05-03T08:11:01.044Z</time></trkpt><trkpt lat="45.6729251" lon="11.944744"><ele>38.85714285714286</ele><time>2026-05-03T08:11:02.044Z</time></trkpt><trkpt lat="45.6729868" lon="11.9447741"><ele>38.71428571428571</ele><time>2026-05-03T08:11:03.044Z</time></trkpt><trkpt lat="45.6730525" lon="11.944774"><ele>38.57142857142857</ele><time>2026-05-03T08:11:04.043Z</time></trkpt><trkpt lat="45.6731193" lon="11.9447454"><ele>38.42857142857143</ele><time>2026-05-03T08:11:05.043Z</time></trkpt><trkpt lat="45.6731733" lon="11.9446758"><ele>38.28571428571429</ele><time>2026-05-03T08:11:06.045Z</time></trkpt><trkpt lat="45.6732178" lon="11.9445778"><ele>38.14285714285714</ele><time>2026-05-03T08:11:07.043Z</time></trkpt><trkpt lat="45.673258" lon="11.9444719"><ele>38.0</ele><time>2026-05-03T08:11:08.044Z</time></trkpt><trkpt lat="45.6732953" lon="11.9443596"><ele>38.0</ele><time>2026-05-03T08:11:09.043Z</time></trkpt><trkpt lat="45.6733345" lon="11.9442395"><ele>38.0</ele><time>2026-05-03T08:11:10.045Z</time></trkpt><trkpt lat="45.6733752" lon="11.9441164"><ele>38.0</ele><time>2026-05-03T08:11:11.044Z</time></trkpt><trkpt lat="45.6734173" lon="11.9439888"><ele>38.0</ele><time>2026-05-03T08:11:12.044Z</time></trkpt><trkpt lat="45.6734579" lon="11.9438579"><ele>38.0</ele><time>2026-05-03T08:11:13.044Z</time></trkpt><trkpt lat="45.6734994" lon="11.9437362"><ele>38.0</ele><time>2026-05-03T08:11:14.044Z</time></trkpt><trkpt lat="45.6735419" lon="11.9436188"><ele>38.0</ele><time>2026-05-03T08:11:15.044Z</time></trkpt><trkpt lat="45.6735917" lon="11.9435119"><ele>38.0</ele><time>2026-05-03T08:11:16.044Z</time></trkpt><trkpt lat="45.6736462" lon="11.9434141"><ele>38.0</ele><time>2026-05-03T08:11:17.044Z</time></trkpt><trkpt lat="45.6737088" lon="11.9433271"><ele>38.0</ele><time>2026-05-03T08:11:18.044Z</time></trkpt><trkpt lat="45.6737834" lon="11.9432474"><ele>38.599999999999994</ele><time>2026-05-03T08:11:19.044Z</time></trkpt><trkpt lat="45.6738638" lon="11.9431698"><ele>39.199999999999996</ele><time>2026-05-03T08:11:20.044Z</time></trkpt><trkpt lat="45.6739555" lon="11.9431016"><ele>39.8</ele><time>2026-05-03T08:11:21.045Z</time></trkpt><trkpt lat="45.6740604" lon="11.9430473"><ele>40.4</ele><time>2026-05-03T08:11:22.044Z</time></trkpt><trkpt lat="45.6741663" lon="11.9430068"><ele>41.0</ele><time>2026-05-03T08:11:23.044Z</time></trkpt><trkpt lat="45.6742765" lon="11.9429763"><ele>41.0</ele><time>2026-05-03T08:11:24.044Z</time></trkpt><trkpt lat="45.6743855" lon="11.9429522"><ele>41.0</ele><time>2026-05-03T08:11:25.043Z</time></trkpt><trkpt lat="45.6744953" lon="11.9429257"><ele>41.0</ele><time>2026-05-03T08:11:26.044Z</time></trkpt><trkpt lat="45.6746071" lon="11.9428965"><ele>41.0</ele><time>2026-05-03T08:11:27.044Z</time></trkpt><trkpt lat="45.6747158" lon="11.9428724"><ele>41.0</ele><time>2026-05-03T08:11:28.044Z</time></trkpt><trkpt lat="45.6748275" lon="11.9428467"><ele>41.199999999999996</ele><time>2026-05-03T08:11:29.043Z</time></trkpt><trkpt lat="45.674931" lon="11.9428267"><ele>41.4</ele><time>2026-05-03T08:11:30.045Z</time></trkpt><trkpt lat="45.6750297" lon="11.9428009"><ele>41.6</ele><time>2026-05-03T08:11:31.044Z</time></trkpt><trkpt lat="45.6751304" lon="11.9427824"><ele>41.8</ele><time>2026-05-03T08:11:32.044Z</time></trkpt><trkpt lat="45.6752301" lon="11.9427612"><ele>42.0</ele><time>2026-05-03T08:11:33.044Z</time></trkpt><trkpt lat="45.6753266" lon="11.9427423"><ele>42.0</ele><time>2026-05-03T08:11:34.044Z</time></trkpt><trkpt lat="45.675421" lon="11.9427227"><ele>42.0</ele><time>2026-05-03T08:11:35.044Z</time></trkpt><trkpt lat="45.6755151" lon="11.9427004"><ele>42.0</ele><time>2026-05-03T08:11:36.045Z</time></trkpt><trkpt lat="45.6756029" lon="11.9426789"><ele>42.0</ele><time>2026-05-03T08:11:37.044Z</time></trkpt><trkpt lat="45.675688" lon="11.9426564"><ele>42.0</ele><time>2026-05-03T08:11:38.045Z</time></trkpt><trkpt lat="45.6757708" lon="11.9426447"><ele>42.0</ele><time>2026-05-03T08:11:39.045Z</time></trkpt><trkpt lat="45.6758447" lon="11.9426433"><ele>42.0</ele><time>2026-05-03T08:11:40.045Z</time></trkpt><trkpt lat="45.6759161" lon="11.9426506"><ele>42.0</ele><time>2026-05-03T08:11:41.044Z</time></trkpt><trkpt lat="45.6759881" lon="11.9426732"><ele>42.0</ele><time>2026-05-03T08:11:42.044Z</time></trkpt><trkpt lat="45.6760577" lon="11.9426954"><ele>42.0</ele><time>2026-05-03T08:11:43.045Z</time></trkpt><trkpt lat="45.6761323" lon="11.9426928"><ele>42.0</ele><time>2026-05-03T08:11:44.044Z</time></trkpt><trkpt lat="45.6762066" lon="11.9426669"><ele>42.0</ele><time>2026-05-03T08:11:45.043Z</time></trkpt><trkpt lat="45.6762779" lon="11.9426258"><ele>41.6</ele><time>2026-05-03T08:11:46.044Z</time></trkpt><trkpt lat="45.6763529" lon="11.9425731"><ele>41.2</ele><time>2026-05-03T08:11:47.044Z</time></trkpt><trkpt lat="45.6764382" lon="11.9425286"><ele>40.8</ele><time>2026-05-03T08:11:48.043Z</time></trkpt><trkpt lat="45.676536" lon="11.9424876"><ele>40.4</ele><time>2026-05-03T08:11:49.045Z</time></trkpt><trkpt lat="45.6766417" lon="11.9424567"><ele>40.0</ele><time>2026-05-03T08:11:50.044Z</time></trkpt><trkpt lat="45.6767459" lon="11.9424271"><ele>40.0</ele><time>2026-05-03T08:11:51.044Z</time></trkpt><trkpt lat="45.6768543" lon="11.9423974"><ele>40.0</ele><time>2026-05-03T08:11:52.044Z</time></trkpt><trkpt lat="45.6769629" lon="11.9423661"><ele>40.0</ele><time>2026-05-03T08:11:53.045Z</time></trkpt><trkpt lat="45.6770699" lon="11.9423349"><ele>40.0</ele><time>2026-05-03T08:11:54.044Z</time></trkpt><trkpt lat="45.6771762" lon="11.9423049"><ele>40.0</ele><time>2026-05-03T08:11:55.045Z</time></trkpt><trkpt lat="45.6772779" lon="11.9422729"><ele>40.0</ele><time>2026-05-03T08:11:56.044Z</time></trkpt><trkpt lat="45.6773741" lon="11.9422429"><ele>40.0</ele><time>2026-05-03T08:11:57.044Z</time></trkpt><trkpt lat="45.6774642" lon="11.9422131"><ele>40.0</ele><time>2026-05-03T08:11:58.044Z</time></trkpt><trkpt lat="45.6775575" lon="11.9421835"><ele>40.0</ele><time>2026-05-03T08:11:59.044Z</time></trkpt><trkpt lat="45.6776488" lon="11.9421509"><ele>40.0</ele><time>2026-05-03T08:12:00.044Z</time></trkpt><trkpt lat="45.6777386" lon="11.9421228"><ele>39.833333333333336</ele><time>2026-05-03T08:12:01.044Z</time></trkpt><trkpt lat="45.6778277" lon="11.9420972"><ele>39.66666666666667</ele><time>2026-05-03T08:12:02.043Z</time></trkpt><trkpt lat="45.6779138" lon="11.9420725"><ele>39.5</ele><time>2026-05-03T08:12:03.045Z</time></trkpt><trkpt lat="45.6779928" lon="11.9420596"><ele>39.333333333333336</ele><time>2026-05-03T08:12:04.044Z</time></trkpt><trkpt lat="45.6780631" lon="11.9420536"><ele>39.166666666666664</ele><time>2026-05-03T08:12:05.044Z</time></trkpt><trkpt lat="45.6781326" lon="11.9420627"><ele>39.0</ele><time>2026-05-03T08:12:06.043Z</time></trkpt><trkpt lat="45.6781986" lon="11.9420745"><ele>39.0</ele><time>2026-05-03T08:12:07.044Z</time></trkpt><trkpt lat="45.678266" lon="11.942059"><ele>39.0</ele><time>2026-05-03T08:12:08.044Z</time></trkpt><trkpt lat="45.6783325" lon="11.9420233"><ele>39.0</ele><time>2026-05-03T08:12:09.043Z</time></trkpt><trkpt lat="45.6783972" lon="11.9419727"><ele>39.0</ele><time>2026-05-03T08:12:10.044Z</time></trkpt><trkpt lat="45.6784694" lon="11.9419199"><ele>39.0</ele><time>2026-05-03T08:12:11.045Z</time></trkpt><trkpt lat="45.6785567" lon="11.9418756"><ele>39.0</ele><time>2026-05-03T08:12:12.044Z</time></trkpt><trkpt lat="45.6786513" lon="11.9418346"><ele>39.25</ele><time>2026-05-03T08:12:13.044Z</time></trkpt><trkpt lat="45.6787602" lon="11.9417964"><ele>39.5</ele><time>2026-05-03T08:12:14.045Z</time></trkpt><trkpt lat="45.6788763" lon="11.9417582"><ele>39.75</ele><time>2026-05-03T08:12:15.044Z</time></trkpt><trkpt lat="45.6790004" lon="11.9417208"><ele>40.0</ele><time>2026-05-03T08:12:16.043Z</time></trkpt><trkpt lat="45.6791234" lon="11.9416771"><ele>40.0</ele><time>2026-05-03T08:12:17.044Z</time></trkpt><trkpt lat="45.6792489" lon="11.9416352"><ele>40.0</ele><time>2026-05-03T08:12:18.044Z</time></trkpt><trkpt lat="45.6793725" lon="11.9415927"><ele>40.0</ele><time>2026-05-03T08:12:19.044Z</time></trkpt><trkpt lat="45.679493" lon="11.9415554"><ele>40.0</ele><time>2026-05-03T08:12:20.043Z</time></trkpt><trkpt lat="45.679608" lon="11.9415162"><ele>40.4</ele><time>2026-05-03T08:12:21.044Z</time></trkpt><trkpt lat="45.6797223" lon="11.9414788"><ele>40.8</ele><time>2026-05-03T08:12:22.044Z</time></trkpt><trkpt lat="45.6798257" lon="11.9414454"><ele>41.2</ele><time>2026-05-03T08:12:23.043Z</time></trkpt><trkpt lat="45.6799269" lon="11.9414156"><ele>41.6</ele><time>2026-05-03T08:12:24.045Z</time></trkpt><trkpt lat="45.6800202" lon="11.9413861"><ele>42.0</ele><time>2026-05-03T08:12:25.044Z</time></trkpt><trkpt lat="45.6801051" lon="11.9413573"><ele>42.0</ele><time>2026-05-03T08:12:26.044Z</time></trkpt><trkpt lat="45.6801853" lon="11.9413231"><ele>42.0</ele><time>2026-05-03T08:12:27.044Z</time></trkpt><trkpt lat="45.6802678" lon="11.9412851"><ele>42.0</ele><time>2026-05-03T08:12:28.043Z</time></trkpt><trkpt lat="45.6803465" lon="11.9412358"><ele>42.0</ele><time>2026-05-03T08:12:29.043Z</time></trkpt><trkpt lat="45.680418" lon="11.941172"><ele>42.0</ele><time>2026-05-03T08:12:30.044Z</time></trkpt><trkpt lat="45.6804672" lon="11.9410795"><ele>42.0</ele><time>2026-05-03T08:12:31.044Z</time></trkpt><trkpt lat="45.6804932" lon="11.9409661"><ele>41.833333333333336</ele><time>2026-05-03T08:12:32.044Z</time></trkpt><trkpt lat="45.6804917" lon="11.9408449"><ele>41.666666666666664</ele><time>2026-05-03T08:12:33.044Z</time></trkpt><trkpt lat="45.6804846" lon="11.9407257"><ele>41.5</ele><time>2026-05-03T08:12:34.044Z</time></trkpt><trkpt lat="45.680484" lon="11.9406257"><ele>41.33333333333333</ele><time>2026-05-03T08:12:35.044Z</time></trkpt><trkpt lat="45.6804947" lon="11.9405317"><ele>41.166666666666664</ele><time>2026-05-03T08:12:36.043Z</time></trkpt><trkpt lat="45.6805195" lon="11.9404392"><ele>41.0</ele><time>2026-05-03T08:12:37.045Z</time></trkpt><trkpt lat="45.6805715" lon="11.9403591"><ele>41.0</ele><time>2026-05-03T08:12:38.045Z</time></trkpt><trkpt lat="45.6806415" lon="11.9403025"><ele>41.0</ele><time>2026-05-03T08:12:39.044Z</time></trkpt><trkpt lat="45.680724" lon="11.9402674"><ele>41.0</ele><time>2026-05-03T08:12:40.045Z</time></trkpt><trkpt lat="45.6808112" lon="11.9402281"><ele>41.0</ele><time>2026-05-03T08:12:41.044Z</time></trkpt><trkpt lat="45.680905" lon="11.9401837"><ele>41.0</ele><time>2026-05-03T08:12:42.044Z</time></trkpt><trkpt lat="45.6810069" lon="11.9401356"><ele>41.25</ele><time>2026-05-03T08:12:43.045Z</time></trkpt><trkpt lat="45.6811201" lon="11.9400926"><ele>41.5</ele><time>2026-05-03T08:12:44.044Z</time></trkpt><trkpt lat="45.6812407" lon="11.9400466"><ele>41.75</ele><time>2026-05-03T08:12:45.043Z</time></trkpt><trkpt lat="45.6813629" lon="11.9400031"><ele>42.0</ele><time>2026-05-03T08:12:46.045Z</time></trkpt><trkpt lat="45.681493" lon="11.9399643"><ele>41.5</ele><time>2026-05-03T08:12:47.044Z</time></trkpt><trkpt lat="45.6816281" lon="11.9399218"><ele>41.0</ele><time>2026-05-03T08:12:48.044Z</time></trkpt><trkpt lat="45.6817687" lon="11.9398782"><ele>40.5</ele><time>2026-05-03T08:12:49.044Z</time></trkpt><trkpt lat="45.6819101" lon="11.9398326"><ele>40.0</ele><time>2026-05-03T08:12:50.045Z</time></trkpt><trkpt lat="45.6820561" lon="11.9397833"><ele>40.0</ele><time>2026-05-03T08:12:51.045Z</time></trkpt><trkpt lat="45.6822064" lon="11.9397325"><ele>40.0</ele><time>2026-05-03T08:12:52.044Z</time></trkpt><trkpt lat="45.6823608" lon="11.9396808"><ele>40.0</ele><time>2026-05-03T08:12:53.045Z</time></trkpt><trkpt lat="45.6825194" lon="11.9396339"><ele>40.0</ele><time>2026-05-03T08:12:54.044Z</time></trkpt><trkpt lat="45.6826806" lon="11.9395834"><ele>40.0</ele><time>2026-05-03T08:12:55.044Z</time></trkpt><trkpt lat="45.6828476" lon="11.9395332"><ele>40.0</ele><time>2026-05-03T08:12:56.044Z</time></trkpt><trkpt lat="45.6830172" lon="11.9394796"><ele>40.0</ele><time>2026-05-03T08:12:57.044Z</time></trkpt><trkpt lat="45.6831892" lon="11.9394235"><ele>40.0</ele><time>2026-05-03T08:12:58.045Z</time></trkpt><trkpt lat="45.6833613" lon="11.9393634"><ele>40.0</ele><time>2026-05-03T08:12:59.044Z</time></trkpt><trkpt lat="45.6835312" lon="11.9393082"><ele>40.333333333333336</ele><time>2026-05-03T08:13:00.045Z</time></trkpt><trkpt lat="45.6836986" lon="11.9392515"><ele>40.666666666666664</ele><time>2026-05-03T08:13:01.044Z</time></trkpt><trkpt lat="45.6838646" lon="11.9391952"><ele>41.0</ele><time>2026-05-03T08:13:02.045Z</time></trkpt><trkpt lat="45.68403" lon="11.9391402"><ele>41.33333333333333</ele><time>2026-05-03T08:13:03.044Z</time></trkpt><trkpt lat="45.6841945" lon="11.9390836"><ele>41.666666666666664</ele><time>2026-05-03T08:13:04.044Z</time></trkpt><trkpt lat="45.684354" lon="11.9390301"><ele>42.0</ele><time>2026-05-03T08:13:05.044Z</time></trkpt><trkpt lat="45.6845167" lon="11.9389785"><ele>42.75</ele><time>2026-05-03T08:13:06.044Z</time></trkpt><trkpt lat="45.684668" lon="11.9389375"><ele>43.5</ele><time>2026-05-03T08:13:07.044Z</time></trkpt><trkpt lat="45.6847973" lon="11.9389043"><ele>44.25</ele><time>2026-05-03T08:13:08.044Z</time></trkpt><trkpt lat="45.6849159" lon="11.9388522"><ele>45.0</ele><time>2026-05-03T08:13:09.044Z</time></trkpt><trkpt lat="45.685019" lon="11.9387808"><ele>45.0</ele><time>2026-05-03T08:13:10.043Z</time></trkpt><trkpt lat="45.6850978" lon="11.9386738"><ele>45.0</ele><time>2026-05-03T08:13:11.045Z</time></trkpt><trkpt lat="45.6851475" lon="11.9385476"><ele>45.0</ele><time>2026-05-03T08:13:12.045Z</time></trkpt><trkpt lat="45.6851668" lon="11.9384066"><ele>45.0</ele><time>2026-05-03T08:13:13.044Z</time></trkpt><trkpt lat="45.6851444" lon="11.9382598"><ele>45.0</ele><time>2026-05-03T08:13:14.045Z</time></trkpt><trkpt lat="45.6850881" lon="11.9381316"><ele>44.5</ele><time>2026-05-03T08:13:15.043Z</time></trkpt><trkpt lat="45.6849991" lon="11.9380229"><ele>44.0</ele><time>2026-05-03T08:13:16.044Z</time></trkpt><trkpt lat="45.6848874" lon="11.9379502"><ele>43.5</ele><time>2026-05-03T08:13:17.045Z</time></trkpt><trkpt lat="45.6847653" lon="11.93788"><ele>43.0</ele><time>2026-05-03T08:13:18.044Z</time></trkpt><trkpt lat="45.6846653" lon="11.9377807"><ele>43.0</ele><time>2026-05-03T08:13:19.043Z</time></trkpt><trkpt lat="45.6845832" lon="11.9376434"><ele>43.0</ele><time>2026-05-03T08:13:20.044Z</time></trkpt><trkpt lat="45.684529" lon="11.9374708"><ele>43.0</ele><time>2026-05-03T08:13:21.045Z</time></trkpt><trkpt lat="45.6844967" lon="11.9372743"><ele>43.0</ele><time>2026-05-03T08:13:22.044Z</time></trkpt><trkpt lat="45.6844652" lon="11.9370669"><ele>43.333333333333336</ele><time>2026-05-03T08:13:23.044Z</time></trkpt><trkpt lat="45.6844328" lon="11.9368448"><ele>43.666666666666664</ele><time>2026-05-03T08:13:24.044Z</time></trkpt><trkpt lat="45.6844041" lon="11.9366092"><ele>44.0</ele><time>2026-05-03T08:13:25.044Z</time></trkpt><trkpt lat="45.6843796" lon="11.9363739"><ele>43.666666666666664</ele><time>2026-05-03T08:13:26.045Z</time></trkpt><trkpt lat="45.6843574" lon="11.9361325"><ele>43.333333333333336</ele><time>2026-05-03T08:13:27.044Z</time></trkpt><trkpt lat="45.684334" lon="11.9358861"><ele>43.0</ele><time>2026-05-03T08:13:28.044Z</time></trkpt><trkpt lat="45.6843087" lon="11.9356368"><ele>43.0</ele><time>2026-05-03T08:13:29.045Z</time></trkpt><trkpt lat="45.684283" lon="11.9353868"><ele>43.0</ele><time>2026-05-03T08:13:30.044Z</time></trkpt><trkpt lat="45.6842595" lon="11.9351343"><ele>43.0</ele><time>2026-05-03T08:13:31.043Z</time></trkpt><trkpt lat="45.6842375" lon="11.9348802"><ele>42.66666666666667</ele><time>2026-05-03T08:13:32.044Z</time></trkpt><trkpt lat="45.6842149" lon="11.9346217"><ele>42.333333333333336</ele><time>2026-05-03T08:13:33.045Z</time></trkpt><trkpt lat="45.6841946" lon="11.9343657"><ele>42.0</ele><time>2026-05-03T08:13:34.044Z</time></trkpt><trkpt lat="45.6841746" lon="11.9341175"><ele>42.0</ele><time>2026-05-03T08:13:35.044Z</time></trkpt><trkpt lat="45.684154" lon="11.9338718"><ele>42.0</ele><time>2026-05-03T08:13:36.045Z</time></trkpt><trkpt lat="45.6841309" lon="11.9336257"><ele>42.0</ele><time>2026-05-03T08:13:37.044Z</time></trkpt><trkpt lat="45.6841095" lon="11.9333797"><ele>42.333333333333336</ele><time>2026-05-03T08:13:38.044Z</time></trkpt><trkpt lat="45.6840895" lon="11.9331346"><ele>42.66666666666667</ele><time>2026-05-03T08:13:39.043Z</time></trkpt><trkpt lat="45.68407" lon="11.932891"><ele>43.0</ele><time>2026-05-03T08:13:40.044Z</time></trkpt><trkpt lat="45.6840501" lon="11.9326452"><ele>42.66666666666667</ele><time>2026-05-03T08:13:41.045Z</time></trkpt><trkpt lat="45.6840306" lon="11.9323992"><ele>42.333333333333336</ele><time>2026-05-03T08:13:42.044Z</time></trkpt><trkpt lat="45.6840088" lon="11.9321535"><ele>42.0</ele><time>2026-05-03T08:13:43.044Z</time></trkpt><trkpt lat="45.6839846" lon="11.9319045"><ele>42.333333333333336</ele><time>2026-05-03T08:13:44.043Z</time></trkpt><trkpt lat="45.683962" lon="11.931653"><ele>42.66666666666667</ele><time>2026-05-03T08:13:45.044Z</time></trkpt><trkpt lat="45.6839402" lon="11.9314002"><ele>43.0</ele><time>2026-05-03T08:13:46.044Z</time></trkpt><trkpt lat="45.6839175" lon="11.9311515"><ele>43.0</ele><time>2026-05-03T08:13:47.043Z</time></trkpt><trkpt lat="45.6838956" lon="11.930915"><ele>43.0</ele><time>2026-05-03T08:13:48.043Z</time></trkpt><trkpt lat="45.6838743" lon="11.9306874"><ele>43.0</ele><time>2026-05-03T08:13:49.044Z</time></trkpt><trkpt lat="45.6838543" lon="11.9304589"><ele>43.0</ele><time>2026-05-03T08:13:50.044Z</time></trkpt><trkpt lat="45.6838343" lon="11.9302316"><ele>43.0</ele><time>2026-05-03T08:13:51.044Z</time></trkpt><trkpt lat="45.6838151" lon="11.9300048"><ele>43.0</ele><time>2026-05-03T08:13:52.044Z</time></trkpt><trkpt lat="45.6837953" lon="11.9297863"><ele>43.25</ele><time>2026-05-03T08:13:53.044Z</time></trkpt><trkpt lat="45.6837772" lon="11.9295695"><ele>43.5</ele><time>2026-05-03T08:13:54.045Z</time></trkpt><trkpt lat="45.6837596" lon="11.9293694"><ele>43.75</ele><time>2026-05-03T08:13:55.043Z</time></trkpt><trkpt lat="45.6837416" lon="11.929175"><ele>44.0</ele><time>2026-05-03T08:13:56.044Z</time></trkpt><trkpt lat="45.6837248" lon="11.9289832"><ele>44.0</ele><time>2026-05-03T08:13:57.045Z</time></trkpt><trkpt lat="45.6837065" lon="11.9287911"><ele>44.0</ele><time>2026-05-03T08:13:58.044Z</time></trkpt><trkpt lat="45.68369" lon="11.9285981"><ele>44.0</ele><time>2026-05-03T08:13:59.044Z</time></trkpt><trkpt lat="45.6836738" lon="11.928417"><ele>44.0</ele><time>2026-05-03T08:14:00.044Z</time></trkpt><trkpt lat="45.6836575" lon="11.9282381"><ele>43.800000000000004</ele><time>2026-05-03T08:14:01.044Z</time></trkpt><trkpt lat="45.6836447" lon="11.9280668"><ele>43.6</ele><time>2026-05-03T08:14:02.043Z</time></trkpt><trkpt lat="45.6836302" lon="11.9279025"><ele>43.4</ele><time>2026-05-03T08:14:03.044Z</time></trkpt><trkpt lat="45.6836168" lon="11.927749"><ele>43.2</ele><time>2026-05-03T08:14:04.044Z</time></trkpt><trkpt lat="45.6836047" lon="11.9276103"><ele>43.0</ele><time>2026-05-03T08:14:05.045Z</time></trkpt><trkpt lat="45.683597" lon="11.9275013"><ele>42.833333333333336</ele><time>2026-05-03T08:14:06.043Z</time></trkpt><trkpt lat="45.6835947" lon="11.9273889"><ele>42.66666666666667</ele><time>2026-05-03T08:14:08.045Z</time></trkpt><trkpt lat="45.6836207" lon="11.9272796"><ele>42.5</ele><time>2026-05-03T08:14:11.044Z</time></trkpt><trkpt lat="45.6836576" lon="11.9272061"><ele>42.333333333333336</ele><time>2026-05-03T08:14:12.045Z</time></trkpt><trkpt lat="45.6837085" lon="11.9271342"><ele>42.166666666666664</ele><time>2026-05-03T08:14:13.045Z</time></trkpt><trkpt lat="45.6837755" lon="11.9270877"><ele>42.0</ele><time>2026-05-03T08:14:14.044Z</time></trkpt><trkpt lat="45.6838575" lon="11.9270764"><ele>42.400000000000006</ele><time>2026-05-03T08:14:15.045Z</time></trkpt><trkpt lat="45.6839465" lon="11.9270901"><ele>42.800000000000004</ele><time>2026-05-03T08:14:16.044Z</time></trkpt><trkpt lat="45.6840387" lon="11.9271051"><ele>43.2</ele><time>2026-05-03T08:14:17.044Z</time></trkpt><trkpt lat="45.6841389" lon="11.9271181"><ele>43.6</ele><time>2026-05-03T08:14:18.045Z</time></trkpt><trkpt lat="45.6842434" lon="11.9271289"><ele>44.0</ele><time>2026-05-03T08:14:19.044Z</time></trkpt><trkpt lat="45.6843519" lon="11.9271384"><ele>44.25</ele><time>2026-05-03T08:14:20.043Z</time></trkpt><trkpt lat="45.6844623" lon="11.9271485"><ele>44.5</ele><time>2026-05-03T08:14:21.044Z</time></trkpt><trkpt lat="45.6845805" lon="11.9271594"><ele>44.75</ele><time>2026-05-03T08:14:22.045Z</time></trkpt><trkpt lat="45.6846982" lon="11.9271749"><ele>45.0</ele><time>2026-05-03T08:14:23.043Z</time></trkpt><trkpt lat="45.6848197" lon="11.9271895"><ele>45.0</ele><time>2026-05-03T08:14:24.045Z</time></trkpt><trkpt lat="45.684943" lon="11.9272045"><ele>45.0</ele><time>2026-05-03T08:14:25.045Z</time></trkpt><trkpt lat="45.6850712" lon="11.9272212"><ele>45.0</ele><time>2026-05-03T08:14:26.044Z</time></trkpt><trkpt lat="45.6851984" lon="11.9272421"><ele>45.0</ele><time>2026-05-03T08:14:27.045Z</time></trkpt><trkpt lat="45.6853296" lon="11.9272584"><ele>45.0</ele><time>2026-05-03T08:14:28.044Z</time></trkpt><trkpt lat="45.6854617" lon="11.9272733"><ele>45.0</ele><time>2026-05-03T08:14:29.045Z</time></trkpt><trkpt lat="45.6855902" lon="11.9272867"><ele>45.0</ele><time>2026-05-03T08:14:30.045Z</time></trkpt><trkpt lat="45.6857198" lon="11.9273043"><ele>45.0</ele><time>2026-05-03T08:14:31.045Z</time></trkpt><trkpt lat="45.6858508" lon="11.9273173"><ele>45.0</ele><time>2026-05-03T08:14:32.043Z</time></trkpt><trkpt lat="45.6859819" lon="11.9273352"><ele>45.0</ele><time>2026-05-03T08:14:33.044Z</time></trkpt><trkpt lat="45.6861137" lon="11.9273499"><ele>45.0</ele><time>2026-05-03T08:14:34.044Z</time></trkpt><trkpt lat="45.686243" lon="11.9273667"><ele>45.0</ele><time>2026-05-03T08:14:35.045Z</time></trkpt><trkpt lat="45.686372" lon="11.9273793"><ele>44.75</ele><time>2026-05-03T08:14:36.045Z</time></trkpt><trkpt lat="45.6864994" lon="11.9273951"><ele>44.5</ele><time>2026-05-03T08:14:37.045Z</time></trkpt><trkpt lat="45.686621" lon="11.9274076"><ele>44.25</ele><time>2026-05-03T08:14:38.044Z</time></trkpt><trkpt lat="45.6867458" lon="11.9274251"><ele>44.0</ele><time>2026-05-03T08:14:39.044Z</time></trkpt><trkpt lat="45.6868619" lon="11.9274397"><ele>44.2</ele><time>2026-05-03T08:14:40.045Z</time></trkpt><trkpt lat="45.686972" lon="11.9274545"><ele>44.400000000000006</ele><time>2026-05-03T08:14:41.045Z</time></trkpt><trkpt lat="45.6870796" lon="11.9274664"><ele>44.6</ele><time>2026-05-03T08:14:42.045Z</time></trkpt><trkpt lat="45.6871842" lon="11.9274787"><ele>44.8</ele><time>2026-05-03T08:14:43.046Z</time></trkpt><trkpt lat="45.6872849" lon="11.9274902"><ele>45.0</ele><time>2026-05-03T08:14:44.045Z</time></trkpt><trkpt lat="45.68738" lon="11.9275021"><ele>45.0</ele><time>2026-05-03T08:14:45.045Z</time></trkpt><trkpt lat="45.6874722" lon="11.9275175"><ele>45.0</ele><time>2026-05-03T08:14:46.045Z</time></trkpt><trkpt lat="45.687566" lon="11.9275359"><ele>45.0</ele><time>2026-05-03T08:14:47.044Z</time></trkpt><trkpt lat="45.6876525" lon="11.9275541"><ele>45.0</ele><time>2026-05-03T08:14:48.045Z</time></trkpt><trkpt lat="45.6877221" lon="11.9275717"><ele>45.0</ele><time>2026-05-03T08:14:49.045Z</time></trkpt><trkpt lat="45.6878411" lon="11.9275879"><ele>45.4</ele><time>2026-05-03T08:14:51.046Z</time></trkpt><trkpt lat="45.6879655" lon="11.9276263"><ele>45.8</ele><time>2026-05-03T08:14:53.045Z</time></trkpt><trkpt lat="45.6880391" lon="11.9276584"><ele>46.2</ele><time>2026-05-03T08:14:54.045Z</time></trkpt><trkpt lat="45.6881241" lon="11.9276767"><ele>46.6</ele><time>2026-05-03T08:14:55.046Z</time></trkpt><trkpt lat="45.6882106" lon="11.9276689"><ele>47.0</ele><time>2026-05-03T08:14:56.045Z</time></trkpt><trkpt lat="45.6882973" lon="11.9276481"><ele>47.0</ele><time>2026-05-03T08:14:57.045Z</time></trkpt><trkpt lat="45.6883921" lon="11.9276266"><ele>47.0</ele><time>2026-05-03T08:14:58.045Z</time></trkpt><trkpt lat="45.6884907" lon="11.9276116"><ele>47.0</ele><time>2026-05-03T08:14:59.045Z</time></trkpt><trkpt lat="45.6886011" lon="11.9276016"><ele>47.0</ele><time>2026-05-03T08:15:00.045Z</time></trkpt><trkpt lat="45.6887214" lon="11.9275984"><ele>47.0</ele><time>2026-05-03T08:15:01.044Z</time></trkpt><trkpt lat="45.6888524" lon="11.9275965"><ele>47.0</ele><time>2026-05-03T08:15:02.045Z</time></trkpt><trkpt lat="45.6889801" lon="11.9275941"><ele>47.0</ele><time>2026-05-03T08:15:03.046Z</time></trkpt><trkpt lat="45.6891068" lon="11.9275916"><ele>47.0</ele><time>2026-05-03T08:15:04.045Z</time></trkpt><trkpt lat="45.6892379" lon="11.9275898"><ele>47.0</ele><time>2026-05-03T08:15:05.045Z</time></trkpt><trkpt lat="45.6893728" lon="11.927593"><ele>46.75</ele><time>2026-05-03T08:15:06.046Z</time></trkpt><trkpt lat="45.6895082" lon="11.9275945"><ele>46.5</ele><time>2026-05-03T08:15:07.045Z</time></trkpt><trkpt lat="45.6896413" lon="11.9275919"><ele>46.25</ele><time>2026-05-03T08:15:08.044Z</time></trkpt><trkpt lat="45.689775" lon="11.9275907"><ele>46.0</ele><time>2026-05-03T08:15:09.045Z</time></trkpt><trkpt lat="45.689906" lon="11.9275894"><ele>46.0</ele><time>2026-05-03T08:15:10.045Z</time></trkpt><trkpt lat="45.6900362" lon="11.9275907"><ele>46.0</ele><time>2026-05-03T08:15:11.046Z</time></trkpt><trkpt lat="45.6901729" lon="11.9275903"><ele>46.0</ele><time>2026-05-03T08:15:12.045Z</time></trkpt><trkpt lat="45.6903124" lon="11.9275909"><ele>46.0</ele><time>2026-05-03T08:15:13.045Z</time></trkpt><trkpt lat="45.6904512" lon="11.927591"><ele>46.0</ele><time>2026-05-03T08:15:14.045Z</time></trkpt><trkpt lat="45.6905882" lon="11.9275895"><ele>46.0</ele><time>2026-05-03T08:15:15.045Z</time></trkpt><trkpt lat="45.6907258" lon="11.9275892"><ele>46.0</ele><time>2026-05-03T08:15:16.046Z</time></trkpt><trkpt lat="45.6908584" lon="11.9275893"><ele>46.0</ele><time>2026-05-03T08:15:17.046Z</time></trkpt><trkpt lat="45.6909918" lon="11.9275889"><ele>46.0</ele><time>2026-05-03T08:15:18.044Z</time></trkpt><trkpt lat="45.6911244" lon="11.9275931"><ele>46.0</ele><time>2026-05-03T08:15:19.045Z</time></trkpt><trkpt lat="45.6912626" lon="11.9275932"><ele>46.0</ele><time>2026-05-03T08:15:20.045Z</time></trkpt><trkpt lat="45.6914023" lon="11.9275933"><ele>46.0</ele><time>2026-05-03T08:15:21.044Z</time></trkpt><trkpt lat="45.6915385" lon="11.9275915"><ele>46.0</ele><time>2026-05-03T08:15:22.046Z</time></trkpt><trkpt lat="45.6916749" lon="11.9275907"><ele>46.0</ele><time>2026-05-03T08:15:23.046Z</time></trkpt><trkpt lat="45.6918147" lon="11.9275888"><ele>46.0</ele><time>2026-05-03T08:15:24.045Z</time></trkpt><trkpt lat="45.6919612" lon="11.9275891"><ele>46.0</ele><time>2026-05-03T08:15:25.045Z</time></trkpt><trkpt lat="45.6921089" lon="11.9275893"><ele>46.0</ele><time>2026-05-03T08:15:26.044Z</time></trkpt><trkpt lat="45.6922591" lon="11.9275892"><ele>46.0</ele><time>2026-05-03T08:15:27.045Z</time></trkpt><trkpt lat="45.6924109" lon="11.9275872"><ele>46.0</ele><time>2026-05-03T08:15:28.045Z</time></trkpt><trkpt lat="45.6925678" lon="11.9275884"><ele>46.0</ele><time>2026-05-03T08:15:29.045Z</time></trkpt><trkpt lat="45.6927229" lon="11.9275895"><ele>46.0</ele><time>2026-05-03T08:15:30.046Z</time></trkpt><trkpt lat="45.6928766" lon="11.9275902"><ele>46.0</ele><time>2026-05-03T08:15:31.046Z</time></trkpt><trkpt lat="45.6930267" lon="11.9275897"><ele>46.25</ele><time>2026-05-03T08:15:32.045Z</time></trkpt><trkpt lat="45.6931723" lon="11.9275867"><ele>46.5</ele><time>2026-05-03T08:15:33.046Z</time></trkpt><trkpt lat="45.6933157" lon="11.9275889"><ele>46.75</ele><time>2026-05-03T08:15:34.044Z</time></trkpt><trkpt lat="45.6934596" lon="11.9275868"><ele>47.0</ele><time>2026-05-03T08:15:35.045Z</time></trkpt><trkpt lat="45.6936076" lon="11.9275901"><ele>47.5</ele><time>2026-05-03T08:15:36.046Z</time></trkpt><trkpt lat="45.6937551" lon="11.9275901"><ele>48.0</ele><time>2026-05-03T08:15:37.045Z</time></trkpt><trkpt lat="45.6939043" lon="11.9275916"><ele>48.5</ele><time>2026-05-03T08:15:38.044Z</time></trkpt><trkpt lat="45.6940536" lon="11.9275908"><ele>49.0</ele><time>2026-05-03T08:15:39.044Z</time></trkpt><trkpt lat="45.6942025" lon="11.9275935"><ele>49.0</ele><time>2026-05-03T08:15:40.045Z</time></trkpt><trkpt lat="45.6943496" lon="11.9275948"><ele>49.0</ele><time>2026-05-03T08:15:41.045Z</time></trkpt><trkpt lat="45.694498" lon="11.9276034"><ele>49.0</ele><time>2026-05-03T08:15:42.045Z</time></trkpt><trkpt lat="45.6946425" lon="11.9276066"><ele>49.0</ele><time>2026-05-03T08:15:43.045Z</time></trkpt><trkpt lat="45.694784" lon="11.9276088"><ele>49.25</ele><time>2026-05-03T08:15:44.045Z</time></trkpt><trkpt lat="45.6949268" lon="11.9276159"><ele>49.5</ele><time>2026-05-03T08:15:45.045Z</time></trkpt><trkpt lat="45.695066" lon="11.9276244"><ele>49.75</ele><time>2026-05-03T08:15:46.045Z</time></trkpt><trkpt lat="45.6952053" lon="11.9276359"><ele>50.0</ele><time>2026-05-03T08:15:47.044Z</time></trkpt><trkpt lat="45.695348" lon="11.9276635"><ele>50.0</ele><time>2026-05-03T08:15:48.046Z</time></trkpt><trkpt lat="45.6954888" lon="11.9277063"><ele>50.0</ele><time>2026-05-03T08:15:49.046Z</time></trkpt><trkpt lat="45.6956241" lon="11.9277649"><ele>50.0</ele><time>2026-05-03T08:15:50.045Z</time></trkpt><trkpt lat="45.6957539" lon="11.9278245"><ele>50.0</ele><time>2026-05-03T08:15:51.044Z</time></trkpt><trkpt lat="45.6958808" lon="11.9278853"><ele>50.0</ele><time>2026-05-03T08:15:52.044Z</time></trkpt><trkpt lat="45.6960102" lon="11.9279423"><ele>50.0</ele><time>2026-05-03T08:15:53.044Z</time></trkpt><trkpt lat="45.696139" lon="11.9280015"><ele>50.0</ele><time>2026-05-03T08:15:54.045Z</time></trkpt><trkpt lat="45.696272" lon="11.9280632"><ele>50.0</ele><time>2026-05-03T08:15:55.046Z</time></trkpt><trkpt lat="45.6964066" lon="11.9281272"><ele>50.25</ele><time>2026-05-03T08:15:56.045Z</time></trkpt><trkpt lat="45.6965452" lon="11.9281882"><ele>50.5</ele><time>2026-05-03T08:15:57.045Z</time></trkpt><trkpt lat="45.6966884" lon="11.9282456"><ele>50.75</ele><time>2026-05-03T08:15:58.045Z</time></trkpt><trkpt lat="45.6968331" lon="11.9282894"><ele>51.0</ele><time>2026-05-03T08:15:59.044Z</time></trkpt><trkpt lat="45.6969965" lon="11.9283165"><ele>51.0</ele><time>2026-05-03T08:16:00.045Z</time></trkpt><trkpt lat="45.6971725" lon="11.9283424"><ele>51.0</ele><time>2026-05-03T08:16:01.046Z</time></trkpt><trkpt lat="45.6973581" lon="11.9283753"><ele>51.0</ele><time>2026-05-03T08:16:02.045Z</time></trkpt><trkpt lat="45.6975467" lon="11.92841"><ele>51.0</ele><time>2026-05-03T08:16:03.045Z</time></trkpt><trkpt lat="45.6977344" lon="11.928446"><ele>51.0</ele><time>2026-05-03T08:16:04.045Z</time></trkpt><trkpt lat="45.6979212" lon="11.9284772"><ele>51.0</ele><time>2026-05-03T08:16:05.045Z</time></trkpt><trkpt lat="45.698111" lon="11.9285074"><ele>50.66666666666667</ele><time>2026-05-03T08:16:06.045Z</time></trkpt><trkpt lat="45.6983034" lon="11.9285391"><ele>50.333333333333336</ele><time>2026-05-03T08:16:07.044Z</time></trkpt><trkpt lat="45.6984963" lon="11.92858"><ele>50.0</ele><time>2026-05-03T08:16:08.045Z</time></trkpt><trkpt lat="45.6986909" lon="11.9286305"><ele>50.0</ele><time>2026-05-03T08:16:09.045Z</time></trkpt><trkpt lat="45.6988807" lon="11.9286991"><ele>50.0</ele><time>2026-05-03T08:16:10.044Z</time></trkpt><trkpt lat="45.6990726" lon="11.9287706"><ele>50.0</ele><time>2026-05-03T08:16:11.046Z</time></trkpt><trkpt lat="45.6992619" lon="11.9288293"><ele>50.333333333333336</ele><time>2026-05-03T08:16:12.045Z</time></trkpt><trkpt lat="45.6994485" lon="11.9288853"><ele>50.66666666666667</ele><time>2026-05-03T08:16:13.045Z</time></trkpt><trkpt lat="45.6996361" lon="11.9289417"><ele>51.0</ele><time>2026-05-03T08:16:14.045Z</time></trkpt><trkpt lat="45.6998208" lon="11.9290017"><ele>51.0</ele><time>2026-05-03T08:16:15.045Z</time></trkpt><trkpt lat="45.7000012" lon="11.9290572"><ele>51.0</ele><time>2026-05-03T08:16:16.045Z</time></trkpt><trkpt lat="45.7001807" lon="11.9291162"><ele>51.0</ele><time>2026-05-03T08:16:17.045Z</time></trkpt><trkpt lat="45.7003602" lon="11.929171"><ele>50.66666666666667</ele><time>2026-05-03T08:16:18.044Z</time></trkpt><trkpt lat="45.7005369" lon="11.929226"><ele>50.333333333333336</ele><time>2026-05-03T08:16:19.045Z</time></trkpt><trkpt lat="45.7007108" lon="11.9292798"><ele>50.0</ele><time>2026-05-03T08:16:20.045Z</time></trkpt><trkpt lat="45.7008836" lon="11.9293308"><ele>50.0</ele><time>2026-05-03T08:16:21.046Z</time></trkpt><trkpt lat="45.7010575" lon="11.9293826"><ele>50.0</ele><time>2026-05-03T08:16:22.045Z</time></trkpt><trkpt lat="45.7012342" lon="11.9294214"><ele>50.0</ele><time>2026-05-03T08:16:23.045Z</time></trkpt><trkpt lat="45.7014155" lon="11.9294462"><ele>50.0</ele><time>2026-05-03T08:16:24.046Z</time></trkpt><trkpt lat="45.7015987" lon="11.9294628"><ele>50.0</ele><time>2026-05-03T08:16:25.045Z</time></trkpt><trkpt lat="45.7017842" lon="11.9294788"><ele>50.0</ele><time>2026-05-03T08:16:26.044Z</time></trkpt><trkpt lat="45.7019691" lon="11.9294838"><ele>50.0</ele><time>2026-05-03T08:16:27.046Z</time></trkpt><trkpt lat="45.7021565" lon="11.9294925"><ele>50.0</ele><time>2026-05-03T08:16:28.044Z</time></trkpt><trkpt lat="45.7023447" lon="11.9295053"><ele>50.0</ele><time>2026-05-03T08:16:29.045Z</time></trkpt><trkpt lat="45.7025325" lon="11.9295201"><ele>50.0</ele><time>2026-05-03T08:16:30.046Z</time></trkpt><trkpt lat="45.7027233" lon="11.9295383"><ele>50.0</ele><time>2026-05-03T08:16:31.045Z</time></trkpt><trkpt lat="45.7029109" lon="11.9295662"><ele>50.0</ele><time>2026-05-03T08:16:32.044Z</time></trkpt><trkpt lat="45.7030963" lon="11.9295897"><ele>50.66666666666667</ele><time>2026-05-03T08:16:33.044Z</time></trkpt><trkpt lat="45.703279" lon="11.9296145"><ele>51.33333333333333</ele><time>2026-05-03T08:16:34.046Z</time></trkpt><trkpt lat="45.7034565" lon="11.9296394"><ele>52.0</ele><time>2026-05-03T08:16:35.045Z</time></trkpt><trkpt lat="45.7036256" lon="11.9296618"><ele>52.666666666666664</ele><time>2026-05-03T08:16:36.046Z</time></trkpt><trkpt lat="45.703791" lon="11.929687"><ele>53.33333333333333</ele><time>2026-05-03T08:16:37.044Z</time></trkpt><trkpt lat="45.7039477" lon="11.9297113"><ele>54.0</ele><time>2026-05-03T08:16:38.045Z</time></trkpt><trkpt lat="45.7040892" lon="11.9297341"><ele>54.0</ele><time>2026-05-03T08:16:39.045Z</time></trkpt><trkpt lat="45.7042202" lon="11.9297543"><ele>54.0</ele><time>2026-05-03T08:16:40.045Z</time></trkpt><trkpt lat="45.7043403" lon="11.9297709"><ele>54.0</ele><time>2026-05-03T08:16:41.046Z</time></trkpt><trkpt lat="45.7044435" lon="11.9297842"><ele>54.0</ele><time>2026-05-03T08:16:42.045Z</time></trkpt><trkpt lat="45.7045481" lon="11.9298005"><ele>53.800000000000004</ele><time>2026-05-03T08:16:43.044Z</time></trkpt><trkpt lat="45.7046522" lon="11.9298191"><ele>53.60000000000001</ele><time>2026-05-03T08:16:44.046Z</time></trkpt><trkpt lat="45.704755" lon="11.9298365"><ele>53.4</ele><time>2026-05-03T08:16:45.045Z</time></trkpt><trkpt lat="45.7048578" lon="11.9298544"><ele>53.2</ele><time>2026-05-03T08:16:46.046Z</time></trkpt><trkpt lat="45.7049504" lon="11.92987"><ele>53.0</ele><time>2026-05-03T08:16:47.046Z</time></trkpt><trkpt lat="45.7050372" lon="11.9298891"><ele>53.00000000000001</ele><time>2026-05-03T08:16:48.045Z</time></trkpt><trkpt lat="45.705116" lon="11.9299034"><ele>53.0</ele><time>2026-05-03T08:16:49.044Z</time></trkpt><trkpt lat="45.7051843" lon="11.9299168"><ele>53.0</ele><time>2026-05-03T08:16:50.044Z</time></trkpt><trkpt lat="45.7052857" lon="11.9299363"><ele>53.0</ele><time>2026-05-03T08:16:52.045Z</time></trkpt><trkpt lat="45.7053626" lon="11.9299458"><ele>53.00000000000001</ele><time>2026-05-03T08:16:54.045Z</time></trkpt><trkpt lat="45.7054297" lon="11.9299472"><ele>53.0</ele><time>2026-05-03T08:16:57.045Z</time></trkpt><trkpt lat="45.705527" lon="11.92996"><ele>53.2</ele><time>2026-05-03T08:17:10.045Z</time></trkpt><trkpt lat="45.7056545" lon="11.9299609"><ele>53.4</ele><time>2026-05-03T08:17:12.045Z</time></trkpt><trkpt lat="45.7057227" lon="11.9299541"><ele>53.60000000000001</ele><time>2026-05-03T08:17:13.044Z</time></trkpt><trkpt lat="45.7057992" lon="11.9299374"><ele>53.800000000000004</ele><time>2026-05-03T08:17:14.046Z</time></trkpt><trkpt lat="45.7058876" lon="11.9299106"><ele>54.0</ele><time>2026-05-03T08:17:15.046Z</time></trkpt><trkpt lat="45.7059896" lon="11.929874"><ele>54.25</ele><time>2026-05-03T08:17:16.046Z</time></trkpt><trkpt lat="45.7060893" lon="11.9298346"><ele>54.5</ele><time>2026-05-03T08:17:17.045Z</time></trkpt><trkpt lat="45.7061941" lon="11.9297844"><ele>54.75</ele><time>2026-05-03T08:17:18.045Z</time></trkpt><trkpt lat="45.7063053" lon="11.9297415"><ele>55.0</ele><time>2026-05-03T08:17:19.026Z</time></trkpt><trkpt lat="45.7064243" lon="11.9296855"><ele>55.0</ele><time>2026-05-03T08:17:20.025Z</time></trkpt><trkpt lat="45.7065495" lon="11.9296271"><ele>55.0</ele><time>2026-05-03T08:17:21.026Z</time></trkpt><trkpt lat="45.7066837" lon="11.9295648"><ele>55.0</ele><time>2026-05-03T08:17:22.029Z</time></trkpt><trkpt lat="45.7068254" lon="11.9295017"><ele>55.0</ele><time>2026-05-03T08:17:23.024Z</time></trkpt><trkpt lat="45.7069712" lon="11.9294368"><ele>55.0</ele><time>2026-05-03T08:17:24.025Z</time></trkpt><trkpt lat="45.7071173" lon="11.9293729"><ele>55.0</ele><time>2026-05-03T08:17:25.025Z</time></trkpt><trkpt lat="45.7072644" lon="11.9293128"><ele>55.0</ele><time>2026-05-03T08:17:26.025Z</time></trkpt><trkpt lat="45.7074042" lon="11.929261"><ele>55.0</ele><time>2026-05-03T08:17:27.025Z</time></trkpt><trkpt lat="45.7075353" lon="11.9292173"><ele>55.0</ele><time>2026-05-03T08:17:28.026Z</time></trkpt><trkpt lat="45.7076582" lon="11.9291803"><ele>55.0</ele><time>2026-05-03T08:17:29.025Z</time></trkpt><trkpt lat="45.7077734" lon="11.9291527"><ele>55.0</ele><time>2026-05-03T08:17:30.025Z</time></trkpt><trkpt lat="45.707881" lon="11.9291355"><ele>54.6</ele><time>2026-05-03T08:17:31.025Z</time></trkpt><trkpt lat="45.7079712" lon="11.9291268"><ele>54.2</ele><time>2026-05-03T08:17:32.025Z</time></trkpt><trkpt lat="45.7080461" lon="11.9291247"><ele>53.8</ele><time>2026-05-03T08:17:33.025Z</time></trkpt><trkpt lat="45.7081096" lon="11.9291261"><ele>53.4</ele><time>2026-05-03T08:17:34.025Z</time></trkpt><trkpt lat="45.7082135" lon="11.9291492"><ele>53.0</ele><time>2026-05-03T08:17:36.025Z</time></trkpt><trkpt lat="45.7083263" lon="11.9291903"><ele>53.0</ele><time>2026-05-03T08:17:38.026Z</time></trkpt><trkpt lat="45.7084198" lon="11.9291129"><ele>53.0</ele><time>2026-05-03T08:17:40.026Z</time></trkpt><trkpt lat="45.7084389" lon="11.9290136"><ele>53.0</ele><time>2026-05-03T08:17:41.025Z</time></trkpt><trkpt lat="45.7085257" lon="11.9289116"><ele>53.0</ele><time>2026-05-03T08:17:42.025Z</time></trkpt><trkpt lat="45.7085878" lon="11.9288022"><ele>53.0</ele><time>2026-05-03T08:17:43.025Z</time></trkpt><trkpt lat="45.7086675" lon="11.9287028"><ele>53.75</ele><time>2026-05-03T08:17:44.026Z</time></trkpt><trkpt lat="45.708764" lon="11.9286122"><ele>54.5</ele><time>2026-05-03T08:17:45.025Z</time></trkpt><trkpt lat="45.7088818" lon="11.928531"><ele>55.25</ele><time>2026-05-03T08:17:46.026Z</time></trkpt><trkpt lat="45.7090217" lon="11.9284663"><ele>56.0</ele><time>2026-05-03T08:17:47.025Z</time></trkpt><trkpt lat="45.7091717" lon="11.9284248"><ele>55.66666666666667</ele><time>2026-05-03T08:17:48.025Z</time></trkpt><trkpt lat="45.7093317" lon="11.9283867"><ele>55.33333333333333</ele><time>2026-05-03T08:17:49.025Z</time></trkpt><trkpt lat="45.7095061" lon="11.9283399"><ele>55.0</ele><time>2026-05-03T08:17:50.025Z</time></trkpt><trkpt lat="45.7096881" lon="11.9282885"><ele>55.0</ele><time>2026-05-03T08:17:51.025Z</time></trkpt><trkpt lat="45.7098701" lon="11.9282358"><ele>55.0</ele><time>2026-05-03T08:17:52.025Z</time></trkpt><trkpt lat="45.7100546" lon="11.9281808"><ele>55.0</ele><time>2026-05-03T08:17:53.026Z</time></trkpt><trkpt lat="45.710239" lon="11.9281176"><ele>55.0</ele><time>2026-05-03T08:17:54.025Z</time></trkpt><trkpt lat="45.7104198" lon="11.9280322"><ele>55.0</ele><time>2026-05-03T08:17:55.025Z</time></trkpt><trkpt lat="45.7105932" lon="11.9279171"><ele>55.0</ele><time>2026-05-03T08:17:56.025Z</time></trkpt><trkpt lat="45.7107555" lon="11.9277692"><ele>55.0</ele><time>2026-05-03T08:17:57.025Z</time></trkpt><trkpt lat="45.7109037" lon="11.9275898"><ele>55.0</ele><time>2026-05-03T08:17:58.026Z</time></trkpt><trkpt lat="45.7110329" lon="11.927381"><ele>55.0</ele><time>2026-05-03T08:17:59.025Z</time></trkpt><trkpt lat="45.711139" lon="11.9271451"><ele>55.666666666666664</ele><time>2026-05-03T08:18:00.025Z</time></trkpt><trkpt lat="45.7112238" lon="11.9268861"><ele>56.33333333333333</ele><time>2026-05-03T08:18:01.026Z</time></trkpt><trkpt lat="45.7112983" lon="11.9266136"><ele>57.0</ele><time>2026-05-03T08:18:02.025Z</time></trkpt><trkpt lat="45.7113727" lon="11.9263342"><ele>57.0</ele><time>2026-05-03T08:18:03.026Z</time></trkpt><trkpt lat="45.7114495" lon="11.9260531"><ele>57.0</ele><time>2026-05-03T08:18:04.026Z</time></trkpt><trkpt lat="45.7115279" lon="11.9257682"><ele>57.0</ele><time>2026-05-03T08:18:05.026Z</time></trkpt><trkpt lat="45.7116098" lon="11.9254837"><ele>57.0</ele><time>2026-05-03T08:18:06.026Z</time></trkpt><trkpt lat="45.7117005" lon="11.9252019"><ele>57.0</ele><time>2026-05-03T08:18:07.025Z</time></trkpt><trkpt lat="45.7118079" lon="11.9249299"><ele>57.0</ele><time>2026-05-03T08:18:08.025Z</time></trkpt><trkpt lat="45.7119385" lon="11.9246809"><ele>57.0</ele><time>2026-05-03T08:18:09.025Z</time></trkpt><trkpt lat="45.7120925" lon="11.924457"><ele>57.0</ele><time>2026-05-03T08:18:10.025Z</time></trkpt><trkpt lat="45.712263" lon="11.9242642"><ele>57.0</ele><time>2026-05-03T08:18:11.025Z</time></trkpt><trkpt lat="45.7124466" lon="11.9241006"><ele>57.0</ele><time>2026-05-03T08:18:12.025Z</time></trkpt><trkpt lat="45.7126436" lon="11.9239691"><ele>57.0</ele><time>2026-05-03T08:18:13.025Z</time></trkpt><trkpt lat="45.7128499" lon="11.9238718"><ele>57.0</ele><time>2026-05-03T08:18:14.026Z</time></trkpt><trkpt lat="45.7130618" lon="11.923798"><ele>57.33333333333333</ele><time>2026-05-03T08:18:15.026Z</time></trkpt><trkpt lat="45.7132773" lon="11.923735"><ele>57.666666666666664</ele><time>2026-05-03T08:18:16.025Z</time></trkpt><trkpt lat="45.7134936" lon="11.9236756"><ele>58.0</ele><time>2026-05-03T08:18:17.025Z</time></trkpt><trkpt lat="45.7137104" lon="11.9236164"><ele>58.0</ele><time>2026-05-03T08:18:18.025Z</time></trkpt><trkpt lat="45.7139268" lon="11.9235561"><ele>58.0</ele><time>2026-05-03T08:18:19.026Z</time></trkpt><trkpt lat="45.7141438" lon="11.9234938"><ele>58.0</ele><time>2026-05-03T08:18:20.025Z</time></trkpt><trkpt lat="45.7143601" lon="11.923431"><ele>58.0</ele><time>2026-05-03T08:18:21.026Z</time></trkpt><trkpt lat="45.7145756" lon="11.9233708"><ele>58.0</ele><time>2026-05-03T08:18:22.025Z</time></trkpt><trkpt lat="45.7147919" lon="11.9233083"><ele>58.0</ele><time>2026-05-03T08:18:23.025Z</time></trkpt><trkpt lat="45.7150087" lon="11.9232437"><ele>58.0</ele><time>2026-05-03T08:18:24.025Z</time></trkpt><trkpt lat="45.715225" lon="11.9231718"><ele>58.0</ele><time>2026-05-03T08:18:25.026Z</time></trkpt><trkpt lat="45.715442" lon="11.9230932"><ele>58.0</ele><time>2026-05-03T08:18:26.025Z</time></trkpt><trkpt lat="45.7156598" lon="11.923011"><ele>58.0</ele><time>2026-05-03T08:18:27.025Z</time></trkpt><trkpt lat="45.7158756" lon="11.9229277"><ele>58.0</ele><time>2026-05-03T08:18:28.026Z</time></trkpt><trkpt lat="45.7160934" lon="11.9228428"><ele>58.0</ele><time>2026-05-03T08:18:29.026Z</time></trkpt><trkpt lat="45.7163126" lon="11.9227592"><ele>57.0</ele><time>2026-05-03T08:18:30.026Z</time></trkpt><trkpt lat="45.7165322" lon="11.9226746"><ele>56.0</ele><time>2026-05-03T08:18:31.025Z</time></trkpt><trkpt lat="45.7167516" lon="11.9225887"><ele>57.0</ele><time>2026-05-03T08:18:32.026Z</time></trkpt><trkpt lat="45.7169727" lon="11.9225015"><ele>58.0</ele><time>2026-05-03T08:18:33.026Z</time></trkpt><trkpt lat="45.717192" lon="11.9224138"><ele>58.0</ele><time>2026-05-03T08:18:34.025Z</time></trkpt><trkpt lat="45.7174097" lon="11.9223276"><ele>58.0</ele><time>2026-05-03T08:18:35.025Z</time></trkpt><trkpt lat="45.7176261" lon="11.9222431"><ele>58.33333333333333</ele><time>2026-05-03T08:18:36.025Z</time></trkpt><trkpt lat="45.7178331" lon="11.9221633"><ele>58.66666666666667</ele><time>2026-05-03T08:18:37.025Z</time></trkpt><trkpt lat="45.7180278" lon="11.9220899"><ele>59.0</ele><time>2026-05-03T08:18:38.025Z</time></trkpt><trkpt lat="45.7182039" lon="11.9220191"><ele>59.0</ele><time>2026-05-03T08:18:39.025Z</time></trkpt><trkpt lat="45.7183552" lon="11.9219464"><ele>59.0</ele><time>2026-05-03T08:18:40.026Z</time></trkpt><trkpt lat="45.7184965" lon="11.9218725"><ele>59.0</ele><time>2026-05-03T08:18:41.025Z</time></trkpt><trkpt lat="45.7186424" lon="11.9218103"><ele>59.66666666666667</ele><time>2026-05-03T08:18:42.026Z</time></trkpt><trkpt lat="45.7187977" lon="11.921764"><ele>60.33333333333333</ele><time>2026-05-03T08:18:43.025Z</time></trkpt><trkpt lat="45.7189623" lon="11.9217175"><ele>61.0</ele><time>2026-05-03T08:18:44.026Z</time></trkpt><trkpt lat="45.7191323" lon="11.921667"><ele>61.0</ele><time>2026-05-03T08:18:45.026Z</time></trkpt><trkpt lat="45.7193083" lon="11.9216081"><ele>61.0</ele><time>2026-05-03T08:18:46.025Z</time></trkpt><trkpt lat="45.7194859" lon="11.9215375"><ele>61.0</ele><time>2026-05-03T08:18:47.025Z</time></trkpt><trkpt lat="45.7196637" lon="11.9214507"><ele>60.33333333333333</ele><time>2026-05-03T08:18:48.026Z</time></trkpt><trkpt lat="45.7198385" lon="11.9213467"><ele>59.66666666666667</ele><time>2026-05-03T08:18:49.026Z</time></trkpt><trkpt lat="45.7200079" lon="11.9212245"><ele>59.0</ele><time>2026-05-03T08:18:50.025Z</time></trkpt><trkpt lat="45.7201685" lon="11.9210853"><ele>59.0</ele><time>2026-05-03T08:18:51.026Z</time></trkpt><trkpt lat="45.7203183" lon="11.9209342"><ele>59.0</ele><time>2026-05-03T08:18:52.026Z</time></trkpt><trkpt lat="45.7204523" lon="11.9207812"><ele>59.0</ele><time>2026-05-03T08:18:53.026Z</time></trkpt><trkpt lat="45.7205714" lon="11.9206367"><ele>59.0</ele><time>2026-05-03T08:18:54.026Z</time></trkpt><trkpt lat="45.7206808" lon="11.9205018"><ele>59.0</ele><time>2026-05-03T08:18:55.026Z</time></trkpt><trkpt lat="45.7207798" lon="11.9203807"><ele>59.0</ele><time>2026-05-03T08:18:56.025Z</time></trkpt><trkpt lat="45.7208708" lon="11.9202747"><ele>59.0</ele><time>2026-05-03T08:18:57.025Z</time></trkpt><trkpt lat="45.7209622" lon="11.9201825"><ele>59.0</ele><time>2026-05-03T08:18:58.025Z</time></trkpt><trkpt lat="45.7210529" lon="11.9200864"><ele>59.0</ele><time>2026-05-03T08:18:59.025Z</time></trkpt><trkpt lat="45.7211403" lon="11.9199703"><ele>59.0</ele><time>2026-05-03T08:19:00.025Z</time></trkpt><trkpt lat="45.7212299" lon="11.9198384"><ele>59.0</ele><time>2026-05-03T08:19:01.025Z</time></trkpt><trkpt lat="45.7213251" lon="11.9197031"><ele>59.25</ele><time>2026-05-03T08:19:02.025Z</time></trkpt><trkpt lat="45.7214257" lon="11.9195662"><ele>59.5</ele><time>2026-05-03T08:19:03.025Z</time></trkpt><trkpt lat="45.7215328" lon="11.9194206"><ele>59.75</ele><time>2026-05-03T08:19:04.025Z</time></trkpt><trkpt lat="45.7216514" lon="11.9192681"><ele>60.0</ele><time>2026-05-03T08:19:05.026Z</time></trkpt><trkpt lat="45.7217851" lon="11.9191187"><ele>60.66666666666667</ele><time>2026-05-03T08:19:06.026Z</time></trkpt><trkpt lat="45.7219326" lon="11.9189836"><ele>61.333333333333336</ele><time>2026-05-03T08:19:07.025Z</time></trkpt><trkpt lat="45.7220932" lon="11.9188688"><ele>62.0</ele><time>2026-05-03T08:19:08.025Z</time></trkpt><trkpt lat="45.7222634" lon="11.9187783"><ele>62.0</ele><time>2026-05-03T08:19:09.026Z</time></trkpt><trkpt lat="45.7224398" lon="11.9187094"><ele>62.0</ele><time>2026-05-03T08:19:10.026Z</time></trkpt><trkpt lat="45.7226215" lon="11.9186533"><ele>62.0</ele><time>2026-05-03T08:19:11.025Z</time></trkpt><trkpt lat="45.7228041" lon="11.9186028"><ele>62.0</ele><time>2026-05-03T08:19:12.026Z</time></trkpt><trkpt lat="45.7229856" lon="11.9185536"><ele>62.0</ele><time>2026-05-03T08:19:13.026Z</time></trkpt><trkpt lat="45.7231637" lon="11.918506"><ele>62.0</ele><time>2026-05-03T08:19:14.025Z</time></trkpt><trkpt lat="45.7233422" lon="11.9184597"><ele>62.0</ele><time>2026-05-03T08:19:15.026Z</time></trkpt><trkpt lat="45.7235231" lon="11.9184135"><ele>62.0</ele><time>2026-05-03T08:19:16.025Z</time></trkpt><trkpt lat="45.7237046" lon="11.918367"><ele>62.0</ele><time>2026-05-03T08:19:17.025Z</time></trkpt><trkpt lat="45.7238871" lon="11.9183195"><ele>62.0</ele><time>2026-05-03T08:19:18.025Z</time></trkpt><trkpt lat="45.7240677" lon="11.9182706"><ele>62.0</ele><time>2026-05-03T08:19:19.025Z</time></trkpt><trkpt lat="45.7242457" lon="11.9182222"><ele>62.0</ele><time>2026-05-03T08:19:20.026Z</time></trkpt><trkpt lat="45.7244207" lon="11.9181744"><ele>62.0</ele><time>2026-05-03T08:19:21.025Z</time></trkpt><trkpt lat="45.7245933" lon="11.9181274"><ele>62.0</ele><time>2026-05-03T08:19:22.026Z</time></trkpt><trkpt lat="45.7247659" lon="11.9180818"><ele>62.0</ele><time>2026-05-03T08:19:23.026Z</time></trkpt><trkpt lat="45.7249368" lon="11.9180377"><ele>62.0</ele><time>2026-05-03T08:19:24.025Z</time></trkpt><trkpt lat="45.7251092" lon="11.9179905"><ele>62.0</ele><time>2026-05-03T08:19:25.025Z</time></trkpt><trkpt lat="45.7252866" lon="11.9179371"><ele>62.0</ele><time>2026-05-03T08:19:26.025Z</time></trkpt><trkpt lat="45.7254698" lon="11.9178819"><ele>62.0</ele><time>2026-05-03T08:19:27.025Z</time></trkpt><trkpt lat="45.7256592" lon="11.9178344"><ele>62.0</ele><time>2026-05-03T08:19:28.025Z</time></trkpt><trkpt lat="45.7258539" lon="11.9177899"><ele>62.0</ele><time>2026-05-03T08:19:29.025Z</time></trkpt><trkpt lat="45.7260506" lon="11.9177451"><ele>62.0</ele><time>2026-05-03T08:19:30.026Z</time></trkpt><trkpt lat="45.7262482" lon="11.9176992"><ele>62.0</ele><time>2026-05-03T08:19:31.025Z</time></trkpt><trkpt lat="45.7264367" lon="11.9176546"><ele>62.0</ele><time>2026-05-03T08:19:32.025Z</time></trkpt><trkpt lat="45.726615" lon="11.9176108"><ele>62.0</ele><time>2026-05-03T08:19:33.026Z</time></trkpt><trkpt lat="45.726787" lon="11.9175682"><ele>62.0</ele><time>2026-05-03T08:19:34.026Z</time></trkpt><trkpt lat="45.7269546" lon="11.9175256"><ele>62.0</ele><time>2026-05-03T08:19:35.026Z</time></trkpt><trkpt lat="45.7271187" lon="11.9174838"><ele>62.66666666666667</ele><time>2026-05-03T08:19:36.026Z</time></trkpt><trkpt lat="45.7272791" lon="11.9174418"><ele>63.33333333333333</ele><time>2026-05-03T08:19:37.026Z</time></trkpt><trkpt lat="45.7274382" lon="11.9174007"><ele>64.0</ele><time>2026-05-03T08:19:38.025Z</time></trkpt><trkpt lat="45.7275969" lon="11.9173603"><ele>64.33333333333333</ele><time>2026-05-03T08:19:39.025Z</time></trkpt><trkpt lat="45.7277541" lon="11.9173203"><ele>64.66666666666667</ele><time>2026-05-03T08:19:40.025Z</time></trkpt><trkpt lat="45.7279109" lon="11.9172817"><ele>65.0</ele><time>2026-05-03T08:19:41.025Z</time></trkpt><trkpt lat="45.728067" lon="11.9172429"><ele>65.0</ele><time>2026-05-03T08:19:42.026Z</time></trkpt><trkpt lat="45.7282174" lon="11.9172036"><ele>65.0</ele><time>2026-05-03T08:19:43.026Z</time></trkpt><trkpt lat="45.7283627" lon="11.9171644"><ele>65.0</ele><time>2026-05-03T08:19:44.026Z</time></trkpt><trkpt lat="45.7284956" lon="11.9171252"><ele>65.0</ele><time>2026-05-03T08:19:45.025Z</time></trkpt><trkpt lat="45.7286213" lon="11.9170909"><ele>65.0</ele><time>2026-05-03T08:19:46.025Z</time></trkpt><trkpt lat="45.7287341" lon="11.9170611"><ele>65.0</ele><time>2026-05-03T08:19:47.025Z</time></trkpt><trkpt lat="45.7288315" lon="11.9170392"><ele>65.0</ele><time>2026-05-03T08:19:48.025Z</time></trkpt><trkpt lat="45.728912" lon="11.9170282"><ele>65.0</ele><time>2026-05-03T08:19:49.026Z</time></trkpt><trkpt lat="45.7289789" lon="11.9170253"><ele>65.0</ele><time>2026-05-03T08:19:50.025Z</time></trkpt><trkpt lat="45.7290438" lon="11.9170278"><ele>65.0</ele><time>2026-05-03T08:19:52.025Z</time></trkpt><trkpt lat="45.7291119" lon="11.9170483"><ele>65.0</ele><time>2026-05-03T08:19:58.026Z</time></trkpt><trkpt lat="45.7292023" lon="11.9170462"><ele>65.0</ele><time>2026-05-03T08:20:00.026Z</time></trkpt><trkpt lat="45.729267" lon="11.9169105"><ele>65.0</ele><time>2026-05-03T08:20:02.026Z</time></trkpt><trkpt lat="45.7292799" lon="11.916792"><ele>65.0</ele><time>2026-05-03T08:20:03.025Z</time></trkpt><trkpt lat="45.7292878" lon="11.9166463"><ele>65.0</ele><time>2026-05-03T08:20:04.025Z</time></trkpt><trkpt lat="45.7292926" lon="11.916489"><ele>65.25</ele><time>2026-05-03T08:20:05.025Z</time></trkpt><trkpt lat="45.7292976" lon="11.9163201"><ele>65.5</ele><time>2026-05-03T08:20:06.025Z</time></trkpt><trkpt lat="45.7293033" lon="11.9161404"><ele>65.75</ele><time>2026-05-03T08:20:07.025Z</time></trkpt><trkpt lat="45.7293089" lon="11.9159548"><ele>66.0</ele><time>2026-05-03T08:20:08.025Z</time></trkpt><trkpt lat="45.7293063" lon="11.9157717"><ele>66.0</ele><time>2026-05-03T08:20:09.025Z</time></trkpt><trkpt lat="45.7292885" lon="11.915587"><ele>66.0</ele><time>2026-05-03T08:20:10.025Z</time></trkpt><trkpt lat="45.7292503" lon="11.9154049"><ele>66.0</ele><time>2026-05-03T08:20:11.025Z</time></trkpt><trkpt lat="45.7291955" lon="11.9152242"><ele>66.0</ele><time>2026-05-03T08:20:12.025Z</time></trkpt><trkpt lat="45.7291345" lon="11.9150384"><ele>65.75</ele><time>2026-05-03T08:20:13.025Z</time></trkpt><trkpt lat="45.7290754" lon="11.9148451"><ele>65.5</ele><time>2026-05-03T08:20:14.025Z</time></trkpt><trkpt lat="45.7290242" lon="11.9146442"><ele>65.25</ele><time>2026-05-03T08:20:15.025Z</time></trkpt><trkpt lat="45.728984" lon="11.9144468"><ele>65.0</ele><time>2026-05-03T08:20:16.026Z</time></trkpt><trkpt lat="45.7289535" lon="11.9142637"><ele>64.8</ele><time>2026-05-03T08:20:17.025Z</time></trkpt><trkpt lat="45.7289304" lon="11.914096"><ele>64.6</ele><time>2026-05-03T08:20:18.026Z</time></trkpt><trkpt lat="45.7289189" lon="11.9139393"><ele>64.4</ele><time>2026-05-03T08:20:19.026Z</time></trkpt><trkpt lat="45.7289252" lon="11.9137939"><ele>64.2</ele><time>2026-05-03T08:20:20.025Z</time></trkpt><trkpt lat="45.728951" lon="11.9136545"><ele>64.0</ele><time>2026-05-03T08:20:21.025Z</time></trkpt><trkpt lat="45.7290018" lon="11.9135284"><ele>64.0</ele><time>2026-05-03T08:20:22.025Z</time></trkpt><trkpt lat="45.7290815" lon="11.9134296"><ele>64.0</ele><time>2026-05-03T08:20:23.025Z</time></trkpt><trkpt lat="45.7291885" lon="11.9133685"><ele>64.0</ele><time>2026-05-03T08:20:24.025Z</time></trkpt><trkpt lat="45.7293261" lon="11.9133269"><ele>64.0</ele><time>2026-05-03T08:20:25.026Z</time></trkpt><trkpt lat="45.7294675" lon="11.9133036"><ele>64.0</ele><time>2026-05-03T08:20:26.025Z</time></trkpt><trkpt lat="45.7296232" lon="11.9132747"><ele>64.0</ele><time>2026-05-03T08:20:27.026Z</time></trkpt><trkpt lat="45.7297836" lon="11.9132404"><ele>64.0</ele><time>2026-05-03T08:20:28.025Z</time></trkpt><trkpt lat="45.7299493" lon="11.913204"><ele>64.0</ele><time>2026-05-03T08:20:29.025Z</time></trkpt><trkpt lat="45.7301229" lon="11.9131641"><ele>64.0</ele><time>2026-05-03T08:20:30.026Z</time></trkpt><trkpt lat="45.7302967" lon="11.9131222"><ele>64.0</ele><time>2026-05-03T08:20:31.026Z</time></trkpt><trkpt lat="45.7304709" lon="11.913079"><ele>64.66666666666666</ele><time>2026-05-03T08:20:32.025Z</time></trkpt><trkpt lat="45.7306486" lon="11.9130343"><ele>65.33333333333333</ele><time>2026-05-03T08:20:33.026Z</time></trkpt><trkpt lat="45.7308282" lon="11.912986"><ele>66.0</ele><time>2026-05-03T08:20:34.025Z</time></trkpt><trkpt lat="45.7310114" lon="11.9129358"><ele>66.0</ele><time>2026-05-03T08:20:35.025Z</time></trkpt><trkpt lat="45.7311949" lon="11.9128865"><ele>66.0</ele><time>2026-05-03T08:20:36.025Z</time></trkpt><trkpt lat="45.7313812" lon="11.9128372"><ele>66.0</ele><time>2026-05-03T08:20:37.025Z</time></trkpt><trkpt lat="45.7315664" lon="11.9127878"><ele>66.0</ele><time>2026-05-03T08:20:38.026Z</time></trkpt><trkpt lat="45.7317524" lon="11.9127403"><ele>66.0</ele><time>2026-05-03T08:20:39.025Z</time></trkpt><trkpt lat="45.731939" lon="11.9126947"><ele>66.0</ele><time>2026-05-03T08:20:40.026Z</time></trkpt><trkpt lat="45.7321213" lon="11.9126507"><ele>65.66666666666667</ele><time>2026-05-03T08:20:41.025Z</time></trkpt><trkpt lat="45.7323047" lon="11.9126005"><ele>65.33333333333334</ele><time>2026-05-03T08:20:42.025Z</time></trkpt><trkpt lat="45.7324828" lon="11.9125549"><ele>65.0</ele><time>2026-05-03T08:20:43.025Z</time></trkpt><trkpt lat="45.7326577" lon="11.9125112"><ele>65.0</ele><time>2026-05-03T08:20:44.025Z</time></trkpt><trkpt lat="45.7328214" lon="11.9124716"><ele>65.0</ele><time>2026-05-03T08:20:45.025Z</time></trkpt><trkpt lat="45.732979" lon="11.9124276"><ele>65.0</ele><time>2026-05-03T08:20:46.025Z</time></trkpt><trkpt lat="45.7331279" lon="11.9123737"><ele>65.0</ele><time>2026-05-03T08:20:47.026Z</time></trkpt><trkpt lat="45.7332577" lon="11.9123002"><ele>65.0</ele><time>2026-05-03T08:20:48.025Z</time></trkpt><trkpt lat="45.7333683" lon="11.9122078"><ele>65.0</ele><time>2026-05-03T08:20:49.026Z</time></trkpt><trkpt lat="45.7334589" lon="11.912102"><ele>65.0</ele><time>2026-05-03T08:20:50.025Z</time></trkpt><trkpt lat="45.7335335" lon="11.9119991"><ele>65.0</ele><time>2026-05-03T08:20:51.026Z</time></trkpt><trkpt lat="45.7335987" lon="11.9119145"><ele>65.0</ele><time>2026-05-03T08:20:52.025Z</time></trkpt><trkpt lat="45.7336587" lon="11.91186"><ele>65.0</ele><time>2026-05-03T08:20:53.026Z</time></trkpt><trkpt lat="45.733764" lon="11.9118268"><ele>65.0</ele><time>2026-05-03T08:20:55.026Z</time></trkpt><trkpt lat="45.7338614" lon="11.9118316"><ele>65.0</ele><time>2026-05-03T08:20:57.025Z</time></trkpt><trkpt lat="45.7339824" lon="11.9117814"><ele>65.00000000000001</ele><time>2026-05-03T08:20:59.026Z</time></trkpt><trkpt lat="45.734042" lon="11.9117407"><ele>65.0</ele><time>2026-05-03T08:21:00.025Z</time></trkpt><trkpt lat="45.7341051" lon="11.9117106"><ele>65.0</ele><time>2026-05-03T08:21:01.025Z</time></trkpt><trkpt lat="45.7341743" lon="11.9117026"><ele>65.0</ele><time>2026-05-03T08:21:02.025Z</time></trkpt><trkpt lat="45.7342446" lon="11.9117259"><ele>65.0</ele><time>2026-05-03T08:21:03.025Z</time></trkpt><trkpt lat="45.734308" lon="11.9117813"><ele>65.00000000000001</ele><time>2026-05-03T08:21:04.025Z</time></trkpt><trkpt lat="45.7343688" lon="11.9118525"><ele>65.0</ele><time>2026-05-03T08:21:05.026Z</time></trkpt><trkpt lat="45.7344404" lon="11.9119134"><ele>65.2</ele><time>2026-05-03T08:21:06.025Z</time></trkpt><trkpt lat="45.7345284" lon="11.9119607"><ele>65.4</ele><time>2026-05-03T08:21:07.025Z</time></trkpt><trkpt lat="45.7346338" lon="11.911979"><ele>65.6</ele><time>2026-05-03T08:21:08.026Z</time></trkpt><trkpt lat="45.7347438" lon="11.9119733"><ele>65.8</ele><time>2026-05-03T08:21:09.025Z</time></trkpt><trkpt lat="45.7348538" lon="11.9119419"><ele>66.0</ele><time>2026-05-03T08:21:10.025Z</time></trkpt><trkpt lat="45.7349766" lon="11.9118999"><ele>66.0</ele><time>2026-05-03T08:21:11.025Z</time></trkpt><trkpt lat="45.7351175" lon="11.9118528"><ele>66.0</ele><time>2026-05-03T08:21:12.026Z</time></trkpt><trkpt lat="45.7352762" lon="11.9118092"><ele>66.0</ele><time>2026-05-03T08:21:13.025Z</time></trkpt><trkpt lat="45.7354527" lon="11.9117717"><ele>66.0</ele><time>2026-05-03T08:21:14.026Z</time></trkpt><trkpt lat="45.7356331" lon="11.9117384"><ele>66.0</ele><time>2026-05-03T08:21:15.026Z</time></trkpt><trkpt lat="45.7358211" lon="11.9117001"><ele>66.0</ele><time>2026-05-03T08:21:16.026Z</time></trkpt><trkpt lat="45.7360158" lon="11.9116532"><ele>66.33333333333333</ele><time>2026-05-03T08:21:17.025Z</time></trkpt><trkpt lat="45.7362266" lon="11.911599"><ele>66.66666666666666</ele><time>2026-05-03T08:21:18.045Z</time></trkpt><trkpt lat="45.7364323" lon="11.9115461"><ele>67.0</ele><time>2026-05-03T08:21:19.044Z</time></trkpt><trkpt lat="45.7366328" lon="11.9114918"><ele>67.0</ele><time>2026-05-03T08:21:20.045Z</time></trkpt><trkpt lat="45.7368401" lon="11.9114337"><ele>67.0</ele><time>2026-05-03T08:21:21.045Z</time></trkpt><trkpt lat="45.7370475" lon="11.9113766"><ele>67.0</ele><time>2026-05-03T08:21:22.046Z</time></trkpt><trkpt lat="45.7372543" lon="11.9113154"><ele>67.33333333333333</ele><time>2026-05-03T08:21:23.045Z</time></trkpt><trkpt lat="45.7374635" lon="11.9112493"><ele>67.66666666666667</ele><time>2026-05-03T08:21:24.044Z</time></trkpt><trkpt lat="45.7376783" lon="11.9111884"><ele>68.0</ele><time>2026-05-03T08:21:25.045Z</time></trkpt><trkpt lat="45.737897" lon="11.911141"><ele>68.0</ele><time>2026-05-03T08:21:26.045Z</time></trkpt><trkpt lat="45.7381157" lon="11.9111034"><ele>68.0</ele><time>2026-05-03T08:21:27.045Z</time></trkpt><trkpt lat="45.738338" lon="11.911056"><ele>68.0</ele><time>2026-05-03T08:21:28.046Z</time></trkpt><trkpt lat="45.7385499" lon="11.9110011"><ele>68.0</ele><time>2026-05-03T08:21:29.045Z</time></trkpt><trkpt lat="45.7387601" lon="11.9109389"><ele>68.0</ele><time>2026-05-03T08:21:30.044Z</time></trkpt><trkpt lat="45.7389655" lon="11.9108841"><ele>68.0</ele><time>2026-05-03T08:21:31.046Z</time></trkpt><trkpt lat="45.7391651" lon="11.9108292"><ele>68.33333333333334</ele><time>2026-05-03T08:21:32.045Z</time></trkpt><trkpt lat="45.7393603" lon="11.910781"><ele>68.66666666666667</ele><time>2026-05-03T08:21:33.044Z</time></trkpt><trkpt lat="45.7395504" lon="11.91074"><ele>69.0</ele><time>2026-05-03T08:21:34.044Z</time></trkpt><trkpt lat="45.7397379" lon="11.9107052"><ele>69.0</ele><time>2026-05-03T08:21:35.045Z</time></trkpt><trkpt lat="45.7399245" lon="11.9106786"><ele>69.0</ele><time>2026-05-03T08:21:36.045Z</time></trkpt><trkpt lat="45.7401113" lon="11.9106645"><ele>69.0</ele><time>2026-05-03T08:21:37.046Z</time></trkpt><trkpt lat="45.7403019" lon="11.9106494"><ele>69.0</ele><time>2026-05-03T08:21:38.045Z</time></trkpt><trkpt lat="45.7404964" lon="11.9106247"><ele>69.0</ele><time>2026-05-03T08:21:39.045Z</time></trkpt><trkpt lat="45.7407021" lon="11.9106061"><ele>69.0</ele><time>2026-05-03T08:21:40.045Z</time></trkpt><trkpt lat="45.7409147" lon="11.9105976"><ele>69.0</ele><time>2026-05-03T08:21:41.045Z</time></trkpt><trkpt lat="45.7411354" lon="11.9105949"><ele>69.0</ele><time>2026-05-03T08:21:42.045Z</time></trkpt><trkpt lat="45.7413668" lon="11.9105958"><ele>69.0</ele><time>2026-05-03T08:21:43.045Z</time></trkpt><trkpt lat="45.7416062" lon="11.9105827"><ele>69.0</ele><time>2026-05-03T08:21:44.046Z</time></trkpt><trkpt lat="45.7418493" lon="11.910572"><ele>68.5</ele><time>2026-05-03T08:21:45.046Z</time></trkpt><trkpt lat="45.7420946" lon="11.9105552"><ele>68.0</ele><time>2026-05-03T08:21:46.046Z</time></trkpt><trkpt lat="45.7423385" lon="11.9105381"><ele>68.0</ele><time>2026-05-03T08:21:47.045Z</time></trkpt><trkpt lat="45.7425905" lon="11.9105224"><ele>68.0</ele><time>2026-05-03T08:21:48.045Z</time></trkpt><trkpt lat="45.7428416" lon="11.9105042"><ele>69.0</ele><time>2026-05-03T08:21:49.046Z</time></trkpt><trkpt lat="45.7430968" lon="11.9104874"><ele>70.0</ele><time>2026-05-03T08:21:50.044Z</time></trkpt><trkpt lat="45.7433521" lon="11.9104719"><ele>69.0</ele><time>2026-05-03T08:21:51.045Z</time></trkpt><trkpt lat="45.7436048" lon="11.9104559"><ele>68.0</ele><time>2026-05-03T08:21:52.044Z</time></trkpt><trkpt lat="45.7438548" lon="11.9104365"><ele>68.0</ele><time>2026-05-03T08:21:53.046Z</time></trkpt><trkpt lat="45.7441018" lon="11.91042"><ele>68.0</ele><time>2026-05-03T08:21:54.045Z</time></trkpt><trkpt lat="45.7443466" lon="11.9104039"><ele>68.5</ele><time>2026-05-03T08:21:55.044Z</time></trkpt><trkpt lat="45.7445921" lon="11.9103832"><ele>69.0</ele><time>2026-05-03T08:21:56.046Z</time></trkpt><trkpt lat="45.7448281" lon="11.9103654"><ele>69.0</ele><time>2026-05-03T08:21:57.045Z</time></trkpt><trkpt lat="45.7450622" lon="11.9103449"><ele>69.0</ele><time>2026-05-03T08:21:58.044Z</time></trkpt><trkpt lat="45.745288" lon="11.9103325"><ele>70.0</ele><time>2026-05-03T08:21:59.045Z</time></trkpt><trkpt lat="45.7455" lon="11.9103167"><ele>71.0</ele><time>2026-05-03T08:22:00.045Z</time></trkpt><trkpt lat="45.7456995" lon="11.9103016"><ele>72.0</ele><time>2026-05-03T08:22:01.046Z</time></trkpt><trkpt lat="45.7458845" lon="11.9102925"><ele>72.0</ele><time>2026-05-03T08:22:02.044Z</time></trkpt><trkpt lat="45.7460456" lon="11.9102809"><ele>72.0</ele><time>2026-05-03T08:22:03.045Z</time></trkpt><trkpt lat="45.7461907" lon="11.9102791"><ele>72.0</ele><time>2026-05-03T08:22:04.046Z</time></trkpt><trkpt lat="45.7463163" lon="11.9102818"><ele>72.0</ele><time>2026-05-03T08:22:05.046Z</time></trkpt><trkpt lat="45.7464274" lon="11.9102972"><ele>72.0</ele><time>2026-05-03T08:22:06.045Z</time></trkpt><trkpt lat="45.7465235" lon="11.9103396"><ele>72.0</ele><time>2026-05-03T08:22:07.045Z</time></trkpt><trkpt lat="45.7466143" lon="11.9103735"><ele>72.0</ele><time>2026-05-03T08:22:08.045Z</time></trkpt><trkpt lat="45.7467077" lon="11.9103503"><ele>72.0</ele><time>2026-05-03T08:22:09.045Z</time></trkpt><trkpt lat="45.7468095" lon="11.9102958"><ele>72.0</ele><time>2026-05-03T08:22:10.046Z</time></trkpt><trkpt lat="45.7469336" lon="11.9102689"><ele>72.33333333333333</ele><time>2026-05-03T08:22:11.046Z</time></trkpt><trkpt lat="45.7470778" lon="11.9102522"><ele>72.66666666666666</ele><time>2026-05-03T08:22:12.045Z</time></trkpt><trkpt lat="45.7472444" lon="11.9102314"><ele>73.0</ele><time>2026-05-03T08:22:13.046Z</time></trkpt><trkpt lat="45.7474284" lon="11.9102158"><ele>73.0</ele><time>2026-05-03T08:22:14.046Z</time></trkpt><trkpt lat="45.7476303" lon="11.9102011"><ele>73.0</ele><time>2026-05-03T08:22:15.045Z</time></trkpt><trkpt lat="45.7478288" lon="11.9101876"><ele>73.0</ele><time>2026-05-03T08:22:16.044Z</time></trkpt><trkpt lat="45.7480375" lon="11.9101748"><ele>73.33333333333333</ele><time>2026-05-03T08:22:17.045Z</time></trkpt><trkpt lat="45.7482524" lon="11.9101634"><ele>73.66666666666667</ele><time>2026-05-03T08:22:18.045Z</time></trkpt><trkpt lat="45.7484747" lon="11.9101474"><ele>74.0</ele><time>2026-05-03T08:22:19.046Z</time></trkpt><trkpt lat="45.7486975" lon="11.9101331"><ele>74.0</ele><time>2026-05-03T08:22:20.045Z</time></trkpt><trkpt lat="45.7489214" lon="11.9101171"><ele>74.0</ele><time>2026-05-03T08:22:21.045Z</time></trkpt><trkpt lat="45.7491463" lon="11.9101033"><ele>74.0</ele><time>2026-05-03T08:22:22.044Z</time></trkpt><trkpt lat="45.7493715" lon="11.9100929"><ele>74.0</ele><time>2026-05-03T08:22:23.045Z</time></trkpt><trkpt lat="45.7495938" lon="11.9100778"><ele>74.0</ele><time>2026-05-03T08:22:24.045Z</time></trkpt><trkpt lat="45.7498136" lon="11.9100636"><ele>74.0</ele><time>2026-05-03T08:22:25.045Z</time></trkpt><trkpt lat="45.7500356" lon="11.9100477"><ele>74.0</ele><time>2026-05-03T08:22:26.044Z</time></trkpt><trkpt lat="45.7502579" lon="11.9100404"><ele>74.0</ele><time>2026-05-03T08:22:27.045Z</time></trkpt><trkpt lat="45.7504797" lon="11.9100317"><ele>74.0</ele><time>2026-05-03T08:22:28.045Z</time></trkpt><trkpt lat="45.7507007" lon="11.9100171"><ele>74.0</ele><time>2026-05-03T08:22:29.044Z</time></trkpt><trkpt lat="45.7509238" lon="11.9100057"><ele>74.0</ele><time>2026-05-03T08:22:30.046Z</time></trkpt><trkpt lat="45.7511479" lon="11.9099939"><ele>74.0</ele><time>2026-05-03T08:22:31.045Z</time></trkpt><trkpt lat="45.7513687" lon="11.9099815"><ele>74.0</ele><time>2026-05-03T08:22:32.045Z</time></trkpt><trkpt lat="45.7515859" lon="11.9099655"><ele>74.0</ele><time>2026-05-03T08:22:33.045Z</time></trkpt><trkpt lat="45.7518004" lon="11.9099524"><ele>74.0</ele><time>2026-05-03T08:22:34.045Z</time></trkpt><trkpt lat="45.7520128" lon="11.9099374"><ele>75.0</ele><time>2026-05-03T08:22:35.046Z</time></trkpt><trkpt lat="45.7522193" lon="11.9099271"><ele>76.0</ele><time>2026-05-03T08:22:36.045Z</time></trkpt><trkpt lat="45.7524107" lon="11.9099125"><ele>77.0</ele><time>2026-05-03T08:22:37.046Z</time></trkpt><trkpt lat="45.7525921" lon="11.9099028"><ele>76.0</ele><time>2026-05-03T08:22:38.044Z</time></trkpt><trkpt lat="45.752764" lon="11.9098917"><ele>75.0</ele><time>2026-05-03T08:22:39.045Z</time></trkpt><trkpt lat="45.7529231" lon="11.9098811"><ele>74.0</ele><time>2026-05-03T08:22:40.045Z</time></trkpt><trkpt lat="45.7530654" lon="11.9098741"><ele>74.0</ele><time>2026-05-03T08:22:41.044Z</time></trkpt><trkpt lat="45.7531867" lon="11.9098922"><ele>74.0</ele><time>2026-05-03T08:22:42.044Z</time></trkpt><trkpt lat="45.7532912" lon="11.9099368"><ele>74.0</ele><time>2026-05-03T08:22:43.046Z</time></trkpt><trkpt lat="45.7533883" lon="11.9099986"><ele>74.0</ele><time>2026-05-03T08:22:44.045Z</time></trkpt><trkpt lat="45.7534872" lon="11.9100529"><ele>74.0</ele><time>2026-05-03T08:22:45.044Z</time></trkpt><trkpt lat="45.7535978" lon="11.9100642"><ele>74.0</ele><time>2026-05-03T08:22:46.045Z</time></trkpt><trkpt lat="45.7537192" lon="11.9100615"><ele>74.0</ele><time>2026-05-03T08:22:47.045Z</time></trkpt><trkpt lat="45.7538457" lon="11.9100996"><ele>74.0</ele><time>2026-05-03T08:22:48.045Z</time></trkpt><trkpt lat="45.7539698" lon="11.9101664"><ele>74.0</ele><time>2026-05-03T08:22:49.045Z</time></trkpt><trkpt lat="45.7541047" lon="11.9102426"><ele>74.33333333333334</ele><time>2026-05-03T08:22:50.045Z</time></trkpt><trkpt lat="45.7542507" lon="11.9103249"><ele>74.66666666666667</ele><time>2026-05-03T08:22:51.045Z</time></trkpt><trkpt lat="45.7543969" lon="11.9104254"><ele>75.0</ele><time>2026-05-03T08:22:52.045Z</time></trkpt><trkpt lat="45.7545414" lon="11.9105356"><ele>75.5</ele><time>2026-05-03T08:22:53.045Z</time></trkpt><trkpt lat="45.7546752" lon="11.9106324"><ele>76.0</ele><time>2026-05-03T08:22:54.044Z</time></trkpt><trkpt lat="45.7547955" lon="11.9107186"><ele>76.5</ele><time>2026-05-03T08:22:55.046Z</time></trkpt><trkpt lat="45.7549011" lon="11.9107899"><ele>77.0</ele><time>2026-05-03T08:22:56.045Z</time></trkpt><trkpt lat="45.7549882" lon="11.9108569"><ele>77.0</ele><time>2026-05-03T08:22:57.045Z</time></trkpt><trkpt lat="45.7550681" lon="11.9109167"><ele>77.0</ele><time>2026-05-03T08:22:58.045Z</time></trkpt><trkpt lat="45.7551411" lon="11.9109672"><ele>77.0</ele><time>2026-05-03T08:22:59.045Z</time></trkpt><trkpt lat="45.7552078" lon="11.9109946"><ele>77.0</ele><time>2026-05-03T08:23:00.045Z</time></trkpt><trkpt lat="45.7553254" lon="11.9109697"><ele>77.0</ele><time>2026-05-03T08:23:02.046Z</time></trkpt><trkpt lat="45.7553693" lon="11.910817"><ele>77.0</ele><time>2026-05-03T08:23:04.045Z</time></trkpt><trkpt lat="45.755338" lon="11.9107141"><ele>77.0</ele><time>2026-05-03T08:23:05.045Z</time></trkpt><trkpt lat="45.755282" lon="11.9106126"><ele>77.0</ele><time>2026-05-03T08:23:06.046Z</time></trkpt><trkpt lat="45.7552304" lon="11.9104832"><ele>77.0</ele><time>2026-05-03T08:23:07.045Z</time></trkpt><trkpt lat="45.7551942" lon="11.9103173"><ele>77.0</ele><time>2026-05-03T08:23:08.045Z</time></trkpt><trkpt lat="45.7551774" lon="11.9101253"><ele>76.5</ele><time>2026-05-03T08:23:09.046Z</time></trkpt><trkpt lat="45.7551738" lon="11.9099194"><ele>76.0</ele><time>2026-05-03T08:23:10.046Z</time></trkpt><trkpt lat="45.7551769" lon="11.909707"><ele>75.5</ele><time>2026-05-03T08:23:11.045Z</time></trkpt><trkpt lat="45.7551778" lon="11.9094849"><ele>75.0</ele><time>2026-05-03T08:23:12.045Z</time></trkpt><trkpt lat="45.7551783" lon="11.9092577"><ele>75.0</ele><time>2026-05-03T08:23:13.045Z</time></trkpt><trkpt lat="45.7551834" lon="11.9090238"><ele>75.0</ele><time>2026-05-03T08:23:14.045Z</time></trkpt><trkpt lat="45.7551906" lon="11.9087828"><ele>75.0</ele><time>2026-05-03T08:23:15.044Z</time></trkpt><trkpt lat="45.7551973" lon="11.9085369"><ele>74.33333333333333</ele><time>2026-05-03T08:23:16.046Z</time></trkpt><trkpt lat="45.7552039" lon="11.9082835"><ele>73.66666666666666</ele><time>2026-05-03T08:23:17.046Z</time></trkpt><trkpt lat="45.7552121" lon="11.908025"><ele>73.0</ele><time>2026-05-03T08:23:18.045Z</time></trkpt><trkpt lat="45.7552192" lon="11.9077742"><ele>73.66666666666666</ele><time>2026-05-03T08:23:19.046Z</time></trkpt><trkpt lat="45.7552304" lon="11.9075248"><ele>74.33333333333333</ele><time>2026-05-03T08:23:20.044Z</time></trkpt><trkpt lat="45.7552404" lon="11.9072701"><ele>75.0</ele><time>2026-05-03T08:23:21.045Z</time></trkpt><trkpt lat="45.7552507" lon="11.9070123"><ele>75.0</ele><time>2026-05-03T08:23:22.046Z</time></trkpt><trkpt lat="45.7552601" lon="11.9067488"><ele>75.0</ele><time>2026-05-03T08:23:23.045Z</time></trkpt><trkpt lat="45.7552715" lon="11.9064861"><ele>75.0</ele><time>2026-05-03T08:23:24.044Z</time></trkpt><trkpt lat="45.7552762" lon="11.9062168"><ele>75.0</ele><time>2026-05-03T08:23:25.045Z</time></trkpt><trkpt lat="45.7552859" lon="11.9059448"><ele>75.0</ele><time>2026-05-03T08:23:26.045Z</time></trkpt><trkpt lat="45.7552936" lon="11.9056657"><ele>75.0</ele><time>2026-05-03T08:23:27.045Z</time></trkpt><trkpt lat="45.7553037" lon="11.9053889"><ele>75.0</ele><time>2026-05-03T08:23:28.045Z</time></trkpt><trkpt lat="45.7553126" lon="11.9051079"><ele>75.0</ele><time>2026-05-03T08:23:29.045Z</time></trkpt><trkpt lat="45.7553201" lon="11.9048288"><ele>75.0</ele><time>2026-05-03T08:23:30.044Z</time></trkpt><trkpt lat="45.7553254" lon="11.9045543"><ele>75.0</ele><time>2026-05-03T08:23:31.046Z</time></trkpt><trkpt lat="45.7553319" lon="11.9042876"><ele>75.0</ele><time>2026-05-03T08:23:32.046Z</time></trkpt><trkpt lat="45.7553411" lon="11.9040325"><ele>75.0</ele><time>2026-05-03T08:23:33.045Z</time></trkpt><trkpt lat="45.7553527" lon="11.9037844"><ele>74.66666666666667</ele><time>2026-05-03T08:23:34.045Z</time></trkpt><trkpt lat="45.7553619" lon="11.9035516"><ele>74.33333333333334</ele><time>2026-05-03T08:23:35.045Z</time></trkpt><trkpt lat="45.7553718" lon="11.9033349"><ele>74.0</ele><time>2026-05-03T08:23:36.045Z</time></trkpt><trkpt lat="45.7553751" lon="11.9031332"><ele>74.0</ele><time>2026-05-03T08:23:37.045Z</time></trkpt><trkpt lat="45.7553819" lon="11.9029374"><ele>74.0</ele><time>2026-05-03T08:23:38.045Z</time></trkpt><trkpt lat="45.7553869" lon="11.9027481"><ele>74.0</ele><time>2026-05-03T08:23:39.046Z</time></trkpt><trkpt lat="45.7553938" lon="11.9025641"><ele>74.0</ele><time>2026-05-03T08:23:40.046Z</time></trkpt><trkpt lat="45.7554018" lon="11.9023867"><ele>74.25</ele><time>2026-05-03T08:23:41.046Z</time></trkpt><trkpt lat="45.7554086" lon="11.9022104"><ele>74.5</ele><time>2026-05-03T08:23:42.045Z</time></trkpt><trkpt lat="45.7554172" lon="11.9020333"><ele>74.75</ele><time>2026-05-03T08:23:43.045Z</time></trkpt><trkpt lat="45.7554226" lon="11.9018565"><ele>75.0</ele><time>2026-05-03T08:23:44.045Z</time></trkpt><trkpt lat="45.7554266" lon="11.9016805"><ele>75.0</ele><time>2026-05-03T08:23:45.045Z</time></trkpt><trkpt lat="45.7554327" lon="11.9015069"><ele>75.0</ele><time>2026-05-03T08:23:46.045Z</time></trkpt><trkpt lat="45.7554373" lon="11.9013338"><ele>75.0</ele><time>2026-05-03T08:23:47.045Z</time></trkpt><trkpt lat="45.7554429" lon="11.9011626"><ele>75.0</ele><time>2026-05-03T08:23:48.045Z</time></trkpt><trkpt lat="45.7554505" lon="11.9010059"><ele>75.0</ele><time>2026-05-03T08:23:49.045Z</time></trkpt><trkpt lat="45.7554565" lon="11.9008564"><ele>75.0</ele><time>2026-05-03T08:23:50.046Z</time></trkpt><trkpt lat="45.7554599" lon="11.9007149"><ele>75.0</ele><time>2026-05-03T08:23:51.045Z</time></trkpt><trkpt lat="45.7554725" lon="11.9005994"><ele>75.0</ele><time>2026-05-03T08:23:52.046Z</time></trkpt><trkpt lat="45.7555559" lon="11.9004699"><ele>75.0</ele><time>2026-05-03T08:23:54.044Z</time></trkpt><trkpt lat="45.7556294" lon="11.9004343"><ele>75.0</ele><time>2026-05-03T08:23:55.045Z</time></trkpt><trkpt lat="45.7557266" lon="11.9004012"><ele>75.0</ele><time>2026-05-03T08:23:56.044Z</time></trkpt><trkpt lat="45.7558416" lon="11.9003583"><ele>75.0</ele><time>2026-05-03T08:23:57.046Z</time></trkpt><trkpt lat="45.7559715" lon="11.9003072"><ele>75.0</ele><time>2026-05-03T08:23:58.045Z</time></trkpt><trkpt lat="45.7561057" lon="11.9002583"><ele>74.66666666666667</ele><time>2026-05-03T08:23:59.045Z</time></trkpt><trkpt lat="45.7562415" lon="11.9002142"><ele>74.33333333333334</ele><time>2026-05-03T08:24:00.045Z</time></trkpt><trkpt lat="45.7563928" lon="11.9001868"><ele>74.0</ele><time>2026-05-03T08:24:01.044Z</time></trkpt><trkpt lat="45.7565542" lon="11.900169"><ele>74.0</ele><time>2026-05-03T08:24:02.045Z</time></trkpt><trkpt lat="45.756722" lon="11.9001517"><ele>74.0</ele><time>2026-05-03T08:24:03.044Z</time></trkpt><trkpt lat="45.7568958" lon="11.900134"><ele>74.0</ele><time>2026-05-03T08:24:04.045Z</time></trkpt><trkpt lat="45.757074" lon="11.9001178"><ele>74.33333333333334</ele><time>2026-05-03T08:24:05.046Z</time></trkpt><trkpt lat="45.7572581" lon="11.9001036"><ele>74.66666666666667</ele><time>2026-05-03T08:24:06.045Z</time></trkpt><trkpt lat="45.7574481" lon="11.9000874"><ele>75.0</ele><time>2026-05-03T08:24:07.045Z</time></trkpt><trkpt lat="45.7576373" lon="11.9000702"><ele>75.33333333333333</ele><time>2026-05-03T08:24:08.044Z</time></trkpt><trkpt lat="45.7578262" lon="11.9000519"><ele>75.66666666666666</ele><time>2026-05-03T08:24:09.045Z</time></trkpt><trkpt lat="45.7580125" lon="11.9000355"><ele>76.0</ele><time>2026-05-03T08:24:10.045Z</time></trkpt><trkpt lat="45.7581953" lon="11.9000177"><ele>76.0</ele><time>2026-05-03T08:24:11.046Z</time></trkpt><trkpt lat="45.7583675" lon="11.9000037"><ele>76.0</ele><time>2026-05-03T08:24:12.045Z</time></trkpt><trkpt lat="45.7585378" lon="11.8999904"><ele>76.0</ele><time>2026-05-03T08:24:13.046Z</time></trkpt><trkpt lat="45.758704" lon="11.8999873"><ele>75.66666666666666</ele><time>2026-05-03T08:24:14.045Z</time></trkpt><trkpt lat="45.7588645" lon="11.9000074"><ele>75.33333333333333</ele><time>2026-05-03T08:24:15.045Z</time></trkpt><trkpt lat="45.7590232" lon="11.9000459"><ele>75.0</ele><time>2026-05-03T08:24:16.045Z</time></trkpt><trkpt lat="45.7591895" lon="11.9000713"><ele>75.0</ele><time>2026-05-03T08:24:17.044Z</time></trkpt><trkpt lat="45.7593661" lon="11.9000715"><ele>75.0</ele><time>2026-05-03T08:24:18.046Z</time></trkpt><trkpt lat="45.7595431" lon="11.9000716"><ele>75.0</ele><time>2026-05-03T08:24:19.045Z</time></trkpt><trkpt lat="45.7597189" lon="11.9000704"><ele>75.0</ele><time>2026-05-03T08:24:20.046Z</time></trkpt><trkpt lat="45.7599017" lon="11.9000697"><ele>75.0</ele><time>2026-05-03T08:24:21.045Z</time></trkpt><trkpt lat="45.7600833" lon="11.9000664"><ele>75.0</ele><time>2026-05-03T08:24:22.046Z</time></trkpt><trkpt lat="45.7602674" lon="11.9000583"><ele>75.33333333333333</ele><time>2026-05-03T08:24:23.045Z</time></trkpt><trkpt lat="45.7604506" lon="11.9000449"><ele>75.66666666666666</ele><time>2026-05-03T08:24:24.045Z</time></trkpt><trkpt lat="45.7606386" lon="11.9000255"><ele>76.0</ele><time>2026-05-03T08:24:25.045Z</time></trkpt><trkpt lat="45.7608283" lon="11.9000045"><ele>76.0</ele><time>2026-05-03T08:24:26.045Z</time></trkpt><trkpt lat="45.7610144" lon="11.8999811"><ele>76.0</ele><time>2026-05-03T08:24:27.044Z</time></trkpt><trkpt lat="45.7611945" lon="11.8999647"><ele>76.0</ele><time>2026-05-03T08:24:28.045Z</time></trkpt><trkpt lat="45.761372" lon="11.8999563"><ele>77.0</ele><time>2026-05-03T08:24:29.045Z</time></trkpt><trkpt lat="45.7615447" lon="11.8999449"><ele>78.0</ele><time>2026-05-03T08:24:30.045Z</time></trkpt><trkpt lat="45.7617061" lon="11.899939"><ele>79.0</ele><time>2026-05-03T08:24:31.045Z</time></trkpt><trkpt lat="45.7618496" lon="11.8999362"><ele>78.75</ele><time>2026-05-03T08:24:32.045Z</time></trkpt><trkpt lat="45.7619854" lon="11.8999351"><ele>78.5</ele><time>2026-05-03T08:24:33.045Z</time></trkpt><trkpt lat="45.7621155" lon="11.8999353"><ele>78.25</ele><time>2026-05-03T08:24:34.045Z</time></trkpt><trkpt lat="45.7622419" lon="11.899936"><ele>78.0</ele><time>2026-05-03T08:24:35.045Z</time></trkpt><trkpt lat="45.7623623" lon="11.8999325"><ele>78.0</ele><time>2026-05-03T08:24:36.045Z</time></trkpt><trkpt lat="45.7624778" lon="11.8999266"><ele>78.0</ele><time>2026-05-03T08:24:37.045Z</time></trkpt><trkpt lat="45.762584" lon="11.8999138"><ele>78.0</ele><time>2026-05-03T08:24:38.045Z</time></trkpt><trkpt lat="45.7626726" lon="11.8998882"><ele>78.0</ele><time>2026-05-03T08:24:39.044Z</time></trkpt><trkpt lat="45.762744" lon="11.8998477"><ele>78.0</ele><time>2026-05-03T08:24:40.045Z</time></trkpt><trkpt lat="45.7628283" lon="11.8997397"><ele>78.0</ele><time>2026-05-03T08:24:42.045Z</time></trkpt><trkpt lat="45.762828" lon="11.8996321"><ele>78.0</ele><time>2026-05-03T08:24:43.045Z</time></trkpt><trkpt lat="45.7628109" lon="11.8994911"><ele>78.0</ele><time>2026-05-03T08:24:44.045Z</time></trkpt><trkpt lat="45.7627959" lon="11.8993088"><ele>78.0</ele><time>2026-05-03T08:24:45.045Z</time></trkpt><trkpt lat="45.7627959" lon="11.899108"><ele>78.0</ele><time>2026-05-03T08:24:46.046Z</time></trkpt><trkpt lat="45.7627988" lon="11.8988851"><ele>78.0</ele><time>2026-05-03T08:24:47.046Z</time></trkpt><trkpt lat="45.762805" lon="11.8986297"><ele>78.0</ele><time>2026-05-03T08:24:48.046Z</time></trkpt><trkpt lat="45.7628088" lon="11.89836"><ele>78.0</ele><time>2026-05-03T08:24:49.045Z</time></trkpt><trkpt lat="45.7628148" lon="11.8980856"><ele>78.0</ele><time>2026-05-03T08:24:50.045Z</time></trkpt><trkpt lat="45.7628198" lon="11.897787"><ele>78.0</ele><time>2026-05-03T08:24:51.045Z</time></trkpt><trkpt lat="45.7628269" lon="11.8974725"><ele>78.0</ele><time>2026-05-03T08:24:52.045Z</time></trkpt><trkpt lat="45.7628343" lon="11.8971557"><ele>77.66666666666667</ele><time>2026-05-03T08:24:53.045Z</time></trkpt><trkpt lat="45.7628403" lon="11.8968406"><ele>77.33333333333334</ele><time>2026-05-03T08:24:54.045Z</time></trkpt><trkpt lat="45.7628458" lon="11.8965239"><ele>77.0</ele><time>2026-05-03T08:24:55.044Z</time></trkpt><trkpt lat="45.7628532" lon="11.8961999"><ele>77.0</ele><time>2026-05-03T08:24:56.044Z</time></trkpt><trkpt lat="45.7628562" lon="11.8958735"><ele>77.0</ele><time>2026-05-03T08:24:57.045Z</time></trkpt><trkpt lat="45.7628643" lon="11.8955499"><ele>77.0</ele><time>2026-05-03T08:24:58.046Z</time></trkpt><trkpt lat="45.7628683" lon="11.8952303"><ele>77.0</ele><time>2026-05-03T08:24:59.045Z</time></trkpt><trkpt lat="45.7628752" lon="11.8949094"><ele>77.0</ele><time>2026-05-03T08:25:00.046Z</time></trkpt><trkpt lat="45.7628873" lon="11.8945998"><ele>77.33333333333334</ele><time>2026-05-03T08:25:01.045Z</time></trkpt><trkpt lat="45.762894" lon="11.8942865"><ele>77.66666666666667</ele><time>2026-05-03T08:25:02.046Z</time></trkpt><trkpt lat="45.7628978" lon="11.893976"><ele>78.0</ele><time>2026-05-03T08:25:03.045Z</time></trkpt><trkpt lat="45.7629018" lon="11.8936736"><ele>78.0</ele><time>2026-05-03T08:25:04.045Z</time></trkpt><trkpt lat="45.7629089" lon="11.8933767"><ele>78.0</ele><time>2026-05-03T08:25:05.045Z</time></trkpt><trkpt lat="45.7629145" lon="11.8930843"><ele>78.0</ele><time>2026-05-03T08:25:06.045Z</time></trkpt><trkpt lat="45.7629178" lon="11.8927933"><ele>78.0</ele><time>2026-05-03T08:25:07.046Z</time></trkpt><trkpt lat="45.762924" lon="11.8925062"><ele>78.0</ele><time>2026-05-03T08:25:08.046Z</time></trkpt><trkpt lat="45.7629287" lon="11.8922338"><ele>78.0</ele><time>2026-05-03T08:25:09.045Z</time></trkpt><trkpt lat="45.7629391" lon="11.8919737"><ele>78.0</ele><time>2026-05-03T08:25:10.045Z</time></trkpt><trkpt lat="45.7629462" lon="11.8917334"><ele>78.0</ele><time>2026-05-03T08:25:11.045Z</time></trkpt><trkpt lat="45.7629586" lon="11.8915092"><ele>78.0</ele><time>2026-05-03T08:25:12.045Z</time></trkpt><trkpt lat="45.7629694" lon="11.8913004"><ele>78.0</ele><time>2026-05-03T08:25:13.045Z</time></trkpt><trkpt lat="45.7629779" lon="11.891106"><ele>78.0</ele><time>2026-05-03T08:25:14.045Z</time></trkpt><trkpt lat="45.7629917" lon="11.8909182"><ele>78.0</ele><time>2026-05-03T08:25:15.045Z</time></trkpt><trkpt lat="45.763006" lon="11.8907328"><ele>78.0</ele><time>2026-05-03T08:25:16.044Z</time></trkpt><trkpt lat="45.7630251" lon="11.890544"><ele>78.25</ele><time>2026-05-03T08:25:17.046Z</time></trkpt><trkpt lat="45.7630485" lon="11.8903477"><ele>78.5</ele><time>2026-05-03T08:25:18.045Z</time></trkpt><trkpt lat="45.7630742" lon="11.8901549"><ele>78.75</ele><time>2026-05-03T08:25:19.045Z</time></trkpt><trkpt lat="45.7631029" lon="11.8899563"><ele>79.0</ele><time>2026-05-03T08:25:20.045Z</time></trkpt><trkpt lat="45.7631446" lon="11.8897513"><ele>79.0</ele><time>2026-05-03T08:25:21.046Z</time></trkpt><trkpt lat="45.7631957" lon="11.8895427"><ele>79.0</ele><time>2026-05-03T08:25:22.045Z</time></trkpt><trkpt lat="45.7632576" lon="11.8893269"><ele>79.0</ele><time>2026-05-03T08:25:23.046Z</time></trkpt><trkpt lat="45.7633166" lon="11.8891033"><ele>79.0</ele><time>2026-05-03T08:25:24.045Z</time></trkpt><trkpt lat="45.7633751" lon="11.888872"><ele>79.0</ele><time>2026-05-03T08:25:25.045Z</time></trkpt><trkpt lat="45.7634278" lon="11.8886399"><ele>79.0</ele><time>2026-05-03T08:25:26.045Z</time></trkpt><trkpt lat="45.7634817" lon="11.8884104"><ele>78.66666666666666</ele><time>2026-05-03T08:25:27.044Z</time></trkpt><trkpt lat="45.7635351" lon="11.8881814"><ele>78.33333333333333</ele><time>2026-05-03T08:25:28.044Z</time></trkpt><trkpt lat="45.7635875" lon="11.8879609"><ele>78.0</ele><time>2026-05-03T08:25:29.045Z</time></trkpt><trkpt lat="45.7636333" lon="11.887746"><ele>78.33333333333333</ele><time>2026-05-03T08:25:30.045Z</time></trkpt><trkpt lat="45.7636703" lon="11.8875282"><ele>78.66666666666666</ele><time>2026-05-03T08:25:31.045Z</time></trkpt><trkpt lat="45.7636885" lon="11.8873181"><ele>79.0</ele><time>2026-05-03T08:25:32.045Z</time></trkpt><trkpt lat="45.7636892" lon="11.8871041"><ele>79.0</ele><time>2026-05-03T08:25:33.046Z</time></trkpt><trkpt lat="45.763687" lon="11.8868978"><ele>79.0</ele><time>2026-05-03T08:25:34.046Z</time></trkpt><trkpt lat="45.7637012" lon="11.886704"><ele>79.0</ele><time>2026-05-03T08:25:35.045Z</time></trkpt><trkpt lat="45.763727" lon="11.8865297"><ele>79.0</ele><time>2026-05-03T08:25:36.045Z</time></trkpt><trkpt lat="45.763747" lon="11.8863701"><ele>79.2</ele><time>2026-05-03T08:25:37.046Z</time></trkpt><trkpt lat="45.7637518" lon="11.8862221"><ele>79.4</ele><time>2026-05-03T08:25:38.045Z</time></trkpt><trkpt lat="45.7637389" lon="11.8860742"><ele>79.6</ele><time>2026-05-03T08:25:39.045Z</time></trkpt><trkpt lat="45.7637067" lon="11.8859315"><ele>79.8</ele><time>2026-05-03T08:25:40.045Z</time></trkpt><trkpt lat="45.7636682" lon="11.8857966"><ele>80.0</ele><time>2026-05-03T08:25:41.046Z</time></trkpt><trkpt lat="45.7636372" lon="11.8856576"><ele>80.0</ele><time>2026-05-03T08:25:42.044Z</time></trkpt><trkpt lat="45.7636144" lon="11.8855073"><ele>80.0</ele><time>2026-05-03T08:25:43.046Z</time></trkpt><trkpt lat="45.763605" lon="11.8853581"><ele>80.0</ele><time>2026-05-03T08:25:44.045Z</time></trkpt><trkpt lat="45.7636097" lon="11.8852043"><ele>80.0</ele><time>2026-05-03T08:25:45.046Z</time></trkpt><trkpt lat="45.7636105" lon="11.8850517"><ele>80.0</ele><time>2026-05-03T08:25:46.046Z</time></trkpt><trkpt lat="45.7636054" lon="11.8849193"><ele>79.83333333333334</ele><time>2026-05-03T08:25:47.044Z</time></trkpt><trkpt lat="45.7636068" lon="11.8848147"><ele>79.66666666666667</ele><time>2026-05-03T08:25:48.046Z</time></trkpt><trkpt lat="45.7636339" lon="11.884696"><ele>79.5</ele><time>2026-05-03T08:25:50.046Z</time></trkpt><trkpt lat="45.7636896" lon="11.8846161"><ele>79.33333333333333</ele><time>2026-05-03T08:25:53.044Z</time></trkpt><trkpt lat="45.7637307" lon="11.8845437"><ele>79.16666666666666</ele><time>2026-05-03T08:25:55.045Z</time></trkpt><trkpt lat="45.7638352" lon="11.8845227"><ele>79.0</ele><time>2026-05-03T08:25:57.046Z</time></trkpt><trkpt lat="45.7638924" lon="11.8845755"><ele>79.0</ele><time>2026-05-03T08:25:58.045Z</time></trkpt><trkpt lat="45.7639439" lon="11.8846617"><ele>79.0</ele><time>2026-05-03T08:25:59.046Z</time></trkpt><trkpt lat="45.7640044" lon="11.8847547"><ele>79.0</ele><time>2026-05-03T08:26:00.045Z</time></trkpt><trkpt lat="45.7640859" lon="11.8848414"><ele>79.0</ele><time>2026-05-03T08:26:01.046Z</time></trkpt><trkpt lat="45.7641736" lon="11.8849288"><ele>79.0</ele><time>2026-05-03T08:26:02.045Z</time></trkpt><trkpt lat="45.764268" lon="11.88502"><ele>79.5</ele><time>2026-05-03T08:26:03.046Z</time></trkpt><trkpt lat="45.7643657" lon="11.8851041"><ele>80.0</ele><time>2026-05-03T08:26:04.045Z</time></trkpt><trkpt lat="45.764474" lon="11.8851735"><ele>80.5</ele><time>2026-05-03T08:26:05.044Z</time></trkpt><trkpt lat="45.7645903" lon="11.885232"><ele>81.0</ele><time>2026-05-03T08:26:06.046Z</time></trkpt><trkpt lat="45.7647167" lon="11.8852793"><ele>81.0</ele><time>2026-05-03T08:26:07.045Z</time></trkpt><trkpt lat="45.7648464" lon="11.8853135"><ele>81.0</ele><time>2026-05-03T08:26:08.044Z</time></trkpt><trkpt lat="45.7649814" lon="11.8853392"><ele>81.0</ele><time>2026-05-03T08:26:09.046Z</time></trkpt><trkpt lat="45.7651204" lon="11.885362"><ele>81.0</ele><time>2026-05-03T08:26:10.045Z</time></trkpt><trkpt lat="45.7652633" lon="11.8853812"><ele>81.5</ele><time>2026-05-03T08:26:11.045Z</time></trkpt><trkpt lat="45.7654122" lon="11.8853913"><ele>82.0</ele><time>2026-05-03T08:26:12.045Z</time></trkpt><trkpt lat="45.7655588" lon="11.8853929"><ele>82.5</ele><time>2026-05-03T08:26:13.045Z</time></trkpt><trkpt lat="45.7657016" lon="11.8853956"><ele>83.0</ele><time>2026-05-03T08:26:14.044Z</time></trkpt><trkpt lat="45.7658266" lon="11.8854135"><ele>83.0</ele><time>2026-05-03T08:26:15.046Z</time></trkpt><trkpt lat="45.7659397" lon="11.8854249"><ele>83.0</ele><time>2026-05-03T08:26:16.044Z</time></trkpt><trkpt lat="45.766039" lon="11.8854369"><ele>83.0</ele><time>2026-05-03T08:26:17.046Z</time></trkpt><trkpt lat="45.7661269" lon="11.8854385"><ele>83.0</ele><time>2026-05-03T08:26:18.046Z</time></trkpt><trkpt lat="45.7661981" lon="11.8854065"><ele>83.0</ele><time>2026-05-03T08:26:19.045Z</time></trkpt><trkpt lat="45.7662438" lon="11.8853418"><ele>83.0</ele><time>2026-05-03T08:26:20.044Z</time></trkpt><trkpt lat="45.7663116" lon="11.8852466"><ele>82.4</ele><time>2026-05-03T08:26:22.046Z</time></trkpt><trkpt lat="45.7664308" lon="11.8852534"><ele>81.80000000000001</ele><time>2026-05-03T08:26:24.045Z</time></trkpt><trkpt lat="45.7665075" lon="11.8852783"><ele>81.2</ele><time>2026-05-03T08:26:25.045Z</time></trkpt><trkpt lat="45.7665966" lon="11.8853052"><ele>80.6</ele><time>2026-05-03T08:26:26.045Z</time></trkpt><trkpt lat="45.7666945" lon="11.8853354"><ele>80.0</ele><time>2026-05-03T08:26:27.045Z</time></trkpt><trkpt lat="45.7667929" lon="11.8853677"><ele>80.2</ele><time>2026-05-03T08:26:28.044Z</time></trkpt><trkpt lat="45.7668889" lon="11.885398"><ele>80.4</ele><time>2026-05-03T08:26:29.046Z</time></trkpt><trkpt lat="45.7669876" lon="11.8854312"><ele>80.6</ele><time>2026-05-03T08:26:30.045Z</time></trkpt><trkpt lat="45.7670816" lon="11.8854623"><ele>80.8</ele><time>2026-05-03T08:26:31.044Z</time></trkpt><trkpt lat="45.7671722" lon="11.8854903"><ele>81.0</ele><time>2026-05-03T08:26:32.045Z</time></trkpt><trkpt lat="45.7672673" lon="11.885504"><ele>81.0</ele><time>2026-05-03T08:26:33.045Z</time></trkpt><trkpt lat="45.7673622" lon="11.8855042"><ele>81.0</ele><time>2026-05-03T08:26:34.044Z</time></trkpt><trkpt lat="45.7674603" lon="11.8854973"><ele>81.0</ele><time>2026-05-03T08:26:35.044Z</time></trkpt><trkpt lat="45.7675563" lon="11.885486"><ele>81.0</ele><time>2026-05-03T08:26:36.045Z</time></trkpt><trkpt lat="45.7676537" lon="11.8854805"><ele>81.0</ele><time>2026-05-03T08:26:37.046Z</time></trkpt><trkpt lat="45.7677461" lon="11.8854695"><ele>81.19999999999999</ele><time>2026-05-03T08:26:38.045Z</time></trkpt><trkpt lat="45.7678337" lon="11.8854741"><ele>81.39999999999999</ele><time>2026-05-03T08:26:39.045Z</time></trkpt><trkpt lat="45.7679255" lon="11.8855019"><ele>81.6</ele><time>2026-05-03T08:26:40.045Z</time></trkpt><trkpt lat="45.7680212" lon="11.8855147"><ele>81.8</ele><time>2026-05-03T08:26:41.045Z</time></trkpt><trkpt lat="45.7681157" lon="11.8855275"><ele>82.0</ele><time>2026-05-03T08:26:42.045Z</time></trkpt><trkpt lat="45.7682096" lon="11.8855201"><ele>82.0</ele><time>2026-05-03T08:26:43.045Z</time></trkpt><trkpt lat="45.7683149" lon="11.8855057"><ele>82.0</ele><time>2026-05-03T08:26:44.046Z</time></trkpt><trkpt lat="45.7684187" lon="11.8854961"><ele>82.0</ele><time>2026-05-03T08:26:45.046Z</time></trkpt><trkpt lat="45.7685295" lon="11.8854888"><ele>82.0</ele><time>2026-05-03T08:26:46.045Z</time></trkpt><trkpt lat="45.7686402" lon="11.8854789"><ele>82.0</ele><time>2026-05-03T08:26:47.045Z</time></trkpt><trkpt lat="45.768752" lon="11.8854715"><ele>82.0</ele><time>2026-05-03T08:26:48.044Z</time></trkpt><trkpt lat="45.7688629" lon="11.8854699"><ele>82.0</ele><time>2026-05-03T08:26:49.046Z</time></trkpt><trkpt lat="45.7689702" lon="11.8854593"><ele>82.0</ele><time>2026-05-03T08:26:50.045Z</time></trkpt><trkpt lat="45.7690723" lon="11.8854353"><ele>82.0</ele><time>2026-05-03T08:26:51.046Z</time></trkpt><trkpt lat="45.7691743" lon="11.8854017"><ele>82.0</ele><time>2026-05-03T08:26:52.046Z</time></trkpt><trkpt lat="45.7692751" lon="11.8853599"><ele>82.0</ele><time>2026-05-03T08:26:53.045Z</time></trkpt><trkpt lat="45.7693747" lon="11.8853134"><ele>82.0</ele><time>2026-05-03T08:26:54.044Z</time></trkpt><trkpt lat="45.7694757" lon="11.8852696"><ele>82.0</ele><time>2026-05-03T08:26:55.046Z</time></trkpt><trkpt lat="45.7695772" lon="11.8852364"><ele>82.0</ele><time>2026-05-03T08:26:56.045Z</time></trkpt><trkpt lat="45.7696641" lon="11.8852092"><ele>82.0</ele><time>2026-05-03T08:26:57.044Z</time></trkpt><trkpt lat="45.7697512" lon="11.8851783"><ele>82.0</ele><time>2026-05-03T08:26:58.046Z</time></trkpt><trkpt lat="45.7698326" lon="11.8851385"><ele>82.0</ele><time>2026-05-03T08:26:59.045Z</time></trkpt><trkpt lat="45.7699004" lon="11.8850743"><ele>82.0</ele><time>2026-05-03T08:27:00.046Z</time></trkpt><trkpt lat="45.7699557" lon="11.8849837"><ele>82.0</ele><time>2026-05-03T08:27:01.046Z</time></trkpt><trkpt lat="45.7699972" lon="11.884881"><ele>82.0</ele><time>2026-05-03T08:27:02.045Z</time></trkpt><trkpt lat="45.7700405" lon="11.8847766"><ele>82.0</ele><time>2026-05-03T08:27:03.044Z</time></trkpt><trkpt lat="45.7701009" lon="11.8846899"><ele>82.0</ele><time>2026-05-03T08:27:04.046Z</time></trkpt><trkpt lat="45.770177" lon="11.8846296"><ele>82.0</ele><time>2026-05-03T08:27:05.045Z</time></trkpt><trkpt lat="45.7702572" lon="11.8845908"><ele>82.0</ele><time>2026-05-03T08:27:06.045Z</time></trkpt><trkpt lat="45.7703419" lon="11.8845626"><ele>82.0</ele><time>2026-05-03T08:27:07.045Z</time></trkpt><trkpt lat="45.7704337" lon="11.8845459"><ele>82.0</ele><time>2026-05-03T08:27:08.046Z</time></trkpt><trkpt lat="45.7705272" lon="11.8845103"><ele>82.0</ele><time>2026-05-03T08:27:09.045Z</time></trkpt><trkpt lat="45.7706178" lon="11.8844462"><ele>82.0</ele><time>2026-05-03T08:27:10.045Z</time></trkpt><trkpt lat="45.7707046" lon="11.8843638"><ele>82.0</ele><time>2026-05-03T08:27:11.045Z</time></trkpt><trkpt lat="45.7707805" lon="11.8842635"><ele>82.0</ele><time>2026-05-03T08:27:12.045Z</time></trkpt><trkpt lat="45.7708494" lon="11.8841669"><ele>82.0</ele><time>2026-05-03T08:27:13.045Z</time></trkpt><trkpt lat="45.7709317" lon="11.8840856"><ele>82.0</ele><time>2026-05-03T08:27:14.044Z</time></trkpt><trkpt lat="45.7710222" lon="11.8840267"><ele>82.0</ele><time>2026-05-03T08:27:15.045Z</time></trkpt><trkpt lat="45.7711179" lon="11.8839846"><ele>82.0</ele><time>2026-05-03T08:27:16.046Z</time></trkpt><trkpt lat="45.7712149" lon="11.8839455"><ele>82.0</ele><time>2026-05-03T08:27:17.046Z</time></trkpt><trkpt lat="45.7713092" lon="11.8839073"><ele>82.0</ele><time>2026-05-03T08:27:18.044Z</time></trkpt><trkpt lat="45.7714002" lon="11.8838661"><ele>82.0</ele><time>2026-05-03T08:27:19.045Z</time></trkpt><trkpt lat="45.7714823" lon="11.8838309"><ele>82.0</ele><time>2026-05-03T08:27:20.045Z</time></trkpt><trkpt lat="45.7715675" lon="11.8837967"><ele>82.0</ele><time>2026-05-03T08:27:21.045Z</time></trkpt><trkpt lat="45.7716535" lon="11.8837552"><ele>82.0</ele><time>2026-05-03T08:27:22.046Z</time></trkpt><trkpt lat="45.7717405" lon="11.88371"><ele>82.0</ele><time>2026-05-03T08:27:23.044Z</time></trkpt><trkpt lat="45.7718274" lon="11.8836636"><ele>82.0</ele><time>2026-05-03T08:27:24.044Z</time></trkpt><trkpt lat="45.7719177" lon="11.8836246"><ele>82.0</ele><time>2026-05-03T08:27:25.045Z</time></trkpt><trkpt lat="45.7720076" lon="11.883584"><ele>82.0</ele><time>2026-05-03T08:27:26.045Z</time></trkpt><trkpt lat="45.7720983" lon="11.8835477"><ele>82.0</ele><time>2026-05-03T08:27:27.045Z</time></trkpt><trkpt lat="45.7721856" lon="11.8835039"><ele>82.0</ele><time>2026-05-03T08:27:28.045Z</time></trkpt><trkpt lat="45.7722763" lon="11.8834643"><ele>82.0</ele><time>2026-05-03T08:27:29.045Z</time></trkpt><trkpt lat="45.7723677" lon="11.8834263"><ele>81.8</ele><time>2026-05-03T08:27:30.045Z</time></trkpt><trkpt lat="45.7724612" lon="11.8833895"><ele>81.6</ele><time>2026-05-03T08:27:31.045Z</time></trkpt><trkpt lat="45.7725573" lon="11.88335"><ele>81.39999999999999</ele><time>2026-05-03T08:27:32.045Z</time></trkpt><trkpt lat="45.7726546" lon="11.8833088"><ele>81.19999999999999</ele><time>2026-05-03T08:27:33.046Z</time></trkpt><trkpt lat="45.7727506" lon="11.8832695"><ele>81.0</ele><time>2026-05-03T08:27:34.045Z</time></trkpt><trkpt lat="45.7728486" lon="11.8832305"><ele>81.0</ele><time>2026-05-03T08:27:35.046Z</time></trkpt><trkpt lat="45.7729476" lon="11.8831917"><ele>81.0</ele><time>2026-05-03T08:27:36.045Z</time></trkpt><trkpt lat="45.7730442" lon="11.8831557"><ele>81.0</ele><time>2026-05-03T08:27:37.046Z</time></trkpt><trkpt lat="45.7731391" lon="11.8831221"><ele>81.0</ele><time>2026-05-03T08:27:38.045Z</time></trkpt><trkpt lat="45.7732342" lon="11.8830912"><ele>81.0</ele><time>2026-05-03T08:27:39.046Z</time></trkpt><trkpt lat="45.7733294" lon="11.8830578"><ele>81.0</ele><time>2026-05-03T08:27:40.045Z</time></trkpt><trkpt lat="45.7734191" lon="11.8830099"><ele>81.0</ele><time>2026-05-03T08:27:41.045Z</time></trkpt><trkpt lat="45.7735031" lon="11.8829505"><ele>81.0</ele><time>2026-05-03T08:27:42.045Z</time></trkpt><trkpt lat="45.773589" lon="11.8828911"><ele>81.0</ele><time>2026-05-03T08:27:43.045Z</time></trkpt><trkpt lat="45.7736782" lon="11.8828361"><ele>81.0</ele><time>2026-05-03T08:27:44.045Z</time></trkpt><trkpt lat="45.7737715" lon="11.8827904"><ele>81.19999999999999</ele><time>2026-05-03T08:27:45.045Z</time></trkpt><trkpt lat="45.7738649" lon="11.8827535"><ele>81.39999999999999</ele><time>2026-05-03T08:27:46.046Z</time></trkpt><trkpt lat="45.7739569" lon="11.8827177"><ele>81.6</ele><time>2026-05-03T08:27:47.045Z</time></trkpt><trkpt lat="45.7740517" lon="11.8826809"><ele>81.8</ele><time>2026-05-03T08:27:48.045Z</time></trkpt><trkpt lat="45.7741467" lon="11.8826452"><ele>82.0</ele><time>2026-05-03T08:27:49.045Z</time></trkpt><trkpt lat="45.7742443" lon="11.882613"><ele>82.0</ele><time>2026-05-03T08:27:50.045Z</time></trkpt><trkpt lat="45.7743416" lon="11.882576"><ele>82.0</ele><time>2026-05-03T08:27:51.044Z</time></trkpt><trkpt lat="45.7744408" lon="11.8825395"><ele>82.0</ele><time>2026-05-03T08:27:52.045Z</time></trkpt><trkpt lat="45.7745398" lon="11.882504"><ele>82.0</ele><time>2026-05-03T08:27:53.046Z</time></trkpt><trkpt lat="45.7746379" lon="11.8824665"><ele>82.0</ele><time>2026-05-03T08:27:54.046Z</time></trkpt><trkpt lat="45.7747366" lon="11.8824282"><ele>82.6</ele><time>2026-05-03T08:27:55.045Z</time></trkpt><trkpt lat="45.774835" lon="11.8823873"><ele>83.19999999999999</ele><time>2026-05-03T08:27:56.046Z</time></trkpt><trkpt lat="45.7749324" lon="11.8823442"><ele>83.8</ele><time>2026-05-03T08:27:57.045Z</time></trkpt><trkpt lat="45.7750255" lon="11.882299"><ele>84.4</ele><time>2026-05-03T08:27:58.045Z</time></trkpt><trkpt lat="45.7751136" lon="11.8822585"><ele>85.0</ele><time>2026-05-03T08:27:59.046Z</time></trkpt><trkpt lat="45.7751938" lon="11.8822188"><ele>85.0</ele><time>2026-05-03T08:28:00.045Z</time></trkpt><trkpt lat="45.7752701" lon="11.8821853"><ele>85.0</ele><time>2026-05-03T08:28:01.045Z</time></trkpt><trkpt lat="45.7753432" lon="11.8821595"><ele>85.0</ele><time>2026-05-03T08:28:02.046Z</time></trkpt><trkpt lat="45.7754131" lon="11.8821416"><ele>85.0</ele><time>2026-05-03T08:28:03.045Z</time></trkpt><trkpt lat="45.7754801" lon="11.8821286"><ele>85.0</ele><time>2026-05-03T08:28:04.044Z</time></trkpt><trkpt lat="45.7755441" lon="11.8821163"><ele>85.0</ele><time>2026-05-03T08:28:05.045Z</time></trkpt><trkpt lat="45.7756095" lon="11.8821052"><ele>85.0</ele><time>2026-05-03T08:28:06.045Z</time></trkpt><trkpt lat="45.7756794" lon="11.8820948"><ele>85.0</ele><time>2026-05-03T08:28:07.045Z</time></trkpt><trkpt lat="45.775755" lon="11.8820875"><ele>85.0</ele><time>2026-05-03T08:28:08.044Z</time></trkpt><trkpt lat="45.7758353" lon="11.8820764"><ele>85.0</ele><time>2026-05-03T08:28:09.046Z</time></trkpt><trkpt lat="45.7759209" lon="11.8820597"><ele>85.0</ele><time>2026-05-03T08:28:10.045Z</time></trkpt><trkpt lat="45.7760099" lon="11.8820407"><ele>85.0</ele><time>2026-05-03T08:28:11.045Z</time></trkpt><trkpt lat="45.7761029" lon="11.8820176"><ele>85.0</ele><time>2026-05-03T08:28:12.044Z</time></trkpt><trkpt lat="45.7762008" lon="11.8819913"><ele>85.0</ele><time>2026-05-03T08:28:13.046Z</time></trkpt><trkpt lat="45.7763016" lon="11.8819594"><ele>85.0</ele><time>2026-05-03T08:28:14.045Z</time></trkpt><trkpt lat="45.7764058" lon="11.8819274"><ele>85.0</ele><time>2026-05-03T08:28:15.046Z</time></trkpt><trkpt lat="45.7765142" lon="11.8818957"><ele>85.0</ele><time>2026-05-03T08:28:16.044Z</time></trkpt><trkpt lat="45.7766257" lon="11.8818619"><ele>85.0</ele><time>2026-05-03T08:28:17.044Z</time></trkpt><trkpt lat="45.7767393" lon="11.8818311"><ele>85.0</ele><time>2026-05-03T08:28:18.045Z</time></trkpt><trkpt lat="45.7768552" lon="11.8818021"><ele>85.0</ele><time>2026-05-03T08:28:19.045Z</time></trkpt><trkpt lat="45.7769748" lon="11.8817712"><ele>85.0</ele><time>2026-05-03T08:28:20.044Z</time></trkpt><trkpt lat="45.7771004" lon="11.8817428"><ele>85.0</ele><time>2026-05-03T08:28:21.046Z</time></trkpt><trkpt lat="45.7772265" lon="11.8817137"><ele>85.5</ele><time>2026-05-03T08:28:22.045Z</time></trkpt><trkpt lat="45.7773477" lon="11.8816788"><ele>86.0</ele><time>2026-05-03T08:28:23.045Z</time></trkpt><trkpt lat="45.7774615" lon="11.8816297"><ele>86.5</ele><time>2026-05-03T08:28:24.045Z</time></trkpt><trkpt lat="45.7775705" lon="11.8815646"><ele>87.0</ele><time>2026-05-03T08:28:25.044Z</time></trkpt><trkpt lat="45.7776786" lon="11.8814915"><ele>87.75</ele><time>2026-05-03T08:28:26.045Z</time></trkpt><trkpt lat="45.7777906" lon="11.8814292"><ele>88.5</ele><time>2026-05-03T08:28:27.045Z</time></trkpt><trkpt lat="45.7779083" lon="11.8813871"><ele>89.25</ele><time>2026-05-03T08:28:28.045Z</time></trkpt><trkpt lat="45.7780287" lon="11.8813554"><ele>90.0</ele><time>2026-05-03T08:28:29.044Z</time></trkpt><trkpt lat="45.7781453" lon="11.8813222"><ele>90.0</ele><time>2026-05-03T08:28:30.045Z</time></trkpt><trkpt lat="45.7782496" lon="11.8812864"><ele>90.0</ele><time>2026-05-03T08:28:31.046Z</time></trkpt><trkpt lat="45.778337" lon="11.8812483"><ele>90.0</ele><time>2026-05-03T08:28:32.045Z</time></trkpt><trkpt lat="45.7784117" lon="11.881203"><ele>90.0</ele><time>2026-05-03T08:28:33.045Z</time></trkpt><trkpt lat="45.7784734" lon="11.8811574"><ele>90.0</ele><time>2026-05-03T08:28:34.045Z</time></trkpt><trkpt lat="45.7785632" lon="11.881102"><ele>90.0</ele><time>2026-05-03T08:28:36.044Z</time></trkpt><trkpt lat="45.7786085" lon="11.8810381"><ele>90.16666666666667</ele><time>2026-05-03T08:28:39.045Z</time></trkpt><trkpt lat="45.7786157" lon="11.8809202"><ele>90.33333333333333</ele><time>2026-05-03T08:28:41.045Z</time></trkpt><trkpt lat="45.7786016" lon="11.8808259"><ele>90.5</ele><time>2026-05-03T08:28:42.045Z</time></trkpt><trkpt lat="45.7785858" lon="11.8807166"><ele>90.66666666666666</ele><time>2026-05-03T08:28:43.045Z</time></trkpt><trkpt lat="45.7785716" lon="11.8805926"><ele>90.83333333333333</ele><time>2026-05-03T08:28:44.046Z</time></trkpt><trkpt lat="45.7785598" lon="11.880451"><ele>91.0</ele><time>2026-05-03T08:28:45.046Z</time></trkpt><trkpt lat="45.7785525" lon="11.8803043"><ele>91.0</ele><time>2026-05-03T08:28:46.045Z</time></trkpt><trkpt lat="45.7785388" lon="11.8801571"><ele>91.0</ele><time>2026-05-03T08:28:47.045Z</time></trkpt><trkpt lat="45.7785153" lon="11.8800054"><ele>91.0</ele><time>2026-05-03T08:28:48.046Z</time></trkpt><trkpt lat="45.7784805" lon="11.8798537"><ele>91.0</ele><time>2026-05-03T08:28:49.045Z</time></trkpt><trkpt lat="45.7784381" lon="11.8797021"><ele>91.0</ele><time>2026-05-03T08:28:50.045Z</time></trkpt><trkpt lat="45.7783949" lon="11.8795479"><ele>91.0</ele><time>2026-05-03T08:28:51.046Z</time></trkpt><trkpt lat="45.7783541" lon="11.8793931"><ele>91.0</ele><time>2026-05-03T08:28:52.045Z</time></trkpt><trkpt lat="45.778308" lon="11.8792429"><ele>91.0</ele><time>2026-05-03T08:28:53.044Z</time></trkpt><trkpt lat="45.7782557" lon="11.8790875"><ele>91.0</ele><time>2026-05-03T08:28:54.044Z</time></trkpt><trkpt lat="45.7781972" lon="11.8789478"><ele>91.0</ele><time>2026-05-03T08:28:55.045Z</time></trkpt><trkpt lat="45.778123" lon="11.8788123"><ele>91.0</ele><time>2026-05-03T08:28:56.046Z</time></trkpt><trkpt lat="45.7780387" lon="11.8786847"><ele>91.0</ele><time>2026-05-03T08:28:57.045Z</time></trkpt><trkpt lat="45.7779515" lon="11.878559"><ele>91.0</ele><time>2026-05-03T08:28:58.046Z</time></trkpt><trkpt lat="45.7778668" lon="11.878429"><ele>91.25</ele><time>2026-05-03T08:28:59.045Z</time></trkpt><trkpt lat="45.7777853" lon="11.8782968"><ele>91.5</ele><time>2026-05-03T08:29:00.045Z</time></trkpt><trkpt lat="45.7777077" lon="11.8781529"><ele>91.75</ele><time>2026-05-03T08:29:01.045Z</time></trkpt><trkpt lat="45.7776397" lon="11.878001"><ele>92.0</ele><time>2026-05-03T08:29:02.045Z</time></trkpt><trkpt lat="45.7775787" lon="11.8778495"><ele>91.8</ele><time>2026-05-03T08:29:03.045Z</time></trkpt><trkpt lat="45.7775254" lon="11.8777132"><ele>91.6</ele><time>2026-05-03T08:29:04.045Z</time></trkpt><trkpt lat="45.7774769" lon="11.8775844"><ele>91.39999999999999</ele><time>2026-05-03T08:29:05.045Z</time></trkpt><trkpt lat="45.77743" lon="11.8774698"><ele>91.19999999999999</ele><time>2026-05-03T08:29:06.045Z</time></trkpt><trkpt lat="45.7773834" lon="11.8773704"><ele>91.0</ele><time>2026-05-03T08:29:07.045Z</time></trkpt><trkpt lat="45.7773603" lon="11.8772821"><ele>91.0</ele><time>2026-05-03T08:29:08.044Z</time></trkpt><trkpt lat="45.7773875" lon="11.8771284"><ele>91.0</ele><time>2026-05-03T08:29:10.045Z</time></trkpt><trkpt lat="45.7774503" lon="11.8770762"><ele>91.0</ele><time>2026-05-03T08:29:11.045Z</time></trkpt><trkpt lat="45.7775316" lon="11.8770277"><ele>91.0</ele><time>2026-05-03T08:29:12.045Z</time></trkpt><trkpt lat="45.7776348" lon="11.8769806"><ele>91.0</ele><time>2026-05-03T08:29:13.045Z</time></trkpt><trkpt lat="45.7777416" lon="11.8769468"><ele>91.25</ele><time>2026-05-03T08:29:14.045Z</time></trkpt><trkpt lat="45.7778574" lon="11.8769137"><ele>91.5</ele><time>2026-05-03T08:29:15.046Z</time></trkpt><trkpt lat="45.7779809" lon="11.8768892"><ele>91.75</ele><time>2026-05-03T08:29:16.046Z</time></trkpt><trkpt lat="45.778109" lon="11.8768624"><ele>92.0</ele><time>2026-05-03T08:29:17.046Z</time></trkpt><trkpt lat="45.7782383" lon="11.8768389"><ele>92.0</ele><time>2026-05-03T08:29:18.046Z</time></trkpt><trkpt lat="45.7783638" lon="11.8768137"><ele>92.0</ele><time>2026-05-03T08:29:19.045Z</time></trkpt><trkpt lat="45.778491" lon="11.8767902"><ele>92.0</ele><time>2026-05-03T08:29:20.045Z</time></trkpt><trkpt lat="45.778617" lon="11.876766"><ele>92.0</ele><time>2026-05-03T08:29:21.044Z</time></trkpt><trkpt lat="45.7787403" lon="11.876745"><ele>92.5</ele><time>2026-05-03T08:29:22.045Z</time></trkpt><trkpt lat="45.7788598" lon="11.8767208"><ele>93.0</ele><time>2026-05-03T08:29:23.045Z</time></trkpt><trkpt lat="45.778975" lon="11.876682"><ele>93.5</ele><time>2026-05-03T08:29:24.046Z</time></trkpt><trkpt lat="45.7790821" lon="11.876624"><ele>94.0</ele><time>2026-05-03T08:29:25.046Z</time></trkpt><trkpt lat="45.7791789" lon="11.8765402"><ele>94.0</ele><time>2026-05-03T08:29:26.045Z</time></trkpt><trkpt lat="45.7792649" lon="11.8764278"><ele>94.0</ele><time>2026-05-03T08:29:27.045Z</time></trkpt><trkpt lat="45.7793496" lon="11.8763045"><ele>94.0</ele><time>2026-05-03T08:29:28.045Z</time></trkpt><trkpt lat="45.7794399" lon="11.8761787"><ele>94.0</ele><time>2026-05-03T08:29:29.046Z</time></trkpt><trkpt lat="45.7795345" lon="11.87606"><ele>94.0</ele><time>2026-05-03T08:29:30.045Z</time></trkpt><trkpt lat="45.7796353" lon="11.8759511"><ele>94.0</ele><time>2026-05-03T08:29:31.045Z</time></trkpt><trkpt lat="45.7797475" lon="11.8758513"><ele>94.0</ele><time>2026-05-03T08:29:32.046Z</time></trkpt><trkpt lat="45.7798598" lon="11.8757579"><ele>94.0</ele><time>2026-05-03T08:29:33.046Z</time></trkpt><trkpt lat="45.7799736" lon="11.8756657"><ele>94.25</ele><time>2026-05-03T08:29:34.045Z</time></trkpt><trkpt lat="45.7800901" lon="11.8755736"><ele>94.5</ele><time>2026-05-03T08:29:35.044Z</time></trkpt><trkpt lat="45.7802089" lon="11.8754775"><ele>94.75</ele><time>2026-05-03T08:29:36.045Z</time></trkpt><trkpt lat="45.7803253" lon="11.875377"><ele>95.0</ele><time>2026-05-03T08:29:37.046Z</time></trkpt><trkpt lat="45.7804396" lon="11.8752725"><ele>95.0</ele><time>2026-05-03T08:29:38.045Z</time></trkpt><trkpt lat="45.7805489" lon="11.8751498"><ele>95.0</ele><time>2026-05-03T08:29:39.045Z</time></trkpt><trkpt lat="45.7806514" lon="11.8750148"><ele>95.0</ele><time>2026-05-03T08:29:40.046Z</time></trkpt><trkpt lat="45.7807481" lon="11.8748696"><ele>95.0</ele><time>2026-05-03T08:29:41.045Z</time></trkpt><trkpt lat="45.7808406" lon="11.8747138"><ele>95.25</ele><time>2026-05-03T08:29:42.045Z</time></trkpt><trkpt lat="45.7809362" lon="11.8745578"><ele>95.5</ele><time>2026-05-03T08:29:43.045Z</time></trkpt><trkpt lat="45.7810316" lon="11.874405"><ele>95.75</ele><time>2026-05-03T08:29:44.045Z</time></trkpt><trkpt lat="45.7811302" lon="11.8742593"><ele>96.0</ele><time>2026-05-03T08:29:45.045Z</time></trkpt><trkpt lat="45.781226" lon="11.8741119"><ele>96.5</ele><time>2026-05-03T08:29:46.045Z</time></trkpt><trkpt lat="45.7813225" lon="11.8739676"><ele>97.0</ele><time>2026-05-03T08:29:47.044Z</time></trkpt><trkpt lat="45.7814258" lon="11.873833"><ele>97.5</ele><time>2026-05-03T08:29:48.046Z</time></trkpt><trkpt lat="45.781533" lon="11.8737089"><ele>98.0</ele><time>2026-05-03T08:29:49.045Z</time></trkpt><trkpt lat="45.781644" lon="11.8735927"><ele>98.0</ele><time>2026-05-03T08:29:50.045Z</time></trkpt><trkpt lat="45.7817583" lon="11.8734805"><ele>98.0</ele><time>2026-05-03T08:29:51.045Z</time></trkpt><trkpt lat="45.7818707" lon="11.8733753"><ele>98.0</ele><time>2026-05-03T08:29:52.046Z</time></trkpt><trkpt lat="45.781982" lon="11.8732645"><ele>98.0</ele><time>2026-05-03T08:29:53.045Z</time></trkpt><trkpt lat="45.7820875" lon="11.873139"><ele>99.0</ele><time>2026-05-03T08:29:54.045Z</time></trkpt><trkpt lat="45.7821752" lon="11.872998"><ele>100.0</ele><time>2026-05-03T08:29:55.045Z</time></trkpt><trkpt lat="45.7822465" lon="11.8728423"><ele>101.0</ele><time>2026-05-03T08:29:56.044Z</time></trkpt><trkpt lat="45.7822964" lon="11.8726775"><ele>102.0</ele><time>2026-05-03T08:29:57.046Z</time></trkpt><trkpt lat="45.7823161" lon="11.8725092"><ele>102.0</ele><time>2026-05-03T08:29:58.045Z</time></trkpt><trkpt lat="45.782306" lon="11.8723602"><ele>102.0</ele><time>2026-05-03T08:29:59.046Z</time></trkpt><trkpt lat="45.7822696" lon="11.8722424"><ele>102.0</ele><time>2026-05-03T08:30:00.045Z</time></trkpt><trkpt lat="45.7822199" lon="11.8721531"><ele>102.0</ele><time>2026-05-03T08:30:01.044Z</time></trkpt><trkpt lat="45.7821758" lon="11.8720773"><ele>102.0</ele><time>2026-05-03T08:30:02.045Z</time></trkpt><trkpt lat="45.7821484" lon="11.8719388"><ele>102.0</ele><time>2026-05-03T08:30:04.045Z</time></trkpt><trkpt lat="45.7822179" lon="11.8717912"><ele>102.0</ele><time>2026-05-03T08:30:06.044Z</time></trkpt><trkpt lat="45.7822857" lon="11.871711"><ele>102.0</ele><time>2026-05-03T08:30:07.045Z</time></trkpt><trkpt lat="45.782365" lon="11.8716124"><ele>102.0</ele><time>2026-05-03T08:30:08.045Z</time></trkpt><trkpt lat="45.7824427" lon="11.8715155"><ele>102.0</ele><time>2026-05-03T08:30:09.045Z</time></trkpt><trkpt lat="45.7825305" lon="11.871405"><ele>102.0</ele><time>2026-05-03T08:30:10.044Z</time></trkpt><trkpt lat="45.7826325" lon="11.8712977"><ele>102.75</ele><time>2026-05-03T08:30:11.045Z</time></trkpt><trkpt lat="45.7827479" lon="11.8711964"><ele>103.5</ele><time>2026-05-03T08:30:12.044Z</time></trkpt><trkpt lat="45.7828712" lon="11.8710902"><ele>104.25</ele><time>2026-05-03T08:30:13.045Z</time></trkpt><trkpt lat="45.7829881" lon="11.8709886"><ele>105.0</ele><time>2026-05-03T08:30:14.045Z</time></trkpt><trkpt lat="45.783113" lon="11.870882"><ele>105.0</ele><time>2026-05-03T08:30:15.045Z</time></trkpt><trkpt lat="45.783242" lon="11.8707711"><ele>105.0</ele><time>2026-05-03T08:30:16.045Z</time></trkpt><trkpt lat="45.7833768" lon="11.8706554"><ele>105.0</ele><time>2026-05-03T08:30:17.046Z</time></trkpt><trkpt lat="45.7835093" lon="11.8705389"><ele>105.75</ele><time>2026-05-03T08:30:18.045Z</time></trkpt><trkpt lat="45.7836417" lon="11.8704228"><ele>106.5</ele><time>2026-05-03T08:30:19.046Z</time></trkpt><trkpt lat="45.7837606" lon="11.8703169"><ele>107.25</ele><time>2026-05-03T08:30:20.045Z</time></trkpt><trkpt lat="45.7838664" lon="11.8702217"><ele>108.0</ele><time>2026-05-03T08:30:21.045Z</time></trkpt><trkpt lat="45.7839648" lon="11.8701363"><ele>108.16666666666667</ele><time>2026-05-03T08:30:22.045Z</time></trkpt><trkpt lat="45.7840508" lon="11.8700641"><ele>108.33333333333334</ele><time>2026-05-03T08:30:23.046Z</time></trkpt><trkpt lat="45.7841268" lon="11.8700005"><ele>108.5</ele><time>2026-05-03T08:30:24.045Z</time></trkpt><trkpt lat="45.7841869" lon="11.8699467"><ele>108.66666666666667</ele><time>2026-05-03T08:30:25.045Z</time></trkpt><trkpt lat="45.7842587" lon="11.8698854"><ele>108.83333333333334</ele><time>2026-05-03T08:30:27.045Z</time></trkpt><trkpt lat="45.7843258" lon="11.8698423"><ele>109.0</ele><time>2026-05-03T08:31:56.046Z</time></trkpt><trkpt lat="45.7844323" lon="11.8697327"><ele>109.0</ele><time>2026-05-03T08:31:58.045Z</time></trkpt><trkpt lat="45.7844781" lon="11.869579"><ele>109.0</ele><time>2026-05-03T08:32:00.045Z</time></trkpt><trkpt lat="45.7844991" lon="11.8694899"><ele>109.0</ele><time>2026-05-03T08:32:01.046Z</time></trkpt><trkpt lat="45.7845408" lon="11.8693948"><ele>109.0</ele><time>2026-05-03T08:32:02.045Z</time></trkpt><trkpt lat="45.7846106" lon="11.8693212"><ele>109.0</ele><time>2026-05-03T08:32:03.046Z</time></trkpt><trkpt lat="45.7847064" lon="11.8692586"><ele>109.0</ele><time>2026-05-03T08:32:04.044Z</time></trkpt><trkpt lat="45.784825" lon="11.8692"><ele>109.0</ele><time>2026-05-03T08:32:05.046Z</time></trkpt><trkpt lat="45.784948" lon="11.8691462"><ele>109.0</ele><time>2026-05-03T08:32:06.046Z</time></trkpt><trkpt lat="45.7850865" lon="11.8690879"><ele>109.0</ele><time>2026-05-03T08:32:07.046Z</time></trkpt><trkpt lat="45.7852399" lon="11.8690237"><ele>109.33333333333334</ele><time>2026-05-03T08:32:08.046Z</time></trkpt><trkpt lat="45.7853981" lon="11.8689588"><ele>109.66666666666666</ele><time>2026-05-03T08:32:09.046Z</time></trkpt><trkpt lat="45.7855505" lon="11.8688983"><ele>110.0</ele><time>2026-05-03T08:32:10.045Z</time></trkpt><trkpt lat="45.7856998" lon="11.8688303"><ele>110.0</ele><time>2026-05-03T08:32:11.046Z</time></trkpt><trkpt lat="45.7858435" lon="11.8687403"><ele>110.0</ele><time>2026-05-03T08:32:12.026Z</time></trkpt><trkpt lat="45.7859865" lon="11.8686231"><ele>110.0</ele><time>2026-05-03T08:32:13.024Z</time></trkpt><trkpt lat="45.7861272" lon="11.8684853"><ele>111.0</ele><time>2026-05-03T08:32:14.035Z</time></trkpt><trkpt lat="45.7862619" lon="11.8683409"><ele>112.0</ele><time>2026-05-03T08:32:15.028Z</time></trkpt><trkpt lat="45.7863979" lon="11.8681998"><ele>113.0</ele><time>2026-05-03T08:32:16.025Z</time></trkpt><trkpt lat="45.7865431" lon="11.8680761"><ele>113.0</ele><time>2026-05-03T08:32:17.026Z</time></trkpt><trkpt lat="45.7867017" lon="11.8679719"><ele>113.0</ele><time>2026-05-03T08:32:18.027Z</time></trkpt><trkpt lat="45.7868671" lon="11.8678913"><ele>113.0</ele><time>2026-05-03T08:32:19.026Z</time></trkpt><trkpt lat="45.7870359" lon="11.867814"><ele>113.0</ele><time>2026-05-03T08:32:20.026Z</time></trkpt><trkpt lat="45.7872053" lon="11.8677329"><ele>113.0</ele><time>2026-05-03T08:32:21.026Z</time></trkpt><trkpt lat="45.7873742" lon="11.8676429"><ele>113.0</ele><time>2026-05-03T08:32:22.026Z</time></trkpt><trkpt lat="45.7875435" lon="11.8675502"><ele>114.66666666666666</ele><time>2026-05-03T08:32:23.026Z</time></trkpt><trkpt lat="45.7877149" lon="11.8674597"><ele>116.33333333333334</ele><time>2026-05-03T08:32:24.026Z</time></trkpt><trkpt lat="45.7878869" lon="11.8673697"><ele>118.0</ele><time>2026-05-03T08:32:25.026Z</time></trkpt><trkpt lat="45.7880578" lon="11.8672745"><ele>118.0</ele><time>2026-05-03T08:32:26.026Z</time></trkpt><trkpt lat="45.7882252" lon="11.8671693"><ele>118.0</ele><time>2026-05-03T08:32:27.026Z</time></trkpt><trkpt lat="45.7883853" lon="11.8670413"><ele>118.0</ele><time>2026-05-03T08:32:28.026Z</time></trkpt><trkpt lat="45.7885338" lon="11.8668883"><ele>117.66666666666667</ele><time>2026-05-03T08:32:29.026Z</time></trkpt><trkpt lat="45.7886746" lon="11.8667182"><ele>117.33333333333334</ele><time>2026-05-03T08:32:30.027Z</time></trkpt><trkpt lat="45.7888133" lon="11.866542"><ele>117.0</ele><time>2026-05-03T08:32:31.026Z</time></trkpt><trkpt lat="45.7889541" lon="11.8663666"><ele>117.0</ele><time>2026-05-03T08:32:32.026Z</time></trkpt><trkpt lat="45.7890991" lon="11.8661918"><ele>117.0</ele><time>2026-05-03T08:32:33.027Z</time></trkpt><trkpt lat="45.7892496" lon="11.8660205"><ele>117.0</ele><time>2026-05-03T08:32:34.026Z</time></trkpt><trkpt lat="45.789408" lon="11.8658578"><ele>118.0</ele><time>2026-05-03T08:32:35.027Z</time></trkpt><trkpt lat="45.7895774" lon="11.8657005"><ele>119.0</ele><time>2026-05-03T08:32:36.026Z</time></trkpt><trkpt lat="45.7897595" lon="11.8655504"><ele>120.0</ele><time>2026-05-03T08:32:37.027Z</time></trkpt><trkpt lat="45.789954" lon="11.8654075"><ele>120.0</ele><time>2026-05-03T08:32:38.027Z</time></trkpt><trkpt lat="45.7901487" lon="11.8652772"><ele>120.0</ele><time>2026-05-03T08:32:39.026Z</time></trkpt><trkpt lat="45.7903471" lon="11.8651487"><ele>120.0</ele><time>2026-05-03T08:32:40.026Z</time></trkpt><trkpt lat="45.7905502" lon="11.8650207"><ele>121.0</ele><time>2026-05-03T08:32:41.027Z</time></trkpt><trkpt lat="45.7907575" lon="11.8648912"><ele>122.0</ele><time>2026-05-03T08:32:42.026Z</time></trkpt><trkpt lat="45.7909696" lon="11.8647578"><ele>122.5</ele><time>2026-05-03T08:32:43.026Z</time></trkpt><trkpt lat="45.7911867" lon="11.864621"><ele>123.0</ele><time>2026-05-03T08:32:44.026Z</time></trkpt><trkpt lat="45.7914076" lon="11.8644749"><ele>123.0</ele><time>2026-05-03T08:32:45.046Z</time></trkpt><trkpt lat="45.7916262" lon="11.8643375"><ele>123.0</ele><time>2026-05-03T08:32:46.045Z</time></trkpt><trkpt lat="45.7918458" lon="11.864202"><ele>124.5</ele><time>2026-05-03T08:32:47.046Z</time></trkpt><trkpt lat="45.7920623" lon="11.8640689"><ele>126.0</ele><time>2026-05-03T08:32:48.044Z</time></trkpt><trkpt lat="45.7922758" lon="11.8639341"><ele>126.0</ele><time>2026-05-03T08:32:49.045Z</time></trkpt><trkpt lat="45.7924838" lon="11.8638062"><ele>126.0</ele><time>2026-05-03T08:32:50.045Z</time></trkpt><trkpt lat="45.792696" lon="11.8636891"><ele>126.0</ele><time>2026-05-03T08:32:51.044Z</time></trkpt><trkpt lat="45.7929174" lon="11.8635815"><ele>126.0</ele><time>2026-05-03T08:32:52.046Z</time></trkpt><trkpt lat="45.7931475" lon="11.8634845"><ele>128.0</ele><time>2026-05-03T08:32:53.046Z</time></trkpt><trkpt lat="45.7933841" lon="11.8633888"><ele>130.0</ele><time>2026-05-03T08:32:54.045Z</time></trkpt><trkpt lat="45.793619" lon="11.8632944"><ele>130.0</ele><time>2026-05-03T08:32:55.046Z</time></trkpt><trkpt lat="45.7938567" lon="11.8631978"><ele>130.0</ele><time>2026-05-03T08:32:56.046Z</time></trkpt><trkpt lat="45.7940981" lon="11.8631038"><ele>130.0</ele><time>2026-05-03T08:32:57.045Z</time></trkpt><trkpt lat="45.7943402" lon="11.8630246"><ele>130.0</ele><time>2026-05-03T08:32:58.045Z</time></trkpt><trkpt lat="45.7945866" lon="11.8629623"><ele>130.0</ele><time>2026-05-03T08:32:59.045Z</time></trkpt><trkpt lat="45.7948213" lon="11.862917"><ele>130.0</ele><time>2026-05-03T08:33:00.045Z</time></trkpt><trkpt lat="45.7950406" lon="11.8628861"><ele>133.0</ele><time>2026-05-03T08:33:01.045Z</time></trkpt><trkpt lat="45.7952508" lon="11.8628599"><ele>136.0</ele><time>2026-05-03T08:33:02.046Z</time></trkpt><trkpt lat="45.7954544" lon="11.8628335"><ele>139.0</ele><time>2026-05-03T08:33:03.044Z</time></trkpt><trkpt lat="45.7956514" lon="11.8628102"><ele>139.0</ele><time>2026-05-03T08:33:04.045Z</time></trkpt><trkpt lat="45.7958391" lon="11.8627909"><ele>139.0</ele><time>2026-05-03T08:33:05.045Z</time></trkpt><trkpt lat="45.7960161" lon="11.8627704"><ele>139.0</ele><time>2026-05-03T08:33:06.045Z</time></trkpt><trkpt lat="45.7961805" lon="11.8627497"><ele>142.75</ele><time>2026-05-03T08:33:07.046Z</time></trkpt><trkpt lat="45.7963281" lon="11.8627332"><ele>146.5</ele><time>2026-05-03T08:33:08.044Z</time></trkpt><trkpt lat="45.796468" lon="11.862718"><ele>150.25</ele><time>2026-05-03T08:33:09.045Z</time></trkpt><trkpt lat="45.7966094" lon="11.8627049"><ele>154.0</ele><time>2026-05-03T08:33:10.045Z</time></trkpt><trkpt lat="45.796762" lon="11.8626915"><ele>156.0</ele><time>2026-05-03T08:33:11.046Z</time></trkpt><trkpt lat="45.7969269" lon="11.8626917"><ele>158.0</ele><time>2026-05-03T08:33:12.045Z</time></trkpt><trkpt lat="45.7971022" lon="11.8627155"><ele>160.0</ele><time>2026-05-03T08:33:13.044Z</time></trkpt><trkpt lat="45.7972848" lon="11.8627541"><ele>160.0</ele><time>2026-05-03T08:33:14.045Z</time></trkpt><trkpt lat="45.7974724" lon="11.862799"><ele>160.0</ele><time>2026-05-03T08:33:15.045Z</time></trkpt><trkpt lat="45.7976648" lon="11.8628535"><ele>160.0</ele><time>2026-05-03T08:33:16.044Z</time></trkpt><trkpt lat="45.7978581" lon="11.8629151"><ele>156.33333333333334</ele><time>2026-05-03T08:33:17.045Z</time></trkpt><trkpt lat="45.7980511" lon="11.8629852"><ele>152.66666666666666</ele><time>2026-05-03T08:33:18.045Z</time></trkpt><trkpt lat="45.7982388" lon="11.8630572"><ele>149.0</ele><time>2026-05-03T08:33:19.046Z</time></trkpt><trkpt lat="45.7984176" lon="11.8631332"><ele>148.0</ele><time>2026-05-03T08:33:20.045Z</time></trkpt><trkpt lat="45.7985866" lon="11.8632172"><ele>147.0</ele><time>2026-05-03T08:33:21.045Z</time></trkpt><trkpt lat="45.798754" lon="11.8633106"><ele>146.0</ele><time>2026-05-03T08:33:22.045Z</time></trkpt><trkpt lat="45.7989184" lon="11.8634122"><ele>147.33333333333331</ele><time>2026-05-03T08:33:23.044Z</time></trkpt><trkpt lat="45.7990795" lon="11.863513"><ele>148.66666666666666</ele><time>2026-05-03T08:33:24.044Z</time></trkpt><trkpt lat="45.79923" lon="11.8636122"><ele>150.0</ele><time>2026-05-03T08:33:25.045Z</time></trkpt><trkpt lat="45.799378" lon="11.8637057"><ele>150.0</ele><time>2026-05-03T08:33:26.046Z</time></trkpt><trkpt lat="45.7995207" lon="11.8637962"><ele>150.0</ele><time>2026-05-03T08:33:27.046Z</time></trkpt><trkpt lat="45.7996556" lon="11.8638822"><ele>150.0</ele><time>2026-05-03T08:33:28.044Z</time></trkpt><trkpt lat="45.7997877" lon="11.863962"><ele>150.0</ele><time>2026-05-03T08:33:29.045Z</time></trkpt><trkpt lat="45.79991" lon="11.8640403"><ele>150.0</ele><time>2026-05-03T08:33:30.046Z</time></trkpt><trkpt lat="45.800027" lon="11.8641148"><ele>150.0</ele><time>2026-05-03T08:33:31.046Z</time></trkpt><trkpt lat="45.8001296" lon="11.8641838"><ele>150.0</ele><time>2026-05-03T08:33:32.044Z</time></trkpt><trkpt lat="45.8002148" lon="11.8642397"><ele>150.0</ele><time>2026-05-03T08:33:33.046Z</time></trkpt><trkpt lat="45.8002882" lon="11.8642882"><ele>150.0</ele><time>2026-05-03T08:33:34.045Z</time></trkpt><trkpt lat="45.8003569" lon="11.864338"><ele>150.0</ele><time>2026-05-03T08:33:35.046Z</time></trkpt><trkpt lat="45.8004226" lon="11.8643791"><ele>150.0</ele><time>2026-05-03T08:33:36.045Z</time></trkpt><trkpt lat="45.8004847" lon="11.8643955"><ele>150.0</ele><time>2026-05-03T08:33:37.044Z</time></trkpt><trkpt lat="45.8005841" lon="11.8643118"><ele>150.0</ele><time>2026-05-03T08:33:39.045Z</time></trkpt><trkpt lat="45.8006019" lon="11.8642162"><ele>150.0</ele><time>2026-05-03T08:33:40.045Z</time></trkpt><trkpt lat="45.8006114" lon="11.8640859"><ele>150.0</ele><time>2026-05-03T08:33:41.045Z</time></trkpt><trkpt lat="45.8006282" lon="11.8639622"><ele>150.0</ele><time>2026-05-03T08:33:42.046Z</time></trkpt><trkpt lat="45.8006564" lon="11.8638599"><ele>150.0</ele><time>2026-05-03T08:33:43.045Z</time></trkpt><trkpt lat="45.8006869" lon="11.8637625"><ele>150.0</ele><time>2026-05-03T08:33:44.044Z</time></trkpt><trkpt lat="45.8007196" lon="11.8636671"><ele>150.0</ele><time>2026-05-03T08:33:45.046Z</time></trkpt><trkpt lat="45.8007492" lon="11.8635704"><ele>150.0</ele><time>2026-05-03T08:33:46.045Z</time></trkpt><trkpt lat="45.8007791" lon="11.863462"><ele>150.0</ele><time>2026-05-03T08:33:47.044Z</time></trkpt><trkpt lat="45.8008154" lon="11.8633484"><ele>149.75</ele><time>2026-05-03T08:33:48.045Z</time></trkpt><trkpt lat="45.8008526" lon="11.863218"><ele>149.5</ele><time>2026-05-03T08:33:49.045Z</time></trkpt><trkpt lat="45.8008932" lon="11.8630725"><ele>149.25</ele><time>2026-05-03T08:33:50.046Z</time></trkpt><trkpt lat="45.8009408" lon="11.8629154"><ele>149.0</ele><time>2026-05-03T08:33:51.044Z</time></trkpt><trkpt lat="45.8009936" lon="11.8627553"><ele>149.25</ele><time>2026-05-03T08:33:52.045Z</time></trkpt><trkpt lat="45.8010454" lon="11.8625946"><ele>149.5</ele><time>2026-05-03T08:33:53.045Z</time></trkpt><trkpt lat="45.8010951" lon="11.8624185"><ele>149.75</ele><time>2026-05-03T08:33:54.045Z</time></trkpt><trkpt lat="45.8011432" lon="11.8622371"><ele>150.0</ele><time>2026-05-03T08:33:55.046Z</time></trkpt><trkpt lat="45.8011803" lon="11.8620455"><ele>150.0</ele><time>2026-05-03T08:33:56.045Z</time></trkpt><trkpt lat="45.8012048" lon="11.8618444"><ele>150.0</ele><time>2026-05-03T08:33:57.045Z</time></trkpt><trkpt lat="45.8012088" lon="11.8616333"><ele>150.0</ele><time>2026-05-03T08:33:58.046Z</time></trkpt><trkpt lat="45.8012038" lon="11.861417"><ele>150.0</ele><time>2026-05-03T08:33:59.044Z</time></trkpt><trkpt lat="45.8011971" lon="11.8611977"><ele>150.0</ele><time>2026-05-03T08:34:00.045Z</time></trkpt><trkpt lat="45.8011874" lon="11.8609778"><ele>150.0</ele><time>2026-05-03T08:34:01.045Z</time></trkpt><trkpt lat="45.8011818" lon="11.8607602"><ele>150.0</ele><time>2026-05-03T08:34:02.045Z</time></trkpt><trkpt lat="45.801177" lon="11.8605491"><ele>150.0</ele><time>2026-05-03T08:34:03.045Z</time></trkpt><trkpt lat="45.8011674" lon="11.8603416"><ele>150.0</ele><time>2026-05-03T08:34:04.045Z</time></trkpt><trkpt lat="45.8011469" lon="11.860156"><ele>150.0</ele><time>2026-05-03T08:34:05.046Z</time></trkpt><trkpt lat="45.8011143" lon="11.8599923"><ele>150.0</ele><time>2026-05-03T08:34:06.045Z</time></trkpt><trkpt lat="45.8010778" lon="11.859853"><ele>150.0</ele><time>2026-05-03T08:34:07.046Z</time></trkpt><trkpt lat="45.8010427" lon="11.8597241"><ele>150.0</ele><time>2026-05-03T08:34:08.044Z</time></trkpt><trkpt lat="45.8010066" lon="11.8595927"><ele>150.0</ele><time>2026-05-03T08:34:09.044Z</time></trkpt><trkpt lat="45.8009694" lon="11.8594604"><ele>150.0</ele><time>2026-05-03T08:34:10.045Z</time></trkpt><trkpt lat="45.8009368" lon="11.8593269"><ele>150.0</ele><time>2026-05-03T08:34:11.046Z</time></trkpt><trkpt lat="45.8009032" lon="11.8592022"><ele>150.0</ele><time>2026-05-03T08:34:12.045Z</time></trkpt><trkpt lat="45.8008723" lon="11.8590841"><ele>150.0</ele><time>2026-05-03T08:34:13.045Z</time></trkpt><trkpt lat="45.8008415" lon="11.8589748"><ele>150.0</ele><time>2026-05-03T08:34:14.045Z</time></trkpt><trkpt lat="45.8008161" lon="11.858882"><ele>150.0</ele><time>2026-05-03T08:34:15.045Z</time></trkpt><trkpt lat="45.8008367" lon="11.8587211"><ele>150.0</ele><time>2026-05-03T08:34:17.044Z</time></trkpt><trkpt lat="45.8008991" lon="11.8586498"><ele>150.0</ele><time>2026-05-03T08:34:18.046Z</time></trkpt><trkpt lat="45.8009839" lon="11.8585851"><ele>150.75</ele><time>2026-05-03T08:34:19.045Z</time></trkpt><trkpt lat="45.8010809" lon="11.8585185"><ele>151.5</ele><time>2026-05-03T08:34:20.045Z</time></trkpt><trkpt lat="45.8011863" lon="11.8584478"><ele>152.25</ele><time>2026-05-03T08:34:21.044Z</time></trkpt><trkpt lat="45.8013053" lon="11.8583743"><ele>153.0</ele><time>2026-05-03T08:34:22.045Z</time></trkpt><trkpt lat="45.8014241" lon="11.8583003"><ele>153.0</ele><time>2026-05-03T08:34:23.046Z</time></trkpt><trkpt lat="45.8015447" lon="11.8582207"><ele>153.0</ele><time>2026-05-03T08:34:24.044Z</time></trkpt><trkpt lat="45.801671" lon="11.858134"><ele>153.0</ele><time>2026-05-03T08:34:25.046Z</time></trkpt><trkpt lat="45.8018021" lon="11.8580499"><ele>153.0</ele><time>2026-05-03T08:34:26.045Z</time></trkpt><trkpt lat="45.8019346" lon="11.8579668"><ele>153.75</ele><time>2026-05-03T08:34:27.046Z</time></trkpt><trkpt lat="45.8020685" lon="11.8578875"><ele>154.5</ele><time>2026-05-03T08:34:28.045Z</time></trkpt><trkpt lat="45.8022057" lon="11.8578114"><ele>155.25</ele><time>2026-05-03T08:34:29.046Z</time></trkpt><trkpt lat="45.8023438" lon="11.857748"><ele>156.0</ele><time>2026-05-03T08:34:30.045Z</time></trkpt><trkpt lat="45.802478" lon="11.8577001"><ele>156.0</ele><time>2026-05-03T08:34:31.044Z</time></trkpt><trkpt lat="45.8026048" lon="11.8576662"><ele>156.0</ele><time>2026-05-03T08:34:32.045Z</time></trkpt><trkpt lat="45.8027245" lon="11.8576352"><ele>156.0</ele><time>2026-05-03T08:34:33.044Z</time></trkpt><trkpt lat="45.8028404" lon="11.8576079"><ele>156.0</ele><time>2026-05-03T08:34:34.044Z</time></trkpt><trkpt lat="45.8029542" lon="11.8575803"><ele>156.6</ele><time>2026-05-03T08:34:35.045Z</time></trkpt><trkpt lat="45.8030637" lon="11.8575537"><ele>157.2</ele><time>2026-05-03T08:34:36.045Z</time></trkpt><trkpt lat="45.803174" lon="11.8575293"><ele>157.8</ele><time>2026-05-03T08:34:37.044Z</time></trkpt><trkpt lat="45.8032839" lon="11.8575031"><ele>158.4</ele><time>2026-05-03T08:34:38.045Z</time></trkpt><trkpt lat="45.8033943" lon="11.8574798"><ele>159.0</ele><time>2026-05-03T08:34:39.046Z</time></trkpt><trkpt lat="45.8035055" lon="11.8574516"><ele>159.75</ele><time>2026-05-03T08:34:40.046Z</time></trkpt><trkpt lat="45.8036211" lon="11.8574264"><ele>160.5</ele><time>2026-05-03T08:34:41.046Z</time></trkpt><trkpt lat="45.8037398" lon="11.8573977"><ele>161.25</ele><time>2026-05-03T08:34:42.045Z</time></trkpt><trkpt lat="45.8038619" lon="11.857369"><ele>162.0</ele><time>2026-05-03T08:34:43.045Z</time></trkpt><trkpt lat="45.8039864" lon="11.8573422"><ele>162.0</ele><time>2026-05-03T08:34:44.044Z</time></trkpt><trkpt lat="45.8041136" lon="11.8573145"><ele>162.0</ele><time>2026-05-03T08:34:45.044Z</time></trkpt><trkpt lat="45.8042481" lon="11.8572869"><ele>162.0</ele><time>2026-05-03T08:34:46.045Z</time></trkpt><trkpt lat="45.8043865" lon="11.8572561"><ele>162.0</ele><time>2026-05-03T08:34:47.045Z</time></trkpt><trkpt lat="45.8045309" lon="11.8572186"><ele>163.0</ele><time>2026-05-03T08:34:48.046Z</time></trkpt><trkpt lat="45.8046791" lon="11.857169"><ele>164.0</ele><time>2026-05-03T08:34:49.045Z</time></trkpt><trkpt lat="45.804831" lon="11.857098"><ele>165.0</ele><time>2026-05-03T08:34:50.044Z</time></trkpt><trkpt lat="45.8049817" lon="11.8570045"><ele>165.0</ele><time>2026-05-03T08:34:51.044Z</time></trkpt><trkpt lat="45.8051271" lon="11.8569076"><ele>165.0</ele><time>2026-05-03T08:34:52.044Z</time></trkpt><trkpt lat="45.8052679" lon="11.8568069"><ele>165.0</ele><time>2026-05-03T08:34:53.044Z</time></trkpt><trkpt lat="45.8054028" lon="11.8567138"><ele>166.25</ele><time>2026-05-03T08:34:54.045Z</time></trkpt><trkpt lat="45.8055355" lon="11.8566199"><ele>167.5</ele><time>2026-05-03T08:34:55.045Z</time></trkpt><trkpt lat="45.8056702" lon="11.8565244"><ele>168.75</ele><time>2026-05-03T08:34:56.045Z</time></trkpt><trkpt lat="45.805803" lon="11.8564277"><ele>170.0</ele><time>2026-05-03T08:34:57.045Z</time></trkpt><trkpt lat="45.8059383" lon="11.8563312"><ele>170.66666666666666</ele><time>2026-05-03T08:34:58.046Z</time></trkpt><trkpt lat="45.8060712" lon="11.8562341"><ele>171.33333333333334</ele><time>2026-05-03T08:34:59.046Z</time></trkpt><trkpt lat="45.8062047" lon="11.8561353"><ele>172.0</ele><time>2026-05-03T08:35:00.044Z</time></trkpt><trkpt lat="45.8063426" lon="11.856026"><ele>172.66666666666669</ele><time>2026-05-03T08:35:01.046Z</time></trkpt><trkpt lat="45.8064906" lon="11.8559114"><ele>173.33333333333334</ele><time>2026-05-03T08:35:02.046Z</time></trkpt><trkpt lat="45.8066478" lon="11.8557908"><ele>174.0</ele><time>2026-05-03T08:35:03.046Z</time></trkpt><trkpt lat="45.8068221" lon="11.8556704"><ele>175.0</ele><time>2026-05-03T08:35:04.045Z</time></trkpt><trkpt lat="45.8070072" lon="11.855547"><ele>176.0</ele><time>2026-05-03T08:35:05.045Z</time></trkpt><trkpt lat="45.8071897" lon="11.8554252"><ele>177.0</ele><time>2026-05-03T08:35:06.045Z</time></trkpt><trkpt lat="45.8073733" lon="11.855299"><ele>177.0</ele><time>2026-05-03T08:35:07.045Z</time></trkpt><trkpt lat="45.8075622" lon="11.855168"><ele>177.0</ele><time>2026-05-03T08:35:08.045Z</time></trkpt><trkpt lat="45.8077482" lon="11.8550398"><ele>177.0</ele><time>2026-05-03T08:35:09.044Z</time></trkpt><trkpt lat="45.8079295" lon="11.8549128"><ele>178.66666666666666</ele><time>2026-05-03T08:35:10.046Z</time></trkpt><trkpt lat="45.80811" lon="11.854788"><ele>180.33333333333331</ele><time>2026-05-03T08:35:11.045Z</time></trkpt><trkpt lat="45.8082915" lon="11.8546552"><ele>182.0</ele><time>2026-05-03T08:35:12.045Z</time></trkpt><trkpt lat="45.8084717" lon="11.8545299"><ele>182.66666666666666</ele><time>2026-05-03T08:35:13.044Z</time></trkpt><trkpt lat="45.8086508" lon="11.8544042"><ele>183.33333333333334</ele><time>2026-05-03T08:35:14.046Z</time></trkpt><trkpt lat="45.8088275" lon="11.8542809"><ele>184.0</ele><time>2026-05-03T08:35:15.045Z</time></trkpt><trkpt lat="45.8090016" lon="11.8541589"><ele>184.33333333333334</ele><time>2026-05-03T08:35:16.045Z</time></trkpt><trkpt lat="45.8091746" lon="11.8540336"><ele>184.66666666666666</ele><time>2026-05-03T08:35:17.045Z</time></trkpt><trkpt lat="45.8093379" lon="11.8539165"><ele>185.0</ele><time>2026-05-03T08:35:18.045Z</time></trkpt><trkpt lat="45.8094889" lon="11.8538125"><ele>186.25</ele><time>2026-05-03T08:35:19.045Z</time></trkpt><trkpt lat="45.8096298" lon="11.8537095"><ele>187.5</ele><time>2026-05-03T08:35:20.046Z</time></trkpt><trkpt lat="45.809763" lon="11.8536142"><ele>188.75</ele><time>2026-05-03T08:35:21.045Z</time></trkpt><trkpt lat="45.809892" lon="11.853528"><ele>190.0</ele><time>2026-05-03T08:35:22.045Z</time></trkpt><trkpt lat="45.8100058" lon="11.8534441"><ele>190.4</ele><time>2026-05-03T08:35:23.045Z</time></trkpt><trkpt lat="45.8101047" lon="11.8533727"><ele>190.8</ele><time>2026-05-03T08:35:24.045Z</time></trkpt><trkpt lat="45.8101783" lon="11.853319"><ele>191.2</ele><time>2026-05-03T08:35:25.044Z</time></trkpt><trkpt lat="45.8102582" lon="11.8532318"><ele>191.6</ele><time>2026-05-03T08:35:27.045Z</time></trkpt><trkpt lat="45.8102209" lon="11.85309"><ele>192.0</ele><time>2026-05-03T08:35:29.045Z</time></trkpt><trkpt lat="45.8101829" lon="11.8529958"><ele>192.0</ele><time>2026-05-03T08:35:30.045Z</time></trkpt><trkpt lat="45.8101506" lon="11.8528981"><ele>192.0</ele><time>2026-05-03T08:35:31.044Z</time></trkpt><trkpt lat="45.8101136" lon="11.8527926"><ele>192.0</ele><time>2026-05-03T08:35:32.046Z</time></trkpt><trkpt lat="45.8100827" lon="11.8526876"><ele>192.0</ele><time>2026-05-03T08:35:33.045Z</time></trkpt><trkpt lat="45.8100476" lon="11.8525793"><ele>192.0</ele><time>2026-05-03T08:35:34.045Z</time></trkpt><trkpt lat="45.8100139" lon="11.8524709"><ele>192.0</ele><time>2026-05-03T08:35:35.045Z</time></trkpt><trkpt lat="45.8099761" lon="11.8523634"><ele>192.83333333333334</ele><time>2026-05-03T08:35:36.046Z</time></trkpt><trkpt lat="45.8099356" lon="11.8522565"><ele>193.66666666666669</ele><time>2026-05-03T08:35:37.045Z</time></trkpt><trkpt lat="45.8098941" lon="11.8521482"><ele>194.5</ele><time>2026-05-03T08:35:38.046Z</time></trkpt><trkpt lat="45.8098499" lon="11.8520427"><ele>195.33333333333334</ele><time>2026-05-03T08:35:39.044Z</time></trkpt><trkpt lat="45.8098043" lon="11.8519373"><ele>196.16666666666669</ele><time>2026-05-03T08:35:40.044Z</time></trkpt><trkpt lat="45.8097604" lon="11.8518324"><ele>197.0</ele><time>2026-05-03T08:35:41.045Z</time></trkpt><trkpt lat="45.8097187" lon="11.8517371"><ele>197.71428571428572</ele><time>2026-05-03T08:35:42.045Z</time></trkpt><trkpt lat="45.8096786" lon="11.8516558"><ele>198.42857142857144</ele><time>2026-05-03T08:35:43.045Z</time></trkpt><trkpt lat="45.8096351" lon="11.8515737"><ele>199.14285714285714</ele><time>2026-05-03T08:35:44.045Z</time></trkpt><trkpt lat="45.8095945" lon="11.8514951"><ele>199.85714285714286</ele><time>2026-05-03T08:35:45.046Z</time></trkpt><trkpt lat="45.8095587" lon="11.851413"><ele>200.57142857142856</ele><time>2026-05-03T08:35:46.045Z</time></trkpt><trkpt lat="45.8095175" lon="11.8513275"><ele>201.28571428571428</ele><time>2026-05-03T08:35:47.045Z</time></trkpt><trkpt lat="45.8094726" lon="11.8512386"><ele>202.0</ele><time>2026-05-03T08:35:48.045Z</time></trkpt><trkpt lat="45.8094309" lon="11.8511487"><ele>201.99999999999997</ele><time>2026-05-03T08:35:49.046Z</time></trkpt><trkpt lat="45.8093841" lon="11.8510596"><ele>202.0</ele><time>2026-05-03T08:35:50.045Z</time></trkpt><trkpt lat="45.8093382" lon="11.8509694"><ele>202.0</ele><time>2026-05-03T08:35:51.045Z</time></trkpt><trkpt lat="45.809291" lon="11.8508824"><ele>202.0</ele><time>2026-05-03T08:35:52.045Z</time></trkpt><trkpt lat="45.8092411" lon="11.8507966"><ele>201.99999999999997</ele><time>2026-05-03T08:35:53.044Z</time></trkpt><trkpt lat="45.8091903" lon="11.8507149"><ele>202.0</ele><time>2026-05-03T08:35:54.044Z</time></trkpt><trkpt lat="45.8091385" lon="11.8506375"><ele>200.83333333333331</ele><time>2026-05-03T08:35:55.045Z</time></trkpt><trkpt lat="45.809083" lon="11.8505651"><ele>199.66666666666666</ele><time>2026-05-03T08:35:56.045Z</time></trkpt><trkpt lat="45.8090335" lon="11.8504972"><ele>198.5</ele><time>2026-05-03T08:35:57.046Z</time></trkpt><trkpt lat="45.8089877" lon="11.8504275"><ele>197.33333333333331</ele><time>2026-05-03T08:35:58.045Z</time></trkpt><trkpt lat="45.8089448" lon="11.8503575"><ele>196.16666666666666</ele><time>2026-05-03T08:35:59.046Z</time></trkpt><trkpt lat="45.8088713" lon="11.850225"><ele>195.0</ele><time>2026-05-03T08:36:01.045Z</time></trkpt><trkpt lat="45.8087983" lon="11.8500989"><ele>194.66666666666666</ele><time>2026-05-03T08:36:03.046Z</time></trkpt><trkpt lat="45.8087166" lon="11.8499547"><ele>194.33333333333331</ele><time>2026-05-03T08:36:05.045Z</time></trkpt><trkpt lat="45.8086727" lon="11.8498794"><ele>194.0</ele><time>2026-05-03T08:36:06.045Z</time></trkpt><trkpt lat="45.8086212" lon="11.8498041"><ele>193.66666666666666</ele><time>2026-05-03T08:36:07.045Z</time></trkpt><trkpt lat="45.8085701" lon="11.849719"><ele>193.33333333333331</ele><time>2026-05-03T08:36:08.045Z</time></trkpt><trkpt lat="45.8085144" lon="11.8496317"><ele>193.0</ele><time>2026-05-03T08:36:09.045Z</time></trkpt><trkpt lat="45.8084571" lon="11.8495456"><ele>192.66666666666666</ele><time>2026-05-03T08:36:10.045Z</time></trkpt><trkpt lat="45.8083961" lon="11.8494611"><ele>192.33333333333331</ele><time>2026-05-03T08:36:11.045Z</time></trkpt><trkpt lat="45.8083354" lon="11.8493773"><ele>192.0</ele><time>2026-05-03T08:36:12.045Z</time></trkpt><trkpt lat="45.8082708" lon="11.8492868"><ele>191.66666666666666</ele><time>2026-05-03T08:36:13.045Z</time></trkpt><trkpt lat="45.8082186" lon="11.8492063"><ele>191.33333333333331</ele><time>2026-05-03T08:36:14.045Z</time></trkpt><trkpt lat="45.8081756" lon="11.8491393"><ele>191.0</ele><time>2026-05-03T08:36:15.045Z</time></trkpt><trkpt lat="45.8081075" lon="11.8490268"><ele>191.0</ele><time>2026-05-03T08:36:17.045Z</time></trkpt><trkpt lat="45.8080458" lon="11.848928"><ele>191.0</ele><time>2026-05-03T08:36:19.046Z</time></trkpt><trkpt lat="45.8079564" lon="11.8488034"><ele>191.0</ele><time>2026-05-03T08:36:21.044Z</time></trkpt><trkpt lat="45.8078591" lon="11.848693"><ele>191.0</ele><time>2026-05-03T08:36:23.045Z</time></trkpt><trkpt lat="45.8078027" lon="11.8486284"><ele>191.0</ele><time>2026-05-03T08:36:24.045Z</time></trkpt><trkpt lat="45.8077416" lon="11.8485502"><ele>190.8</ele><time>2026-05-03T08:36:25.046Z</time></trkpt><trkpt lat="45.8076816" lon="11.8484514"><ele>190.60000000000002</ele><time>2026-05-03T08:36:26.045Z</time></trkpt><trkpt lat="45.8076362" lon="11.8483366"><ele>190.4</ele><time>2026-05-03T08:36:27.045Z</time></trkpt><trkpt lat="45.8076004" lon="11.8482107"><ele>190.2</ele><time>2026-05-03T08:36:28.045Z</time></trkpt><trkpt lat="45.8075666" lon="11.8480807"><ele>190.0</ele><time>2026-05-03T08:36:29.045Z</time></trkpt><trkpt lat="45.8075318" lon="11.8479482"><ele>189.8</ele><time>2026-05-03T08:36:30.045Z</time></trkpt><trkpt lat="45.8074997" lon="11.8478092"><ele>189.6</ele><time>2026-05-03T08:36:31.046Z</time></trkpt><trkpt lat="45.8074614" lon="11.8476789"><ele>189.39999999999998</ele><time>2026-05-03T08:36:32.045Z</time></trkpt><trkpt lat="45.8074248" lon="11.8475564"><ele>189.2</ele><time>2026-05-03T08:36:33.046Z</time></trkpt><trkpt lat="45.8073873" lon="11.8474307"><ele>189.0</ele><time>2026-05-03T08:36:34.045Z</time></trkpt><trkpt lat="45.8073504" lon="11.8473094"><ele>189.0</ele><time>2026-05-03T08:36:35.045Z</time></trkpt><trkpt lat="45.8073163" lon="11.8472001"><ele>189.0</ele><time>2026-05-03T08:36:36.046Z</time></trkpt><trkpt lat="45.8072829" lon="11.8470989"><ele>189.0</ele><time>2026-05-03T08:36:37.044Z</time></trkpt><trkpt lat="45.8072476" lon="11.8469882"><ele>189.0</ele><time>2026-05-03T08:36:38.045Z</time></trkpt><trkpt lat="45.8072155" lon="11.8468691"><ele>189.0</ele><time>2026-05-03T08:36:39.045Z</time></trkpt><trkpt lat="45.8071822" lon="11.8467466"><ele>189.0</ele><time>2026-05-03T08:36:40.045Z</time></trkpt><trkpt lat="45.807146" lon="11.8466209"><ele>189.0</ele><time>2026-05-03T08:36:41.045Z</time></trkpt><trkpt lat="45.8071117" lon="11.8464928"><ele>189.0</ele><time>2026-05-03T08:36:42.046Z</time></trkpt><trkpt lat="45.8070749" lon="11.8463607"><ele>189.0</ele><time>2026-05-03T08:36:43.046Z</time></trkpt><trkpt lat="45.8070425" lon="11.8462372"><ele>189.0</ele><time>2026-05-03T08:36:44.044Z</time></trkpt><trkpt lat="45.8070084" lon="11.8461125"><ele>189.0</ele><time>2026-05-03T08:36:45.045Z</time></trkpt><trkpt lat="45.8069792" lon="11.8459942"><ele>188.83333333333334</ele><time>2026-05-03T08:36:46.046Z</time></trkpt><trkpt lat="45.8069529" lon="11.8458806"><ele>188.66666666666666</ele><time>2026-05-03T08:36:47.045Z</time></trkpt><trkpt lat="45.8069266" lon="11.8457738"><ele>188.5</ele><time>2026-05-03T08:36:48.045Z</time></trkpt><trkpt lat="45.806904" lon="11.8456636"><ele>188.33333333333331</ele><time>2026-05-03T08:36:49.046Z</time></trkpt><trkpt lat="45.8068858" lon="11.8455518"><ele>188.16666666666666</ele><time>2026-05-03T08:36:50.044Z</time></trkpt><trkpt lat="45.806869" lon="11.8454435"><ele>188.0</ele><time>2026-05-03T08:36:51.046Z</time></trkpt><trkpt lat="45.8068502" lon="11.8453408"><ele>188.0</ele><time>2026-05-03T08:36:52.045Z</time></trkpt><trkpt lat="45.8068362" lon="11.8452433"><ele>188.0</ele><time>2026-05-03T08:36:53.046Z</time></trkpt><trkpt lat="45.8068213" lon="11.8451511"><ele>188.0</ele><time>2026-05-03T08:36:54.045Z</time></trkpt><trkpt lat="45.8068087" lon="11.845058"><ele>188.0</ele><time>2026-05-03T08:36:55.045Z</time></trkpt><trkpt lat="45.8067962" lon="11.8449657"><ele>188.0</ele><time>2026-05-03T08:36:56.045Z</time></trkpt><trkpt lat="45.8067712" lon="11.8447932"><ele>188.0</ele><time>2026-05-03T08:36:58.045Z</time></trkpt><trkpt lat="45.806749" lon="11.8446381"><ele>187.8</ele><time>2026-05-03T08:37:00.045Z</time></trkpt><trkpt lat="45.8067246" lon="11.8444867"><ele>187.60000000000002</ele><time>2026-05-03T08:37:02.045Z</time></trkpt><trkpt lat="45.8067036" lon="11.8443414"><ele>187.39999999999998</ele><time>2026-05-03T08:37:04.044Z</time></trkpt><trkpt lat="45.8066874" lon="11.8442241"><ele>187.2</ele><time>2026-05-03T08:37:06.045Z</time></trkpt><trkpt lat="45.8066736" lon="11.8441021"><ele>187.0</ele><time>2026-05-03T08:37:08.045Z</time></trkpt><trkpt lat="45.8066638" lon="11.8439741"><ele>186.39999999999998</ele><time>2026-05-03T08:37:10.045Z</time></trkpt><trkpt lat="45.8066521" lon="11.8438187"><ele>185.79999999999998</ele><time>2026-05-03T08:37:12.044Z</time></trkpt><trkpt lat="45.8066476" lon="11.8437222"><ele>185.2</ele><time>2026-05-03T08:37:13.045Z</time></trkpt><trkpt lat="45.806644" lon="11.8436319"><ele>184.6</ele><time>2026-05-03T08:37:14.045Z</time></trkpt><trkpt lat="45.8066133" lon="11.8434727"><ele>184.0</ele><time>2026-05-03T08:37:16.046Z</time></trkpt><trkpt lat="45.8065601" lon="11.8433081"><ele>184.0</ele><time>2026-05-03T08:37:18.044Z</time></trkpt><trkpt lat="45.8065029" lon="11.8431484"><ele>184.0</ele><time>2026-05-03T08:37:20.045Z</time></trkpt><trkpt lat="45.8064716" lon="11.8429798"><ele>184.0</ele><time>2026-05-03T08:37:22.046Z</time></trkpt><trkpt lat="45.8064387" lon="11.8428115"><ele>184.0</ele><time>2026-05-03T08:37:24.046Z</time></trkpt><trkpt lat="45.8064222" lon="11.8427182"><ele>184.0</ele><time>2026-05-03T08:37:25.045Z</time></trkpt><trkpt lat="45.8064047" lon="11.8426181"><ele>184.16666666666669</ele><time>2026-05-03T08:37:26.045Z</time></trkpt><trkpt lat="45.8063955" lon="11.842511"><ele>184.33333333333334</ele><time>2026-05-03T08:37:27.044Z</time></trkpt><trkpt lat="45.8063822" lon="11.8424047"><ele>184.5</ele><time>2026-05-03T08:37:28.045Z</time></trkpt><trkpt lat="45.8063716" lon="11.8422985"><ele>184.66666666666666</ele><time>2026-05-03T08:37:29.045Z</time></trkpt><trkpt lat="45.806362" lon="11.8422"><ele>184.83333333333331</ele><time>2026-05-03T08:37:30.044Z</time></trkpt><trkpt lat="45.8063513" lon="11.8421099"><ele>185.0</ele><time>2026-05-03T08:37:31.045Z</time></trkpt><trkpt lat="45.806336" lon="11.8419669"><ele>185.0</ele><time>2026-05-03T08:37:33.046Z</time></trkpt><trkpt lat="45.8063283" lon="11.8418581"><ele>185.0</ele><time>2026-05-03T08:37:35.045Z</time></trkpt><trkpt lat="45.8063129" lon="11.841769"><ele>185.0</ele><time>2026-05-03T08:37:37.045Z</time></trkpt><trkpt lat="45.8062946" lon="11.8416527"><ele>185.0</ele><time>2026-05-03T08:37:39.044Z</time></trkpt><trkpt lat="45.806274" lon="11.8415121"><ele>185.0</ele><time>2026-05-03T08:37:41.044Z</time></trkpt><trkpt lat="45.8062503" lon="11.8413737"><ele>185.0</ele><time>2026-05-03T08:37:43.045Z</time></trkpt><trkpt lat="45.8062016" lon="11.8412508"><ele>184.8</ele><time>2026-05-03T08:37:45.045Z</time></trkpt><trkpt lat="45.8061493" lon="11.8411421"><ele>184.6</ele><time>2026-05-03T08:37:47.046Z</time></trkpt><trkpt lat="45.8061106" lon="11.8409978"><ele>184.39999999999998</ele><time>2026-05-03T08:37:49.045Z</time></trkpt><trkpt lat="45.8060762" lon="11.8408335"><ele>184.2</ele><time>2026-05-03T08:37:51.044Z</time></trkpt><trkpt lat="45.8060585" lon="11.8407427"><ele>184.0</ele><time>2026-05-03T08:37:52.045Z</time></trkpt><trkpt lat="45.8060413" lon="11.8406469"><ele>183.83333333333334</ele><time>2026-05-03T08:37:53.046Z</time></trkpt><trkpt lat="45.8060159" lon="11.8405472"><ele>183.66666666666669</ele><time>2026-05-03T08:37:54.044Z</time></trkpt><trkpt lat="45.8059933" lon="11.8404402"><ele>183.5</ele><time>2026-05-03T08:37:55.045Z</time></trkpt><trkpt lat="45.8059748" lon="11.8403272"><ele>183.33333333333334</ele><time>2026-05-03T08:37:56.045Z</time></trkpt><trkpt lat="45.8059593" lon="11.840213"><ele>183.16666666666666</ele><time>2026-05-03T08:37:57.045Z</time></trkpt><trkpt lat="45.8059472" lon="11.8400953"><ele>183.0</ele><time>2026-05-03T08:37:58.045Z</time></trkpt><trkpt lat="45.805931" lon="11.839975"><ele>182.5</ele><time>2026-05-03T08:37:59.046Z</time></trkpt><trkpt lat="45.8059198" lon="11.8398649"><ele>182.0</ele><time>2026-05-03T08:38:00.045Z</time></trkpt><trkpt lat="45.8059084" lon="11.8397594"><ele>181.5</ele><time>2026-05-03T08:38:01.046Z</time></trkpt><trkpt lat="45.8059064" lon="11.8396663"><ele>181.0</ele><time>2026-05-03T08:38:02.045Z</time></trkpt><trkpt lat="45.8059006" lon="11.8395753"><ele>180.5</ele><time>2026-05-03T08:38:03.045Z</time></trkpt><trkpt lat="45.8058876" lon="11.8394832"><ele>180.0</ele><time>2026-05-03T08:38:04.045Z</time></trkpt><trkpt lat="45.80584" lon="11.8393205"><ele>181.0</ele><time>2026-05-03T08:38:06.044Z</time></trkpt><trkpt lat="45.8057979" lon="11.8391622"><ele>182.0</ele><time>2026-05-03T08:38:08.045Z</time></trkpt><trkpt lat="45.8057913" lon="11.839006"><ele>183.0</ele><time>2026-05-03T08:38:10.044Z</time></trkpt><trkpt lat="45.8057886" lon="11.8388379"><ele>184.0</ele><time>2026-05-03T08:38:12.046Z</time></trkpt><trkpt lat="45.8057728" lon="11.8386562"><ele>184.0</ele><time>2026-05-03T08:38:14.044Z</time></trkpt><trkpt lat="45.8057675" lon="11.8385622"><ele>184.0</ele><time>2026-05-03T08:38:15.045Z</time></trkpt><trkpt lat="45.8057618" lon="11.8384663"><ele>184.0</ele><time>2026-05-03T08:38:16.045Z</time></trkpt><trkpt lat="45.8057558" lon="11.8383664"><ele>184.0</ele><time>2026-05-03T08:38:17.046Z</time></trkpt><trkpt lat="45.8057496" lon="11.8382641"><ele>184.0</ele><time>2026-05-03T08:38:18.046Z</time></trkpt><trkpt lat="45.8057481" lon="11.8381618"><ele>184.0</ele><time>2026-05-03T08:38:19.045Z</time></trkpt><trkpt lat="45.8057482" lon="11.8380552"><ele>184.0</ele><time>2026-05-03T08:38:20.045Z</time></trkpt><trkpt lat="45.805754" lon="11.8379468"><ele>184.2</ele><time>2026-05-03T08:38:21.044Z</time></trkpt><trkpt lat="45.8057548" lon="11.8378271"><ele>184.39999999999998</ele><time>2026-05-03T08:38:22.046Z</time></trkpt><trkpt lat="45.80575" lon="11.8376998"><ele>184.6</ele><time>2026-05-03T08:38:23.045Z</time></trkpt><trkpt lat="45.8057457" lon="11.8375627"><ele>184.8</ele><time>2026-05-03T08:38:24.044Z</time></trkpt><trkpt lat="45.805742" lon="11.8374037"><ele>185.0</ele><time>2026-05-03T08:38:25.046Z</time></trkpt><trkpt lat="45.8057363" lon="11.8372412"><ele>185.2</ele><time>2026-05-03T08:38:26.045Z</time></trkpt><trkpt lat="45.8057354" lon="11.8370811"><ele>185.4</ele><time>2026-05-03T08:38:27.046Z</time></trkpt><trkpt lat="45.8057304" lon="11.8369273"><ele>185.60000000000002</ele><time>2026-05-03T08:38:28.046Z</time></trkpt><trkpt lat="45.8057299" lon="11.8367771"><ele>185.8</ele><time>2026-05-03T08:38:29.045Z</time></trkpt><trkpt lat="45.8057239" lon="11.8366446"><ele>186.0</ele><time>2026-05-03T08:38:30.046Z</time></trkpt><trkpt lat="45.8057187" lon="11.8365149"><ele>186.0</ele><time>2026-05-03T08:38:31.045Z</time></trkpt><trkpt lat="45.805712" lon="11.8363955"><ele>186.0</ele><time>2026-05-03T08:38:32.045Z</time></trkpt><trkpt lat="45.8057047" lon="11.8362754"><ele>186.0</ele><time>2026-05-03T08:38:33.045Z</time></trkpt><trkpt lat="45.8056993" lon="11.8361778"><ele>186.0</ele><time>2026-05-03T08:38:34.045Z</time></trkpt><trkpt lat="45.8056922" lon="11.8360111"><ele>186.0</ele><time>2026-05-03T08:38:36.046Z</time></trkpt><trkpt lat="45.8056903" lon="11.8358669"><ele>186.0</ele><time>2026-05-03T08:38:38.045Z</time></trkpt><trkpt lat="45.8057122" lon="11.8357369"><ele>186.0</ele><time>2026-05-03T08:38:40.045Z</time></trkpt><trkpt lat="45.8057581" lon="11.8356062"><ele>186.0</ele><time>2026-05-03T08:38:42.045Z</time></trkpt><trkpt lat="45.8058021" lon="11.8354845"><ele>186.0</ele><time>2026-05-03T08:38:44.044Z</time></trkpt><trkpt lat="45.8058275" lon="11.8353344"><ele>186.0</ele><time>2026-05-03T08:38:46.045Z</time></trkpt><trkpt lat="45.8058541" lon="11.8351566"><ele>186.2857142857143</ele><time>2026-05-03T08:38:48.045Z</time></trkpt><trkpt lat="45.8058644" lon="11.8350651"><ele>186.57142857142858</ele><time>2026-05-03T08:38:49.045Z</time></trkpt><trkpt lat="45.8058714" lon="11.8349701"><ele>186.85714285714286</ele><time>2026-05-03T08:38:50.045Z</time></trkpt><trkpt lat="45.8058688" lon="11.834869"><ele>187.14285714285717</ele><time>2026-05-03T08:38:51.045Z</time></trkpt><trkpt lat="45.8058697" lon="11.834768"><ele>187.42857142857142</ele><time>2026-05-03T08:38:52.045Z</time></trkpt><trkpt lat="45.80586" lon="11.8346585"><ele>187.71428571428572</ele><time>2026-05-03T08:38:53.045Z</time></trkpt><trkpt lat="45.8058537" lon="11.8345449"><ele>188.0</ele><time>2026-05-03T08:38:54.046Z</time></trkpt><trkpt lat="45.805845" lon="11.8344328"><ele>188.0</ele><time>2026-05-03T08:38:55.044Z</time></trkpt><trkpt lat="45.8058381" lon="11.8343266"><ele>188.0</ele><time>2026-05-03T08:38:56.046Z</time></trkpt><trkpt lat="45.8058299" lon="11.8342167"><ele>188.0</ele><time>2026-05-03T08:38:57.045Z</time></trkpt><trkpt lat="45.8058234" lon="11.8341051"><ele>188.0</ele><time>2026-05-03T08:38:58.045Z</time></trkpt><trkpt lat="45.8058174" lon="11.8339923"><ele>188.0</ele><time>2026-05-03T08:38:59.046Z</time></trkpt><trkpt lat="45.805815" lon="11.8338772"><ele>188.0</ele><time>2026-05-03T08:39:00.045Z</time></trkpt><trkpt lat="45.8058121" lon="11.8337614"><ele>188.16666666666666</ele><time>2026-05-03T08:39:01.046Z</time></trkpt><trkpt lat="45.8058092" lon="11.8336478"><ele>188.33333333333331</ele><time>2026-05-03T08:39:02.045Z</time></trkpt><trkpt lat="45.8058048" lon="11.8335313"><ele>188.5</ele><time>2026-05-03T08:39:03.045Z</time></trkpt><trkpt lat="45.8058002" lon="11.8334157"><ele>188.66666666666666</ele><time>2026-05-03T08:39:04.045Z</time></trkpt><trkpt lat="45.8057951" lon="11.8333051"><ele>188.83333333333334</ele><time>2026-05-03T08:39:05.045Z</time></trkpt><trkpt lat="45.8057906" lon="11.8331943"><ele>189.0</ele><time>2026-05-03T08:39:06.044Z</time></trkpt><trkpt lat="45.8057906" lon="11.8330855"><ele>189.16666666666666</ele><time>2026-05-03T08:39:07.046Z</time></trkpt><trkpt lat="45.8057891" lon="11.8329787"><ele>189.33333333333334</ele><time>2026-05-03T08:39:08.044Z</time></trkpt><trkpt lat="45.8057897" lon="11.832876"><ele>189.5</ele><time>2026-05-03T08:39:09.045Z</time></trkpt><trkpt lat="45.8057938" lon="11.8327842"><ele>189.66666666666669</ele><time>2026-05-03T08:39:10.045Z</time></trkpt><trkpt lat="45.8057917" lon="11.832689"><ele>189.83333333333334</ele><time>2026-05-03T08:39:11.045Z</time></trkpt><trkpt lat="45.8057784" lon="11.8325402"><ele>190.0</ele><time>2026-05-03T08:39:13.045Z</time></trkpt><trkpt lat="45.8057679" lon="11.832417"><ele>190.33333333333334</ele><time>2026-05-03T08:39:15.046Z</time></trkpt><trkpt lat="45.8057629" lon="11.8323251"><ele>190.66666666666669</ele><time>2026-05-03T08:39:17.044Z</time></trkpt><trkpt lat="45.8057695" lon="11.8322209"><ele>191.0</ele><time>2026-05-03T08:39:19.046Z</time></trkpt><trkpt lat="45.8057867" lon="11.8320546"><ele>191.33333333333334</ele><time>2026-05-03T08:39:21.046Z</time></trkpt><trkpt lat="45.8057825" lon="11.8318819"><ele>191.66666666666666</ele><time>2026-05-03T08:39:23.044Z</time></trkpt><trkpt lat="45.8057829" lon="11.8317796"><ele>192.0</ele><time>2026-05-03T08:39:24.045Z</time></trkpt><trkpt lat="45.8057858" lon="11.8316675"><ele>192.16666666666666</ele><time>2026-05-03T08:39:25.045Z</time></trkpt><trkpt lat="45.8057813" lon="11.8315541"><ele>192.33333333333331</ele><time>2026-05-03T08:39:26.045Z</time></trkpt><trkpt lat="45.8057759" lon="11.8314471"><ele>192.5</ele><time>2026-05-03T08:39:27.045Z</time></trkpt><trkpt lat="45.8057688" lon="11.831344"><ele>192.66666666666666</ele><time>2026-05-03T08:39:28.045Z</time></trkpt><trkpt lat="45.8057667" lon="11.8312363"><ele>192.83333333333331</ele><time>2026-05-03T08:39:29.045Z</time></trkpt><trkpt lat="45.8057693" lon="11.8311253"><ele>193.0</ele><time>2026-05-03T08:39:30.044Z</time></trkpt><trkpt lat="45.8057796" lon="11.8310221"><ele>192.83333333333331</ele><time>2026-05-03T08:39:31.045Z</time></trkpt><trkpt lat="45.8057871" lon="11.8309158"><ele>192.66666666666666</ele><time>2026-05-03T08:39:32.046Z</time></trkpt><trkpt lat="45.8057928" lon="11.830807"><ele>192.5</ele><time>2026-05-03T08:39:33.046Z</time></trkpt><trkpt lat="45.805802" lon="11.8306945"><ele>192.33333333333331</ele><time>2026-05-03T08:39:34.046Z</time></trkpt><trkpt lat="45.8058048" lon="11.8305804"><ele>192.16666666666666</ele><time>2026-05-03T08:39:35.044Z</time></trkpt><trkpt lat="45.8058058" lon="11.8304629"><ele>192.0</ele><time>2026-05-03T08:39:36.045Z</time></trkpt><trkpt lat="45.8058102" lon="11.8303419"><ele>192.0</ele><time>2026-05-03T08:39:37.045Z</time></trkpt><trkpt lat="45.8058124" lon="11.8302179"><ele>192.0</ele><time>2026-05-03T08:39:38.046Z</time></trkpt><trkpt lat="45.8058125" lon="11.8300921"><ele>192.0</ele><time>2026-05-03T08:39:39.046Z</time></trkpt><trkpt lat="45.8058123" lon="11.8299648"><ele>192.0</ele><time>2026-05-03T08:39:40.046Z</time></trkpt><trkpt lat="45.805808" lon="11.8298328"><ele>192.0</ele><time>2026-05-03T08:39:41.046Z</time></trkpt><trkpt lat="45.8058056" lon="11.8296974"><ele>192.0</ele><time>2026-05-03T08:39:42.046Z</time></trkpt><trkpt lat="45.8058048" lon="11.8295643"><ele>191.5</ele><time>2026-05-03T08:39:43.044Z</time></trkpt><trkpt lat="45.8058029" lon="11.829427"><ele>191.0</ele><time>2026-05-03T08:39:44.045Z</time></trkpt><trkpt lat="45.8058022" lon="11.8292972"><ele>190.5</ele><time>2026-05-03T08:39:45.045Z</time></trkpt><trkpt lat="45.8057988" lon="11.8291713"><ele>190.0</ele><time>2026-05-03T08:39:46.044Z</time></trkpt><trkpt lat="45.8057953" lon="11.8290528"><ele>189.5</ele><time>2026-05-03T08:39:47.045Z</time></trkpt><trkpt lat="45.8057965" lon="11.8289308"><ele>189.0</ele><time>2026-05-03T08:39:48.045Z</time></trkpt><trkpt lat="45.8057907" lon="11.8288045"><ele>189.0</ele><time>2026-05-03T08:39:49.045Z</time></trkpt><trkpt lat="45.8057804" lon="11.8286822"><ele>189.0</ele><time>2026-05-03T08:39:50.046Z</time></trkpt><trkpt lat="45.8057682" lon="11.8285616"><ele>189.0</ele><time>2026-05-03T08:39:51.044Z</time></trkpt><trkpt lat="45.8057495" lon="11.8284409"><ele>189.0</ele><time>2026-05-03T08:39:52.045Z</time></trkpt><trkpt lat="45.8057351" lon="11.8283252"><ele>189.0</ele><time>2026-05-03T08:39:53.046Z</time></trkpt><trkpt lat="45.8057285" lon="11.8282026"><ele>189.0</ele><time>2026-05-03T08:39:54.046Z</time></trkpt><trkpt lat="45.805733" lon="11.8280591"><ele>189.0</ele><time>2026-05-03T08:39:55.044Z</time></trkpt><trkpt lat="45.8057309" lon="11.8278961"><ele>189.0</ele><time>2026-05-03T08:39:56.046Z</time></trkpt><trkpt lat="45.8057312" lon="11.827714"><ele>189.0</ele><time>2026-05-03T08:39:57.045Z</time></trkpt><trkpt lat="45.805729" lon="11.8275496"><ele>189.0</ele><time>2026-05-03T08:39:58.045Z</time></trkpt><trkpt lat="45.8057199" lon="11.8273908"><ele>189.0</ele><time>2026-05-03T08:39:59.045Z</time></trkpt><trkpt lat="45.80571" lon="11.8272357"><ele>189.0</ele><time>2026-05-03T08:40:00.045Z</time></trkpt><trkpt lat="45.8056964" lon="11.8270908"><ele>189.0</ele><time>2026-05-03T08:40:01.045Z</time></trkpt><trkpt lat="45.8056807" lon="11.826952"><ele>189.0</ele><time>2026-05-03T08:40:02.044Z</time></trkpt><trkpt lat="45.8056682" lon="11.8268194"><ele>189.0</ele><time>2026-05-03T08:40:03.046Z</time></trkpt><trkpt lat="45.80566" lon="11.8266942"><ele>189.0</ele><time>2026-05-03T08:40:04.045Z</time></trkpt><trkpt lat="45.805647" lon="11.8265679"><ele>189.0</ele><time>2026-05-03T08:40:05.045Z</time></trkpt><trkpt lat="45.8056382" lon="11.8264484"><ele>189.0</ele><time>2026-05-03T08:40:06.045Z</time></trkpt><trkpt lat="45.8056322" lon="11.8263314"><ele>189.0</ele><time>2026-05-03T08:40:07.045Z</time></trkpt><trkpt lat="45.8056253" lon="11.8262058"><ele>189.0</ele><time>2026-05-03T08:40:08.046Z</time></trkpt><trkpt lat="45.8056198" lon="11.8260819"><ele>189.0</ele><time>2026-05-03T08:40:09.045Z</time></trkpt><trkpt lat="45.805617" lon="11.8259552"><ele>189.39999999999998</ele><time>2026-05-03T08:40:10.046Z</time></trkpt><trkpt lat="45.8056143" lon="11.8258227"><ele>189.8</ele><time>2026-05-03T08:40:11.045Z</time></trkpt><trkpt lat="45.8056078" lon="11.825691"><ele>190.2</ele><time>2026-05-03T08:40:12.046Z</time></trkpt><trkpt lat="45.8056014" lon="11.82556"><ele>190.60000000000002</ele><time>2026-05-03T08:40:13.045Z</time></trkpt><trkpt lat="45.8055937" lon="11.8254291"><ele>191.0</ele><time>2026-05-03T08:40:14.044Z</time></trkpt><trkpt lat="45.8055843" lon="11.8253067"><ele>191.0</ele><time>2026-05-03T08:40:15.045Z</time></trkpt><trkpt lat="45.8055779" lon="11.8251933"><ele>191.0</ele><time>2026-05-03T08:40:16.045Z</time></trkpt><trkpt lat="45.8055748" lon="11.8250777"><ele>191.0</ele><time>2026-05-03T08:40:17.046Z</time></trkpt><trkpt lat="45.8055775" lon="11.824952"><ele>191.0</ele><time>2026-05-03T08:40:18.046Z</time></trkpt><trkpt lat="45.8055738" lon="11.8248293"><ele>191.0</ele><time>2026-05-03T08:40:19.045Z</time></trkpt><trkpt lat="45.8055662" lon="11.8247084"><ele>191.0</ele><time>2026-05-03T08:40:20.045Z</time></trkpt><trkpt lat="45.805562" lon="11.8245822"><ele>191.0</ele><time>2026-05-03T08:40:21.045Z</time></trkpt><trkpt lat="45.8055547" lon="11.8244607"><ele>191.0</ele><time>2026-05-03T08:40:22.046Z</time></trkpt><trkpt lat="45.8055482" lon="11.8243385"><ele>191.0</ele><time>2026-05-03T08:40:23.046Z</time></trkpt><trkpt lat="45.8055432" lon="11.8242133"><ele>191.0</ele><time>2026-05-03T08:40:24.045Z</time></trkpt><trkpt lat="45.8055374" lon="11.8240949"><ele>191.0</ele><time>2026-05-03T08:40:25.045Z</time></trkpt><trkpt lat="45.8055325" lon="11.8239815"><ele>191.0</ele><time>2026-05-03T08:40:26.046Z</time></trkpt><trkpt lat="45.8055253" lon="11.8238693"><ele>191.0</ele><time>2026-05-03T08:40:27.046Z</time></trkpt><trkpt lat="45.8055159" lon="11.8237581"><ele>191.0</ele><time>2026-05-03T08:40:28.046Z</time></trkpt><trkpt lat="45.8055007" lon="11.8236486"><ele>191.0</ele><time>2026-05-03T08:40:29.045Z</time></trkpt><trkpt lat="45.8055034" lon="11.8235409"><ele>191.0</ele><time>2026-05-03T08:40:30.045Z</time></trkpt><trkpt lat="45.8055009" lon="11.8234327"><ele>191.0</ele><time>2026-05-03T08:40:31.046Z</time></trkpt><trkpt lat="45.8054905" lon="11.8233162"><ele>191.0</ele><time>2026-05-03T08:40:32.045Z</time></trkpt><trkpt lat="45.8054836" lon="11.8232047"><ele>190.57142857142858</ele><time>2026-05-03T08:40:33.046Z</time></trkpt><trkpt lat="45.8054828" lon="11.8230915"><ele>190.14285714285714</ele><time>2026-05-03T08:40:34.045Z</time></trkpt><trkpt lat="45.8054812" lon="11.8229953"><ele>189.71428571428572</ele><time>2026-05-03T08:40:35.046Z</time></trkpt><trkpt lat="45.8054884" lon="11.8228997"><ele>189.28571428571428</ele><time>2026-05-03T08:40:36.045Z</time></trkpt><trkpt lat="45.8054937" lon="11.8228073"><ele>188.85714285714283</ele><time>2026-05-03T08:40:37.045Z</time></trkpt><trkpt lat="45.8054968" lon="11.822714"><ele>188.42857142857142</ele><time>2026-05-03T08:40:38.045Z</time></trkpt><trkpt lat="45.8055125" lon="11.8226177"><ele>188.0</ele><time>2026-05-03T08:40:39.045Z</time></trkpt><trkpt lat="45.8055532" lon="11.8224463"><ele>188.0</ele><time>2026-05-03T08:40:41.045Z</time></trkpt><trkpt lat="45.805582" lon="11.8222778"><ele>188.0</ele><time>2026-05-03T08:40:43.045Z</time></trkpt><trkpt lat="45.8056" lon="11.822188"><ele>188.0</ele><time>2026-05-03T08:40:44.046Z</time></trkpt><trkpt lat="45.8056378" lon="11.8220261"><ele>188.0</ele><time>2026-05-03T08:40:46.046Z</time></trkpt><trkpt lat="45.805658" lon="11.821938"><ele>188.0</ele><time>2026-05-03T08:40:47.045Z</time></trkpt><trkpt lat="45.8056906" lon="11.8217679"><ele>188.16666666666666</ele><time>2026-05-03T08:40:49.045Z</time></trkpt><trkpt lat="45.8057208" lon="11.8216301"><ele>188.33333333333331</ele><time>2026-05-03T08:40:51.045Z</time></trkpt><trkpt lat="45.8057384" lon="11.8215175"><ele>188.5</ele><time>2026-05-03T08:40:53.045Z</time></trkpt><trkpt lat="45.8057626" lon="11.8214087"><ele>188.66666666666666</ele><time>2026-05-03T08:40:55.045Z</time></trkpt><trkpt lat="45.8057774" lon="11.8212994"><ele>188.83333333333334</ele><time>2026-05-03T08:40:57.046Z</time></trkpt><trkpt lat="45.8057951" lon="11.8211812"><ele>189.0</ele><time>2026-05-03T08:40:59.046Z</time></trkpt><trkpt lat="45.8058099" lon="11.821042"><ele>188.79999999999998</ele><time>2026-05-03T08:41:01.045Z</time></trkpt><trkpt lat="45.8058201" lon="11.8208721"><ele>188.6</ele><time>2026-05-03T08:41:03.045Z</time></trkpt><trkpt lat="45.8058404" lon="11.8207057"><ele>188.4</ele><time>2026-05-03T08:41:05.044Z</time></trkpt><trkpt lat="45.8058476" lon="11.8206025"><ele>188.2</ele><time>2026-05-03T08:41:07.045Z</time></trkpt><trkpt lat="45.8058668" lon="11.8205057"><ele>188.0</ele><time>2026-05-03T08:41:10.045Z</time></trkpt><trkpt lat="45.8058685" lon="11.8204012"><ele>188.0</ele><time>2026-05-03T08:41:22.045Z</time></trkpt><trkpt lat="45.8058891" lon="11.820251"><ele>188.0</ele><time>2026-05-03T08:41:25.044Z</time></trkpt><trkpt lat="45.8059119" lon="11.8201028"><ele>188.0</ele><time>2026-05-03T08:41:27.045Z</time></trkpt><trkpt lat="45.8059318" lon="11.8200026"><ele>188.0</ele><time>2026-05-03T08:41:28.044Z</time></trkpt><trkpt lat="45.8059657" lon="11.8198916"><ele>188.0</ele><time>2026-05-03T08:41:29.045Z</time></trkpt><trkpt lat="45.8059994" lon="11.8197849"><ele>188.0</ele><time>2026-05-03T08:41:30.045Z</time></trkpt><trkpt lat="45.8060305" lon="11.819687"><ele>188.0</ele><time>2026-05-03T08:41:31.044Z</time></trkpt><trkpt lat="45.8060606" lon="11.8195915"><ele>188.0</ele><time>2026-05-03T08:41:32.045Z</time></trkpt><trkpt lat="45.8060949" lon="11.8195048"><ele>188.0</ele><time>2026-05-03T08:41:33.045Z</time></trkpt><trkpt lat="45.806142" lon="11.8193709"><ele>188.0</ele><time>2026-05-03T08:41:35.044Z</time></trkpt><trkpt lat="45.8061798" lon="11.8192601"><ele>188.0</ele><time>2026-05-03T08:41:37.044Z</time></trkpt><trkpt lat="45.8062173" lon="11.8191642"><ele>188.0</ele><time>2026-05-03T08:41:39.046Z</time></trkpt><trkpt lat="45.8062496" lon="11.8190242"><ele>188.0</ele><time>2026-05-03T08:41:41.045Z</time></trkpt><trkpt lat="45.8062704" lon="11.8189127"><ele>188.0</ele><time>2026-05-03T08:41:43.046Z</time></trkpt><trkpt lat="45.8062875" lon="11.8188109"><ele>188.0</ele><time>2026-05-03T08:41:45.046Z</time></trkpt><trkpt lat="45.8062989" lon="11.8186949"><ele>188.0</ele><time>2026-05-03T08:41:48.044Z</time></trkpt><trkpt lat="45.8063066" lon="11.8185822"><ele>188.0</ele><time>2026-05-03T08:41:51.045Z</time></trkpt><trkpt lat="45.8062989" lon="11.8184412"><ele>187.66666666666666</ele><time>2026-05-03T08:41:54.045Z</time></trkpt><trkpt lat="45.806285" lon="11.8183365"><ele>187.33333333333331</ele><time>2026-05-03T08:41:56.045Z</time></trkpt><trkpt lat="45.8062745" lon="11.8182344"><ele>187.0</ele><time>2026-05-03T08:41:58.045Z</time></trkpt><trkpt lat="45.8062486" lon="11.8181361"><ele>186.66666666666666</ele><time>2026-05-03T08:42:00.045Z</time></trkpt><trkpt lat="45.8062276" lon="11.8180143"><ele>186.33333333333334</ele><time>2026-05-03T08:42:02.045Z</time></trkpt><trkpt lat="45.8062194" lon="11.8178938"><ele>186.0</ele><time>2026-05-03T08:42:04.044Z</time></trkpt><trkpt lat="45.8062143" lon="11.8177737"><ele>185.83333333333334</ele><time>2026-05-03T08:42:06.045Z</time></trkpt><trkpt lat="45.806205" lon="11.8176455"><ele>185.66666666666666</ele><time>2026-05-03T08:42:08.045Z</time></trkpt><trkpt lat="45.8062074" lon="11.817509"><ele>185.5</ele><time>2026-05-03T08:42:10.045Z</time></trkpt><trkpt lat="45.806214" lon="11.8173927"><ele>185.33333333333331</ele><time>2026-05-03T08:42:12.045Z</time></trkpt><trkpt lat="45.8062306" lon="11.8172659"><ele>185.16666666666666</ele><time>2026-05-03T08:42:15.046Z</time></trkpt><trkpt lat="45.8062456" lon="11.8171534"><ele>185.0</ele><time>2026-05-03T08:42:18.044Z</time></trkpt><trkpt lat="45.8062624" lon="11.8170287"><ele>185.0</ele><time>2026-05-03T08:42:21.044Z</time></trkpt><trkpt lat="45.8062835" lon="11.8169036"><ele>185.0</ele><time>2026-05-03T08:42:23.045Z</time></trkpt><trkpt lat="45.8063028" lon="11.8167803"><ele>185.0</ele><time>2026-05-03T08:42:25.045Z</time></trkpt><trkpt lat="45.8063253" lon="11.816648"><ele>185.0</ele><time>2026-05-03T08:42:27.045Z</time></trkpt><trkpt lat="45.8063477" lon="11.8165018"><ele>185.0</ele><time>2026-05-03T08:42:29.045Z</time></trkpt><trkpt lat="45.8063739" lon="11.8163601"><ele>184.8</ele><time>2026-05-03T08:42:31.046Z</time></trkpt><trkpt lat="45.8064001" lon="11.8162163"><ele>184.6</ele><time>2026-05-03T08:42:33.046Z</time></trkpt><trkpt lat="45.806428" lon="11.8160638"><ele>184.39999999999998</ele><time>2026-05-03T08:42:35.045Z</time></trkpt><trkpt lat="45.8064453" lon="11.8159252"><ele>184.2</ele><time>2026-05-03T08:42:37.045Z</time></trkpt><trkpt lat="45.8064788" lon="11.8158126"><ele>184.0</ele><time>2026-05-03T08:42:39.045Z</time></trkpt><trkpt lat="45.8065382" lon="11.8157006"><ele>183.79999999999998</ele><time>2026-05-03T08:42:41.045Z</time></trkpt><trkpt lat="45.8065929" lon="11.8156511"><ele>183.6</ele><time>2026-05-03T08:42:43.044Z</time></trkpt><trkpt lat="45.8066632" lon="11.8155388"><ele>183.4</ele><time>2026-05-03T08:42:48.045Z</time></trkpt><trkpt lat="45.8066989" lon="11.8154437"><ele>183.2</ele><time>2026-05-03T08:42:49.045Z</time></trkpt><trkpt lat="45.8067378" lon="11.8153165"><ele>183.0</ele><time>2026-05-03T08:42:50.046Z</time></trkpt><trkpt lat="45.8067779" lon="11.815155"><ele>183.25</ele><time>2026-05-03T08:42:51.044Z</time></trkpt><trkpt lat="45.8068203" lon="11.8149768"><ele>183.5</ele><time>2026-05-03T08:42:52.044Z</time></trkpt><trkpt lat="45.8068596" lon="11.8148042"><ele>183.75</ele><time>2026-05-03T08:42:53.046Z</time></trkpt><trkpt lat="45.8068989" lon="11.8146313"><ele>184.0</ele><time>2026-05-03T08:42:54.046Z</time></trkpt><trkpt lat="45.8069384" lon="11.8144559"><ele>184.0</ele><time>2026-05-03T08:42:55.045Z</time></trkpt><trkpt lat="45.806977" lon="11.8142877"><ele>184.0</ele><time>2026-05-03T08:42:56.045Z</time></trkpt><trkpt lat="45.8070111" lon="11.814126"><ele>184.0</ele><time>2026-05-03T08:42:57.045Z</time></trkpt><trkpt lat="45.8070413" lon="11.8139772"><ele>184.0</ele><time>2026-05-03T08:42:58.045Z</time></trkpt><trkpt lat="45.8070673" lon="11.8138465"><ele>184.0</ele><time>2026-05-03T08:42:59.045Z</time></trkpt><trkpt lat="45.8070917" lon="11.8137292"><ele>184.0</ele><time>2026-05-03T08:43:00.045Z</time></trkpt><trkpt lat="45.8071173" lon="11.8136276"><ele>184.0</ele><time>2026-05-03T08:43:01.045Z</time></trkpt><trkpt lat="45.8071376" lon="11.8135337"><ele>184.0</ele><time>2026-05-03T08:43:02.046Z</time></trkpt><trkpt lat="45.807173" lon="11.8133999"><ele>184.0</ele><time>2026-05-03T08:43:04.045Z</time></trkpt><trkpt lat="45.8071601" lon="11.8132395"><ele>184.0</ele><time>2026-05-03T08:43:06.046Z</time></trkpt><trkpt lat="45.8071475" lon="11.8131316"><ele>184.0</ele><time>2026-05-03T08:43:07.045Z</time></trkpt><trkpt lat="45.8071374" lon="11.8130145"><ele>183.33333333333334</ele><time>2026-05-03T08:43:08.045Z</time></trkpt><trkpt lat="45.8071336" lon="11.8128882"><ele>182.66666666666669</ele><time>2026-05-03T08:43:09.046Z</time></trkpt><trkpt lat="45.8071322" lon="11.8127596"><ele>182.0</ele><time>2026-05-03T08:43:10.046Z</time></trkpt><trkpt lat="45.8071275" lon="11.8126331"><ele>181.33333333333334</ele><time>2026-05-03T08:43:11.046Z</time></trkpt><trkpt lat="45.8071176" lon="11.8125119"><ele>180.66666666666666</ele><time>2026-05-03T08:43:12.045Z</time></trkpt><trkpt lat="45.8071126" lon="11.8124028"><ele>180.0</ele><time>2026-05-03T08:43:13.046Z</time></trkpt><trkpt lat="45.8071152" lon="11.812293"><ele>179.66666666666666</ele><time>2026-05-03T08:43:14.045Z</time></trkpt><trkpt lat="45.8071265" lon="11.8121796"><ele>179.33333333333334</ele><time>2026-05-03T08:43:15.044Z</time></trkpt><trkpt lat="45.8071335" lon="11.812066"><ele>179.0</ele><time>2026-05-03T08:43:16.046Z</time></trkpt><trkpt lat="45.8071453" lon="11.8119596"><ele>178.66666666666669</ele><time>2026-05-03T08:43:17.045Z</time></trkpt><trkpt lat="45.8071556" lon="11.8118613"><ele>178.33333333333334</ele><time>2026-05-03T08:43:18.045Z</time></trkpt><trkpt lat="45.8071756" lon="11.8116868"><ele>178.0</ele><time>2026-05-03T08:43:20.045Z</time></trkpt><trkpt lat="45.8071957" lon="11.8115359"><ele>177.8</ele><time>2026-05-03T08:43:22.046Z</time></trkpt><trkpt lat="45.8072048" lon="11.811389"><ele>177.60000000000002</ele><time>2026-05-03T08:43:24.045Z</time></trkpt><trkpt lat="45.8072209" lon="11.8112311"><ele>177.39999999999998</ele><time>2026-05-03T08:43:26.045Z</time></trkpt><trkpt lat="45.8072163" lon="11.8110598"><ele>177.2</ele><time>2026-05-03T08:43:28.046Z</time></trkpt><trkpt lat="45.807193" lon="11.810898"><ele>177.0</ele><time>2026-05-03T08:43:30.045Z</time></trkpt><trkpt lat="45.8071585" lon="11.8107593"><ele>177.0</ele><time>2026-05-03T08:43:32.046Z</time></trkpt><trkpt lat="45.8071269" lon="11.8106227"><ele>177.0</ele><time>2026-05-03T08:43:34.045Z</time></trkpt><trkpt lat="45.8071042" lon="11.8104796"><ele>177.0</ele><time>2026-05-03T08:43:36.045Z</time></trkpt><trkpt lat="45.8070669" lon="11.8103427"><ele>177.0</ele><time>2026-05-03T08:43:38.046Z</time></trkpt><trkpt lat="45.807055" lon="11.8101729"><ele>177.0</ele><time>2026-05-03T08:43:40.045Z</time></trkpt><trkpt lat="45.8070602" lon="11.8100779"><ele>176.66666666666666</ele><time>2026-05-03T08:43:41.046Z</time></trkpt><trkpt lat="45.8070691" lon="11.8099853"><ele>176.33333333333334</ele><time>2026-05-03T08:43:42.045Z</time></trkpt><trkpt lat="45.8070762" lon="11.8098932"><ele>176.0</ele><time>2026-05-03T08:43:43.045Z</time></trkpt><trkpt lat="45.8070827" lon="11.8097318"><ele>175.66666666666669</ele><time>2026-05-03T08:43:45.046Z</time></trkpt><trkpt lat="45.8070889" lon="11.8096333"><ele>175.33333333333334</ele><time>2026-05-03T08:43:47.044Z</time></trkpt><trkpt lat="45.807146" lon="11.8095204"><ele>175.0</ele><time>2026-05-03T08:43:59.044Z</time></trkpt><trkpt lat="45.8072006" lon="11.8093739"><ele>174.71428571428572</ele><time>2026-05-03T08:44:01.045Z</time></trkpt><trkpt lat="45.8072235" lon="11.8092854"><ele>174.42857142857144</ele><time>2026-05-03T08:44:02.044Z</time></trkpt><trkpt lat="45.8072494" lon="11.8091837"><ele>174.14285714285714</ele><time>2026-05-03T08:44:03.045Z</time></trkpt><trkpt lat="45.8072715" lon="11.8090776"><ele>173.85714285714286</ele><time>2026-05-03T08:44:04.046Z</time></trkpt><trkpt lat="45.8072952" lon="11.8089776"><ele>173.57142857142858</ele><time>2026-05-03T08:44:05.045Z</time></trkpt><trkpt lat="45.8073102" lon="11.8088811"><ele>173.28571428571428</ele><time>2026-05-03T08:44:06.044Z</time></trkpt><trkpt lat="45.8073197" lon="11.8087825"><ele>173.0</ele><time>2026-05-03T08:44:07.044Z</time></trkpt><trkpt lat="45.8073207" lon="11.8086118"><ele>172.66666666666666</ele><time>2026-05-03T08:44:09.046Z</time></trkpt><trkpt lat="45.8073296" lon="11.8084386"><ele>172.33333333333331</ele><time>2026-05-03T08:44:11.045Z</time></trkpt><trkpt lat="45.8073399" lon="11.8083495"><ele>172.0</ele><time>2026-05-03T08:44:12.046Z</time></trkpt><trkpt lat="45.8073746" lon="11.8082545"><ele>171.66666666666666</ele><time>2026-05-03T08:44:13.044Z</time></trkpt><trkpt lat="45.8074058" lon="11.8081549"><ele>171.33333333333334</ele><time>2026-05-03T08:44:14.044Z</time></trkpt><trkpt lat="45.8074243" lon="11.8080462"><ele>171.0</ele><time>2026-05-03T08:44:15.045Z</time></trkpt><trkpt lat="45.8074308" lon="11.8079552"><ele>171.0</ele><time>2026-05-03T08:44:16.046Z</time></trkpt><trkpt lat="45.8074384" lon="11.8078655"><ele>171.0</ele><time>2026-05-03T08:44:17.046Z</time></trkpt><trkpt lat="45.8074314" lon="11.8077701"><ele>171.0</ele><time>2026-05-03T08:44:18.045Z</time></trkpt><trkpt lat="45.807402" lon="11.8075954"><ele>171.0</ele><time>2026-05-03T08:44:20.045Z</time></trkpt><trkpt lat="45.8073819" lon="11.8074382"><ele>171.0</ele><time>2026-05-03T08:44:22.045Z</time></trkpt><trkpt lat="45.8073773" lon="11.8073365"><ele>171.0</ele><time>2026-05-03T08:44:23.044Z</time></trkpt><trkpt lat="45.8073797" lon="11.8072401"><ele>170.99999999999997</ele><time>2026-05-03T08:44:24.046Z</time></trkpt><trkpt lat="45.807378" lon="11.8071329"><ele>171.0</ele><time>2026-05-03T08:44:25.045Z</time></trkpt><trkpt lat="45.8073752" lon="11.8070245"><ele>171.0</ele><time>2026-05-03T08:44:26.046Z</time></trkpt><trkpt lat="45.8073704" lon="11.8069322"><ele>171.0</ele><time>2026-05-03T08:44:27.045Z</time></trkpt><trkpt lat="45.8073597" lon="11.8068361"><ele>171.0</ele><time>2026-05-03T08:44:28.045Z</time></trkpt><trkpt lat="45.8073655" lon="11.8067384"><ele>170.99999999999997</ele><time>2026-05-03T08:44:29.045Z</time></trkpt><trkpt lat="45.8073728" lon="11.8066377"><ele>171.0</ele><time>2026-05-03T08:44:30.045Z</time></trkpt><trkpt lat="45.807393" lon="11.8065298"><ele>170.8</ele><time>2026-05-03T08:44:31.046Z</time></trkpt><trkpt lat="45.8074032" lon="11.8064143"><ele>170.60000000000002</ele><time>2026-05-03T08:44:32.045Z</time></trkpt><trkpt lat="45.8074122" lon="11.8063045"><ele>170.4</ele><time>2026-05-03T08:44:33.045Z</time></trkpt><trkpt lat="45.8074185" lon="11.8062104"><ele>170.2</ele><time>2026-05-03T08:44:34.045Z</time></trkpt><trkpt lat="45.8074396" lon="11.806059"><ele>170.0</ele><time>2026-05-03T08:44:36.045Z</time></trkpt><trkpt lat="45.8074587" lon="11.8058899"><ele>170.0</ele><time>2026-05-03T08:44:38.045Z</time></trkpt><trkpt lat="45.8074675" lon="11.8057957"><ele>170.0</ele><time>2026-05-03T08:44:39.045Z</time></trkpt><trkpt lat="45.8074897" lon="11.805642"><ele>170.0</ele><time>2026-05-03T08:44:41.046Z</time></trkpt><trkpt lat="45.8074677" lon="11.8054851"><ele>170.0</ele><time>2026-05-03T08:44:43.046Z</time></trkpt><trkpt lat="45.8074421" lon="11.8053882"><ele>170.0</ele><time>2026-05-03T08:44:44.046Z</time></trkpt><trkpt lat="45.8074367" lon="11.805298"><ele>170.0</ele><time>2026-05-03T08:44:45.046Z</time></trkpt><trkpt lat="45.8074313" lon="11.8052049"><ele>169.33333333333331</ele><time>2026-05-03T08:44:46.045Z</time></trkpt><trkpt lat="45.8074209" lon="11.805114"><ele>168.66666666666666</ele><time>2026-05-03T08:44:47.046Z</time></trkpt><trkpt lat="45.8074219" lon="11.8050181"><ele>168.0</ele><time>2026-05-03T08:44:48.045Z</time></trkpt><trkpt lat="45.8074338" lon="11.8048496"><ele>167.33333333333334</ele><time>2026-05-03T08:44:50.045Z</time></trkpt><trkpt lat="45.8074215" lon="11.8046836"><ele>166.66666666666669</ele><time>2026-05-03T08:44:52.045Z</time></trkpt><trkpt lat="45.8074004" lon="11.8045872"><ele>166.0</ele><time>2026-05-03T08:44:53.045Z</time></trkpt><trkpt lat="45.8073826" lon="11.8044759"><ele>166.0</ele><time>2026-05-03T08:44:54.045Z</time></trkpt><trkpt lat="45.8073585" lon="11.804367"><ele>166.0</ele><time>2026-05-03T08:44:55.046Z</time></trkpt><trkpt lat="45.807343" lon="11.8042555"><ele>166.0</ele><time>2026-05-03T08:44:56.045Z</time></trkpt><trkpt lat="45.8073241" lon="11.8041399"><ele>166.0</ele><time>2026-05-03T08:44:57.045Z</time></trkpt><trkpt lat="45.8073177" lon="11.8040313"><ele>166.0</ele><time>2026-05-03T08:44:58.045Z</time></trkpt><trkpt lat="45.8073083" lon="11.8039265"><ele>166.0</ele><time>2026-05-03T08:44:59.046Z</time></trkpt><trkpt lat="45.8073051" lon="11.8038296"><ele>165.5</ele><time>2026-05-03T08:45:00.045Z</time></trkpt><trkpt lat="45.8072931" lon="11.803735"><ele>165.0</ele><time>2026-05-03T08:45:01.045Z</time></trkpt><trkpt lat="45.8072698" lon="11.803642"><ele>164.5</ele><time>2026-05-03T08:45:02.045Z</time></trkpt><trkpt lat="45.8072452" lon="11.803554"><ele>164.0</ele><time>2026-05-03T08:45:03.045Z</time></trkpt><trkpt lat="45.8071717" lon="11.8034152"><ele>163.5</ele><time>2026-05-03T08:45:05.044Z</time></trkpt><trkpt lat="45.8070869" lon="11.8032817"><ele>163.0</ele><time>2026-05-03T08:45:07.046Z</time></trkpt><trkpt lat="45.8070545" lon="11.8031014"><ele>162.83333333333334</ele><time>2026-05-03T08:45:09.045Z</time></trkpt><trkpt lat="45.8070444" lon="11.8029957"><ele>162.66666666666669</ele><time>2026-05-03T08:45:10.046Z</time></trkpt><trkpt lat="45.8070428" lon="11.8029017"><ele>162.5</ele><time>2026-05-03T08:45:11.044Z</time></trkpt><trkpt lat="45.8070561" lon="11.8027496"><ele>162.33333333333334</ele><time>2026-05-03T08:45:13.046Z</time></trkpt><trkpt lat="45.8070726" lon="11.8025729"><ele>162.16666666666666</ele><time>2026-05-03T08:45:15.045Z</time></trkpt><trkpt lat="45.8070982" lon="11.802485"><ele>162.0</ele><time>2026-05-03T08:45:16.044Z</time></trkpt><trkpt lat="45.80712" lon="11.8023928"><ele>161.83333333333334</ele><time>2026-05-03T08:45:17.045Z</time></trkpt><trkpt lat="45.8071286" lon="11.8022861"><ele>161.66666666666666</ele><time>2026-05-03T08:45:18.045Z</time></trkpt><trkpt lat="45.8071408" lon="11.8021708"><ele>161.5</ele><time>2026-05-03T08:45:19.044Z</time></trkpt><trkpt lat="45.8071412" lon="11.8020522"><ele>161.33333333333331</ele><time>2026-05-03T08:45:20.045Z</time></trkpt><trkpt lat="45.8071425" lon="11.8019385"><ele>161.16666666666666</ele><time>2026-05-03T08:45:21.046Z</time></trkpt><trkpt lat="45.8071355" lon="11.8018229"><ele>161.0</ele><time>2026-05-03T08:45:22.045Z</time></trkpt><trkpt lat="45.8071219" lon="11.8017075"><ele>160.66666666666666</ele><time>2026-05-03T08:45:23.045Z</time></trkpt><trkpt lat="45.8071198" lon="11.8015981"><ele>160.33333333333331</ele><time>2026-05-03T08:45:24.046Z</time></trkpt><trkpt lat="45.8071259" lon="11.8014943"><ele>160.0</ele><time>2026-05-03T08:45:25.045Z</time></trkpt><trkpt lat="45.8071321" lon="11.8013764"><ele>159.66666666666666</ele><time>2026-05-03T08:45:26.044Z</time></trkpt><trkpt lat="45.8071428" lon="11.801263"><ele>159.33333333333334</ele><time>2026-05-03T08:45:27.045Z</time></trkpt><trkpt lat="45.8071564" lon="11.8011604"><ele>159.0</ele><time>2026-05-03T08:45:28.044Z</time></trkpt><trkpt lat="45.8071665" lon="11.8010669"><ele>158.83333333333334</ele><time>2026-05-03T08:45:29.046Z</time></trkpt><trkpt lat="45.8071965" lon="11.8008961"><ele>158.66666666666666</ele><time>2026-05-03T08:45:31.045Z</time></trkpt><trkpt lat="45.8072034" lon="11.8008053"><ele>158.5</ele><time>2026-05-03T08:45:32.045Z</time></trkpt><trkpt lat="45.8071963" lon="11.8007101"><ele>158.33333333333331</ele><time>2026-05-03T08:45:33.045Z</time></trkpt><trkpt lat="45.8071831" lon="11.8006138"><ele>158.16666666666666</ele><time>2026-05-03T08:45:34.045Z</time></trkpt><trkpt lat="45.8071611" lon="11.8005131"><ele>158.0</ele><time>2026-05-03T08:45:35.045Z</time></trkpt><trkpt lat="45.8071371" lon="11.8004133"><ele>158.0</ele><time>2026-05-03T08:45:36.046Z</time></trkpt><trkpt lat="45.8071227" lon="11.8002997"><ele>158.0</ele><time>2026-05-03T08:45:37.045Z</time></trkpt><trkpt lat="45.8071148" lon="11.8001853"><ele>158.0</ele><time>2026-05-03T08:45:38.045Z</time></trkpt><trkpt lat="45.8071079" lon="11.8000639"><ele>158.0</ele><time>2026-05-03T08:45:39.046Z</time></trkpt><trkpt lat="45.8070974" lon="11.7999466"><ele>158.0</ele><time>2026-05-03T08:45:40.044Z</time></trkpt><trkpt lat="45.8070846" lon="11.7998429"><ele>158.0</ele><time>2026-05-03T08:45:41.045Z</time></trkpt><trkpt lat="45.8070691" lon="11.799745"><ele>158.14285714285717</ele><time>2026-05-03T08:45:42.045Z</time></trkpt><trkpt lat="45.807053" lon="11.7996477"><ele>158.28571428571428</ele><time>2026-05-03T08:45:43.046Z</time></trkpt><trkpt lat="45.8070406" lon="11.7995552"><ele>158.42857142857144</ele><time>2026-05-03T08:45:44.046Z</time></trkpt><trkpt lat="45.807031" lon="11.7994637"><ele>158.57142857142858</ele><time>2026-05-03T08:45:45.046Z</time></trkpt><trkpt lat="45.8070268" lon="11.7993713"><ele>158.71428571428572</ele><time>2026-05-03T08:45:46.045Z</time></trkpt><trkpt lat="45.8070243" lon="11.7992782"><ele>158.85714285714286</ele><time>2026-05-03T08:45:47.045Z</time></trkpt><trkpt lat="45.8070222" lon="11.7991839"><ele>159.0</ele><time>2026-05-03T08:45:48.044Z</time></trkpt><trkpt lat="45.8070279" lon="11.7990864"><ele>158.66666666666666</ele><time>2026-05-03T08:45:49.045Z</time></trkpt><trkpt lat="45.8070314" lon="11.7989805"><ele>158.33333333333334</ele><time>2026-05-03T08:45:50.046Z</time></trkpt><trkpt lat="45.8070355" lon="11.79887"><ele>158.0</ele><time>2026-05-03T08:45:51.045Z</time></trkpt><trkpt lat="45.8070442" lon="11.798752"><ele>157.66666666666669</ele><time>2026-05-03T08:45:52.045Z</time></trkpt><trkpt lat="45.807049" lon="11.7986304"><ele>157.33333333333334</ele><time>2026-05-03T08:45:53.044Z</time></trkpt><trkpt lat="45.8070526" lon="11.7985053"><ele>157.0</ele><time>2026-05-03T08:45:54.046Z</time></trkpt><trkpt lat="45.8070606" lon="11.7983728"><ele>157.0</ele><time>2026-05-03T08:45:55.046Z</time></trkpt><trkpt lat="45.8070664" lon="11.7982328"><ele>157.0</ele><time>2026-05-03T08:45:56.044Z</time></trkpt><trkpt lat="45.8070752" lon="11.798094"><ele>157.0</ele><time>2026-05-03T08:45:57.045Z</time></trkpt><trkpt lat="45.8070877" lon="11.7979587"><ele>157.0</ele><time>2026-05-03T08:45:58.045Z</time></trkpt><trkpt lat="45.8071018" lon="11.7978329"><ele>157.0</ele><time>2026-05-03T08:45:59.045Z</time></trkpt><trkpt lat="45.8071132" lon="11.7977118"><ele>157.16666666666669</ele><time>2026-05-03T08:46:00.045Z</time></trkpt><trkpt lat="45.807124" lon="11.7976025"><ele>157.33333333333334</ele><time>2026-05-03T08:46:01.045Z</time></trkpt><trkpt lat="45.807135" lon="11.797503"><ele>157.5</ele><time>2026-05-03T08:46:02.045Z</time></trkpt><trkpt lat="45.807147" lon="11.7974018"><ele>157.66666666666666</ele><time>2026-05-03T08:46:03.046Z</time></trkpt><trkpt lat="45.8071569" lon="11.7973069"><ele>157.83333333333331</ele><time>2026-05-03T08:46:04.045Z</time></trkpt><trkpt lat="45.807169" lon="11.7972182"><ele>158.0</ele><time>2026-05-03T08:46:05.046Z</time></trkpt><trkpt lat="45.8071798" lon="11.7970739"><ele>158.0</ele><time>2026-05-03T08:46:07.044Z</time></trkpt><trkpt lat="45.8071718" lon="11.7969566"><ele>158.0</ele><time>2026-05-03T08:46:09.046Z</time></trkpt><trkpt lat="45.807199" lon="11.7968325"><ele>158.0</ele><time>2026-05-03T08:46:12.045Z</time></trkpt><trkpt lat="45.807229" lon="11.7967356"><ele>158.0</ele><time>2026-05-03T08:46:28.045Z</time></trkpt><trkpt lat="45.8072741" lon="11.7966457"><ele>158.0</ele><time>2026-05-03T08:46:31.045Z</time></trkpt><trkpt lat="45.8072818" lon="11.796524"><ele>158.0</ele><time>2026-05-03T08:46:33.044Z</time></trkpt><trkpt lat="45.8072674" lon="11.7963392"><ele>157.33333333333331</ele><time>2026-05-03T08:46:35.045Z</time></trkpt><trkpt lat="45.807261" lon="11.7961718"><ele>156.66666666666666</ele><time>2026-05-03T08:46:37.045Z</time></trkpt><trkpt lat="45.8072822" lon="11.7960686"><ele>156.0</ele><time>2026-05-03T08:46:39.046Z</time></trkpt><trkpt lat="45.807337" lon="11.796013"><ele>155.33333333333334</ele><time>2026-05-03T08:46:41.045Z</time></trkpt><trkpt lat="45.8074184" lon="11.7960104"><ele>154.66666666666669</ele><time>2026-05-03T08:46:43.044Z</time></trkpt><trkpt lat="45.8074835" lon="11.796041"><ele>154.0</ele><time>2026-05-03T08:46:44.045Z</time></trkpt><trkpt lat="45.8075555" lon="11.7960699"><ele>154.0</ele><time>2026-05-03T08:46:45.045Z</time></trkpt><trkpt lat="45.8076412" lon="11.7960988"><ele>154.0</ele><time>2026-05-03T08:46:46.046Z</time></trkpt><trkpt lat="45.8077283" lon="11.796127"><ele>154.0</ele><time>2026-05-03T08:46:47.045Z</time></trkpt><trkpt lat="45.8078164" lon="11.7961519"><ele>154.0</ele><time>2026-05-03T08:46:48.046Z</time></trkpt><trkpt lat="45.8079045" lon="11.7961807"><ele>154.0</ele><time>2026-05-03T08:46:49.045Z</time></trkpt><trkpt lat="45.8079917" lon="11.7962182"><ele>154.0</ele><time>2026-05-03T08:46:50.045Z</time></trkpt><trkpt lat="45.8080891" lon="11.7962792"><ele>153.5</ele><time>2026-05-03T08:46:51.046Z</time></trkpt><trkpt lat="45.8082012" lon="11.7963444"><ele>153.0</ele><time>2026-05-03T08:46:52.046Z</time></trkpt><trkpt lat="45.8083117" lon="11.7964021"><ele>152.5</ele><time>2026-05-03T08:46:53.045Z</time></trkpt><trkpt lat="45.8084164" lon="11.7964565"><ele>152.0</ele><time>2026-05-03T08:46:54.044Z</time></trkpt><trkpt lat="45.8085115" lon="11.7965048"><ele>152.83333333333331</ele><time>2026-05-03T08:46:55.045Z</time></trkpt><trkpt lat="45.8086011" lon="11.7965486"><ele>153.66666666666666</ele><time>2026-05-03T08:46:56.046Z</time></trkpt><trkpt lat="45.8086783" lon="11.7965841"><ele>154.5</ele><time>2026-05-03T08:46:57.044Z</time></trkpt><trkpt lat="45.8087491" lon="11.796618"><ele>155.33333333333334</ele><time>2026-05-03T08:46:58.045Z</time></trkpt><trkpt lat="45.8088201" lon="11.7966498"><ele>156.16666666666669</ele><time>2026-05-03T08:46:59.045Z</time></trkpt><trkpt lat="45.8088894" lon="11.7966761"><ele>157.0</ele><time>2026-05-03T08:47:00.045Z</time></trkpt><trkpt lat="45.808959" lon="11.7966997"><ele>157.0</ele><time>2026-05-03T08:47:01.046Z</time></trkpt><trkpt lat="45.8090275" lon="11.7967226"><ele>157.0</ele><time>2026-05-03T08:47:02.045Z</time></trkpt><trkpt lat="45.8090951" lon="11.7967404"><ele>157.0</ele><time>2026-05-03T08:47:03.044Z</time></trkpt><trkpt lat="45.8091608" lon="11.7967557"><ele>157.0</ele><time>2026-05-03T08:47:04.046Z</time></trkpt><trkpt lat="45.8092232" lon="11.796768"><ele>157.0</ele><time>2026-05-03T08:47:05.046Z</time></trkpt><trkpt lat="45.8093296" lon="11.7967784"><ele>157.0</ele><time>2026-05-03T08:47:07.044Z</time></trkpt><trkpt lat="45.8094234" lon="11.7967912"><ele>157.66666666666669</ele><time>2026-05-03T08:47:09.045Z</time></trkpt><trkpt lat="45.8094974" lon="11.796802"><ele>158.33333333333334</ele><time>2026-05-03T08:47:11.046Z</time></trkpt><trkpt lat="45.8095686" lon="11.7968039"><ele>159.0</ele><time>2026-05-03T08:47:13.044Z</time></trkpt><trkpt lat="45.8096485" lon="11.7967867"><ele>159.66666666666666</ele><time>2026-05-03T08:47:16.044Z</time></trkpt><trkpt lat="45.8097193" lon="11.7967309"><ele>160.33333333333331</ele><time>2026-05-03T08:47:19.044Z</time></trkpt><trkpt lat="45.8097523" lon="11.7966355"><ele>161.0</ele><time>2026-05-03T08:47:34.045Z</time></trkpt><trkpt lat="45.8097897" lon="11.7965059"><ele>161.0</ele><time>2026-05-03T08:47:36.044Z</time></trkpt><trkpt lat="45.8098236" lon="11.7963339"><ele>161.0</ele><time>2026-05-03T08:47:38.044Z</time></trkpt><trkpt lat="45.8098362" lon="11.7962433"><ele>161.0</ele><time>2026-05-03T08:47:39.046Z</time></trkpt><trkpt lat="45.8098378" lon="11.7961456"><ele>161.0</ele><time>2026-05-03T08:47:40.046Z</time></trkpt><trkpt lat="45.8098328" lon="11.7960416"><ele>161.0</ele><time>2026-05-03T08:47:41.045Z</time></trkpt><trkpt lat="45.8098245" lon="11.7959427"><ele>161.0</ele><time>2026-05-03T08:47:42.044Z</time></trkpt><trkpt lat="45.8098188" lon="11.7957749"><ele>160.8</ele><time>2026-05-03T08:47:44.044Z</time></trkpt><trkpt lat="45.8098735" lon="11.7956669"><ele>160.60000000000002</ele><time>2026-05-03T08:47:46.045Z</time></trkpt><trkpt lat="45.8099865" lon="11.7956212"><ele>160.4</ele><time>2026-05-03T08:47:48.045Z</time></trkpt><trkpt lat="45.8101222" lon="11.7955931"><ele>160.2</ele><time>2026-05-03T08:47:50.044Z</time></trkpt><trkpt lat="45.8101974" lon="11.7955804"><ele>160.0</ele><time>2026-05-03T08:47:51.045Z</time></trkpt><trkpt lat="45.8102749" lon="11.7955612"><ele>160.33333333333334</ele><time>2026-05-03T08:47:52.045Z</time></trkpt><trkpt lat="45.810352" lon="11.7955551"><ele>160.66666666666669</ele><time>2026-05-03T08:47:53.045Z</time></trkpt><trkpt lat="45.810433" lon="11.795548"><ele>161.0</ele><time>2026-05-03T08:47:54.046Z</time></trkpt><trkpt lat="45.8105138" lon="11.7955514"><ele>161.33333333333334</ele><time>2026-05-03T08:47:55.046Z</time></trkpt><trkpt lat="45.8105968" lon="11.7955636"><ele>161.66666666666666</ele><time>2026-05-03T08:47:56.044Z</time></trkpt><trkpt lat="45.8106803" lon="11.7955793"><ele>162.0</ele><time>2026-05-03T08:47:57.045Z</time></trkpt><trkpt lat="45.8107644" lon="11.7956017"><ele>162.0</ele><time>2026-05-03T08:47:58.045Z</time></trkpt><trkpt lat="45.8108472" lon="11.7956211"><ele>162.0</ele><time>2026-05-03T08:47:59.045Z</time></trkpt><trkpt lat="45.8109294" lon="11.7956209"><ele>162.0</ele><time>2026-05-03T08:48:00.046Z</time></trkpt><trkpt lat="45.8109988" lon="11.7956019"><ele>162.0</ele><time>2026-05-03T08:48:01.045Z</time></trkpt><trkpt lat="45.8110591" lon="11.7955618"><ele>162.0</ele><time>2026-05-03T08:48:02.044Z</time></trkpt><trkpt lat="45.8111139" lon="11.795489"><ele>162.0</ele><time>2026-05-03T08:48:03.045Z</time></trkpt><trkpt lat="45.8111559" lon="11.7953958"><ele>162.5</ele><time>2026-05-03T08:48:04.046Z</time></trkpt><trkpt lat="45.8111904" lon="11.795289"><ele>163.0</ele><time>2026-05-03T08:48:05.045Z</time></trkpt><trkpt lat="45.8112182" lon="11.7951908"><ele>163.5</ele><time>2026-05-03T08:48:06.046Z</time></trkpt><trkpt lat="45.8112381" lon="11.7950906"><ele>164.0</ele><time>2026-05-03T08:48:07.046Z</time></trkpt><trkpt lat="45.8112627" lon="11.7950035"><ele>164.5</ele><time>2026-05-03T08:48:08.044Z</time></trkpt><trkpt lat="45.8113276" lon="11.7948567"><ele>165.0</ele><time>2026-05-03T08:48:10.046Z</time></trkpt><trkpt lat="45.8113794" lon="11.7948007"><ele>165.14285714285717</ele><time>2026-05-03T08:48:11.045Z</time></trkpt><trkpt lat="45.8114399" lon="11.7947617"><ele>165.28571428571428</ele><time>2026-05-03T08:48:12.046Z</time></trkpt><trkpt lat="45.8115064" lon="11.794737"><ele>165.42857142857144</ele><time>2026-05-03T08:48:13.044Z</time></trkpt><trkpt lat="45.8115686" lon="11.7947186"><ele>165.57142857142858</ele><time>2026-05-03T08:48:14.045Z</time></trkpt><trkpt lat="45.8116353" lon="11.7947061"><ele>165.71428571428572</ele><time>2026-05-03T08:48:15.046Z</time></trkpt><trkpt lat="45.8117097" lon="11.7946709"><ele>165.85714285714286</ele><time>2026-05-03T08:48:16.045Z</time></trkpt><trkpt lat="45.8117804" lon="11.7946431"><ele>166.0</ele><time>2026-05-03T08:48:17.044Z</time></trkpt><trkpt lat="45.8118559" lon="11.7946146"><ele>166.66666666666669</ele><time>2026-05-03T08:48:18.045Z</time></trkpt><trkpt lat="45.8119354" lon="11.7945952"><ele>167.33333333333334</ele><time>2026-05-03T08:48:19.044Z</time></trkpt><trkpt lat="45.8120132" lon="11.7945828"><ele>168.0</ele><time>2026-05-03T08:48:20.045Z</time></trkpt><trkpt lat="45.8120911" lon="11.7945656"><ele>168.66666666666666</ele><time>2026-05-03T08:48:21.045Z</time></trkpt><trkpt lat="45.8121723" lon="11.7945425"><ele>169.33333333333331</ele><time>2026-05-03T08:48:22.045Z</time></trkpt><trkpt lat="45.8122517" lon="11.794521"><ele>170.0</ele><time>2026-05-03T08:48:23.045Z</time></trkpt><trkpt lat="45.8123403" lon="11.7945039"><ele>170.0</ele><time>2026-05-03T08:48:24.046Z</time></trkpt><trkpt lat="45.8124224" lon="11.7944948"><ele>170.0</ele><time>2026-05-03T08:48:25.045Z</time></trkpt><trkpt lat="45.812507" lon="11.7944876"><ele>170.0</ele><time>2026-05-03T08:48:26.045Z</time></trkpt><trkpt lat="45.8125881" lon="11.7944903"><ele>170.0</ele><time>2026-05-03T08:48:27.046Z</time></trkpt><trkpt lat="45.8126653" lon="11.7944906"><ele>170.0</ele><time>2026-05-03T08:48:28.046Z</time></trkpt><trkpt lat="45.8127333" lon="11.794473"><ele>170.0</ele><time>2026-05-03T08:48:29.045Z</time></trkpt><trkpt lat="45.8128386" lon="11.7944038"><ele>170.66666666666666</ele><time>2026-05-03T08:48:31.045Z</time></trkpt><trkpt lat="45.8129281" lon="11.7943686"><ele>171.33333333333331</ele><time>2026-05-03T08:48:33.046Z</time></trkpt><trkpt lat="45.813002" lon="11.7944025"><ele>172.0</ele><time>2026-05-03T08:48:35.045Z</time></trkpt><trkpt lat="45.8130749" lon="11.7944294"><ele>172.66666666666666</ele><time>2026-05-03T08:48:37.046Z</time></trkpt><trkpt lat="45.8131654" lon="11.7944293"><ele>173.33333333333334</ele><time>2026-05-03T08:48:39.046Z</time></trkpt><trkpt lat="45.8132425" lon="11.7944217"><ele>174.0</ele><time>2026-05-03T08:48:41.044Z</time></trkpt><trkpt lat="45.8133255" lon="11.7944023"><ele>174.0</ele><time>2026-05-03T08:48:43.045Z</time></trkpt><trkpt lat="45.8134141" lon="11.7943651"><ele>174.0</ele><time>2026-05-03T08:48:45.045Z</time></trkpt><trkpt lat="45.8135169" lon="11.7943182"><ele>174.0</ele><time>2026-05-03T08:48:47.045Z</time></trkpt><trkpt lat="45.8136477" lon="11.7942875"><ele>174.0</ele><time>2026-05-03T08:48:49.045Z</time></trkpt><trkpt lat="45.8137144" lon="11.7942818"><ele>174.0</ele><time>2026-05-03T08:48:50.044Z</time></trkpt><trkpt lat="45.813779" lon="11.7942757"><ele>174.79999999999998</ele><time>2026-05-03T08:48:51.046Z</time></trkpt><trkpt lat="45.8138971" lon="11.794247"><ele>175.6</ele><time>2026-05-03T08:48:53.046Z</time></trkpt><trkpt lat="45.8140042" lon="11.7942252"><ele>176.4</ele><time>2026-05-03T08:48:55.044Z</time></trkpt><trkpt lat="45.8140849" lon="11.7942065"><ele>177.2</ele><time>2026-05-03T08:48:57.045Z</time></trkpt><trkpt lat="45.8141664" lon="11.7941916"><ele>178.0</ele><time>2026-05-03T08:49:00.045Z</time></trkpt><trkpt lat="45.8141299" lon="11.7941118"><ele>178.0</ele><time>2026-05-03T08:49:04.046Z</time></trkpt><trkpt lat="45.8140483" lon="11.794193"><ele>178.0</ele><time>2026-05-03T08:49:06.045Z</time></trkpt><trkpt lat="45.8139257" lon="11.7942316"><ele>178.0</ele><time>2026-05-03T08:49:08.045Z</time></trkpt><trkpt lat="45.8138543" lon="11.7942501"><ele>178.0</ele><time>2026-05-03T08:49:09.046Z</time></trkpt><trkpt lat="45.8137793" lon="11.7942694"><ele>178.0</ele><time>2026-05-03T08:49:10.044Z</time></trkpt><trkpt lat="45.8137028" lon="11.7942852"><ele>177.99999999999997</ele><time>2026-05-03T08:49:11.045Z</time></trkpt><trkpt lat="45.813623" lon="11.7942994"><ele>178.0</ele><time>2026-05-03T08:49:12.045Z</time></trkpt><trkpt lat="45.8135462" lon="11.7943119"><ele>178.0</ele><time>2026-05-03T08:49:13.046Z</time></trkpt><trkpt lat="45.8134748" lon="11.7943245"><ele>178.0</ele><time>2026-05-03T08:49:14.046Z</time></trkpt><trkpt lat="45.8134077" lon="11.794349"><ele>178.0</ele><time>2026-05-03T08:49:15.046Z</time></trkpt><trkpt lat="45.8133422" lon="11.7943756"><ele>177.99999999999997</ele><time>2026-05-03T08:49:16.045Z</time></trkpt><trkpt lat="45.8132723" lon="11.7944003"><ele>178.0</ele><time>2026-05-03T08:49:17.045Z</time></trkpt><trkpt lat="45.8131995" lon="11.7944163"><ele>177.33333333333334</ele><time>2026-05-03T08:49:18.044Z</time></trkpt><trkpt lat="45.8131324" lon="11.7944178"><ele>176.66666666666669</ele><time>2026-05-03T08:49:19.045Z</time></trkpt><trkpt lat="45.8130666" lon="11.7944097"><ele>176.0</ele><time>2026-05-03T08:49:20.046Z</time></trkpt><trkpt lat="45.8129583" lon="11.7943817"><ele>175.33333333333334</ele><time>2026-05-03T08:49:22.046Z</time></trkpt><trkpt lat="45.8128933" lon="11.7943437"><ele>174.66666666666666</ele><time>2026-05-03T08:49:24.045Z</time></trkpt><trkpt lat="45.812859" lon="11.7942409"><ele>174.0</ele><time>2026-05-03T08:49:26.045Z</time></trkpt><trkpt lat="45.81285" lon="11.7940977"><ele>173.6</ele><time>2026-05-03T08:49:28.046Z</time></trkpt><trkpt lat="45.8128432" lon="11.7939615"><ele>173.2</ele><time>2026-05-03T08:49:30.045Z</time></trkpt><trkpt lat="45.812816" lon="11.7938594"><ele>172.79999999999998</ele><time>2026-05-03T08:49:32.045Z</time></trkpt><trkpt lat="45.812759" lon="11.7938121"><ele>172.39999999999998</ele><time>2026-05-03T08:49:40.046Z</time></trkpt><trkpt lat="45.8126587" lon="11.7937671"><ele>172.0</ele><time>2026-05-03T08:49:43.045Z</time></trkpt><trkpt lat="45.8125475" lon="11.7936905"><ele>172.14285714285717</ele><time>2026-05-03T08:49:45.045Z</time></trkpt><trkpt lat="45.8124384" lon="11.7936055"><ele>172.28571428571428</ele><time>2026-05-03T08:49:47.046Z</time></trkpt><trkpt lat="45.8123842" lon="11.7935569"><ele>172.42857142857144</ele><time>2026-05-03T08:49:48.045Z</time></trkpt><trkpt lat="45.8123291" lon="11.7935068"><ele>172.57142857142858</ele><time>2026-05-03T08:49:49.046Z</time></trkpt><trkpt lat="45.8122757" lon="11.7934524"><ele>172.71428571428572</ele><time>2026-05-03T08:49:50.044Z</time></trkpt><trkpt lat="45.8122248" lon="11.7933957"><ele>172.85714285714286</ele><time>2026-05-03T08:49:51.045Z</time></trkpt><trkpt lat="45.8121728" lon="11.7933385"><ele>173.0</ele><time>2026-05-03T08:49:52.045Z</time></trkpt><trkpt lat="45.812116" lon="11.7932755"><ele>173.0</ele><time>2026-05-03T08:49:53.044Z</time></trkpt><trkpt lat="45.8120652" lon="11.7932052"><ele>173.0</ele><time>2026-05-03T08:49:54.046Z</time></trkpt><trkpt lat="45.8120117" lon="11.7931441"><ele>173.0</ele><time>2026-05-03T08:49:55.045Z</time></trkpt><trkpt lat="45.8119094" lon="11.7930391"><ele>173.0</ele><time>2026-05-03T08:49:57.044Z</time></trkpt><trkpt lat="45.8118616" lon="11.7929672"><ele>173.0</ele><time>2026-05-03T08:49:58.044Z</time></trkpt><trkpt lat="45.8118143" lon="11.7928963"><ele>173.0</ele><time>2026-05-03T08:49:59.045Z</time></trkpt><trkpt lat="45.8117278" lon="11.7927849"><ele>171.60000000000002</ele><time>2026-05-03T08:50:01.046Z</time></trkpt><trkpt lat="45.8116399" lon="11.7927067"><ele>170.20000000000002</ele><time>2026-05-03T08:50:03.044Z</time></trkpt><trkpt lat="45.8115624" lon="11.7927454"><ele>168.8</ele><time>2026-05-03T08:50:05.045Z</time></trkpt><trkpt lat="45.8114847" lon="11.7928397"><ele>167.4</ele><time>2026-05-03T08:50:07.045Z</time></trkpt><trkpt lat="45.8114177" lon="11.7929036"><ele>166.0</ele><time>2026-05-03T08:50:09.044Z</time></trkpt><trkpt lat="45.8113386" lon="11.792864"><ele>166.0</ele><time>2026-05-03T08:50:11.045Z</time></trkpt><trkpt lat="45.8112488" lon="11.7927239"><ele>166.0</ele><time>2026-05-03T08:50:13.045Z</time></trkpt><trkpt lat="45.8111921" lon="11.7926528"><ele>166.0</ele><time>2026-05-03T08:50:14.045Z</time></trkpt><trkpt lat="45.8111388" lon="11.7925838"><ele>166.0</ele><time>2026-05-03T08:50:15.045Z</time></trkpt><trkpt lat="45.8110877" lon="11.7925156"><ele>166.0</ele><time>2026-05-03T08:50:16.045Z</time></trkpt><trkpt lat="45.811034" lon="11.7924485"><ele>166.0</ele><time>2026-05-03T08:50:17.044Z</time></trkpt><trkpt lat="45.8109762" lon="11.7923819"><ele>165.5</ele><time>2026-05-03T08:50:18.044Z</time></trkpt><trkpt lat="45.8109182" lon="11.7923113"><ele>165.0</ele><time>2026-05-03T08:50:19.045Z</time></trkpt><trkpt lat="45.8108604" lon="11.7922335"><ele>164.5</ele><time>2026-05-03T08:50:20.045Z</time></trkpt><trkpt lat="45.8108023" lon="11.7921503"><ele>164.0</ele><time>2026-05-03T08:50:21.046Z</time></trkpt><trkpt lat="45.8107462" lon="11.7920655"><ele>163.5</ele><time>2026-05-03T08:50:22.045Z</time></trkpt><trkpt lat="45.8106939" lon="11.7919809"><ele>163.0</ele><time>2026-05-03T08:50:23.046Z</time></trkpt><trkpt lat="45.8106421" lon="11.7918987"><ele>163.16666666666669</ele><time>2026-05-03T08:50:24.046Z</time></trkpt><trkpt lat="45.810595" lon="11.7918138"><ele>163.33333333333334</ele><time>2026-05-03T08:50:25.044Z</time></trkpt><trkpt lat="45.8105561" lon="11.7917237"><ele>163.5</ele><time>2026-05-03T08:50:26.046Z</time></trkpt><trkpt lat="45.8105252" lon="11.7916285"><ele>163.66666666666666</ele><time>2026-05-03T08:50:27.046Z</time></trkpt><trkpt lat="45.810496" lon="11.7915422"><ele>163.83333333333331</ele><time>2026-05-03T08:50:28.044Z</time></trkpt><trkpt lat="45.8104292" lon="11.7913964"><ele>164.0</ele><time>2026-05-03T08:50:30.045Z</time></trkpt><trkpt lat="45.8103309" lon="11.7912919"><ele>163.99999999999997</ele><time>2026-05-03T08:50:32.045Z</time></trkpt><trkpt lat="45.8102734" lon="11.7912419"><ele>164.0</ele><time>2026-05-03T08:50:33.045Z</time></trkpt><trkpt lat="45.8102196" lon="11.7911803"><ele>164.0</ele><time>2026-05-03T08:50:34.046Z</time></trkpt><trkpt lat="45.8101735" lon="11.7911043"><ele>164.0</ele><time>2026-05-03T08:50:35.045Z</time></trkpt><trkpt lat="45.8101308" lon="11.7910251"><ele>164.0</ele><time>2026-05-03T08:50:36.046Z</time></trkpt><trkpt lat="45.8100882" lon="11.7909418"><ele>163.99999999999997</ele><time>2026-05-03T08:50:37.046Z</time></trkpt><trkpt lat="45.8100433" lon="11.7908572"><ele>164.0</ele><time>2026-05-03T08:50:38.045Z</time></trkpt><trkpt lat="45.8099961" lon="11.7907743"><ele>163.42857142857142</ele><time>2026-05-03T08:50:39.045Z</time></trkpt><trkpt lat="45.8099523" lon="11.7906869"><ele>162.85714285714286</ele><time>2026-05-03T08:50:40.046Z</time></trkpt><trkpt lat="45.8099104" lon="11.7905997"><ele>162.28571428571428</ele><time>2026-05-03T08:50:41.045Z</time></trkpt><trkpt lat="45.8098645" lon="11.7905149"><ele>161.71428571428572</ele><time>2026-05-03T08:50:42.046Z</time></trkpt><trkpt lat="45.8098155" lon="11.7904351"><ele>161.14285714285714</ele><time>2026-05-03T08:50:43.046Z</time></trkpt><trkpt lat="45.809761" lon="11.7903656"><ele>160.57142857142856</ele><time>2026-05-03T08:50:44.044Z</time></trkpt><trkpt lat="45.8097014" lon="11.7903031"><ele>160.0</ele><time>2026-05-03T08:50:45.046Z</time></trkpt><trkpt lat="45.8096456" lon="11.7902392"><ele>160.71428571428572</ele><time>2026-05-03T08:50:46.046Z</time></trkpt><trkpt lat="45.8095995" lon="11.790171"><ele>161.42857142857144</ele><time>2026-05-03T08:50:47.045Z</time></trkpt><trkpt lat="45.8095545" lon="11.7901052"><ele>162.14285714285717</ele><time>2026-05-03T08:50:48.045Z</time></trkpt><trkpt lat="45.8095083" lon="11.7900375"><ele>162.85714285714286</ele><time>2026-05-03T08:50:49.046Z</time></trkpt><trkpt lat="45.8094648" lon="11.7899646"><ele>163.57142857142858</ele><time>2026-05-03T08:50:50.045Z</time></trkpt><trkpt lat="45.8094306" lon="11.7898816"><ele>164.2857142857143</ele><time>2026-05-03T08:50:51.045Z</time></trkpt><trkpt lat="45.8094026" lon="11.7897897"><ele>165.0</ele><time>2026-05-03T08:50:52.045Z</time></trkpt><trkpt lat="45.8093757" lon="11.7896959"><ele>165.0</ele><time>2026-05-03T08:50:53.045Z</time></trkpt><trkpt lat="45.8093492" lon="11.7896124"><ele>165.0</ele><time>2026-05-03T08:50:54.046Z</time></trkpt><trkpt lat="45.8093188" lon="11.7894893"><ele>165.0</ele><time>2026-05-03T08:50:56.045Z</time></trkpt><trkpt lat="45.8092471" lon="11.7894253"><ele>165.0</ele><time>2026-05-03T08:51:05.045Z</time></trkpt><trkpt lat="45.8091864" lon="11.7894761"><ele>165.0</ele><time>2026-05-03T08:51:06.045Z</time></trkpt><trkpt lat="45.8091112" lon="11.7894884"><ele>165.0</ele><time>2026-05-03T08:51:08.045Z</time></trkpt><trkpt lat="45.8090508" lon="11.7893656"><ele>164.8</ele><time>2026-05-03T08:51:10.045Z</time></trkpt><trkpt lat="45.8090498" lon="11.7892608"><ele>164.6</ele><time>2026-05-03T08:51:11.045Z</time></trkpt><trkpt lat="45.8090473" lon="11.7891328"><ele>164.39999999999998</ele><time>2026-05-03T08:51:12.045Z</time></trkpt><trkpt lat="45.8090481" lon="11.7890028"><ele>164.2</ele><time>2026-05-03T08:51:13.044Z</time></trkpt><trkpt lat="45.8090252" lon="11.7888503"><ele>164.0</ele><time>2026-05-03T08:51:14.045Z</time></trkpt><trkpt lat="45.8089747" lon="11.7886709"><ele>165.0</ele><time>2026-05-03T08:51:15.045Z</time></trkpt><trkpt lat="45.8089091" lon="11.7884628"><ele>166.0</ele><time>2026-05-03T08:51:16.045Z</time></trkpt><trkpt lat="45.8088325" lon="11.788218"><ele>167.0</ele><time>2026-05-03T08:51:17.045Z</time></trkpt><trkpt lat="45.8087469" lon="11.7879516"><ele>167.0</ele><time>2026-05-03T08:51:18.045Z</time></trkpt><trkpt lat="45.8086603" lon="11.7877004"><ele>167.0</ele><time>2026-05-03T08:51:19.045Z</time></trkpt><trkpt lat="45.8085802" lon="11.7874837"><ele>167.0</ele><time>2026-05-03T08:51:20.044Z</time></trkpt><trkpt lat="45.8085015" lon="11.7872924"><ele>166.75</ele><time>2026-05-03T08:51:21.045Z</time></trkpt><trkpt lat="45.8084355" lon="11.7871187"><ele>166.5</ele><time>2026-05-03T08:51:22.046Z</time></trkpt><trkpt lat="45.8083913" lon="11.7869493"><ele>166.25</ele><time>2026-05-03T08:51:23.045Z</time></trkpt><trkpt lat="45.8083729" lon="11.7867816"><ele>166.0</ele><time>2026-05-03T08:51:24.045Z</time></trkpt><trkpt lat="45.8083818" lon="11.7866131"><ele>166.0</ele><time>2026-05-03T08:51:25.045Z</time></trkpt><trkpt lat="45.8084267" lon="11.7864434"><ele>166.0</ele><time>2026-05-03T08:51:26.045Z</time></trkpt><trkpt lat="45.8085016" lon="11.7862831"><ele>166.0</ele><time>2026-05-03T08:51:27.046Z</time></trkpt><trkpt lat="45.8085901" lon="11.7861285"><ele>166.0</ele><time>2026-05-03T08:51:28.045Z</time></trkpt><trkpt lat="45.8086791" lon="11.7859662"><ele>168.66666666666669</ele><time>2026-05-03T08:51:29.046Z</time></trkpt><trkpt lat="45.8087678" lon="11.7857741"><ele>171.33333333333334</ele><time>2026-05-03T08:51:30.045Z</time></trkpt><trkpt lat="45.8088551" lon="11.7855646"><ele>174.0</ele><time>2026-05-03T08:51:31.046Z</time></trkpt><trkpt lat="45.808931" lon="11.7853809"><ele>174.0</ele><time>2026-05-03T08:51:32.046Z</time></trkpt><trkpt lat="45.8089991" lon="11.7852027"><ele>174.0</ele><time>2026-05-03T08:51:33.046Z</time></trkpt><trkpt lat="45.8090437" lon="11.7850192"><ele>174.0</ele><time>2026-05-03T08:51:34.046Z</time></trkpt><trkpt lat="45.8090602" lon="11.7848384"><ele>174.0</ele><time>2026-05-03T08:51:35.045Z</time></trkpt><trkpt lat="45.8090522" lon="11.7846796"><ele>174.79999999999998</ele><time>2026-05-03T08:51:36.044Z</time></trkpt><trkpt lat="45.8090378" lon="11.7845572"><ele>175.6</ele><time>2026-05-03T08:51:37.046Z</time></trkpt><trkpt lat="45.8090331" lon="11.7844669"><ele>176.4</ele><time>2026-05-03T08:51:38.045Z</time></trkpt><trkpt lat="45.8090372" lon="11.7842974"><ele>177.2</ele><time>2026-05-03T08:51:40.044Z</time></trkpt><trkpt lat="45.8090236" lon="11.7841816"><ele>178.0</ele><time>2026-05-03T08:51:41.044Z</time></trkpt><trkpt lat="45.8089904" lon="11.7840403"><ele>178.66666666666669</ele><time>2026-05-03T08:51:42.046Z</time></trkpt><trkpt lat="45.8089364" lon="11.7838696"><ele>179.33333333333334</ele><time>2026-05-03T08:51:43.045Z</time></trkpt><trkpt lat="45.8088695" lon="11.7836543"><ele>180.0</ele><time>2026-05-03T08:51:44.045Z</time></trkpt><trkpt lat="45.8087934" lon="11.7833989"><ele>181.33333333333334</ele><time>2026-05-03T08:51:45.045Z</time></trkpt><trkpt lat="45.8087138" lon="11.7831386"><ele>182.66666666666669</ele><time>2026-05-03T08:51:46.046Z</time></trkpt><trkpt lat="45.8086312" lon="11.7828884"><ele>184.0</ele><time>2026-05-03T08:51:47.045Z</time></trkpt><trkpt lat="45.8085499" lon="11.7826438"><ele>181.33333333333334</ele><time>2026-05-03T08:51:48.044Z</time></trkpt><trkpt lat="45.8084744" lon="11.7823995"><ele>178.66666666666666</ele><time>2026-05-03T08:51:49.045Z</time></trkpt><trkpt lat="45.8083994" lon="11.7821643"><ele>176.0</ele><time>2026-05-03T08:51:50.045Z</time></trkpt><trkpt lat="45.8083262" lon="11.7819482"><ele>176.25</ele><time>2026-05-03T08:51:51.045Z</time></trkpt><trkpt lat="45.8082601" lon="11.7817452"><ele>176.5</ele><time>2026-05-03T08:51:52.045Z</time></trkpt><trkpt lat="45.8082006" lon="11.7815556"><ele>176.75</ele><time>2026-05-03T08:51:53.045Z</time></trkpt><trkpt lat="45.8081459" lon="11.7813814"><ele>177.0</ele><time>2026-05-03T08:51:54.044Z</time></trkpt><trkpt lat="45.8080937" lon="11.7812177"><ele>177.0</ele><time>2026-05-03T08:51:55.045Z</time></trkpt><trkpt lat="45.8080447" lon="11.7810668"><ele>177.0</ele><time>2026-05-03T08:51:56.045Z</time></trkpt><trkpt lat="45.8080001" lon="11.7809268"><ele>177.0</ele><time>2026-05-03T08:51:57.045Z</time></trkpt><trkpt lat="45.8079616" lon="11.7808012"><ele>177.0</ele><time>2026-05-03T08:51:58.046Z</time></trkpt><trkpt lat="45.8079271" lon="11.7806972"><ele>177.0</ele><time>2026-05-03T08:51:59.045Z</time></trkpt><trkpt lat="45.8079017" lon="11.7806113"><ele>177.0</ele><time>2026-05-03T08:52:00.044Z</time></trkpt><trkpt lat="45.8078992" lon="11.7804716"><ele>177.0</ele><time>2026-05-03T08:52:02.046Z</time></trkpt><trkpt lat="45.8079815" lon="11.7803235"><ele>177.0</ele><time>2026-05-03T08:52:04.044Z</time></trkpt><trkpt lat="45.8080333" lon="11.7802254"><ele>177.0</ele><time>2026-05-03T08:52:05.046Z</time></trkpt><trkpt lat="45.8080913" lon="11.7801126"><ele>177.0</ele><time>2026-05-03T08:52:06.045Z</time></trkpt><trkpt lat="45.8081541" lon="11.7799985"><ele>176.8</ele><time>2026-05-03T08:52:07.045Z</time></trkpt><trkpt lat="45.8082203" lon="11.7798797"><ele>176.6</ele><time>2026-05-03T08:52:08.045Z</time></trkpt><trkpt lat="45.8082866" lon="11.7797615"><ele>176.4</ele><time>2026-05-03T08:52:09.045Z</time></trkpt><trkpt lat="45.808356" lon="11.7796464"><ele>176.20000000000002</ele><time>2026-05-03T08:52:10.046Z</time></trkpt><trkpt lat="45.8084285" lon="11.7795186"><ele>176.0</ele><time>2026-05-03T08:52:11.044Z</time></trkpt><trkpt lat="45.808498" lon="11.7793803"><ele>177.5</ele><time>2026-05-03T08:52:12.045Z</time></trkpt><trkpt lat="45.8085581" lon="11.779226"><ele>179.0</ele><time>2026-05-03T08:52:13.045Z</time></trkpt><trkpt lat="45.8086093" lon="11.7790506"><ele>180.5</ele><time>2026-05-03T08:52:14.044Z</time></trkpt><trkpt lat="45.8086678" lon="11.7788586"><ele>182.0</ele><time>2026-05-03T08:52:15.045Z</time></trkpt><trkpt lat="45.8087251" lon="11.7786656"><ele>182.0</ele><time>2026-05-03T08:52:16.045Z</time></trkpt><trkpt lat="45.8087825" lon="11.7784882"><ele>182.0</ele><time>2026-05-03T08:52:17.046Z</time></trkpt><trkpt lat="45.8088346" lon="11.7783165"><ele>182.0</ele><time>2026-05-03T08:52:18.044Z</time></trkpt><trkpt lat="45.8088881" lon="11.7781556"><ele>182.0</ele><time>2026-05-03T08:52:19.045Z</time></trkpt><trkpt lat="45.8089368" lon="11.7779984"><ele>182.0</ele><time>2026-05-03T08:52:20.045Z</time></trkpt><trkpt lat="45.808988" lon="11.7778427"><ele>182.0</ele><time>2026-05-03T08:52:21.046Z</time></trkpt><trkpt lat="45.8090439" lon="11.7776813"><ele>182.0</ele><time>2026-05-03T08:52:22.045Z</time></trkpt><trkpt lat="45.8091101" lon="11.7775159"><ele>182.0</ele><time>2026-05-03T08:52:23.045Z</time></trkpt><trkpt lat="45.8091818" lon="11.7773511"><ele>182.0</ele><time>2026-05-03T08:52:24.045Z</time></trkpt><trkpt lat="45.8092547" lon="11.7771891"><ele>182.0</ele><time>2026-05-03T08:52:25.044Z</time></trkpt><trkpt lat="45.8093271" lon="11.777031"><ele>182.0</ele><time>2026-05-03T08:52:26.045Z</time></trkpt><trkpt lat="45.8094021" lon="11.7768817"><ele>182.0</ele><time>2026-05-03T08:52:27.044Z</time></trkpt><trkpt lat="45.8094754" lon="11.7767555"><ele>183.75</ele><time>2026-05-03T08:52:28.044Z</time></trkpt><trkpt lat="45.8095527" lon="11.7766334"><ele>185.5</ele><time>2026-05-03T08:52:29.045Z</time></trkpt><trkpt lat="45.8096241" lon="11.7765036"><ele>187.25</ele><time>2026-05-03T08:52:30.046Z</time></trkpt><trkpt lat="45.8096988" lon="11.7763646"><ele>189.0</ele><time>2026-05-03T08:52:31.045Z</time></trkpt><trkpt lat="45.809779" lon="11.776218"><ele>189.0</ele><time>2026-05-03T08:52:32.045Z</time></trkpt><trkpt lat="45.8098704" lon="11.776076"><ele>189.0</ele><time>2026-05-03T08:52:33.046Z</time></trkpt><trkpt lat="45.8099777" lon="11.7759228"><ele>189.0</ele><time>2026-05-03T08:52:34.046Z</time></trkpt><trkpt lat="45.8100805" lon="11.7757836"><ele>189.0</ele><time>2026-05-03T08:52:35.045Z</time></trkpt><trkpt lat="45.8101786" lon="11.775654"><ele>189.75</ele><time>2026-05-03T08:52:36.046Z</time></trkpt><trkpt lat="45.8102748" lon="11.7755239"><ele>190.5</ele><time>2026-05-03T08:52:37.045Z</time></trkpt><trkpt lat="45.8103752" lon="11.775397"><ele>191.25</ele><time>2026-05-03T08:52:38.045Z</time></trkpt><trkpt lat="45.8104736" lon="11.7752619"><ele>192.0</ele><time>2026-05-03T08:52:39.045Z</time></trkpt><trkpt lat="45.8105718" lon="11.7751175"><ele>192.0</ele><time>2026-05-03T08:52:40.045Z</time></trkpt><trkpt lat="45.8106661" lon="11.7749655"><ele>192.0</ele><time>2026-05-03T08:52:41.044Z</time></trkpt><trkpt lat="45.8107518" lon="11.7748053"><ele>192.0</ele><time>2026-05-03T08:52:42.045Z</time></trkpt><trkpt lat="45.8108355" lon="11.7746409"><ele>192.0</ele><time>2026-05-03T08:52:43.045Z</time></trkpt><trkpt lat="45.8109068" lon="11.7744871"><ele>192.0</ele><time>2026-05-03T08:52:44.045Z</time></trkpt><trkpt lat="45.8109761" lon="11.7743394"><ele>192.0</ele><time>2026-05-03T08:52:45.046Z</time></trkpt><trkpt lat="45.8110447" lon="11.7741983"><ele>192.0</ele><time>2026-05-03T08:52:46.045Z</time></trkpt><trkpt lat="45.8111082" lon="11.7740568"><ele>192.0</ele><time>2026-05-03T08:52:47.046Z</time></trkpt><trkpt lat="45.8111639" lon="11.7739238"><ele>193.16666666666666</ele><time>2026-05-03T08:52:48.045Z</time></trkpt><trkpt lat="45.8112062" lon="11.7738039"><ele>194.33333333333331</ele><time>2026-05-03T08:52:49.045Z</time></trkpt><trkpt lat="45.8112396" lon="11.7736894"><ele>195.5</ele><time>2026-05-03T08:52:50.046Z</time></trkpt><trkpt lat="45.8112702" lon="11.7735931"><ele>196.66666666666666</ele><time>2026-05-03T08:52:51.045Z</time></trkpt><trkpt lat="45.8113178" lon="11.773513"><ele>197.83333333333331</ele><time>2026-05-03T08:52:52.046Z</time></trkpt><trkpt lat="45.8113699" lon="11.7734608"><ele>199.0</ele><time>2026-05-03T08:52:53.045Z</time></trkpt><trkpt lat="45.8114599" lon="11.7734179"><ele>199.0</ele><time>2026-05-03T08:52:55.046Z</time></trkpt><trkpt lat="45.8115891" lon="11.7734049"><ele>199.0</ele><time>2026-05-03T08:52:57.045Z</time></trkpt><trkpt lat="45.8116636" lon="11.7733928"><ele>199.0</ele><time>2026-05-03T08:52:58.044Z</time></trkpt><trkpt lat="45.8117348" lon="11.7733617"><ele>199.0</ele><time>2026-05-03T08:52:59.046Z</time></trkpt><trkpt lat="45.8118032" lon="11.7733031"><ele>199.0</ele><time>2026-05-03T08:53:00.045Z</time></trkpt><trkpt lat="45.8118773" lon="11.7732077"><ele>201.0</ele><time>2026-05-03T08:53:01.046Z</time></trkpt><trkpt lat="45.8119686" lon="11.7730938"><ele>203.0</ele><time>2026-05-03T08:53:02.045Z</time></trkpt><trkpt lat="45.812057" lon="11.7729865"><ele>205.0</ele><time>2026-05-03T08:53:03.046Z</time></trkpt><trkpt lat="45.8121538" lon="11.7728691"><ele>207.0</ele><time>2026-05-03T08:53:04.046Z</time></trkpt><trkpt lat="45.8122541" lon="11.7727503"><ele>206.75</ele><time>2026-05-03T08:53:05.045Z</time></trkpt><trkpt lat="45.8123523" lon="11.7726279"><ele>206.5</ele><time>2026-05-03T08:53:06.044Z</time></trkpt><trkpt lat="45.8124452" lon="11.7725073"><ele>206.25</ele><time>2026-05-03T08:53:07.046Z</time></trkpt><trkpt lat="45.8125367" lon="11.772397"><ele>206.0</ele><time>2026-05-03T08:53:08.044Z</time></trkpt><trkpt lat="45.8126187" lon="11.7722953"><ele>207.83333333333334</ele><time>2026-05-03T08:53:09.046Z</time></trkpt><trkpt lat="45.812691" lon="11.7722006"><ele>209.66666666666669</ele><time>2026-05-03T08:53:10.046Z</time></trkpt><trkpt lat="45.8127505" lon="11.7721149"><ele>211.5</ele><time>2026-05-03T08:53:11.045Z</time></trkpt><trkpt lat="45.812804" lon="11.7720239"><ele>213.33333333333331</ele><time>2026-05-03T08:53:12.045Z</time></trkpt><trkpt lat="45.8128519" lon="11.7719218"><ele>215.16666666666666</ele><time>2026-05-03T08:53:13.044Z</time></trkpt><trkpt lat="45.8128968" lon="11.7718085"><ele>217.0</ele><time>2026-05-03T08:53:14.045Z</time></trkpt><trkpt lat="45.8129442" lon="11.7716943"><ele>216.99999999999997</ele><time>2026-05-03T08:53:15.046Z</time></trkpt><trkpt lat="45.8129843" lon="11.7715766"><ele>217.0</ele><time>2026-05-03T08:53:16.046Z</time></trkpt><trkpt lat="45.8130188" lon="11.7714591"><ele>217.0</ele><time>2026-05-03T08:53:17.046Z</time></trkpt><trkpt lat="45.8130418" lon="11.771338"><ele>217.0</ele><time>2026-05-03T08:53:18.044Z</time></trkpt><trkpt lat="45.8130521" lon="11.7712101"><ele>216.99999999999997</ele><time>2026-05-03T08:53:19.044Z</time></trkpt><trkpt lat="45.8130515" lon="11.7710877"><ele>217.0</ele><time>2026-05-03T08:53:20.045Z</time></trkpt><trkpt lat="45.8130569" lon="11.7709638"><ele>217.66666666666666</ele><time>2026-05-03T08:53:21.044Z</time></trkpt><trkpt lat="45.8130845" lon="11.7708488"><ele>218.33333333333331</ele><time>2026-05-03T08:53:22.045Z</time></trkpt><trkpt lat="45.8131314" lon="11.7707513"><ele>219.0</ele><time>2026-05-03T08:53:23.045Z</time></trkpt><trkpt lat="45.8131838" lon="11.7706581"><ele>219.66666666666669</ele><time>2026-05-03T08:53:24.045Z</time></trkpt><trkpt lat="45.813214" lon="11.7705499"><ele>220.33333333333334</ele><time>2026-05-03T08:53:25.046Z</time></trkpt><trkpt lat="45.8132254" lon="11.7704409"><ele>221.0</ele><time>2026-05-03T08:53:26.046Z</time></trkpt><trkpt lat="45.8132185" lon="11.7703298"><ele>221.0</ele><time>2026-05-03T08:53:27.046Z</time></trkpt><trkpt lat="45.8132062" lon="11.7702213"><ele>221.00000000000003</ele><time>2026-05-03T08:53:28.045Z</time></trkpt><trkpt lat="45.8131888" lon="11.7700931"><ele>221.00000000000003</ele><time>2026-05-03T08:53:29.045Z</time></trkpt><trkpt lat="45.8131579" lon="11.769966"><ele>221.0</ele><time>2026-05-03T08:53:30.045Z</time></trkpt><trkpt lat="45.8131235" lon="11.7698213"><ele>221.0</ele><time>2026-05-03T08:53:31.045Z</time></trkpt><trkpt lat="45.8130877" lon="11.7696586"><ele>222.75</ele><time>2026-05-03T08:53:32.046Z</time></trkpt><trkpt lat="45.8130481" lon="11.7695056"><ele>224.5</ele><time>2026-05-03T08:53:33.045Z</time></trkpt><trkpt lat="45.8130061" lon="11.7693448"><ele>226.25</ele><time>2026-05-03T08:53:34.046Z</time></trkpt><trkpt lat="45.8129715" lon="11.7691788"><ele>228.0</ele><time>2026-05-03T08:53:35.045Z</time></trkpt><trkpt lat="45.8129432" lon="11.7690182"><ele>231.0</ele><time>2026-05-03T08:53:36.045Z</time></trkpt><trkpt lat="45.8129122" lon="11.7688527"><ele>234.0</ele><time>2026-05-03T08:53:37.046Z</time></trkpt><trkpt lat="45.8128848" lon="11.7686876"><ele>237.0</ele><time>2026-05-03T08:53:38.046Z</time></trkpt><trkpt lat="45.812821" lon="11.7685197"><ele>240.0</ele><time>2026-05-03T08:53:39.045Z</time></trkpt><trkpt lat="45.8127202" lon="11.7683956"><ele>239.0</ele><time>2026-05-03T08:53:40.046Z</time></trkpt><trkpt lat="45.8126719" lon="11.768225"><ele>238.0</ele><time>2026-05-03T08:53:41.045Z</time></trkpt><trkpt lat="45.8126411" lon="11.7680388"><ele>237.0</ele><time>2026-05-03T08:53:42.046Z</time></trkpt><trkpt lat="45.8126083" lon="11.7678358"><ele>236.0</ele><time>2026-05-03T08:53:43.044Z</time></trkpt><trkpt lat="45.8125809" lon="11.7676274"><ele>236.0</ele><time>2026-05-03T08:53:44.044Z</time></trkpt><trkpt lat="45.8125433" lon="11.7674139"><ele>236.0</ele><time>2026-05-03T08:53:45.046Z</time></trkpt><trkpt lat="45.812486" lon="11.7671974"><ele>236.0</ele><time>2026-05-03T08:53:46.044Z</time></trkpt><trkpt lat="45.8124147" lon="11.766977"><ele>241.5</ele><time>2026-05-03T08:53:47.045Z</time></trkpt><trkpt lat="45.8123551" lon="11.7667794"><ele>247.0</ele><time>2026-05-03T08:53:48.044Z</time></trkpt><trkpt lat="45.8123019" lon="11.766601"><ele>252.5</ele><time>2026-05-03T08:53:49.045Z</time></trkpt><trkpt lat="45.8122766" lon="11.7664407"><ele>258.0</ele><time>2026-05-03T08:53:50.045Z</time></trkpt><trkpt lat="45.812249" lon="11.766289"><ele>258.0</ele><time>2026-05-03T08:53:51.046Z</time></trkpt><trkpt lat="45.8122112" lon="11.7661577"><ele>258.0</ele><time>2026-05-03T08:53:52.045Z</time></trkpt><trkpt lat="45.8121558" lon="11.7660295"><ele>258.0</ele><time>2026-05-03T08:53:53.046Z</time></trkpt><trkpt lat="45.8120793" lon="11.7659056"><ele>258.0</ele><time>2026-05-03T08:53:54.046Z</time></trkpt><trkpt lat="45.8120073" lon="11.7657791"><ele>258.0</ele><time>2026-05-03T08:53:55.044Z</time></trkpt><trkpt lat="45.8119421" lon="11.7656651"><ele>258.25</ele><time>2026-05-03T08:53:56.046Z</time></trkpt><trkpt lat="45.8118817" lon="11.7655369"><ele>258.5</ele><time>2026-05-03T08:53:57.045Z</time></trkpt><trkpt lat="45.811818" lon="11.7653872"><ele>258.75</ele><time>2026-05-03T08:53:58.045Z</time></trkpt><trkpt lat="45.8117531" lon="11.7652315"><ele>259.0</ele><time>2026-05-03T08:53:59.045Z</time></trkpt><trkpt lat="45.8116899" lon="11.765065"><ele>259.0</ele><time>2026-05-03T08:54:00.046Z</time></trkpt><trkpt lat="45.8116309" lon="11.7648942"><ele>259.0</ele><time>2026-05-03T08:54:01.045Z</time></trkpt><trkpt lat="45.8115762" lon="11.7647171"><ele>259.0</ele><time>2026-05-03T08:54:02.045Z</time></trkpt><trkpt lat="45.8115254" lon="11.7645595"><ele>259.0</ele><time>2026-05-03T08:54:03.045Z</time></trkpt><trkpt lat="45.8114787" lon="11.7644197"><ele>264.5</ele><time>2026-05-03T08:54:04.045Z</time></trkpt><trkpt lat="45.8114244" lon="11.7642688"><ele>270.0</ele><time>2026-05-03T08:54:05.045Z</time></trkpt><trkpt lat="45.8113647" lon="11.7641091"><ele>275.5</ele><time>2026-05-03T08:54:06.045Z</time></trkpt><trkpt lat="45.8113124" lon="11.7639505"><ele>281.0</ele><time>2026-05-03T08:54:07.045Z</time></trkpt><trkpt lat="45.8112536" lon="11.7637734"><ele>281.0</ele><time>2026-05-03T08:54:08.044Z</time></trkpt><trkpt lat="45.8111833" lon="11.7635845"><ele>281.0</ele><time>2026-05-03T08:54:09.045Z</time></trkpt><trkpt lat="45.8111297" lon="11.7634078"><ele>281.0</ele><time>2026-05-03T08:54:10.045Z</time></trkpt><trkpt lat="45.8110946" lon="11.7632445"><ele>281.0</ele><time>2026-05-03T08:54:11.046Z</time></trkpt><trkpt lat="45.811084" lon="11.7630612"><ele>286.75</ele><time>2026-05-03T08:54:12.046Z</time></trkpt><trkpt lat="45.8110888" lon="11.7628627"><ele>292.5</ele><time>2026-05-03T08:54:13.045Z</time></trkpt><trkpt lat="45.8111" lon="11.7626495"><ele>298.25</ele><time>2026-05-03T08:54:14.045Z</time></trkpt><trkpt lat="45.8111108" lon="11.7624479"><ele>304.0</ele><time>2026-05-03T08:54:15.044Z</time></trkpt><trkpt lat="45.8111213" lon="11.7622625"><ele>306.59999999999997</ele><time>2026-05-03T08:54:16.045Z</time></trkpt><trkpt lat="45.8111313" lon="11.7620968"><ele>309.2</ele><time>2026-05-03T08:54:17.045Z</time></trkpt><trkpt lat="45.8111424" lon="11.7619572"><ele>311.79999999999995</ele><time>2026-05-03T08:54:18.045Z</time></trkpt><trkpt lat="45.8111416" lon="11.7618424"><ele>314.4</ele><time>2026-05-03T08:54:19.045Z</time></trkpt><trkpt lat="45.8111331" lon="11.7617526"><ele>317.0</ele><time>2026-05-03T08:54:20.046Z</time></trkpt><trkpt lat="45.8111523" lon="11.7616206"><ele>317.0</ele><time>2026-05-03T08:54:22.045Z</time></trkpt><trkpt lat="45.8112106" lon="11.7616801"><ele>317.0</ele><time>2026-05-03T08:54:24.045Z</time></trkpt><trkpt lat="45.8111905" lon="11.7618855"><ele>317.0</ele><time>2026-05-03T08:54:26.046Z</time></trkpt><trkpt lat="45.811186" lon="11.7620523"><ele>317.0</ele><time>2026-05-03T08:54:27.045Z</time></trkpt><trkpt lat="45.8112087" lon="11.7622701"><ele>317.6666666666667</ele><time>2026-05-03T08:54:28.045Z</time></trkpt><trkpt lat="45.8112439" lon="11.7624835"><ele>318.3333333333333</ele><time>2026-05-03T08:54:29.044Z</time></trkpt><trkpt lat="45.8112737" lon="11.7627358"><ele>319.0</ele><time>2026-05-03T08:54:30.045Z</time></trkpt><trkpt lat="45.8113157" lon="11.7629535"><ele>314.0</ele><time>2026-05-03T08:54:31.046Z</time></trkpt><trkpt lat="45.8113884" lon="11.7631585"><ele>309.0</ele><time>2026-05-03T08:54:32.045Z</time></trkpt><trkpt lat="45.81149" lon="11.7633718"><ele>304.0</ele><time>2026-05-03T08:54:33.045Z</time></trkpt><trkpt lat="45.8116158" lon="11.7635857"><ele>296.3333333333333</ele><time>2026-05-03T08:54:34.045Z</time></trkpt><trkpt lat="45.8117308" lon="11.7637793"><ele>288.6666666666667</ele><time>2026-05-03T08:54:35.045Z</time></trkpt><trkpt lat="45.8118564" lon="11.7639771"><ele>281.0</ele><time>2026-05-03T08:54:36.044Z</time></trkpt><trkpt lat="45.811987" lon="11.7641722"><ele>287.6666666666667</ele><time>2026-05-03T08:54:37.046Z</time></trkpt><trkpt lat="45.8121218" lon="11.7643602"><ele>294.3333333333333</ele><time>2026-05-03T08:54:38.046Z</time></trkpt><trkpt lat="45.8122749" lon="11.7645556"><ele>301.0</ele><time>2026-05-03T08:54:39.045Z</time></trkpt><trkpt lat="45.8124299" lon="11.7647432"><ele>301.0</ele><time>2026-05-03T08:54:40.045Z</time></trkpt><trkpt lat="45.8125707" lon="11.7648897"><ele>301.0</ele><time>2026-05-03T08:54:41.046Z</time></trkpt><trkpt lat="45.8127003" lon="11.7650102"><ele>301.0</ele><time>2026-05-03T08:54:42.045Z</time></trkpt><trkpt lat="45.8128161" lon="11.7651197"><ele>308.66666666666663</ele><time>2026-05-03T08:54:43.046Z</time></trkpt><trkpt lat="45.8129215" lon="11.7652513"><ele>316.3333333333333</ele><time>2026-05-03T08:54:44.045Z</time></trkpt><trkpt lat="45.8130147" lon="11.7654302"><ele>324.0</ele><time>2026-05-03T08:54:45.045Z</time></trkpt><trkpt lat="45.8131188" lon="11.7656358"><ele>324.0</ele><time>2026-05-03T08:54:46.046Z</time></trkpt><trkpt lat="45.813235" lon="11.7658357"><ele>324.0</ele><time>2026-05-03T08:54:47.044Z</time></trkpt><trkpt lat="45.8133525" lon="11.7660205"><ele>324.0</ele><time>2026-05-03T08:54:48.046Z</time></trkpt><trkpt lat="45.8134798" lon="11.766181"><ele>330.6666666666667</ele><time>2026-05-03T08:54:49.045Z</time></trkpt><trkpt lat="45.813623" lon="11.7663261"><ele>337.33333333333337</ele><time>2026-05-03T08:54:50.046Z</time></trkpt><trkpt lat="45.8137758" lon="11.7664586"><ele>344.0</ele><time>2026-05-03T08:54:51.046Z</time></trkpt><trkpt lat="45.8139349" lon="11.7665847"><ele>344.0</ele><time>2026-05-03T08:54:52.045Z</time></trkpt><trkpt lat="45.8140624" lon="11.7666816"><ele>344.0</ele><time>2026-05-03T08:54:53.046Z</time></trkpt><trkpt lat="45.8141769" lon="11.7667677"><ele>344.0</ele><time>2026-05-03T08:54:54.045Z</time></trkpt><trkpt lat="45.8142442" lon="11.7668879"><ele>344.0</ele><time>2026-05-03T08:54:55.044Z</time></trkpt><trkpt lat="45.814305" lon="11.7670312"><ele>357.33333333333337</ele><time>2026-05-03T08:54:56.045Z</time></trkpt><trkpt lat="45.8143497" lon="11.7672155"><ele>370.6666666666667</ele><time>2026-05-03T08:54:57.046Z</time></trkpt><trkpt lat="45.8143978" lon="11.7674271"><ele>384.0</ele><time>2026-05-03T08:54:58.045Z</time></trkpt><trkpt lat="45.8144622" lon="11.7676477"><ele>378.0</ele><time>2026-05-03T08:54:59.045Z</time></trkpt><trkpt lat="45.8145376" lon="11.7678764"><ele>372.0</ele><time>2026-05-03T08:55:00.045Z</time></trkpt><trkpt lat="45.8146251" lon="11.7681065"><ele>366.0</ele><time>2026-05-03T08:55:01.045Z</time></trkpt><trkpt lat="45.8147063" lon="11.768331"><ele>358.6666666666667</ele><time>2026-05-03T08:55:02.044Z</time></trkpt><trkpt lat="45.8147933" lon="11.7685329"><ele>351.33333333333337</ele><time>2026-05-03T08:55:03.045Z</time></trkpt><trkpt lat="45.8148724" lon="11.7687153"><ele>344.0</ele><time>2026-05-03T08:55:04.045Z</time></trkpt><trkpt lat="45.8149422" lon="11.7689118"><ele>344.0</ele><time>2026-05-03T08:55:05.044Z</time></trkpt><trkpt lat="45.815003" lon="11.769105"><ele>344.0</ele><time>2026-05-03T08:55:06.045Z</time></trkpt><trkpt lat="45.8150604" lon="11.7692578"><ele>344.0</ele><time>2026-05-03T08:55:07.045Z</time></trkpt><trkpt lat="45.8151143" lon="11.7693941"><ele>344.0</ele><time>2026-05-03T08:55:08.045Z</time></trkpt><trkpt lat="45.8151558" lon="11.7695116"><ele>352.6</ele><time>2026-05-03T08:55:09.045Z</time></trkpt><trkpt lat="45.8152002" lon="11.7695932"><ele>361.2</ele><time>2026-05-03T08:55:10.046Z</time></trkpt><trkpt lat="45.8152981" lon="11.7696009"><ele>369.8</ele><time>2026-05-03T08:55:12.045Z</time></trkpt><trkpt lat="45.8152947" lon="11.7694411"><ele>378.40000000000003</ele><time>2026-05-03T08:55:14.045Z</time></trkpt><trkpt lat="45.8152336" lon="11.769346"><ele>387.0</ele><time>2026-05-03T08:55:15.045Z</time></trkpt><trkpt lat="45.8151577" lon="11.7692308"><ele>382.8</ele><time>2026-05-03T08:55:16.045Z</time></trkpt><trkpt lat="45.8151149" lon="11.769101"><ele>378.6</ele><time>2026-05-03T08:55:17.045Z</time></trkpt><trkpt lat="45.8150769" lon="11.7689464"><ele>374.40000000000003</ele><time>2026-05-03T08:55:18.045Z</time></trkpt><trkpt lat="45.8150398" lon="11.7687894"><ele>370.20000000000005</ele><time>2026-05-03T08:55:19.044Z</time></trkpt><trkpt lat="45.8150044" lon="11.7686406"><ele>366.0</ele><time>2026-05-03T08:55:20.045Z</time></trkpt><trkpt lat="45.8149712" lon="11.768494"><ele>366.0</ele><time>2026-05-03T08:55:21.045Z</time></trkpt><trkpt lat="45.8149319" lon="11.7683403"><ele>366.0</ele><time>2026-05-03T08:55:22.046Z</time></trkpt><trkpt lat="45.814896" lon="11.7681822"><ele>366.0</ele><time>2026-05-03T08:55:23.045Z</time></trkpt><trkpt lat="45.8148688" lon="11.7680174"><ele>366.0</ele><time>2026-05-03T08:55:24.045Z</time></trkpt><trkpt lat="45.8148477" lon="11.7678506"><ele>370.5</ele><time>2026-05-03T08:55:25.045Z</time></trkpt><trkpt lat="45.8148222" lon="11.767686"><ele>375.0</ele><time>2026-05-03T08:55:26.046Z</time></trkpt><trkpt lat="45.814797" lon="11.7675197"><ele>379.5</ele><time>2026-05-03T08:55:27.045Z</time></trkpt><trkpt lat="45.8147733" lon="11.7673506"><ele>384.0</ele><time>2026-05-03T08:55:28.045Z</time></trkpt><trkpt lat="45.8147507" lon="11.7671906"><ele>384.0</ele><time>2026-05-03T08:55:29.046Z</time></trkpt><trkpt lat="45.8147318" lon="11.7670531"><ele>384.0</ele><time>2026-05-03T08:55:30.045Z</time></trkpt><trkpt lat="45.8147154" lon="11.7669227"><ele>384.0</ele><time>2026-05-03T08:55:31.044Z</time></trkpt><trkpt lat="45.8147013" lon="11.7668074"><ele>384.0</ele><time>2026-05-03T08:55:32.046Z</time></trkpt><trkpt lat="45.8146851" lon="11.7667003"><ele>384.0</ele><time>2026-05-03T08:55:33.045Z</time></trkpt><trkpt lat="45.8146577" lon="11.7665969"><ele>384.0</ele><time>2026-05-03T08:55:34.045Z</time></trkpt><trkpt lat="45.814623" lon="11.7664943"><ele>386.6666666666667</ele><time>2026-05-03T08:55:35.044Z</time></trkpt><trkpt lat="45.8145647" lon="11.7663983"><ele>389.33333333333337</ele><time>2026-05-03T08:55:36.046Z</time></trkpt><trkpt lat="45.8145014" lon="11.7663166"><ele>392.0</ele><time>2026-05-03T08:55:37.045Z</time></trkpt><trkpt lat="45.8144354" lon="11.7662389"><ele>394.6666666666667</ele><time>2026-05-03T08:55:38.045Z</time></trkpt><trkpt lat="45.8143725" lon="11.7661668"><ele>397.33333333333337</ele><time>2026-05-03T08:55:39.046Z</time></trkpt><trkpt lat="45.8143154" lon="11.7660989"><ele>400.0</ele><time>2026-05-03T08:55:40.046Z</time></trkpt><trkpt lat="45.8142585" lon="11.7660293"><ele>395.0</ele><time>2026-05-03T08:55:41.045Z</time></trkpt><trkpt lat="45.8141998" lon="11.7659509"><ele>390.0</ele><time>2026-05-03T08:55:42.044Z</time></trkpt><trkpt lat="45.8141495" lon="11.7658633"><ele>385.0</ele><time>2026-05-03T08:55:43.045Z</time></trkpt><trkpt lat="45.8140921" lon="11.7657744"><ele>380.0</ele><time>2026-05-03T08:55:44.045Z</time></trkpt><trkpt lat="45.814027" lon="11.7656653"><ele>375.0</ele><time>2026-05-03T08:55:45.045Z</time></trkpt><trkpt lat="45.8139603" lon="11.7655448"><ele>375.0</ele><time>2026-05-03T08:55:46.045Z</time></trkpt><trkpt lat="45.8139038" lon="11.7654188"><ele>375.0</ele><time>2026-05-03T08:55:47.046Z</time></trkpt><trkpt lat="45.8138541" lon="11.7652982"><ele>375.0</ele><time>2026-05-03T08:55:48.046Z</time></trkpt><trkpt lat="45.8138112" lon="11.7651823"><ele>375.0</ele><time>2026-05-03T08:55:49.044Z</time></trkpt><trkpt lat="45.8137753" lon="11.7650739"><ele>375.0</ele><time>2026-05-03T08:55:50.045Z</time></trkpt><trkpt lat="45.8137444" lon="11.7649682"><ele>380.3333333333333</ele><time>2026-05-03T08:55:51.046Z</time></trkpt><trkpt lat="45.8137127" lon="11.7648548"><ele>385.66666666666663</ele><time>2026-05-03T08:55:52.045Z</time></trkpt><trkpt lat="45.8136833" lon="11.7647399"><ele>391.0</ele><time>2026-05-03T08:55:53.044Z</time></trkpt><trkpt lat="45.8136523" lon="11.7646189"><ele>396.3333333333333</ele><time>2026-05-03T08:55:54.045Z</time></trkpt><trkpt lat="45.8136162" lon="11.764495"><ele>401.66666666666663</ele><time>2026-05-03T08:55:55.045Z</time></trkpt><trkpt lat="45.8135715" lon="11.7643814"><ele>407.0</ele><time>2026-05-03T08:55:56.044Z</time></trkpt><trkpt lat="45.813518" lon="11.7642643"><ele>402.0</ele><time>2026-05-03T08:55:57.045Z</time></trkpt><trkpt lat="45.8134614" lon="11.7641463"><ele>397.0</ele><time>2026-05-03T08:55:58.045Z</time></trkpt><trkpt lat="45.8134041" lon="11.764037"><ele>392.0</ele><time>2026-05-03T08:55:59.045Z</time></trkpt><trkpt lat="45.8133525" lon="11.7639347"><ele>387.0</ele><time>2026-05-03T08:56:00.045Z</time></trkpt><trkpt lat="45.8133015" lon="11.763834"><ele>382.0</ele><time>2026-05-03T08:56:01.045Z</time></trkpt><trkpt lat="45.8132553" lon="11.7637391"><ele>382.0</ele><time>2026-05-03T08:56:02.045Z</time></trkpt><trkpt lat="45.8132077" lon="11.7636362"><ele>382.0</ele><time>2026-05-03T08:56:03.045Z</time></trkpt><trkpt lat="45.8131581" lon="11.7635299"><ele>382.0</ele><time>2026-05-03T08:56:04.045Z</time></trkpt><trkpt lat="45.8131048" lon="11.7634291"><ele>382.0</ele><time>2026-05-03T08:56:05.046Z</time></trkpt><trkpt lat="45.8130552" lon="11.7633323"><ele>382.0</ele><time>2026-05-03T08:56:06.044Z</time></trkpt><trkpt lat="45.8130082" lon="11.763229"><ele>382.0</ele><time>2026-05-03T08:56:07.045Z</time></trkpt><trkpt lat="45.8129609" lon="11.7631468"><ele>386.5</ele><time>2026-05-03T08:56:08.045Z</time></trkpt><trkpt lat="45.8129151" lon="11.7630774"><ele>391.0</ele><time>2026-05-03T08:56:09.046Z</time></trkpt><trkpt lat="45.8128341" lon="11.7629694"><ele>395.5</ele><time>2026-05-03T08:56:11.045Z</time></trkpt><trkpt lat="45.8127731" lon="11.7628779"><ele>400.0</ele><time>2026-05-03T08:56:13.046Z</time></trkpt><trkpt lat="45.812792" lon="11.7627824"><ele>404.50000000000006</ele><time>2026-05-03T08:56:15.045Z</time></trkpt><trkpt lat="45.8128555" lon="11.7628147"><ele>409.0</ele><time>2026-05-03T08:56:17.046Z</time></trkpt><trkpt lat="45.8129214" lon="11.7629443"><ele>409.0</ele><time>2026-05-03T08:56:19.045Z</time></trkpt><trkpt lat="45.812983" lon="11.7630366"><ele>409.0</ele><time>2026-05-03T08:56:20.044Z</time></trkpt><trkpt lat="45.8130779" lon="11.7631482"><ele>409.0</ele><time>2026-05-03T08:56:21.045Z</time></trkpt><trkpt lat="45.8131908" lon="11.7633086"><ele>409.0</ele><time>2026-05-03T08:56:22.045Z</time></trkpt><trkpt lat="45.8133126" lon="11.763477"><ele>402.25</ele><time>2026-05-03T08:56:23.044Z</time></trkpt><trkpt lat="45.8134276" lon="11.7636191"><ele>395.5</ele><time>2026-05-03T08:56:24.046Z</time></trkpt><trkpt lat="45.8135488" lon="11.7637479"><ele>388.75</ele><time>2026-05-03T08:56:25.046Z</time></trkpt><trkpt lat="45.8136548" lon="11.7638644"><ele>382.0</ele><time>2026-05-03T08:56:26.045Z</time></trkpt><trkpt lat="45.8137567" lon="11.7639709"><ele>387.0</ele><time>2026-05-03T08:56:27.045Z</time></trkpt><trkpt lat="45.8138453" lon="11.7640835"><ele>392.0</ele><time>2026-05-03T08:56:28.046Z</time></trkpt><trkpt lat="45.8139206" lon="11.7642099"><ele>397.0</ele><time>2026-05-03T08:56:29.046Z</time></trkpt><trkpt lat="45.8139762" lon="11.7643343"><ele>402.0</ele><time>2026-05-03T08:56:30.045Z</time></trkpt><trkpt lat="45.8140218" lon="11.7644576"><ele>407.0</ele><time>2026-05-03T08:56:31.045Z</time></trkpt><trkpt lat="45.8140746" lon="11.7645674"><ele>406.99999999999994</ele><time>2026-05-03T08:56:32.045Z</time></trkpt><trkpt lat="45.8141288" lon="11.7646744"><ele>407.0</ele><time>2026-05-03T08:56:33.045Z</time></trkpt><trkpt lat="45.8141851" lon="11.7647772"><ele>407.0</ele><time>2026-05-03T08:56:34.045Z</time></trkpt><trkpt lat="45.8142464" lon="11.7648581"><ele>407.0</ele><time>2026-05-03T08:56:35.045Z</time></trkpt><trkpt lat="45.8143086" lon="11.764941"><ele>406.99999999999994</ele><time>2026-05-03T08:56:36.044Z</time></trkpt><trkpt lat="45.8143754" lon="11.7650239"><ele>407.0</ele><time>2026-05-03T08:56:37.045Z</time></trkpt><trkpt lat="45.8144479" lon="11.765105"><ele>409.0</ele><time>2026-05-03T08:56:38.045Z</time></trkpt><trkpt lat="45.8145299" lon="11.7651738"><ele>411.0</ele><time>2026-05-03T08:56:39.045Z</time></trkpt><trkpt lat="45.8146139" lon="11.7652412"><ele>413.0</ele><time>2026-05-03T08:56:40.046Z</time></trkpt><trkpt lat="45.8146988" lon="11.7653001"><ele>415.0</ele><time>2026-05-03T08:56:41.045Z</time></trkpt><trkpt lat="45.8147845" lon="11.7653588"><ele>417.0</ele><time>2026-05-03T08:56:42.045Z</time></trkpt><trkpt lat="45.814872" lon="11.7654124"><ele>417.0</ele><time>2026-05-03T08:56:43.046Z</time></trkpt><trkpt lat="45.8149644" lon="11.7654654"><ele>417.0</ele><time>2026-05-03T08:56:44.044Z</time></trkpt><trkpt lat="45.8150543" lon="11.765521"><ele>417.0</ele><time>2026-05-03T08:56:45.045Z</time></trkpt><trkpt lat="45.8151326" lon="11.7655759"><ele>417.0</ele><time>2026-05-03T08:56:46.045Z</time></trkpt><trkpt lat="45.8151965" lon="11.765627"><ele>417.0</ele><time>2026-05-03T08:56:47.045Z</time></trkpt><trkpt lat="45.8152712" lon="11.7657553"><ele>417.0</ele><time>2026-05-03T08:56:49.044Z</time></trkpt><trkpt lat="45.8153491" lon="11.7658033"><ele>417.0</ele><time>2026-05-03T08:56:51.046Z</time></trkpt><trkpt lat="45.8154039" lon="11.7657497"><ele>417.0</ele><time>2026-05-03T08:56:53.044Z</time></trkpt><trkpt lat="45.8153432" lon="11.7656246"><ele>417.0</ele><time>2026-05-03T08:56:55.045Z</time></trkpt><trkpt lat="45.8152896" lon="11.7655415"><ele>417.0</ele><time>2026-05-03T08:56:56.045Z</time></trkpt><trkpt lat="45.8150939" lon="11.7653753"><ele>417.0</ele><time>2026-05-03T08:56:57.045Z</time></trkpt><trkpt lat="45.8149847" lon="11.7652707"><ele>417.0</ele><time>2026-05-03T08:56:58.045Z</time></trkpt><trkpt lat="45.8148511" lon="11.7650995"><ele>417.0</ele><time>2026-05-03T08:56:59.045Z</time></trkpt><trkpt lat="45.8147234" lon="11.7649489"><ele>427.75</ele><time>2026-05-03T08:57:00.045Z</time></trkpt><trkpt lat="45.8146189" lon="11.7647787"><ele>438.5</ele><time>2026-05-03T08:57:01.045Z</time></trkpt><trkpt lat="45.8145255" lon="11.7646109"><ele>449.25</ele><time>2026-05-03T08:57:02.045Z</time></trkpt><trkpt lat="45.8144511" lon="11.76445"><ele>460.0</ele><time>2026-05-03T08:57:03.045Z</time></trkpt><trkpt lat="45.814399" lon="11.764257"><ele>460.0</ele><time>2026-05-03T08:57:04.045Z</time></trkpt><trkpt lat="45.8143693" lon="11.7640566"><ele>460.0</ele><time>2026-05-03T08:57:05.045Z</time></trkpt><trkpt lat="45.8143307" lon="11.763861"><ele>460.0</ele><time>2026-05-03T08:57:06.045Z</time></trkpt><trkpt lat="45.8142729" lon="11.7636721"><ele>460.0</ele><time>2026-05-03T08:57:07.045Z</time></trkpt><trkpt lat="45.8141794" lon="11.7634318"><ele>460.0</ele><time>2026-05-03T08:57:08.045Z</time></trkpt><trkpt lat="45.81408" lon="11.7632214"><ele>460.0</ele><time>2026-05-03T08:57:09.045Z</time></trkpt><trkpt lat="45.8139631" lon="11.7629999"><ele>460.0</ele><time>2026-05-03T08:57:10.046Z</time></trkpt><trkpt lat="45.8138415" lon="11.7627971"><ele>468.25</ele><time>2026-05-03T08:57:11.044Z</time></trkpt><trkpt lat="45.8137382" lon="11.7626125"><ele>476.5</ele><time>2026-05-03T08:57:12.045Z</time></trkpt><trkpt lat="45.8136584" lon="11.7624489"><ele>484.75</ele><time>2026-05-03T08:57:13.045Z</time></trkpt><trkpt lat="45.8135973" lon="11.7622877"><ele>493.0</ele><time>2026-05-03T08:57:14.045Z</time></trkpt><trkpt lat="45.8135463" lon="11.7621297"><ele>485.59999999999997</ele><time>2026-05-03T08:57:15.046Z</time></trkpt><trkpt lat="45.813485" lon="11.7620164"><ele>478.19999999999993</ele><time>2026-05-03T08:57:16.045Z</time></trkpt><trkpt lat="45.8134211" lon="11.7619139"><ele>470.8</ele><time>2026-05-03T08:57:17.046Z</time></trkpt><trkpt lat="45.8133619" lon="11.7618357"><ele>463.4</ele><time>2026-05-03T08:57:18.046Z</time></trkpt><trkpt lat="45.813331" lon="11.761693"><ele>456.0</ele><time>2026-05-03T08:57:20.044Z</time></trkpt><trkpt lat="45.8134064" lon="11.7616947"><ele>456.0</ele><time>2026-05-03T08:57:22.045Z</time></trkpt><trkpt lat="45.8134457" lon="11.7617799"><ele>456.0</ele><time>2026-05-03T08:57:23.045Z</time></trkpt><trkpt lat="45.8134993" lon="11.7618995"><ele>456.0</ele><time>2026-05-03T08:57:24.045Z</time></trkpt><trkpt lat="45.8135677" lon="11.7620614"><ele>456.0</ele><time>2026-05-03T08:57:25.046Z</time></trkpt><trkpt lat="45.8136396" lon="11.7622038"><ele>456.0</ele><time>2026-05-03T08:57:26.045Z</time></trkpt><trkpt lat="45.8137618" lon="11.762366"><ele>457.33333333333337</ele><time>2026-05-03T08:57:27.045Z</time></trkpt><trkpt lat="45.8138933" lon="11.7625398"><ele>458.6666666666667</ele><time>2026-05-03T08:57:28.045Z</time></trkpt><trkpt lat="45.8140529" lon="11.7627139"><ele>460.0</ele><time>2026-05-03T08:57:29.045Z</time></trkpt><trkpt lat="45.8142184" lon="11.7628887"><ele>478.33333333333337</ele><time>2026-05-03T08:57:30.045Z</time></trkpt><trkpt lat="45.8143611" lon="11.7630374"><ele>496.66666666666663</ele><time>2026-05-03T08:57:31.045Z</time></trkpt><trkpt lat="45.8144909" lon="11.7631841"><ele>515.0</ele><time>2026-05-03T08:57:32.045Z</time></trkpt><trkpt lat="45.8145997" lon="11.7633666"><ele>505.3333333333333</ele><time>2026-05-03T08:57:33.045Z</time></trkpt><trkpt lat="45.8146927" lon="11.7635508"><ele>495.66666666666663</ele><time>2026-05-03T08:57:34.044Z</time></trkpt><trkpt lat="45.8147765" lon="11.7637334"><ele>486.0</ele><time>2026-05-03T08:57:35.045Z</time></trkpt><trkpt lat="45.8148378" lon="11.7639195"><ele>486.0</ele><time>2026-05-03T08:57:36.045Z</time></trkpt><trkpt lat="45.8149376" lon="11.7640518"><ele>486.0</ele><time>2026-05-03T08:57:37.045Z</time></trkpt><trkpt lat="45.8150628" lon="11.7641813"><ele>486.0</ele><time>2026-05-03T08:57:38.046Z</time></trkpt><trkpt lat="45.8151975" lon="11.7643205"><ele>488.66666666666663</ele><time>2026-05-03T08:57:39.045Z</time></trkpt><trkpt lat="45.8153891" lon="11.7644236"><ele>491.3333333333333</ele><time>2026-05-03T08:57:40.045Z</time></trkpt><trkpt lat="45.8155619" lon="11.7645298"><ele>494.0</ele><time>2026-05-03T08:57:41.045Z</time></trkpt><trkpt lat="45.8157072" lon="11.7646208"><ele>494.0</ele><time>2026-05-03T08:57:42.046Z</time></trkpt><trkpt lat="45.8158417" lon="11.7647031"><ele>494.0</ele><time>2026-05-03T08:57:43.044Z</time></trkpt><trkpt lat="45.8159428" lon="11.7648043"><ele>494.0</ele><time>2026-05-03T08:57:44.046Z</time></trkpt><trkpt lat="45.8160271" lon="11.7649121"><ele>494.0</ele><time>2026-05-03T08:57:45.046Z</time></trkpt><trkpt lat="45.8160955" lon="11.7650081"><ele>503.4</ele><time>2026-05-03T08:57:46.045Z</time></trkpt><trkpt lat="45.8161531" lon="11.7650816"><ele>512.8</ele><time>2026-05-03T08:57:47.045Z</time></trkpt><trkpt lat="45.8162162" lon="11.7651169"><ele>522.2</ele><time>2026-05-03T08:57:48.045Z</time></trkpt><trkpt lat="45.8162671" lon="11.765027"><ele>531.6</ele><time>2026-05-03T08:57:50.045Z</time></trkpt><trkpt lat="45.8162223" lon="11.7648353"><ele>541.0</ele><time>2026-05-03T08:57:52.044Z</time></trkpt><trkpt lat="45.8160444" lon="11.7647688"><ele>539.5</ele><time>2026-05-03T08:57:53.046Z</time></trkpt><trkpt lat="45.8159466" lon="11.7646685"><ele>538.0</ele><time>2026-05-03T08:57:54.046Z</time></trkpt><trkpt lat="45.815836" lon="11.7645494"><ele>536.5</ele><time>2026-05-03T08:57:55.045Z</time></trkpt><trkpt lat="45.8157218" lon="11.7644288"><ele>535.0</ele><time>2026-05-03T08:57:56.046Z</time></trkpt><trkpt lat="45.8156043" lon="11.7643016"><ele>535.0</ele><time>2026-05-03T08:57:57.045Z</time></trkpt><trkpt lat="45.8154959" lon="11.7641744"><ele>535.0</ele><time>2026-05-03T08:57:58.044Z</time></trkpt><trkpt lat="45.8154013" lon="11.7640596"><ele>535.0</ele><time>2026-05-03T08:57:59.044Z</time></trkpt><trkpt lat="45.8153119" lon="11.7639362"><ele>535.0</ele><time>2026-05-03T08:58:00.046Z</time></trkpt><trkpt lat="45.8152394" lon="11.7637977"><ele>535.0</ele><time>2026-05-03T08:58:01.045Z</time></trkpt><trkpt lat="45.8151785" lon="11.7636668"><ele>535.0</ele><time>2026-05-03T08:58:02.046Z</time></trkpt><trkpt lat="45.8151198" lon="11.7635294"><ele>535.0</ele><time>2026-05-03T08:58:03.045Z</time></trkpt><trkpt lat="45.8150868" lon="11.7633476"><ele>535.0</ele><time>2026-05-03T08:58:04.045Z</time></trkpt><trkpt lat="45.8150838" lon="11.7631218"><ele>535.3333333333334</ele><time>2026-05-03T08:58:05.046Z</time></trkpt><trkpt lat="45.8150525" lon="11.7628954"><ele>535.6666666666666</ele><time>2026-05-03T08:58:06.044Z</time></trkpt><trkpt lat="45.8150103" lon="11.7626782"><ele>536.0</ele><time>2026-05-03T08:58:07.045Z</time></trkpt><trkpt lat="45.8149585" lon="11.7624878"><ele>536.0</ele><time>2026-05-03T08:58:08.046Z</time></trkpt><trkpt lat="45.8148618" lon="11.7622798"><ele>536.0</ele><time>2026-05-03T08:58:09.045Z</time></trkpt><trkpt lat="45.81478" lon="11.7620843"><ele>536.0</ele><time>2026-05-03T08:58:10.045Z</time></trkpt><trkpt lat="45.8146799" lon="11.7619329"><ele>540.25</ele><time>2026-05-03T08:58:11.045Z</time></trkpt><trkpt lat="45.8145828" lon="11.7617833"><ele>544.5</ele><time>2026-05-03T08:58:12.045Z</time></trkpt><trkpt lat="45.8144986" lon="11.7617158"><ele>548.75</ele><time>2026-05-03T08:58:13.044Z</time></trkpt><trkpt lat="45.8144211" lon="11.7616286"><ele>553.0</ele><time>2026-05-03T08:58:14.046Z</time></trkpt><trkpt lat="45.8143481" lon="11.7614968"><ele>553.0</ele><time>2026-05-03T08:58:16.045Z</time></trkpt><trkpt lat="45.814396" lon="11.7614202"><ele>553.0</ele><time>2026-05-03T08:58:18.046Z</time></trkpt><trkpt lat="45.8144977" lon="11.761551"><ele>553.0</ele><time>2026-05-03T08:58:20.045Z</time></trkpt><trkpt lat="45.8145955" lon="11.7616617"><ele>553.0</ele><time>2026-05-03T08:58:21.046Z</time></trkpt><trkpt lat="45.8147184" lon="11.7617875"><ele>547.3333333333334</ele><time>2026-05-03T08:58:22.045Z</time></trkpt><trkpt lat="45.8148581" lon="11.7619219"><ele>541.6666666666666</ele><time>2026-05-03T08:58:23.046Z</time></trkpt><trkpt lat="45.8150226" lon="11.7620761"><ele>536.0</ele><time>2026-05-03T08:58:24.044Z</time></trkpt><trkpt lat="45.8151809" lon="11.7622129"><ele>544.6666666666666</ele><time>2026-05-03T08:58:25.045Z</time></trkpt><trkpt lat="45.8153105" lon="11.7623593"><ele>553.3333333333334</ele><time>2026-05-03T08:58:26.045Z</time></trkpt><trkpt lat="45.8154205" lon="11.7625415"><ele>562.0</ele><time>2026-05-03T08:58:27.045Z</time></trkpt><trkpt lat="45.8155316" lon="11.762701"><ele>562.0</ele><time>2026-05-03T08:58:28.045Z</time></trkpt><trkpt lat="45.8155552" lon="11.762842"><ele>562.0</ele><time>2026-05-03T08:58:29.046Z</time></trkpt><trkpt lat="45.815583" lon="11.7630249"><ele>562.0</ele><time>2026-05-03T08:58:30.045Z</time></trkpt><trkpt lat="45.8156391" lon="11.7631839"><ele>562.0</ele><time>2026-05-03T08:58:31.045Z</time></trkpt><trkpt lat="45.8157084" lon="11.7633272"><ele>562.0</ele><time>2026-05-03T08:58:32.046Z</time></trkpt><trkpt lat="45.8158187" lon="11.7634501"><ele>562.0</ele><time>2026-05-03T08:58:33.045Z</time></trkpt><trkpt lat="45.8159543" lon="11.7635955"><ele>562.0</ele><time>2026-05-03T08:58:34.045Z</time></trkpt><trkpt lat="45.8161737" lon="11.7636788"><ele>564.0</ele><time>2026-05-03T08:58:35.046Z</time></trkpt><trkpt lat="45.816335" lon="11.763774"><ele>566.0</ele><time>2026-05-03T08:58:36.045Z</time></trkpt><trkpt lat="45.8165028" lon="11.7638938"><ele>568.0</ele><time>2026-05-03T08:58:37.046Z</time></trkpt><trkpt lat="45.8166506" lon="11.7639954"><ele>568.0</ele><time>2026-05-03T08:58:38.045Z</time></trkpt><trkpt lat="45.816771" lon="11.7640972"><ele>568.0</ele><time>2026-05-03T08:58:39.045Z</time></trkpt><trkpt lat="45.8168864" lon="11.7642209"><ele>568.0</ele><time>2026-05-03T08:58:40.045Z</time></trkpt><trkpt lat="45.8169667" lon="11.7643365"><ele>568.0</ele><time>2026-05-03T08:58:41.044Z</time></trkpt><trkpt lat="45.8170152" lon="11.7644629"><ele>573.8</ele><time>2026-05-03T08:58:42.046Z</time></trkpt><trkpt lat="45.8170635" lon="11.7645449"><ele>579.5999999999999</ele><time>2026-05-03T08:58:43.046Z</time></trkpt><trkpt lat="45.8171577" lon="11.7645349"><ele>585.4000000000001</ele><time>2026-05-03T08:58:45.045Z</time></trkpt><trkpt lat="45.8172104" lon="11.7644653"><ele>591.2</ele><time>2026-05-03T08:58:47.045Z</time></trkpt><trkpt lat="45.8171362" lon="11.7643657"><ele>597.0</ele><time>2026-05-03T08:58:48.044Z</time></trkpt><trkpt lat="45.8169626" lon="11.7641516"><ele>601.6666666666666</ele><time>2026-05-03T08:58:49.045Z</time></trkpt><trkpt lat="45.8168265" lon="11.7639893"><ele>606.3333333333333</ele><time>2026-05-03T08:58:50.045Z</time></trkpt><trkpt lat="45.8166637" lon="11.7637981"><ele>611.0</ele><time>2026-05-03T08:58:51.045Z</time></trkpt><trkpt lat="45.8165079" lon="11.7636064"><ele>606.3333333333333</ele><time>2026-05-03T08:58:52.045Z</time></trkpt><trkpt lat="45.8163929" lon="11.7634126"><ele>601.6666666666666</ele><time>2026-05-03T08:58:53.045Z</time></trkpt><trkpt lat="45.8162915" lon="11.7632178"><ele>597.0</ele><time>2026-05-03T08:58:54.046Z</time></trkpt><trkpt lat="45.8161974" lon="11.7630248"><ele>597.0</ele><time>2026-05-03T08:58:55.045Z</time></trkpt><trkpt lat="45.8161157" lon="11.7628454"><ele>597.0</ele><time>2026-05-03T08:58:56.045Z</time></trkpt><trkpt lat="45.8160906" lon="11.7626642"><ele>597.0</ele><time>2026-05-03T08:58:57.045Z</time></trkpt><trkpt lat="45.8161856" lon="11.7625136"><ele>597.0</ele><time>2026-05-03T08:58:58.044Z</time></trkpt><trkpt lat="45.8161991" lon="11.7623459"><ele>599.5</ele><time>2026-05-03T08:58:59.046Z</time></trkpt><trkpt lat="45.8161581" lon="11.7622178"><ele>602.0</ele><time>2026-05-03T08:59:00.045Z</time></trkpt><trkpt lat="45.8161451" lon="11.7621165"><ele>604.5</ele><time>2026-05-03T08:59:01.046Z</time></trkpt><trkpt lat="45.8161348" lon="11.7620172"><ele>607.0</ele><time>2026-05-03T08:59:02.045Z</time></trkpt><trkpt lat="45.8162148" lon="11.7619403"><ele>609.5</ele><time>2026-05-03T08:59:04.046Z</time></trkpt><trkpt lat="45.8163127" lon="11.7619962"><ele>612.0</ele><time>2026-05-03T08:59:06.045Z</time></trkpt><trkpt lat="45.8163434" lon="11.7621603"><ele>612.0</ele><time>2026-05-03T08:59:07.046Z</time></trkpt><trkpt lat="45.8163877" lon="11.7624302"><ele>612.0</ele><time>2026-05-03T08:59:08.046Z</time></trkpt><trkpt lat="45.8164257" lon="11.7626355"><ele>612.0</ele><time>2026-05-03T08:59:09.045Z</time></trkpt><trkpt lat="45.8165003" lon="11.7628297"><ele>607.0</ele><time>2026-05-03T08:59:10.045Z</time></trkpt><trkpt lat="45.8165861" lon="11.7630184"><ele>602.0</ele><time>2026-05-03T08:59:11.044Z</time></trkpt><trkpt lat="45.8167118" lon="11.7631851"><ele>597.0</ele><time>2026-05-03T08:59:12.046Z</time></trkpt><trkpt lat="45.8168554" lon="11.7633438"><ele>601.6666666666666</ele><time>2026-05-03T08:59:13.044Z</time></trkpt><trkpt lat="45.8170139" lon="11.7634728"><ele>606.3333333333333</ele><time>2026-05-03T08:59:14.045Z</time></trkpt><trkpt lat="45.8171425" lon="11.763611"><ele>611.0</ele><time>2026-05-03T08:59:15.044Z</time></trkpt><trkpt lat="45.8172545" lon="11.763726"><ele>611.0</ele><time>2026-05-03T08:59:16.045Z</time></trkpt><trkpt lat="45.8173432" lon="11.7638414"><ele>611.0</ele><time>2026-05-03T08:59:17.045Z</time></trkpt><trkpt lat="45.8174123" lon="11.7639628"><ele>611.0</ele><time>2026-05-03T08:59:18.046Z</time></trkpt><trkpt lat="45.8174606" lon="11.764066"><ele>611.0</ele><time>2026-05-03T08:59:19.044Z</time></trkpt><trkpt lat="45.8175106" lon="11.7641359"><ele>611.0</ele><time>2026-05-03T08:59:20.046Z</time></trkpt><trkpt lat="45.8176054" lon="11.7641144"><ele>611.0</ele><time>2026-05-03T08:59:22.045Z</time></trkpt><trkpt lat="45.8175869" lon="11.7639665"><ele>611.0</ele><time>2026-05-03T08:59:24.045Z</time></trkpt><trkpt lat="45.8175171" lon="11.763871"><ele>611.0</ele><time>2026-05-03T08:59:25.046Z</time></trkpt><trkpt lat="45.8174029" lon="11.7637414"><ele>611.0</ele><time>2026-05-03T08:59:26.045Z</time></trkpt><trkpt lat="45.8172942" lon="11.7635877"><ele>617.5</ele><time>2026-05-03T08:59:27.045Z</time></trkpt><trkpt lat="45.817188" lon="11.7634123"><ele>624.0</ele><time>2026-05-03T08:59:28.045Z</time></trkpt><trkpt lat="45.8171028" lon="11.7632499"><ele>630.5</ele><time>2026-05-03T08:59:29.045Z</time></trkpt><trkpt lat="45.8170433" lon="11.7630867"><ele>637.0</ele><time>2026-05-03T08:59:30.045Z</time></trkpt><trkpt lat="45.81701" lon="11.7629205"><ele>637.0</ele><time>2026-05-03T08:59:31.045Z</time></trkpt><trkpt lat="45.8170106" lon="11.7627248"><ele>637.0</ele><time>2026-05-03T08:59:32.046Z</time></trkpt><trkpt lat="45.8170024" lon="11.7624788"><ele>637.0</ele><time>2026-05-03T08:59:33.045Z</time></trkpt><trkpt lat="45.8169872" lon="11.7622593"><ele>642.6666666666667</ele><time>2026-05-03T08:59:34.046Z</time></trkpt><trkpt lat="45.81695" lon="11.7620147"><ele>648.3333333333334</ele><time>2026-05-03T08:59:35.046Z</time></trkpt><trkpt lat="45.8169179" lon="11.7617846"><ele>654.0</ele><time>2026-05-03T08:59:36.044Z</time></trkpt><trkpt lat="45.8168769" lon="11.7615811"><ele>654.4000000000001</ele><time>2026-05-03T08:59:37.046Z</time></trkpt><trkpt lat="45.8168308" lon="11.7614079"><ele>654.8</ele><time>2026-05-03T08:59:38.045Z</time></trkpt><trkpt lat="45.8167815" lon="11.7612643"><ele>655.2</ele><time>2026-05-03T08:59:39.045Z</time></trkpt><trkpt lat="45.8167292" lon="11.7611463"><ele>655.5999999999999</ele><time>2026-05-03T08:59:40.044Z</time></trkpt><trkpt lat="45.8166934" lon="11.761059"><ele>656.0</ele><time>2026-05-03T08:59:41.046Z</time></trkpt><trkpt lat="45.8167158" lon="11.7609209"><ele>656.0</ele><time>2026-05-03T08:59:43.045Z</time></trkpt><trkpt lat="45.816787" lon="11.7609789"><ele>656.0</ele><time>2026-05-03T08:59:45.044Z</time></trkpt><trkpt lat="45.8168129" lon="11.7610903"><ele>656.0</ele><time>2026-05-03T08:59:46.045Z</time></trkpt><trkpt lat="45.8168572" lon="11.761236"><ele>656.0</ele><time>2026-05-03T08:59:47.045Z</time></trkpt><trkpt lat="45.816928" lon="11.7613998"><ele>656.0</ele><time>2026-05-03T08:59:48.045Z</time></trkpt><trkpt lat="45.8170233" lon="11.7615717"><ele>656.0</ele><time>2026-05-03T08:59:49.045Z</time></trkpt><trkpt lat="45.8171264" lon="11.7617807"><ele>656.0</ele><time>2026-05-03T08:59:50.045Z</time></trkpt><trkpt lat="45.8172174" lon="11.762022"><ele>656.0</ele><time>2026-05-03T08:59:51.044Z</time></trkpt><trkpt lat="45.8172966" lon="11.7622709"><ele>655.3333333333333</ele><time>2026-05-03T08:59:52.045Z</time></trkpt><trkpt lat="45.8173479" lon="11.7624957"><ele>654.6666666666666</ele><time>2026-05-03T08:59:53.045Z</time></trkpt><trkpt lat="45.8174066" lon="11.7626951"><ele>654.0</ele><time>2026-05-03T08:59:54.046Z</time></trkpt><trkpt lat="45.8174927" lon="11.7628656"><ele>648.3333333333334</ele><time>2026-05-03T08:59:55.045Z</time></trkpt><trkpt lat="45.8175996" lon="11.7630383"><ele>642.6666666666667</ele><time>2026-05-03T08:59:56.044Z</time></trkpt><trkpt lat="45.8177199" lon="11.7632032"><ele>637.0</ele><time>2026-05-03T08:59:57.045Z</time></trkpt><trkpt lat="45.8178553" lon="11.7633599"><ele>642.6666666666667</ele><time>2026-05-03T08:59:58.045Z</time></trkpt><trkpt lat="45.8180031" lon="11.7634894"><ele>648.3333333333334</ele><time>2026-05-03T08:59:59.044Z</time></trkpt><trkpt lat="45.8181509" lon="11.7636147"><ele>654.0</ele><time>2026-05-03T09:00:00.044Z</time></trkpt><trkpt lat="45.818286" lon="11.7637589"><ele>654.0</ele><time>2026-05-03T09:00:01.045Z</time></trkpt><trkpt lat="45.8184002" lon="11.7639358"><ele>654.0</ele><time>2026-05-03T09:00:02.045Z</time></trkpt><trkpt lat="45.8185081" lon="11.7641263"><ele>654.0</ele><time>2026-05-03T09:00:03.045Z</time></trkpt><trkpt lat="45.8186121" lon="11.7643177"><ele>663.6666666666666</ele><time>2026-05-03T09:00:04.045Z</time></trkpt><trkpt lat="45.8187061" lon="11.7645074"><ele>673.3333333333333</ele><time>2026-05-03T09:00:05.045Z</time></trkpt><trkpt lat="45.8187814" lon="11.7647038"><ele>683.0</ele><time>2026-05-03T09:00:06.046Z</time></trkpt><trkpt lat="45.8188413" lon="11.7648802"><ele>683.0</ele><time>2026-05-03T09:00:07.045Z</time></trkpt><trkpt lat="45.8188988" lon="11.7650562"><ele>683.0</ele><time>2026-05-03T09:00:08.044Z</time></trkpt><trkpt lat="45.8188907" lon="11.7651853"><ele>683.0</ele><time>2026-05-03T09:00:09.045Z</time></trkpt><trkpt lat="45.8189277" lon="11.7652836"><ele>683.0</ele><time>2026-05-03T09:00:10.045Z</time></trkpt><trkpt lat="45.8190212" lon="11.7653318"><ele>683.0</ele><time>2026-05-03T09:00:12.046Z</time></trkpt><trkpt lat="45.8190357" lon="11.7651491"><ele>683.0</ele><time>2026-05-03T09:00:14.045Z</time></trkpt><trkpt lat="45.8189998" lon="11.7649964"><ele>683.0</ele><time>2026-05-03T09:00:15.045Z</time></trkpt><trkpt lat="45.8189503" lon="11.7648226"><ele>683.0</ele><time>2026-05-03T09:00:16.045Z</time></trkpt><trkpt lat="45.8188972" lon="11.7646465"><ele>683.0</ele><time>2026-05-03T09:00:17.045Z</time></trkpt><trkpt lat="45.8188504" lon="11.7643934"><ele>686.0</ele><time>2026-05-03T09:00:18.044Z</time></trkpt><trkpt lat="45.8188131" lon="11.7641633"><ele>689.0</ele><time>2026-05-03T09:00:19.046Z</time></trkpt><trkpt lat="45.8187757" lon="11.763926"><ele>692.0</ele><time>2026-05-03T09:00:20.046Z</time></trkpt><trkpt lat="45.8187353" lon="11.7636878"><ele>697.0</ele><time>2026-05-03T09:00:21.045Z</time></trkpt><trkpt lat="45.8186755" lon="11.7634689"><ele>702.0</ele><time>2026-05-03T09:00:22.044Z</time></trkpt><trkpt lat="45.8185897" lon="11.7632731"><ele>707.0</ele><time>2026-05-03T09:00:23.045Z</time></trkpt><trkpt lat="45.8184926" lon="11.7630943"><ele>703.25</ele><time>2026-05-03T09:00:24.044Z</time></trkpt><trkpt lat="45.8183744" lon="11.762966"><ele>699.5</ele><time>2026-05-03T09:00:25.046Z</time></trkpt><trkpt lat="45.8182767" lon="11.762831"><ele>695.75</ele><time>2026-05-03T09:00:26.046Z</time></trkpt><trkpt lat="45.8182079" lon="11.7626676"><ele>692.0</ele><time>2026-05-03T09:00:27.045Z</time></trkpt><trkpt lat="45.8181712" lon="11.7624839"><ele>692.0</ele><time>2026-05-03T09:00:28.041Z</time></trkpt><trkpt lat="45.8181691" lon="11.7623304"><ele>692.0</ele><time>2026-05-03T09:00:29.045Z</time></trkpt><trkpt lat="45.8182065" lon="11.762226"><ele>692.0</ele><time>2026-05-03T09:00:30.044Z</time></trkpt><trkpt lat="45.8182779" lon="11.7621277"><ele>692.0</ele><time>2026-05-03T09:00:31.045Z</time></trkpt><trkpt lat="45.8183733" lon="11.7620263"><ele>692.0</ele><time>2026-05-03T09:00:32.045Z</time></trkpt><trkpt lat="45.818442" lon="11.7619015"><ele>698.5</ele><time>2026-05-03T09:00:33.046Z</time></trkpt><trkpt lat="45.8184894" lon="11.7617249"><ele>705.0</ele><time>2026-05-03T09:00:34.046Z</time></trkpt><trkpt lat="45.8185121" lon="11.7615231"><ele>711.5</ele><time>2026-05-03T09:00:35.046Z</time></trkpt><trkpt lat="45.8185377" lon="11.7613453"><ele>718.0</ele><time>2026-05-03T09:00:36.045Z</time></trkpt><trkpt lat="45.8185687" lon="11.7611993"><ele>718.0</ele><time>2026-05-03T09:00:37.046Z</time></trkpt><trkpt lat="45.8186068" lon="11.7611137"><ele>718.0</ele><time>2026-05-03T09:00:38.045Z</time></trkpt><trkpt lat="45.8186614" lon="11.7611979"><ele>718.0</ele><time>2026-05-03T09:00:41.044Z</time></trkpt><trkpt lat="45.8186511" lon="11.7613055"><ele>718.0</ele><time>2026-05-03T09:00:42.045Z</time></trkpt><trkpt lat="45.8186692" lon="11.7614461"><ele>718.0</ele><time>2026-05-03T09:00:43.044Z</time></trkpt><trkpt lat="45.8187172" lon="11.7615704"><ele>718.0</ele><time>2026-05-03T09:00:44.045Z</time></trkpt><trkpt lat="45.8187964" lon="11.7616712"><ele>718.0</ele><time>2026-05-03T09:00:45.045Z</time></trkpt><trkpt lat="45.8188914" lon="11.7617493"><ele>718.0</ele><time>2026-05-03T09:00:46.044Z</time></trkpt><trkpt lat="45.8189636" lon="11.7618363"><ele>718.0</ele><time>2026-05-03T09:00:47.046Z</time></trkpt><trkpt lat="45.8190057" lon="11.7619413"><ele>718.0</ele><time>2026-05-03T09:00:48.046Z</time></trkpt><trkpt lat="45.8190195" lon="11.7620548"><ele>718.0</ele><time>2026-05-03T09:00:49.045Z</time></trkpt><trkpt lat="45.8190055" lon="11.7621734"><ele>717.8333333333334</ele><time>2026-05-03T09:00:50.045Z</time></trkpt><trkpt lat="45.8189997" lon="11.7622928"><ele>717.6666666666667</ele><time>2026-05-03T09:00:51.046Z</time></trkpt><trkpt lat="45.8190307" lon="11.7623885"><ele>717.5</ele><time>2026-05-03T09:00:52.045Z</time></trkpt><trkpt lat="45.8190928" lon="11.7624625"><ele>717.3333333333334</ele><time>2026-05-03T09:00:53.044Z</time></trkpt><trkpt lat="45.8191815" lon="11.7625348"><ele>717.1666666666666</ele><time>2026-05-03T09:00:54.045Z</time></trkpt><trkpt lat="45.8192689" lon="11.7626061"><ele>717.0</ele><time>2026-05-03T09:00:55.045Z</time></trkpt><trkpt lat="45.8193479" lon="11.7626722"><ele>719.4000000000001</ele><time>2026-05-03T09:00:56.045Z</time></trkpt><trkpt lat="45.8194387" lon="11.7627856"><ele>721.8000000000001</ele><time>2026-05-03T09:00:58.045Z</time></trkpt><trkpt lat="45.819506" lon="11.7628644"><ele>724.2</ele><time>2026-05-03T09:01:00.045Z</time></trkpt><trkpt lat="45.8195686" lon="11.7629363"><ele>726.6</ele><time>2026-05-03T09:01:02.045Z</time></trkpt><trkpt lat="45.8196491" lon="11.7630061"><ele>729.0</ele><time>2026-05-03T09:01:04.046Z</time></trkpt><trkpt lat="45.8197407" lon="11.7630959"><ele>729.0</ele><time>2026-05-03T09:01:06.045Z</time></trkpt><trkpt lat="45.8198507" lon="11.7631756"><ele>729.0</ele><time>2026-05-03T09:01:08.046Z</time></trkpt><trkpt lat="45.8199122" lon="11.7632236"><ele>729.0</ele><time>2026-05-03T09:01:09.044Z</time></trkpt><trkpt lat="45.8199838" lon="11.7632897"><ele>729.0</ele><time>2026-05-03T09:01:10.046Z</time></trkpt><trkpt lat="45.8200466" lon="11.7633717"><ele>729.0</ele><time>2026-05-03T09:01:11.044Z</time></trkpt><trkpt lat="45.8201032" lon="11.7634577"><ele>729.0</ele><time>2026-05-03T09:01:12.046Z</time></trkpt><trkpt lat="45.8201541" lon="11.7635543"><ele>733.4000000000001</ele><time>2026-05-03T09:01:13.045Z</time></trkpt><trkpt lat="45.8201906" lon="11.7636656"><ele>737.8</ele><time>2026-05-03T09:01:14.045Z</time></trkpt><trkpt lat="45.8202171" lon="11.7637891"><ele>742.2</ele><time>2026-05-03T09:01:15.045Z</time></trkpt><trkpt lat="45.8202292" lon="11.7639269"><ele>746.5999999999999</ele><time>2026-05-03T09:01:16.046Z</time></trkpt><trkpt lat="45.8202345" lon="11.7640682"><ele>751.0</ele><time>2026-05-03T09:01:17.045Z</time></trkpt><trkpt lat="45.8202474" lon="11.7641939"><ele>751.0</ele><time>2026-05-03T09:01:18.045Z</time></trkpt><trkpt lat="45.8202744" lon="11.7643307"><ele>751.0</ele><time>2026-05-03T09:01:19.045Z</time></trkpt><trkpt lat="45.8203115" lon="11.7644608"><ele>751.0</ele><time>2026-05-03T09:01:20.044Z</time></trkpt><trkpt lat="45.8203541" lon="11.7645942"><ele>751.0</ele><time>2026-05-03T09:01:21.045Z</time></trkpt><trkpt lat="45.820397" lon="11.7647275"><ele>751.0</ele><time>2026-05-03T09:01:22.046Z</time></trkpt><trkpt lat="45.820436" lon="11.764869"><ele>749.4</ele><time>2026-05-03T09:01:23.045Z</time></trkpt><trkpt lat="45.820472" lon="11.7650072"><ele>747.8</ele><time>2026-05-03T09:01:24.045Z</time></trkpt><trkpt lat="45.820507" lon="11.7651441"><ele>746.1999999999999</ele><time>2026-05-03T09:01:25.046Z</time></trkpt><trkpt lat="45.8205527" lon="11.7652697"><ele>744.5999999999999</ele><time>2026-05-03T09:01:26.044Z</time></trkpt><trkpt lat="45.8206109" lon="11.7653759"><ele>743.0</ele><time>2026-05-03T09:01:27.046Z</time></trkpt><trkpt lat="45.8206676" lon="11.765463"><ele>741.2</ele><time>2026-05-03T09:01:28.045Z</time></trkpt><trkpt lat="45.8207144" lon="11.7655385"><ele>739.4</ele><time>2026-05-03T09:01:29.045Z</time></trkpt><trkpt lat="45.8207966" lon="11.765652"><ele>737.6</ele><time>2026-05-03T09:01:31.045Z</time></trkpt><trkpt lat="45.8209053" lon="11.76569"><ele>735.8000000000001</ele><time>2026-05-03T09:01:33.045Z</time></trkpt><trkpt lat="45.8209712" lon="11.7655754"><ele>734.0</ele><time>2026-05-03T09:01:35.045Z</time></trkpt><trkpt lat="45.8209634" lon="11.7654794"><ele>734.0</ele><time>2026-05-03T09:01:36.045Z</time></trkpt><trkpt lat="45.8209337" lon="11.765375"><ele>734.0</ele><time>2026-05-03T09:01:37.045Z</time></trkpt><trkpt lat="45.8209017" lon="11.7652572"><ele>734.0</ele><time>2026-05-03T09:01:38.045Z</time></trkpt><trkpt lat="45.8208669" lon="11.7651204"><ele>734.0</ele><time>2026-05-03T09:01:39.044Z</time></trkpt><trkpt lat="45.8208386" lon="11.7649802"><ele>734.0</ele><time>2026-05-03T09:01:40.046Z</time></trkpt><trkpt lat="45.8208258" lon="11.7648682"><ele>734.0</ele><time>2026-05-03T09:01:41.045Z</time></trkpt><trkpt lat="45.8208161" lon="11.7647567"><ele>735.5</ele><time>2026-05-03T09:01:42.046Z</time></trkpt><trkpt lat="45.8208181" lon="11.7646409"><ele>737.0</ele><time>2026-05-03T09:01:43.045Z</time></trkpt><trkpt lat="45.8208352" lon="11.7645256"><ele>738.5</ele><time>2026-05-03T09:01:44.044Z</time></trkpt><trkpt lat="45.8208636" lon="11.7644171"><ele>740.0</ele><time>2026-05-03T09:01:45.046Z</time></trkpt><trkpt lat="45.8208935" lon="11.7643086"><ele>741.5</ele><time>2026-05-03T09:01:46.046Z</time></trkpt><trkpt lat="45.8209173" lon="11.7642002"><ele>743.0</ele><time>2026-05-03T09:01:47.045Z</time></trkpt><trkpt lat="45.8209434" lon="11.764092"><ele>744.3333333333333</ele><time>2026-05-03T09:01:48.044Z</time></trkpt><trkpt lat="45.8209672" lon="11.7639905"><ele>745.6666666666666</ele><time>2026-05-03T09:01:49.045Z</time></trkpt><trkpt lat="45.8209948" lon="11.7638825"><ele>747.0</ele><time>2026-05-03T09:01:50.045Z</time></trkpt><trkpt lat="45.8210241" lon="11.763777"><ele>748.3333333333334</ele><time>2026-05-03T09:01:51.045Z</time></trkpt><trkpt lat="45.8210522" lon="11.7636721"><ele>749.6666666666667</ele><time>2026-05-03T09:01:52.044Z</time></trkpt><trkpt lat="45.8210865" lon="11.7635795"><ele>751.0</ele><time>2026-05-03T09:01:53.045Z</time></trkpt><trkpt lat="45.8211185" lon="11.763498"><ele>753.5999999999999</ele><time>2026-05-03T09:01:54.045Z</time></trkpt><trkpt lat="45.82115" lon="11.763414"><ele>756.2</ele><time>2026-05-03T09:01:55.046Z</time></trkpt><trkpt lat="45.8211865" lon="11.7633394"><ele>758.8</ele><time>2026-05-03T09:01:56.046Z</time></trkpt><trkpt lat="45.8212413" lon="11.7631855"><ele>761.4000000000001</ele><time>2026-05-03T09:01:58.046Z</time></trkpt><trkpt lat="45.8212771" lon="11.7630256"><ele>764.0</ele><time>2026-05-03T09:02:00.044Z</time></trkpt><trkpt lat="45.8213113" lon="11.7628809"><ele>764.0</ele><time>2026-05-03T09:02:02.046Z</time></trkpt><trkpt lat="45.8213842" lon="11.7628365"><ele>764.0</ele><time>2026-05-03T09:02:04.045Z</time></trkpt><trkpt lat="45.8214434" lon="11.7629323"><ele>764.0</ele><time>2026-05-03T09:02:06.044Z</time></trkpt><trkpt lat="45.8214579" lon="11.7631232"><ele>764.0</ele><time>2026-05-03T09:02:08.046Z</time></trkpt><trkpt lat="45.8214843" lon="11.7632281"><ele>764.0</ele><time>2026-05-03T09:02:09.045Z</time></trkpt><trkpt lat="45.8215194" lon="11.7633304"><ele>764.0</ele><time>2026-05-03T09:02:10.045Z</time></trkpt><trkpt lat="45.821563" lon="11.7634275"><ele>764.0</ele><time>2026-05-03T09:02:11.045Z</time></trkpt><trkpt lat="45.8216147" lon="11.763511"><ele>764.0</ele><time>2026-05-03T09:02:12.044Z</time></trkpt><trkpt lat="45.8216833" lon="11.7635722"><ele>764.0</ele><time>2026-05-03T09:02:13.045Z</time></trkpt><trkpt lat="45.821758" lon="11.7636032"><ele>764.0</ele><time>2026-05-03T09:02:14.046Z</time></trkpt><trkpt lat="45.8218364" lon="11.7636161"><ele>764.0</ele><time>2026-05-03T09:02:15.046Z</time></trkpt><trkpt lat="45.821913" lon="11.7636175"><ele>768.6666666666666</ele><time>2026-05-03T09:02:16.046Z</time></trkpt><trkpt lat="45.8219878" lon="11.763617"><ele>773.3333333333333</ele><time>2026-05-03T09:02:17.045Z</time></trkpt><trkpt lat="45.8220647" lon="11.7636204"><ele>778.0</ele><time>2026-05-03T09:02:18.045Z</time></trkpt><trkpt lat="45.8221425" lon="11.7636332"><ele>782.6666666666666</ele><time>2026-05-03T09:02:19.044Z</time></trkpt><trkpt lat="45.8222205" lon="11.7636507"><ele>787.3333333333334</ele><time>2026-05-03T09:02:20.045Z</time></trkpt><trkpt lat="45.8222995" lon="11.7636632"><ele>792.0</ele><time>2026-05-03T09:02:21.045Z</time></trkpt><trkpt lat="45.822376" lon="11.7636586"><ele>792.0</ele><time>2026-05-03T09:02:22.045Z</time></trkpt><trkpt lat="45.8224472" lon="11.7636233"><ele>792.0</ele><time>2026-05-03T09:02:23.045Z</time></trkpt><trkpt lat="45.8225003" lon="11.7635447"><ele>792.0</ele><time>2026-05-03T09:02:24.046Z</time></trkpt><trkpt lat="45.8225305" lon="11.7634453"><ele>792.0</ele><time>2026-05-03T09:02:25.045Z</time></trkpt><trkpt lat="45.8225512" lon="11.7633335"><ele>792.0</ele><time>2026-05-03T09:02:26.046Z</time></trkpt><trkpt lat="45.8225675" lon="11.7632276"><ele>792.0</ele><time>2026-05-03T09:02:27.046Z</time></trkpt><trkpt lat="45.8225707" lon="11.7631281"><ele>790.6</ele><time>2026-05-03T09:02:28.046Z</time></trkpt><trkpt lat="45.8225722" lon="11.7630266"><ele>789.2</ele><time>2026-05-03T09:02:29.045Z</time></trkpt><trkpt lat="45.8225759" lon="11.7628716"><ele>787.8</ele><time>2026-05-03T09:03:01.045Z</time></trkpt><trkpt lat="45.8225922" lon="11.7627325"><ele>786.4</ele><time>2026-05-03T09:03:02.045Z</time></trkpt><trkpt lat="45.8226027" lon="11.7625935"><ele>785.0</ele><time>2026-05-03T09:03:03.044Z</time></trkpt><trkpt lat="45.8226174" lon="11.7624421"><ele>784.6666666666667</ele><time>2026-05-03T09:03:04.046Z</time></trkpt><trkpt lat="45.8226092" lon="11.7623176"><ele>784.3333333333334</ele><time>2026-05-03T09:03:05.045Z</time></trkpt><trkpt lat="45.8226227" lon="11.7621942"><ele>784.0</ele><time>2026-05-03T09:03:06.044Z</time></trkpt><trkpt lat="45.8226261" lon="11.7620934"><ele>783.6666666666667</ele><time>2026-05-03T09:03:07.045Z</time></trkpt><trkpt lat="45.8227208" lon="11.7620696"><ele>783.3333333333334</ele><time>2026-05-03T09:03:09.046Z</time></trkpt><trkpt lat="45.8227656" lon="11.762171"><ele>783.0</ele><time>2026-05-03T09:03:11.046Z</time></trkpt><trkpt lat="45.8227988" lon="11.7623983"><ele>792.0</ele><time>2026-05-03T09:03:13.045Z</time></trkpt><trkpt lat="45.8228166" lon="11.7625381"><ele>801.0</ele><time>2026-05-03T09:03:14.045Z</time></trkpt><trkpt lat="45.8228401" lon="11.7626778"><ele>810.0</ele><time>2026-05-03T09:03:15.045Z</time></trkpt><trkpt lat="45.8228747" lon="11.7628487"><ele>819.0</ele><time>2026-05-03T09:03:16.045Z</time></trkpt><trkpt lat="45.8229172" lon="11.763047"><ele>819.0</ele><time>2026-05-03T09:03:17.045Z</time></trkpt><trkpt lat="45.822983" lon="11.7632182"><ele>819.0</ele><time>2026-05-03T09:03:18.045Z</time></trkpt><trkpt lat="45.8230629" lon="11.7633764"><ele>819.0</ele><time>2026-05-03T09:03:19.045Z</time></trkpt><trkpt lat="45.8231422" lon="11.7635208"><ele>819.0</ele><time>2026-05-03T09:03:20.045Z</time></trkpt><trkpt lat="45.8232053" lon="11.7636598"><ele>820.0</ele><time>2026-05-03T09:03:21.046Z</time></trkpt><trkpt lat="45.8232526" lon="11.7638009"><ele>821.0</ele><time>2026-05-03T09:03:22.045Z</time></trkpt><trkpt lat="45.8232239" lon="11.7639974"><ele>822.0</ele><time>2026-05-03T09:03:23.045Z</time></trkpt><trkpt lat="45.8231709" lon="11.7642052"><ele>823.0</ele><time>2026-05-03T09:03:24.045Z</time></trkpt><trkpt lat="45.8230732" lon="11.7643922"><ele>824.5</ele><time>2026-05-03T09:03:25.045Z</time></trkpt><trkpt lat="45.8230279" lon="11.7645808"><ele>826.0</ele><time>2026-05-03T09:03:26.045Z</time></trkpt><trkpt lat="45.8230036" lon="11.7647484"><ele>827.5</ele><time>2026-05-03T09:03:27.046Z</time></trkpt><trkpt lat="45.8230022" lon="11.7648967"><ele>829.0</ele><time>2026-05-03T09:03:28.044Z</time></trkpt><trkpt lat="45.8230261" lon="11.7650562"><ele>829.0</ele><time>2026-05-03T09:03:29.045Z</time></trkpt><trkpt lat="45.8230999" lon="11.7651869"><ele>829.0</ele><time>2026-05-03T09:03:30.045Z</time></trkpt><trkpt lat="45.8231719" lon="11.7653369"><ele>829.0</ele><time>2026-05-03T09:03:31.044Z</time></trkpt><trkpt lat="45.8232175" lon="11.765497"><ele>829.0</ele><time>2026-05-03T09:03:32.045Z</time></trkpt><trkpt lat="45.8232338" lon="11.7656972"><ele>829.0</ele><time>2026-05-03T09:03:33.045Z</time></trkpt><trkpt lat="45.8232501" lon="11.7658981"><ele>829.0</ele><time>2026-05-03T09:03:34.046Z</time></trkpt><trkpt lat="45.823222" lon="11.7661053"><ele>829.0</ele><time>2026-05-03T09:03:35.046Z</time></trkpt><trkpt lat="45.8231542" lon="11.7663433"><ele>830.0</ele><time>2026-05-03T09:03:36.046Z</time></trkpt><trkpt lat="45.8231363" lon="11.7664889"><ele>831.0</ele><time>2026-05-03T09:03:37.045Z</time></trkpt><trkpt lat="45.823174" lon="11.7666573"><ele>832.0</ele><time>2026-05-03T09:03:38.046Z</time></trkpt><trkpt lat="45.8232361" lon="11.7668168"><ele>833.0</ele><time>2026-05-03T09:03:39.045Z</time></trkpt><trkpt lat="45.8232923" lon="11.7669979"><ele>833.0</ele><time>2026-05-03T09:03:40.046Z</time></trkpt><trkpt lat="45.8233169" lon="11.7671807"><ele>833.0</ele><time>2026-05-03T09:03:41.045Z</time></trkpt><trkpt lat="45.8233572" lon="11.7673546"><ele>833.0</ele><time>2026-05-03T09:03:42.045Z</time></trkpt><trkpt lat="45.8234113" lon="11.7674987"><ele>833.0</ele><time>2026-05-03T09:03:43.045Z</time></trkpt><trkpt lat="45.8234877" lon="11.7676493"><ele>842.25</ele><time>2026-05-03T09:03:44.045Z</time></trkpt><trkpt lat="45.823573" lon="11.7677941"><ele>851.5</ele><time>2026-05-03T09:03:45.045Z</time></trkpt><trkpt lat="45.8236482" lon="11.7679533"><ele>860.75</ele><time>2026-05-03T09:03:46.046Z</time></trkpt><trkpt lat="45.8236882" lon="11.7681505"><ele>870.0</ele><time>2026-05-03T09:03:47.045Z</time></trkpt><trkpt lat="45.8237094" lon="11.7683437"><ele>868.75</ele><time>2026-05-03T09:03:48.046Z</time></trkpt><trkpt lat="45.8237297" lon="11.7685347"><ele>867.5</ele><time>2026-05-03T09:03:49.045Z</time></trkpt><trkpt lat="45.8237633" lon="11.768716"><ele>866.25</ele><time>2026-05-03T09:03:50.045Z</time></trkpt><trkpt lat="45.8237976" lon="11.7688984"><ele>865.0</ele><time>2026-05-03T09:03:51.046Z</time></trkpt><trkpt lat="45.8238319" lon="11.7690629"><ele>865.0</ele><time>2026-05-03T09:03:52.046Z</time></trkpt><trkpt lat="45.8238524" lon="11.7692088"><ele>865.0</ele><time>2026-05-03T09:03:53.046Z</time></trkpt><trkpt lat="45.8238875" lon="11.7693335"><ele>865.0</ele><time>2026-05-03T09:03:54.045Z</time></trkpt><trkpt lat="45.8239376" lon="11.7694487"><ele>865.0</ele><time>2026-05-03T09:03:55.045Z</time></trkpt><trkpt lat="45.8239982" lon="11.7695367"><ele>865.0</ele><time>2026-05-03T09:03:56.044Z</time></trkpt><trkpt lat="45.8240567" lon="11.7696051"><ele>863.2</ele><time>2026-05-03T09:03:57.046Z</time></trkpt><trkpt lat="45.8241182" lon="11.7696738"><ele>861.4</ele><time>2026-05-03T09:03:58.045Z</time></trkpt><trkpt lat="45.8241511" lon="11.769766"><ele>859.5999999999999</ele><time>2026-05-03T09:03:59.045Z</time></trkpt><trkpt lat="45.8241887" lon="11.7698579"><ele>857.8</ele><time>2026-05-03T09:04:00.045Z</time></trkpt><trkpt lat="45.8241571" lon="11.7700772"><ele>856.0</ele><time>2026-05-03T09:04:02.046Z</time></trkpt><trkpt lat="45.8241615" lon="11.7701945"><ele>854.6666666666666</ele><time>2026-05-03T09:04:03.045Z</time></trkpt><trkpt lat="45.8241605" lon="11.7703152"><ele>853.3333333333333</ele><time>2026-05-03T09:04:04.045Z</time></trkpt><trkpt lat="45.824178" lon="11.7704306"><ele>852.0</ele><time>2026-05-03T09:04:05.044Z</time></trkpt><trkpt lat="45.8242186" lon="11.7705247"><ele>850.6666666666667</ele><time>2026-05-03T09:04:06.046Z</time></trkpt><trkpt lat="45.8242433" lon="11.7706132"><ele>849.3333333333334</ele><time>2026-05-03T09:04:07.045Z</time></trkpt><trkpt lat="45.8243152" lon="11.7707304"><ele>848.0</ele><time>2026-05-03T09:04:09.046Z</time></trkpt><trkpt lat="45.8244114" lon="11.7708118"><ele>854.4</ele><time>2026-05-03T09:04:11.046Z</time></trkpt><trkpt lat="45.8245197" lon="11.7708288"><ele>860.8</ele><time>2026-05-03T09:04:13.045Z</time></trkpt><trkpt lat="45.8246193" lon="11.7707733"><ele>867.2</ele><time>2026-05-03T09:04:15.046Z</time></trkpt><trkpt lat="45.8246798" lon="11.7706208"><ele>873.6</ele><time>2026-05-03T09:04:17.045Z</time></trkpt><trkpt lat="45.8246973" lon="11.7705197"><ele>880.0</ele><time>2026-05-03T09:04:18.045Z</time></trkpt><trkpt lat="45.8247144" lon="11.7704048"><ele>880.0</ele><time>2026-05-03T09:04:19.044Z</time></trkpt><trkpt lat="45.8247201" lon="11.7702808"><ele>880.0</ele><time>2026-05-03T09:04:20.046Z</time></trkpt><trkpt lat="45.824706" lon="11.7701476"><ele>880.0</ele><time>2026-05-03T09:04:21.045Z</time></trkpt><trkpt lat="45.8246646" lon="11.7700155"><ele>880.0</ele><time>2026-05-03T09:04:22.045Z</time></trkpt><trkpt lat="45.8246085" lon="11.7698897"><ele>880.0</ele><time>2026-05-03T09:04:23.046Z</time></trkpt><trkpt lat="45.8245426" lon="11.7697549"><ele>881.75</ele><time>2026-05-03T09:04:24.044Z</time></trkpt><trkpt lat="45.8244773" lon="11.7696226"><ele>883.5</ele><time>2026-05-03T09:04:25.045Z</time></trkpt><trkpt lat="45.824425" lon="11.7694637"><ele>885.25</ele><time>2026-05-03T09:04:26.046Z</time></trkpt><trkpt lat="45.824371" lon="11.7693107"><ele>887.0</ele><time>2026-05-03T09:04:27.046Z</time></trkpt><trkpt lat="45.8243389" lon="11.7691395"><ele>890.0</ele><time>2026-05-03T09:04:28.047Z</time></trkpt><trkpt lat="45.8243275" lon="11.7690108"><ele>893.0</ele><time>2026-05-03T09:04:29.046Z</time></trkpt><trkpt lat="45.824298" lon="11.7688557"><ele>896.0</ele><time>2026-05-03T09:04:30.045Z</time></trkpt><trkpt lat="45.8242739" lon="11.7687124"><ele>899.0</ele><time>2026-05-03T09:04:31.047Z</time></trkpt><trkpt lat="45.8242578" lon="11.7686024"><ele>902.0</ele><time>2026-05-03T09:04:32.046Z</time></trkpt><trkpt lat="45.8242861" lon="11.7684587"><ele>903.1666666666667</ele><time>2026-05-03T09:04:33.046Z</time></trkpt><trkpt lat="45.8243001" lon="11.768319"><ele>904.3333333333334</ele><time>2026-05-03T09:04:34.047Z</time></trkpt><trkpt lat="45.8243177" lon="11.7681784"><ele>905.5</ele><time>2026-05-03T09:04:35.046Z</time></trkpt><trkpt lat="45.8243391" lon="11.7680641"><ele>906.6666666666667</ele><time>2026-05-03T09:04:36.046Z</time></trkpt><trkpt lat="45.824358" lon="11.7679638"><ele>907.8333333333334</ele><time>2026-05-03T09:04:37.046Z</time></trkpt><trkpt lat="45.8243857" lon="11.7678807"><ele>909.0</ele><time>2026-05-03T09:04:38.046Z</time></trkpt><trkpt lat="45.8244079" lon="11.7677282"><ele>908.8000000000001</ele><time>2026-05-03T09:04:40.045Z</time></trkpt><trkpt lat="45.8244275" lon="11.7675503"><ele>908.6000000000001</ele><time>2026-05-03T09:04:42.046Z</time></trkpt><trkpt lat="45.8244473" lon="11.7674317"><ele>908.4</ele><time>2026-05-03T09:04:43.047Z</time></trkpt><trkpt lat="45.8244827" lon="11.7673177"><ele>908.2</ele><time>2026-05-03T09:04:44.045Z</time></trkpt><trkpt lat="45.8245367" lon="11.7672156"><ele>908.0</ele><time>2026-05-03T09:04:45.046Z</time></trkpt><trkpt lat="45.8245931" lon="11.7671277"><ele>908.0000000000001</ele><time>2026-05-03T09:04:46.046Z</time></trkpt><trkpt lat="45.8246523" lon="11.7670516"><ele>908.0</ele><time>2026-05-03T09:04:47.046Z</time></trkpt><trkpt lat="45.8247075" lon="11.7669733"><ele>908.0</ele><time>2026-05-03T09:04:48.047Z</time></trkpt><trkpt lat="45.8247536" lon="11.7668991"><ele>908.0</ele><time>2026-05-03T09:04:49.046Z</time></trkpt><trkpt lat="45.8248122" lon="11.766759"><ele>908.0000000000001</ele><time>2026-05-03T09:04:51.046Z</time></trkpt><trkpt lat="45.8248449" lon="11.7666493"><ele>908.0</ele><time>2026-05-03T09:04:53.046Z</time></trkpt><trkpt lat="45.8248875" lon="11.766555"><ele>908.0000000000001</ele><time>2026-05-03T09:04:55.046Z</time></trkpt><trkpt lat="45.8249672" lon="11.7665538"><ele>908.0</ele><time>2026-05-03T09:04:57.047Z</time></trkpt><trkpt lat="45.8249782" lon="11.7666924"><ele>908.0</ele><time>2026-05-03T09:04:59.046Z</time></trkpt><trkpt lat="45.8249567" lon="11.7667856"><ele>908.0</ele><time>2026-05-03T09:05:00.046Z</time></trkpt><trkpt lat="45.8249207" lon="11.7668757"><ele>908.0000000000001</ele><time>2026-05-03T09:05:01.046Z</time></trkpt><trkpt lat="45.8248749" lon="11.7669675"><ele>908.0</ele><time>2026-05-03T09:05:02.046Z</time></trkpt><trkpt lat="45.8248294" lon="11.7670592"><ele>908.0000000000001</ele><time>2026-05-03T09:05:03.047Z</time></trkpt><trkpt lat="45.8247859" lon="11.7671497"><ele>908.0</ele><time>2026-05-03T09:05:04.047Z</time></trkpt><trkpt lat="45.8247514" lon="11.7672391"><ele>908.0</ele><time>2026-05-03T09:05:05.046Z</time></trkpt><trkpt lat="45.8247264" lon="11.7673323"><ele>908.0</ele><time>2026-05-03T09:05:06.046Z</time></trkpt><trkpt lat="45.8247054" lon="11.7674316"><ele>908.0000000000001</ele><time>2026-05-03T09:05:07.046Z</time></trkpt><trkpt lat="45.8246963" lon="11.7675395"><ele>908.0</ele><time>2026-05-03T09:05:08.046Z</time></trkpt><trkpt lat="45.8246923" lon="11.7676653"><ele>908.1666666666667</ele><time>2026-05-03T09:05:09.046Z</time></trkpt><trkpt lat="45.8246942" lon="11.7677776"><ele>908.3333333333334</ele><time>2026-05-03T09:05:10.046Z</time></trkpt><trkpt lat="45.8247073" lon="11.7678871"><ele>908.5</ele><time>2026-05-03T09:05:11.046Z</time></trkpt><trkpt lat="45.8247296" lon="11.767993"><ele>908.6666666666667</ele><time>2026-05-03T09:05:12.047Z</time></trkpt><trkpt lat="45.8247544" lon="11.7681003"><ele>908.8333333333334</ele><time>2026-05-03T09:05:13.047Z</time></trkpt><trkpt lat="45.8247858" lon="11.7682079"><ele>909.0</ele><time>2026-05-03T09:05:14.046Z</time></trkpt><trkpt lat="45.8248225" lon="11.7683258"><ele>909.0</ele><time>2026-05-03T09:05:15.047Z</time></trkpt><trkpt lat="45.8248582" lon="11.768454"><ele>909.0000000000001</ele><time>2026-05-03T09:05:16.045Z</time></trkpt><trkpt lat="45.824899" lon="11.7685719"><ele>909.0000000000001</ele><time>2026-05-03T09:05:17.046Z</time></trkpt><trkpt lat="45.8249477" lon="11.7686855"><ele>909.0</ele><time>2026-05-03T09:05:18.046Z</time></trkpt><trkpt lat="45.8249946" lon="11.7687963"><ele>909.0</ele><time>2026-05-03T09:05:19.045Z</time></trkpt><trkpt lat="45.8250474" lon="11.7689021"><ele>907.6</ele><time>2026-05-03T09:05:20.047Z</time></trkpt><trkpt lat="45.8251126" lon="11.7690004"><ele>906.2</ele><time>2026-05-03T09:05:21.046Z</time></trkpt><trkpt lat="45.8251875" lon="11.7690878"><ele>904.8000000000001</ele><time>2026-05-03T09:05:22.045Z</time></trkpt><trkpt lat="45.8252574" lon="11.7691697"><ele>903.4000000000001</ele><time>2026-05-03T09:05:23.046Z</time></trkpt><trkpt lat="45.8253382" lon="11.7692475"><ele>902.0</ele><time>2026-05-03T09:05:24.046Z</time></trkpt><trkpt lat="45.8254163" lon="11.7693179"><ele>903.5000000000001</ele><time>2026-05-03T09:05:25.046Z</time></trkpt><trkpt lat="45.8254982" lon="11.7693818"><ele>905.0</ele><time>2026-05-03T09:05:26.046Z</time></trkpt><trkpt lat="45.8255752" lon="11.7694438"><ele>906.5</ele><time>2026-05-03T09:05:27.046Z</time></trkpt><trkpt lat="45.8256556" lon="11.7694901"><ele>908.0</ele><time>2026-05-03T09:05:28.046Z</time></trkpt><trkpt lat="45.8257275" lon="11.7695358"><ele>909.5000000000001</ele><time>2026-05-03T09:05:29.047Z</time></trkpt><trkpt lat="45.8258055" lon="11.7695772"><ele>911.0</ele><time>2026-05-03T09:05:30.046Z</time></trkpt><trkpt lat="45.8258757" lon="11.7696052"><ele>911.0000000000001</ele><time>2026-05-03T09:05:31.047Z</time></trkpt><trkpt lat="45.8259492" lon="11.7696331"><ele>911.0</ele><time>2026-05-03T09:05:32.046Z</time></trkpt><trkpt lat="45.8260231" lon="11.7696575"><ele>911.0</ele><time>2026-05-03T09:05:33.046Z</time></trkpt><trkpt lat="45.8260983" lon="11.7696901"><ele>911.0</ele><time>2026-05-03T09:05:34.045Z</time></trkpt><trkpt lat="45.8261743" lon="11.7697312"><ele>911.0000000000001</ele><time>2026-05-03T09:05:35.046Z</time></trkpt><trkpt lat="45.8262479" lon="11.7697798"><ele>911.0</ele><time>2026-05-03T09:05:36.046Z</time></trkpt><trkpt lat="45.8263032" lon="11.769829"><ele>908.0</ele><time>2026-05-03T09:05:37.045Z</time></trkpt><trkpt lat="45.8247054" lon="11.7674316"><ele>908.0000000000001</ele><time>2026-05-03T09:05:07.046Z</time></trkpt><trkpt lat="45.8246963" lon="11.7675395"><ele>908.0</ele><time>2026-05-03T09:05:08.046Z</time></trkpt><trkpt lat="45.8246923" lon="11.7676653"><ele>908.0</ele><time>2026-05-03T09:05:09.046Z</time></trkpt><trkpt lat="45.8246942" lon="11.7677776"><ele>908.0</ele><time>2026-05-03T09:05:10.046Z</time></trkpt><trkpt lat="45.8247073" lon="11.7678871"><ele>908.0000000000001</ele><time>2026-05-03T09:05:11.046Z</time></trkpt><trkpt lat="45.8247296" lon="11.767993"><ele>908.0</ele><time>2026-05-03T09:05:12.047Z</time></trkpt><trkpt lat="45.8247544" lon="11.7681003"><ele>908.2</ele><time>2026-05-03T09:05:13.047Z</time></trkpt><trkpt lat="45.8247858" lon="11.7682079"><ele>908.4</ele><time>2026-05-03T09:05:14.046Z</time></trkpt><trkpt lat="45.8248225" lon="11.7683258"><ele>908.6000000000001</ele><time>2026-05-03T09:05:15.047Z</time></trkpt><trkpt lat="45.8248582" lon="11.768454"><ele>908.8000000000001</ele><time>2026-05-03T09:05:16.045Z</time></trkpt><trkpt lat="45.824899" lon="11.7685719"><ele>909.0</ele><time>2026-05-03T09:05:17.046Z</time></trkpt><trkpt lat="45.8249477" lon="11.7686855"><ele>907.6</ele><time>2026-05-03T09:05:18.046Z</time></trkpt><trkpt lat="45.8249946" lon="11.7687963"><ele>906.2</ele><time>2026-05-03T09:05:19.045Z</time></trkpt><trkpt lat="45.8250474" lon="11.7689021"><ele>904.8000000000001</ele><time>2026-05-03T09:05:20.047Z</time></trkpt><trkpt lat="45.8251126" lon="11.7690004"><ele>903.4000000000001</ele><time>2026-05-03T09:05:21.046Z</time></trkpt><trkpt lat="45.8251875" lon="11.7690878"><ele>902.0</ele><time>2026-05-03T09:05:22.045Z</time></trkpt><trkpt lat="45.8252574" lon="11.7691697"><ele>903.8</ele><time>2026-05-03T09:05:23.046Z</time></trkpt><trkpt lat="45.8253382" lon="11.7692475"><ele>905.6</ele><time>2026-05-03T09:05:24.046Z</time></trkpt><trkpt lat="45.8254163" lon="11.7693179"><ele>907.3999999999999</ele><time>2026-05-03T09:05:25.046Z</time></trkpt><trkpt lat="45.8254982" lon="11.7693818"><ele>909.1999999999999</ele><time>2026-05-03T09:05:26.046Z</time></trkpt><trkpt lat="45.8255752" lon="11.7694438"><ele>911.0</ele><time>2026-05-03T09:05:27.046Z</time></trkpt><trkpt lat="45.8256556" lon="11.7694901"><ele>911.0000000000001</ele><time>2026-05-03T09:05:28.046Z</time></trkpt><trkpt lat="45.8257275" lon="11.7695358"><ele>911.0</ele><time>2026-05-03T09:05:29.047Z</time></trkpt><trkpt lat="45.8258055" lon="11.7695772"><ele>911.0</ele><time>2026-05-03T09:05:30.046Z</time></trkpt><trkpt lat="45.8258757" lon="11.7696052"><ele>911.0</ele><time>2026-05-03T09:05:31.047Z</time></trkpt><trkpt lat="45.8259492" lon="11.7696331"><ele>911.0000000000001</ele><time>2026-05-03T09:05:32.046Z</time></trkpt><trkpt lat="45.8260231" lon="11.7696575"><ele>911.0</ele><time>2026-05-03T09:05:33.046Z</time></trkpt><trkpt lat="45.8260983" lon="11.7696901"><ele>913.6666666666667</ele><time>2026-05-03T09:05:34.045Z</time></trkpt><trkpt lat="45.8261743" lon="11.7697312"><ele>916.3333333333334</ele><time>2026-05-03T09:05:35.046Z</time></trkpt><trkpt lat="45.8262479" lon="11.7697798"><ele>919.0</ele><time>2026-05-03T09:05:36.046Z</time></trkpt><trkpt lat="45.8263032" lon="11.769829"><ele>921.6666666666667</ele><time>2026-05-03T09:05:37.045Z</time></trkpt><trkpt lat="45.8263792" lon="11.7698947"><ele>924.3333333333334</ele><time>2026-05-03T09:05:39.045Z</time></trkpt><trkpt lat="45.8264558" lon="11.7698938"><ele>927.0</ele><time>2026-05-03T09:05:41.047Z</time></trkpt><trkpt lat="45.8264768" lon="11.7697655"><ele>927.0</ele><time>2026-05-03T09:05:43.046Z</time></trkpt><trkpt lat="45.8264335" lon="11.7696912"><ele>927.0</ele><time>2026-05-03T09:05:44.046Z</time></trkpt><trkpt lat="45.8263625" lon="11.7696345"><ele>927.0</ele><time>2026-05-03T09:05:45.045Z</time></trkpt><trkpt lat="45.8262615" lon="11.7695812"><ele>927.0</ele><time>2026-05-03T09:05:46.047Z</time></trkpt><trkpt lat="45.8261392" lon="11.7695219"><ele>927.0</ele><time>2026-05-03T09:05:47.047Z</time></trkpt><trkpt lat="45.8260262" lon="11.7694425"><ele>928.5</ele><time>2026-05-03T09:05:48.047Z</time></trkpt><trkpt lat="45.8259061" lon="11.7693259"><ele>930.0</ele><time>2026-05-03T09:05:49.046Z</time></trkpt><trkpt lat="45.8257871" lon="11.7691963"><ele>931.5</ele><time>2026-05-03T09:05:50.047Z</time></trkpt><trkpt lat="45.8256976" lon="11.7690357"><ele>933.0</ele><time>2026-05-03T09:05:51.046Z</time></trkpt><trkpt lat="45.8256313" lon="11.7688755"><ele>933.0</ele><time>2026-05-03T09:05:52.046Z</time></trkpt><trkpt lat="45.8256008" lon="11.7687087"><ele>933.0</ele><time>2026-05-03T09:05:53.046Z</time></trkpt><trkpt lat="45.8255899" lon="11.7685389"><ele>933.0</ele><time>2026-05-03T09:05:54.047Z</time></trkpt><trkpt lat="45.8255855" lon="11.7683887"><ele>933.0</ele><time>2026-05-03T09:05:55.045Z</time></trkpt><trkpt lat="45.825581" lon="11.7682689"><ele>933.0</ele><time>2026-05-03T09:05:56.047Z</time></trkpt><trkpt lat="45.8255856" lon="11.768172"><ele>933.0</ele><time>2026-05-03T09:05:57.046Z</time></trkpt><trkpt lat="45.8256577" lon="11.7681194"><ele>933.0</ele><time>2026-05-03T09:05:59.047Z</time></trkpt><trkpt lat="45.8256784" lon="11.7682507"><ele>933.0</ele><time>2026-05-03T09:06:01.046Z</time></trkpt><trkpt lat="45.8256684" lon="11.7683675"><ele>933.0</ele><time>2026-05-03T09:06:02.046Z</time></trkpt><trkpt lat="45.8256786" lon="11.7685095"><ele>933.0</ele><time>2026-05-03T09:06:03.046Z</time></trkpt><trkpt lat="45.82572" lon="11.7686488"><ele>933.0</ele><time>2026-05-03T09:06:04.046Z</time></trkpt><trkpt lat="45.8257993" lon="11.7687851"><ele>933.0</ele><time>2026-05-03T09:06:05.047Z</time></trkpt><trkpt lat="45.8258925" lon="11.7688861"><ele>933.0</ele><time>2026-05-03T09:06:06.046Z</time></trkpt><trkpt lat="45.8260013" lon="11.7689504"><ele>933.0</ele><time>2026-05-03T09:06:07.046Z</time></trkpt><trkpt lat="45.8261229" lon="11.769"><ele>937.75</ele><time>2026-05-03T09:06:08.045Z</time></trkpt><trkpt lat="45.8262407" lon="11.7690515"><ele>942.5</ele><time>2026-05-03T09:06:09.046Z</time></trkpt><trkpt lat="45.8263635" lon="11.7690966"><ele>947.25</ele><time>2026-05-03T09:06:10.047Z</time></trkpt><trkpt lat="45.8264961" lon="11.769113"><ele>952.0</ele><time>2026-05-03T09:06:11.046Z</time></trkpt><trkpt lat="45.8266287" lon="11.7691042"><ele>952.0</ele><time>2026-05-03T09:06:12.046Z</time></trkpt><trkpt lat="45.8267512" lon="11.7690838"><ele>952.0</ele><time>2026-05-03T09:06:13.047Z</time></trkpt><trkpt lat="45.8268569" lon="11.7690651"><ele>952.0</ele><time>2026-05-03T09:06:14.047Z</time></trkpt><trkpt lat="45.826963" lon="11.7690492"><ele>952.0</ele><time>2026-05-03T09:06:15.046Z</time></trkpt><trkpt lat="45.8270859" lon="11.7690454"><ele>956.0</ele><time>2026-05-03T09:06:16.046Z</time></trkpt><trkpt lat="45.8272138" lon="11.7690766"><ele>960.0</ele><time>2026-05-03T09:06:17.047Z</time></trkpt><trkpt lat="45.827359" lon="11.7691275"><ele>964.0</ele><time>2026-05-03T09:06:18.045Z</time></trkpt><trkpt lat="45.8275116" lon="11.7691785"><ele>968.0</ele><time>2026-05-03T09:06:19.047Z</time></trkpt><trkpt lat="45.8276632" lon="11.7692236"><ele>971.0</ele><time>2026-05-03T09:06:20.046Z</time></trkpt><trkpt lat="45.8278256" lon="11.7692871"><ele>974.0</ele><time>2026-05-03T09:06:21.047Z</time></trkpt><trkpt lat="45.8279783" lon="11.7693684"><ele>977.0</ele><time>2026-05-03T09:06:22.047Z</time></trkpt><trkpt lat="45.8281185" lon="11.7694529"><ele>977.0</ele><time>2026-05-03T09:06:23.046Z</time></trkpt><trkpt lat="45.8282578" lon="11.7695293"><ele>977.0</ele><time>2026-05-03T09:06:24.047Z</time></trkpt><trkpt lat="45.8283436" lon="11.7696043"><ele>977.0</ele><time>2026-05-03T09:06:25.046Z</time></trkpt><trkpt lat="45.8284448" lon="11.7696884"><ele>977.0</ele><time>2026-05-03T09:06:26.046Z</time></trkpt><trkpt lat="45.8285053" lon="11.7698277"><ele>984.0</ele><time>2026-05-03T09:06:27.047Z</time></trkpt><trkpt lat="45.8285817" lon="11.7700281"><ele>991.0</ele><time>2026-05-03T09:06:28.046Z</time></trkpt><trkpt lat="45.828665" lon="11.7701982"><ele>998.0</ele><time>2026-05-03T09:06:29.046Z</time></trkpt><trkpt lat="45.8286795" lon="11.7703828"><ele>1005.0</ele><time>2026-05-03T09:06:30.047Z</time></trkpt><trkpt lat="45.8286772" lon="11.7705571"><ele>1005.0</ele><time>2026-05-03T09:06:31.046Z</time></trkpt><trkpt lat="45.8286954" lon="11.77067"><ele>1005.0</ele><time>2026-05-03T09:06:32.047Z</time></trkpt><trkpt lat="45.8287361" lon="11.7707694"><ele>1005.0</ele><time>2026-05-03T09:06:33.045Z</time></trkpt><trkpt lat="45.8288055" lon="11.7708477"><ele>1005.0</ele><time>2026-05-03T09:06:34.047Z</time></trkpt><trkpt lat="45.8288916" lon="11.7709206"><ele>1005.0</ele><time>2026-05-03T09:06:35.047Z</time></trkpt><trkpt lat="45.8289861" lon="11.7709569"><ele>1005.0</ele><time>2026-05-03T09:06:36.045Z</time></trkpt><trkpt lat="45.8291344" lon="11.770946"><ele>1005.0</ele><time>2026-05-03T09:06:37.046Z</time></trkpt><trkpt lat="45.829261" lon="11.7709135"><ele>1005.0</ele><time>2026-05-03T09:06:38.046Z</time></trkpt><trkpt lat="45.8293913" lon="11.7708972"><ele>1005.0</ele><time>2026-05-03T09:06:39.046Z</time></trkpt><trkpt lat="45.8295295" lon="11.770899"><ele>1005.0</ele><time>2026-05-03T09:06:40.046Z</time></trkpt><trkpt lat="45.8296825" lon="11.770989"><ele>1002.0</ele><time>2026-05-03T09:06:41.047Z</time></trkpt><trkpt lat="45.8298259" lon="11.771047"><ele>999.0</ele><time>2026-05-03T09:06:42.046Z</time></trkpt><trkpt lat="45.8299511" lon="11.7711791"><ele>996.0</ele><time>2026-05-03T09:06:43.046Z</time></trkpt><trkpt lat="45.8300505" lon="11.77139"><ele>1006.75</ele><time>2026-05-03T09:06:44.045Z</time></trkpt><trkpt lat="45.8301764" lon="11.7715209"><ele>1017.5</ele><time>2026-05-03T09:06:45.047Z</time></trkpt><trkpt lat="45.830289" lon="11.7716358"><ele>1028.25</ele><time>2026-05-03T09:06:46.045Z</time></trkpt><trkpt lat="45.8304101" lon="11.7717432"><ele>1039.0</ele><time>2026-05-03T09:06:47.046Z</time></trkpt><trkpt lat="45.8305508" lon="11.771836"><ele>1041.6666666666665</ele><time>2026-05-03T09:06:48.046Z</time></trkpt><trkpt lat="45.8307033" lon="11.7719019"><ele>1044.3333333333333</ele><time>2026-05-03T09:06:49.046Z</time></trkpt><trkpt lat="45.8308686" lon="11.7719696"><ele>1047.0</ele><time>2026-05-03T09:06:50.046Z</time></trkpt><trkpt lat="45.8310149" lon="11.7720339"><ele>1047.0</ele><time>2026-05-03T09:06:51.046Z</time></trkpt><trkpt lat="45.8311505" lon="11.7720965"><ele>1047.0</ele><time>2026-05-03T09:06:52.046Z</time></trkpt><trkpt lat="45.8312919" lon="11.7721541"><ele>1047.0</ele><time>2026-05-03T09:06:53.045Z</time></trkpt><trkpt lat="45.831376" lon="11.772248"><ele>1047.0</ele><time>2026-05-03T09:06:54.047Z</time></trkpt><trkpt lat="45.8314805" lon="11.7723367"><ele>1047.0</ele><time>2026-05-03T09:06:55.047Z</time></trkpt><trkpt lat="45.8315656" lon="11.7725076"><ele>1047.0</ele><time>2026-05-03T09:06:56.046Z</time></trkpt><trkpt lat="45.8316421" lon="11.7726396"><ele>1047.0</ele><time>2026-05-03T09:06:57.046Z</time></trkpt><trkpt lat="45.8316882" lon="11.772781"><ele>1047.0</ele><time>2026-05-03T09:06:58.046Z</time></trkpt><trkpt lat="45.8316958" lon="11.7729181"><ele>1041.25</ele><time>2026-05-03T09:06:59.045Z</time></trkpt><trkpt lat="45.8317028" lon="11.7730756"><ele>1035.5</ele><time>2026-05-03T09:07:00.046Z</time></trkpt><trkpt lat="45.8316774" lon="11.7732559"><ele>1029.75</ele><time>2026-05-03T09:07:01.046Z</time></trkpt><trkpt lat="45.8316036" lon="11.7734677"><ele>1024.0</ele><time>2026-05-03T09:07:02.046Z</time></trkpt><trkpt lat="45.8315066" lon="11.7735423"><ele>1020.8000000000001</ele><time>2026-05-03T09:07:03.047Z</time></trkpt><trkpt lat="45.8314543" lon="11.7736625"><ele>1017.6000000000001</ele><time>2026-05-03T09:07:04.045Z</time></trkpt><trkpt lat="45.8313933" lon="11.7738046"><ele>1014.4</ele><time>2026-05-03T09:07:05.047Z</time></trkpt><trkpt lat="45.8314558" lon="11.7738895"><ele>1011.2</ele><time>2026-05-03T09:07:06.046Z</time></trkpt><trkpt lat="45.8315221" lon="11.7739662"><ele>1008.0</ele><time>2026-05-03T09:07:07.046Z</time></trkpt><trkpt lat="45.8316083" lon="11.7740228"><ele>1008.0</ele><time>2026-05-03T09:07:08.047Z</time></trkpt><trkpt lat="45.8317079" lon="11.7740744"><ele>1008.0</ele><time>2026-05-03T09:07:09.046Z</time></trkpt><trkpt lat="45.8317862" lon="11.774159"><ele>1008.0</ele><time>2026-05-03T09:07:10.047Z</time></trkpt><trkpt lat="45.8318575" lon="11.7742339"><ele>1008.0</ele><time>2026-05-03T09:07:11.046Z</time></trkpt><trkpt lat="45.8318166" lon="11.7744267"><ele>1008.0</ele><time>2026-05-03T09:07:12.046Z</time></trkpt><trkpt lat="45.8318212" lon="11.7745833"><ele>1015.75</ele><time>2026-05-03T09:07:13.047Z</time></trkpt><trkpt lat="45.8318356" lon="11.7747602"><ele>1023.5</ele><time>2026-05-03T09:07:14.047Z</time></trkpt><trkpt lat="45.8318928" lon="11.7749097"><ele>1031.25</ele><time>2026-05-03T09:07:15.047Z</time></trkpt><trkpt lat="45.8319306" lon="11.7750706"><ele>1039.0</ele><time>2026-05-03T09:07:16.046Z</time></trkpt><trkpt lat="45.8320116" lon="11.7752425"><ele>1039.0</ele><time>2026-05-03T09:07:17.046Z</time></trkpt><trkpt lat="45.8321191" lon="11.7753335"><ele>1039.0</ele><time>2026-05-03T09:07:18.045Z</time></trkpt><trkpt lat="45.8322085" lon="11.7754308"><ele>1039.0</ele><time>2026-05-03T09:07:19.046Z</time></trkpt><trkpt lat="45.832278" lon="11.775549"><ele>1039.0</ele><time>2026-05-03T09:07:20.045Z</time></trkpt><trkpt lat="45.832309" lon="11.7757019"><ele>1039.0</ele><time>2026-05-03T09:07:21.046Z</time></trkpt><trkpt lat="45.8323104" lon="11.7758481"><ele>1039.0</ele><time>2026-05-03T09:07:22.046Z</time></trkpt><trkpt lat="45.8322909" lon="11.7760251"><ele>1039.0</ele><time>2026-05-03T09:07:23.046Z</time></trkpt><trkpt lat="45.8322971" lon="11.7761855"><ele>1039.0</ele><time>2026-05-03T09:07:24.047Z</time></trkpt><trkpt lat="45.8323417" lon="11.7763215"><ele>1039.0</ele><time>2026-05-03T09:07:25.046Z</time></trkpt><trkpt lat="45.8323881" lon="11.7764275"><ele>1045.4</ele><time>2026-05-03T09:07:26.046Z</time></trkpt><trkpt lat="45.832456" lon="11.7765025"><ele>1051.8000000000002</ele><time>2026-05-03T09:07:27.046Z</time></trkpt><trkpt lat="45.8325234" lon="11.776552"><ele>1058.1999999999998</ele><time>2026-05-03T09:07:28.047Z</time></trkpt><trkpt lat="45.8326115" lon="11.7765977"><ele>1064.6</ele><time>2026-05-03T09:07:29.046Z</time></trkpt><trkpt lat="45.8327068" lon="11.7766661"><ele>1071.0</ele><time>2026-05-03T09:07:30.046Z</time></trkpt><trkpt lat="45.8327898" lon="11.7767662"><ele>1066.75</ele><time>2026-05-03T09:07:31.046Z</time></trkpt><trkpt lat="45.8328583" lon="11.7769023"><ele>1062.5</ele><time>2026-05-03T09:07:32.047Z</time></trkpt><trkpt lat="45.8329011" lon="11.7770531"><ele>1058.25</ele><time>2026-05-03T09:07:33.046Z</time></trkpt><trkpt lat="45.8329201" lon="11.7772602"><ele>1054.0</ele><time>2026-05-03T09:07:34.046Z</time></trkpt><trkpt lat="45.8329147" lon="11.7774548"><ele>1054.0</ele><time>2026-05-03T09:07:35.047Z</time></trkpt><trkpt lat="45.8329362" lon="11.7776618"><ele>1054.0</ele><time>2026-05-03T09:07:36.047Z</time></trkpt><trkpt lat="45.8329558" lon="11.7778501"><ele>1054.0</ele><time>2026-05-03T09:07:37.046Z</time></trkpt><trkpt lat="45.8329788" lon="11.7780379"><ele>1054.0</ele><time>2026-05-03T09:07:38.046Z</time></trkpt><trkpt lat="45.832976" lon="11.7782049"><ele>1055.6000000000001</ele><time>2026-05-03T09:07:39.046Z</time></trkpt><trkpt lat="45.8329458" lon="11.7783581"><ele>1057.2</ele><time>2026-05-03T09:07:40.046Z</time></trkpt><trkpt lat="45.8329093" lon="11.7784949"><ele>1058.8000000000002</ele><time>2026-05-03T09:07:41.046Z</time></trkpt><trkpt lat="45.8328131" lon="11.7785465"><ele>1060.4</ele><time>2026-05-03T09:07:42.046Z</time></trkpt><trkpt lat="45.8327275" lon="11.7786368"><ele>1062.0</ele><time>2026-05-03T09:07:43.047Z</time></trkpt><trkpt lat="45.832685" lon="11.7787631"><ele>1053.6</ele><time>2026-05-03T09:07:44.047Z</time></trkpt><trkpt lat="45.8326234" lon="11.7788931"><ele>1045.2</ele><time>2026-05-03T09:07:45.046Z</time></trkpt><trkpt lat="45.8325521" lon="11.7789756"><ele>1036.8</ele><time>2026-05-03T09:07:46.046Z</time></trkpt><trkpt lat="45.8324705" lon="11.7790465"><ele>1028.4</ele><time>2026-05-03T09:07:47.046Z</time></trkpt><trkpt lat="45.8324394" lon="11.7792221"><ele>1020.0</ele><time>2026-05-03T09:07:49.046Z</time></trkpt><trkpt lat="45.8324725" lon="11.7793483"><ele>1022.6</ele><time>2026-05-03T09:07:50.046Z</time></trkpt><trkpt lat="45.8325229" lon="11.77947"><ele>1025.2</ele><time>2026-05-03T09:07:51.046Z</time></trkpt><trkpt lat="45.8325775" lon="11.7795718"><ele>1027.8</ele><time>2026-05-03T09:07:52.047Z</time></trkpt><trkpt lat="45.8326297" lon="11.7796639"><ele>1030.4</ele><time>2026-05-03T09:07:53.046Z</time></trkpt><trkpt lat="45.8326727" lon="11.7797695"><ele>1033.0</ele><time>2026-05-03T09:07:54.046Z</time></trkpt><trkpt lat="45.8326417" lon="11.779915"><ele>1033.0</ele><time>2026-05-03T09:07:55.046Z</time></trkpt><trkpt lat="45.8326388" lon="11.7800157"><ele>1033.0</ele><time>2026-05-03T09:07:56.047Z</time></trkpt><trkpt lat="45.8325639" lon="11.7801615"><ele>1033.0</ele><time>2026-05-03T09:07:57.046Z</time></trkpt><trkpt lat="45.8325018" lon="11.7802806"><ele>1033.0</ele><time>2026-05-03T09:07:58.046Z</time></trkpt><trkpt lat="45.8324438" lon="11.7803674"><ele>1033.0</ele><time>2026-05-03T09:07:59.046Z</time></trkpt><trkpt lat="45.8323169" lon="11.7804598"><ele>1034.4</ele><time>2026-05-03T09:08:00.046Z</time></trkpt><trkpt lat="45.8322366" lon="11.7805862"><ele>1035.8</ele><time>2026-05-03T09:08:01.047Z</time></trkpt><trkpt lat="45.8321505" lon="11.7807056"><ele>1037.2</ele><time>2026-05-03T09:08:02.046Z</time></trkpt><trkpt lat="45.8320884" lon="11.7808109"><ele>1038.6</ele><time>2026-05-03T09:08:03.047Z</time></trkpt><trkpt lat="45.832035" lon="11.7809155"><ele>1040.0</ele><time>2026-05-03T09:08:04.045Z</time></trkpt><trkpt lat="45.8320535" lon="11.7810397"><ele>1040.0</ele><time>2026-05-03T09:08:05.046Z</time></trkpt><trkpt lat="45.8320966" lon="11.781126"><ele>1040.0</ele><time>2026-05-03T09:08:06.046Z</time></trkpt><trkpt lat="45.8321789" lon="11.7812035"><ele>1040.0</ele><time>2026-05-03T09:08:07.046Z</time></trkpt><trkpt lat="45.8322699" lon="11.7812743"><ele>1040.0</ele><time>2026-05-03T09:08:08.047Z</time></trkpt><trkpt lat="45.8323668" lon="11.7813466"><ele>1040.0</ele><time>2026-05-03T09:08:09.046Z</time></trkpt><trkpt lat="45.8324648" lon="11.7814253"><ele>1040.0</ele><time>2026-05-03T09:08:10.047Z</time></trkpt><trkpt lat="45.8325605" lon="11.7814988"><ele>1040.0</ele><time>2026-05-03T09:08:11.047Z</time></trkpt><trkpt lat="45.8326461" lon="11.7815791"><ele>1040.0</ele><time>2026-05-03T09:08:12.045Z</time></trkpt><trkpt lat="45.8327249" lon="11.7816736"><ele>1040.0</ele><time>2026-05-03T09:08:13.046Z</time></trkpt><trkpt lat="45.832809" lon="11.7817717"><ele>1040.0</ele><time>2026-05-03T09:08:14.046Z</time></trkpt><trkpt lat="45.8328707" lon="11.7819009"><ele>1041.0</ele><time>2026-05-03T09:08:15.046Z</time></trkpt><trkpt lat="45.8329375" lon="11.7820166"><ele>1042.0</ele><time>2026-05-03T09:08:16.046Z</time></trkpt><trkpt lat="45.8330084" lon="11.7821249"><ele>1043.0</ele><time>2026-05-03T09:08:17.046Z</time></trkpt><trkpt lat="45.8330743" lon="11.7822368"><ele>1044.0</ele><time>2026-05-03T09:08:18.046Z</time></trkpt><trkpt lat="45.8331406" lon="11.7823458"><ele>1045.0</ele><time>2026-05-03T09:08:19.047Z</time></trkpt><trkpt lat="45.8332146" lon="11.7824553"><ele>1045.0</ele><time>2026-05-03T09:08:20.046Z</time></trkpt><trkpt lat="45.8332914" lon="11.7825581"><ele>1045.0</ele><time>2026-05-03T09:08:21.047Z</time></trkpt><trkpt lat="45.8333726" lon="11.7826507"><ele>1045.0</ele><time>2026-05-03T09:08:22.046Z</time></trkpt><trkpt lat="45.833451" lon="11.782734"><ele>1045.0</ele><time>2026-05-03T09:08:23.046Z</time></trkpt><trkpt lat="45.8335183" lon="11.7828283"><ele>1045.0</ele><time>2026-05-03T09:08:24.046Z</time></trkpt><trkpt lat="45.833596" lon="11.7829053"><ele>1045.2</ele><time>2026-05-03T09:08:25.046Z</time></trkpt><trkpt lat="45.833671" lon="11.7829818"><ele>1045.4</ele><time>2026-05-03T09:08:26.046Z</time></trkpt><trkpt lat="45.8337448" lon="11.7830612"><ele>1045.6</ele><time>2026-05-03T09:08:27.046Z</time></trkpt><trkpt lat="45.8338203" lon="11.783122"><ele>1045.8</ele><time>2026-05-03T09:08:28.046Z</time></trkpt><trkpt lat="45.8338975" lon="11.783183"><ele>1046.0</ele><time>2026-05-03T09:08:29.046Z</time></trkpt><trkpt lat="45.833985" lon="11.7832265"><ele>1046.0</ele><time>2026-05-03T09:08:30.045Z</time></trkpt><trkpt lat="45.8340778" lon="11.7832536"><ele>1046.0</ele><time>2026-05-03T09:08:31.046Z</time></trkpt><trkpt lat="45.8341816" lon="11.7832456"><ele>1046.0</ele><time>2026-05-03T09:08:32.046Z</time></trkpt><trkpt lat="45.8342864" lon="11.7832009"><ele>1046.0</ele><time>2026-05-03T09:08:33.047Z</time></trkpt><trkpt lat="45.8343872" lon="11.7831328"><ele>1046.0</ele><time>2026-05-03T09:08:34.045Z</time></trkpt><trkpt lat="45.83448" lon="11.783051"><ele>1045.75</ele><time>2026-05-03T09:08:35.046Z</time></trkpt><trkpt lat="45.8345766" lon="11.7829634"><ele>1045.5</ele><time>2026-05-03T09:08:36.046Z</time></trkpt><trkpt lat="45.8346778" lon="11.7828686"><ele>1045.25</ele><time>2026-05-03T09:08:37.046Z</time></trkpt><trkpt lat="45.8348025" lon="11.7827704"><ele>1045.0</ele><time>2026-05-03T09:08:38.047Z</time></trkpt><trkpt lat="45.8349229" lon="11.7826746"><ele>1045.0</ele><time>2026-05-03T09:08:39.046Z</time></trkpt><trkpt lat="45.8350445" lon="11.7825842"><ele>1045.0</ele><time>2026-05-03T09:08:40.046Z</time></trkpt><trkpt lat="45.8351639" lon="11.7824823"><ele>1045.0</ele><time>2026-05-03T09:08:41.046Z</time></trkpt><trkpt lat="45.8352888" lon="11.7823657"><ele>1045.0</ele><time>2026-05-03T09:08:42.047Z</time></trkpt><trkpt lat="45.8354193" lon="11.7822491"><ele>1045.0</ele><time>2026-05-03T09:08:43.045Z</time></trkpt><trkpt lat="45.8355547" lon="11.7821367"><ele>1045.0</ele><time>2026-05-03T09:08:44.046Z</time></trkpt><trkpt lat="45.835694" lon="11.7820315"><ele>1045.0</ele><time>2026-05-03T09:08:45.047Z</time></trkpt><trkpt lat="45.8358305" lon="11.7819151"><ele>1044.3333333333333</ele><time>2026-05-03T09:08:46.046Z</time></trkpt><trkpt lat="45.8359675" lon="11.781797"><ele>1043.6666666666667</ele><time>2026-05-03T09:08:47.047Z</time></trkpt><trkpt lat="45.8361036" lon="11.7816796"><ele>1043.0</ele><time>2026-05-03T09:08:48.045Z</time></trkpt><trkpt lat="45.8362364" lon="11.7815629"><ele>1046.25</ele><time>2026-05-03T09:08:49.047Z</time></trkpt><trkpt lat="45.836366" lon="11.7814455"><ele>1049.5</ele><time>2026-05-03T09:08:50.046Z</time></trkpt><trkpt lat="45.8364878" lon="11.7813212"><ele>1052.75</ele><time>2026-05-03T09:08:51.045Z</time></trkpt><trkpt lat="45.8365971" lon="11.7811914"><ele>1056.0</ele><time>2026-05-03T09:08:52.046Z</time></trkpt><trkpt lat="45.8367152" lon="11.7810737"><ele>1058.75</ele><time>2026-05-03T09:08:53.047Z</time></trkpt><trkpt lat="45.836829" lon="11.7809573"><ele>1061.5</ele><time>2026-05-03T09:08:54.046Z</time></trkpt><trkpt lat="45.8369458" lon="11.7808464"><ele>1064.25</ele><time>2026-05-03T09:08:55.047Z</time></trkpt><trkpt lat="45.8370645" lon="11.7807481"><ele>1067.0</ele><time>2026-05-03T09:08:56.046Z</time></trkpt><trkpt lat="45.8371827" lon="11.7806593"><ele>1067.0</ele><time>2026-05-03T09:08:57.045Z</time></trkpt><trkpt lat="45.8372989" lon="11.7805655"><ele>1067.0</ele><time>2026-05-03T09:08:58.047Z</time></trkpt><trkpt lat="45.8374136" lon="11.7804652"><ele>1067.0</ele><time>2026-05-03T09:08:59.046Z</time></trkpt><trkpt lat="45.8375214" lon="11.7803334"><ele>1067.0</ele><time>2026-05-03T09:09:00.047Z</time></trkpt><trkpt lat="45.8376308" lon="11.7801977"><ele>1072.75</ele><time>2026-05-03T09:09:01.046Z</time></trkpt><trkpt lat="45.8377354" lon="11.7800502"><ele>1078.5</ele><time>2026-05-03T09:09:02.047Z</time></trkpt><trkpt lat="45.8378294" lon="11.7798915"><ele>1084.25</ele><time>2026-05-03T09:09:03.047Z</time></trkpt><trkpt lat="45.8379077" lon="11.7797258"><ele>1090.0</ele><time>2026-05-03T09:09:04.046Z</time></trkpt><trkpt lat="45.8379592" lon="11.7795507"><ele>1090.0</ele><time>2026-05-03T09:09:05.047Z</time></trkpt><trkpt lat="45.8379868" lon="11.779367"><ele>1090.0</ele><time>2026-05-03T09:09:06.045Z</time></trkpt><trkpt lat="45.8379799" lon="11.7791813"><ele>1090.0</ele><time>2026-05-03T09:09:07.045Z</time></trkpt><trkpt lat="45.8379609" lon="11.7789923"><ele>1090.0</ele><time>2026-05-03T09:09:08.046Z</time></trkpt><trkpt lat="45.8379439" lon="11.778809"><ele>1090.2</ele><time>2026-05-03T09:09:09.046Z</time></trkpt><trkpt lat="45.8379189" lon="11.7786602"><ele>1090.4</ele><time>2026-05-03T09:09:10.046Z</time></trkpt><trkpt lat="45.8379241" lon="11.7785026"><ele>1090.6</ele><time>2026-05-03T09:09:11.046Z</time></trkpt><trkpt lat="45.8380255" lon="11.7784079"><ele>1090.8</ele><time>2026-05-03T09:09:12.046Z</time></trkpt><trkpt lat="45.8380936" lon="11.7782885"><ele>1091.0</ele><time>2026-05-03T09:09:13.046Z</time></trkpt><trkpt lat="45.8381748" lon="11.7781185"><ele>1090.0</ele><time>2026-05-03T09:09:14.046Z</time></trkpt><trkpt lat="45.8382866" lon="11.7779476"><ele>1089.0</ele><time>2026-05-03T09:09:15.046Z</time></trkpt><trkpt lat="45.838386" lon="11.7777435"><ele>1088.0</ele><time>2026-05-03T09:09:16.046Z</time></trkpt><trkpt lat="45.8384775" lon="11.7775578"><ele>1093.5</ele><time>2026-05-03T09:09:17.046Z</time></trkpt><trkpt lat="45.8385688" lon="11.7773892"><ele>1099.0</ele><time>2026-05-03T09:09:18.046Z</time></trkpt><trkpt lat="45.8386659" lon="11.7772419"><ele>1104.5</ele><time>2026-05-03T09:09:19.046Z</time></trkpt><trkpt lat="45.8387399" lon="11.7770511"><ele>1110.0</ele><time>2026-05-03T09:09:20.046Z</time></trkpt><trkpt lat="45.8388119" lon="11.7768461"><ele>1110.0</ele><time>2026-05-03T09:09:21.046Z</time></trkpt><trkpt lat="45.8388756" lon="11.7766431"><ele>1110.0</ele><time>2026-05-03T09:09:22.047Z</time></trkpt><trkpt lat="45.838939" lon="11.7764505"><ele>1110.0</ele><time>2026-05-03T09:09:23.046Z</time></trkpt><trkpt lat="45.8389887" lon="11.7762576"><ele>1110.0</ele><time>2026-05-03T09:09:24.046Z</time></trkpt><trkpt lat="45.8390412" lon="11.7760814"><ele>1108.0</ele><time>2026-05-03T09:09:25.045Z</time></trkpt><trkpt lat="45.8390807" lon="11.7759002"><ele>1106.0</ele><time>2026-05-03T09:09:26.046Z</time></trkpt><trkpt lat="45.8391192" lon="11.7757385"><ele>1104.0</ele><time>2026-05-03T09:09:27.045Z</time></trkpt><trkpt lat="45.8391565" lon="11.7756104"><ele>1102.0</ele><time>2026-05-03T09:09:28.046Z</time></trkpt><trkpt lat="45.8391921" lon="11.7755178"><ele>1100.0</ele><time>2026-05-03T09:09:29.046Z</time></trkpt><trkpt lat="45.8392597" lon="11.7754029"><ele>1105.4</ele><time>2026-05-03T09:09:31.046Z</time></trkpt><trkpt lat="45.8393193" lon="11.7753461"><ele>1110.8</ele><time>2026-05-03T09:09:32.045Z</time></trkpt><trkpt lat="45.8393901" lon="11.7752564"><ele>1116.2</ele><time>2026-05-03T09:09:33.046Z</time></trkpt><trkpt lat="45.8394744" lon="11.7751441"><ele>1121.6</ele><time>2026-05-03T09:09:34.047Z</time></trkpt><trkpt lat="45.8395502" lon="11.7750143"><ele>1127.0</ele><time>2026-05-03T09:09:35.047Z</time></trkpt><trkpt lat="45.8396361" lon="11.7748697"><ele>1127.0</ele><time>2026-05-03T09:09:36.046Z</time></trkpt><trkpt lat="45.8397372" lon="11.7747339"><ele>1127.0</ele><time>2026-05-03T09:09:37.047Z</time></trkpt><trkpt lat="45.8398461" lon="11.7746114"><ele>1127.0</ele><time>2026-05-03T09:09:38.046Z</time></trkpt><trkpt lat="45.8399422" lon="11.774491"><ele>1127.0</ele><time>2026-05-03T09:09:39.047Z</time></trkpt><trkpt lat="45.8400251" lon="11.7743558"><ele>1123.0</ele><time>2026-05-03T09:09:40.047Z</time></trkpt><trkpt lat="45.8400898" lon="11.774199"><ele>1119.0</ele><time>2026-05-03T09:09:41.046Z</time></trkpt><trkpt lat="45.8401426" lon="11.7740248"><ele>1115.0</ele><time>2026-05-03T09:09:42.047Z</time></trkpt><trkpt lat="45.8401974" lon="11.7738399"><ele>1111.0</ele><time>2026-05-03T09:09:43.046Z</time></trkpt><trkpt lat="45.8402599" lon="11.7736718"><ele>1116.8</ele><time>2026-05-03T09:09:44.046Z</time></trkpt><trkpt lat="45.8403223" lon="11.7735144"><ele>1122.6</ele><time>2026-05-03T09:09:45.047Z</time></trkpt><trkpt lat="45.8403905" lon="11.7733936"><ele>1128.4</ele><time>2026-05-03T09:09:46.045Z</time></trkpt><trkpt lat="45.8404588" lon="11.7732926"><ele>1134.2</ele><time>2026-05-03T09:09:47.047Z</time></trkpt><trkpt lat="45.840509" lon="11.7731806"><ele>1140.0</ele><time>2026-05-03T09:09:48.047Z</time></trkpt><trkpt lat="45.8405651" lon="11.7730548"><ele>1140.0</ele><time>2026-05-03T09:09:49.047Z</time></trkpt><trkpt lat="45.8405778" lon="11.7728865"><ele>1140.0</ele><time>2026-05-03T09:09:50.045Z</time></trkpt><trkpt lat="45.8406335" lon="11.7727411"><ele>1140.0</ele><time>2026-05-03T09:09:51.046Z</time></trkpt><trkpt lat="45.8406946" lon="11.7725929"><ele>1140.0</ele><time>2026-05-03T09:09:52.046Z</time></trkpt><trkpt lat="45.8407631" lon="11.7724439"><ele>1136.25</ele><time>2026-05-03T09:09:53.046Z</time></trkpt><trkpt lat="45.8408444" lon="11.7723037"><ele>1132.5</ele><time>2026-05-03T09:09:54.045Z</time></trkpt><trkpt lat="45.8409251" lon="11.7721827"><ele>1128.75</ele><time>2026-05-03T09:09:55.047Z</time></trkpt><trkpt lat="45.841004" lon="11.7720523"><ele>1125.0</ele><time>2026-05-03T09:09:56.047Z</time></trkpt><trkpt lat="45.8410836" lon="11.7719226"><ele>1130.0</ele><time>2026-05-03T09:09:57.046Z</time></trkpt><trkpt lat="45.8411606" lon="11.7717903"><ele>1135.0</ele><time>2026-05-03T09:09:58.046Z</time></trkpt><trkpt lat="45.8411954" lon="11.7716247"><ele>1140.0</ele><time>2026-05-03T09:09:59.047Z</time></trkpt><trkpt lat="45.8412228" lon="11.771493"><ele>1145.0</ele><time>2026-05-03T09:10:00.045Z</time></trkpt><trkpt lat="45.8412942" lon="11.7713609"><ele>1145.0</ele><time>2026-05-03T09:10:01.046Z</time></trkpt><trkpt lat="45.8413608" lon="11.771233"><ele>1145.0</ele><time>2026-05-03T09:10:02.047Z</time></trkpt><trkpt lat="45.8414318" lon="11.7710872"><ele>1145.0</ele><time>2026-05-03T09:10:03.046Z</time></trkpt><trkpt lat="45.8414844" lon="11.7709684"><ele>1145.0</ele><time>2026-05-03T09:10:04.046Z</time></trkpt><trkpt lat="45.8415416" lon="11.7708817"><ele>1145.0</ele><time>2026-05-03T09:10:05.045Z</time></trkpt><trkpt lat="45.8416126" lon="11.7708523"><ele>1146.1666666666667</ele><time>2026-05-03T09:10:06.046Z</time></trkpt><trkpt lat="45.8416768" lon="11.7708577"><ele>1147.3333333333335</ele><time>2026-05-03T09:10:07.045Z</time></trkpt><trkpt lat="45.8417352" lon="11.7708972"><ele>1148.5</ele><time>2026-05-03T09:10:08.045Z</time></trkpt><trkpt lat="45.8417976" lon="11.7709844"><ele>1149.6666666666667</ele><time>2026-05-03T09:10:09.047Z</time></trkpt><trkpt lat="45.8418424" lon="11.771081"><ele>1150.8333333333333</ele><time>2026-05-03T09:10:10.046Z</time></trkpt><trkpt lat="45.8418933" lon="11.7711957"><ele>1152.0</ele><time>2026-05-03T09:10:11.046Z</time></trkpt><trkpt lat="45.84195" lon="11.7713162"><ele>1152.0</ele><time>2026-05-03T09:10:12.046Z</time></trkpt><trkpt lat="45.8420114" lon="11.771438"><ele>1152.0</ele><time>2026-05-03T09:10:13.047Z</time></trkpt><trkpt lat="45.8420662" lon="11.7715516"><ele>1152.0</ele><time>2026-05-03T09:10:14.046Z</time></trkpt><trkpt lat="45.8421323" lon="11.7716543"><ele>1152.0</ele><time>2026-05-03T09:10:15.047Z</time></trkpt><trkpt lat="45.842203" lon="11.7717292"><ele>1152.0</ele><time>2026-05-03T09:10:16.047Z</time></trkpt><trkpt lat="45.8422695" lon="11.771788"><ele>1152.0</ele><time>2026-05-03T09:10:17.046Z</time></trkpt><trkpt lat="45.84235" lon="11.7718198"><ele>1152.0</ele><time>2026-05-03T09:10:18.046Z</time></trkpt><trkpt lat="45.8424412" lon="11.7718333"><ele>1152.0</ele><time>2026-05-03T09:10:19.047Z</time></trkpt><trkpt lat="45.8425359" lon="11.7718296"><ele>1152.0</ele><time>2026-05-03T09:10:20.046Z</time></trkpt><trkpt lat="45.842631" lon="11.771801"><ele>1152.0</ele><time>2026-05-03T09:10:21.046Z</time></trkpt><trkpt lat="45.8427209" lon="11.7717806"><ele>1151.4</ele><time>2026-05-03T09:10:22.046Z</time></trkpt><trkpt lat="45.8428086" lon="11.7717748"><ele>1150.8000000000002</ele><time>2026-05-03T09:10:23.046Z</time></trkpt><trkpt lat="45.842899" lon="11.771775"><ele>1150.2</ele><time>2026-05-03T09:10:24.047Z</time></trkpt><trkpt lat="45.8429975" lon="11.7717912"><ele>1149.6000000000001</ele><time>2026-05-03T09:10:25.047Z</time></trkpt><trkpt lat="45.8430964" lon="11.7718086"><ele>1149.0</ele><time>2026-05-03T09:10:26.046Z</time></trkpt><trkpt lat="45.8431891" lon="11.7718254"><ele>1149.0</ele><time>2026-05-03T09:10:27.047Z</time></trkpt><trkpt lat="45.843288" lon="11.771842"><ele>1149.0</ele><time>2026-05-03T09:10:28.045Z</time></trkpt><trkpt lat="45.8433821" lon="11.7718792"><ele>1149.0</ele><time>2026-05-03T09:10:29.046Z</time></trkpt><trkpt lat="45.8434763" lon="11.771912"><ele>1149.0</ele><time>2026-05-03T09:10:30.047Z</time></trkpt><trkpt lat="45.8435577" lon="11.7719669"><ele>1149.0</ele><time>2026-05-03T09:10:31.046Z</time></trkpt><trkpt lat="45.8436259" lon="11.7720339"><ele>1149.0</ele><time>2026-05-03T09:10:32.046Z</time></trkpt><trkpt lat="45.843682" lon="11.7721285"><ele>1149.0</ele><time>2026-05-03T09:10:33.046Z</time></trkpt><trkpt lat="45.843721" lon="11.7722154"><ele>1149.0</ele><time>2026-05-03T09:10:34.046Z</time></trkpt><trkpt lat="45.8438233" lon="11.772306"><ele>1149.0</ele><time>2026-05-03T09:10:36.047Z</time></trkpt><trkpt lat="45.8439298" lon="11.7722862"><ele>1149.0</ele><time>2026-05-03T09:10:38.046Z</time></trkpt><trkpt lat="45.843996" lon="11.7722639"><ele>1149.0</ele><time>2026-05-03T09:10:39.046Z</time></trkpt><trkpt lat="45.8440708" lon="11.7722774"><ele>1149.0</ele><time>2026-05-03T09:10:40.047Z</time></trkpt><trkpt lat="45.8441532" lon="11.7723241"><ele>1149.0</ele><time>2026-05-03T09:10:41.046Z</time></trkpt><trkpt lat="45.8442347" lon="11.7723682"><ele>1149.0</ele><time>2026-05-03T09:10:42.046Z</time></trkpt><trkpt lat="45.8443188" lon="11.7724115"><ele>1149.0</ele><time>2026-05-03T09:10:43.046Z</time></trkpt><trkpt lat="45.8444212" lon="11.772431"><ele>1149.0</ele><time>2026-05-03T09:10:44.046Z</time></trkpt><trkpt lat="45.844511" lon="11.7724554"><ele>1148.4</ele><time>2026-05-03T09:10:45.046Z</time></trkpt><trkpt lat="45.8446005" lon="11.7724825"><ele>1147.8000000000002</ele><time>2026-05-03T09:10:46.047Z</time></trkpt><trkpt lat="45.8447071" lon="11.7725345"><ele>1147.1999999999998</ele><time>2026-05-03T09:10:47.046Z</time></trkpt><trkpt lat="45.8448118" lon="11.7725773"><ele>1146.6</ele><time>2026-05-03T09:10:48.047Z</time></trkpt><trkpt lat="45.8449056" lon="11.7726421"><ele>1146.0</ele><time>2026-05-03T09:10:49.045Z</time></trkpt><trkpt lat="45.8449933" lon="11.7726932"><ele>1146.0</ele><time>2026-05-03T09:10:50.045Z</time></trkpt><trkpt lat="45.8450753" lon="11.7727501"><ele>1146.0</ele><time>2026-05-03T09:10:51.045Z</time></trkpt><trkpt lat="45.8451491" lon="11.772842"><ele>1146.0</ele><time>2026-05-03T09:10:52.046Z</time></trkpt><trkpt lat="45.8452059" lon="11.7729425"><ele>1146.0</ele><time>2026-05-03T09:10:53.045Z</time></trkpt><trkpt lat="45.8452654" lon="11.773064"><ele>1146.0</ele><time>2026-05-03T09:10:54.047Z</time></trkpt><trkpt lat="45.8453209" lon="11.773193"><ele>1141.3999999999999</ele><time>2026-05-03T09:10:55.046Z</time></trkpt><trkpt lat="45.8453799" lon="11.7733274"><ele>1136.8</ele><time>2026-05-03T09:10:56.047Z</time></trkpt><trkpt lat="45.8454336" lon="11.7734361"><ele>1132.1999999999998</ele><time>2026-05-03T09:10:57.047Z</time></trkpt><trkpt lat="45.8455021" lon="11.7734917"><ele>1127.6</ele><time>2026-05-03T09:10:58.047Z</time></trkpt><trkpt lat="45.8455723" lon="11.7735172"><ele>1123.0</ele><time>2026-05-03T09:10:59.046Z</time></trkpt><trkpt lat="45.8456825" lon="11.7735053"><ele>1123.0</ele><time>2026-05-03T09:11:01.046Z</time></trkpt><trkpt lat="45.8457467" lon="11.7734603"><ele>1123.0</ele><time>2026-05-03T09:11:02.046Z</time></trkpt><trkpt lat="45.8457881" lon="11.7733413"><ele>1123.0</ele><time>2026-05-03T09:11:03.046Z</time></trkpt><trkpt lat="45.8458119" lon="11.7732181"><ele>1123.0</ele><time>2026-05-03T09:11:04.046Z</time></trkpt><trkpt lat="45.8458564" lon="11.7730769"><ele>1123.0</ele><time>2026-05-03T09:11:05.046Z</time></trkpt><trkpt lat="45.8458735" lon="11.7729815"><ele>1123.0</ele><time>2026-05-03T09:11:06.046Z</time></trkpt><trkpt lat="45.8459107" lon="11.7729026"><ele>1120.6666666666665</ele><time>2026-05-03T09:11:07.047Z</time></trkpt><trkpt lat="45.845995" lon="11.7728056"><ele>1118.3333333333333</ele><time>2026-05-03T09:11:09.046Z</time></trkpt><trkpt lat="45.8460811" lon="11.7729077"><ele>1116.0</ele><time>2026-05-03T09:11:10.046Z</time></trkpt><trkpt lat="45.8461384" lon="11.7729708"><ele>1113.6666666666667</ele><time>2026-05-03T09:11:11.046Z</time></trkpt><trkpt lat="45.8461824" lon="11.7730492"><ele>1111.3333333333335</ele><time>2026-05-03T09:11:12.047Z</time></trkpt><trkpt lat="45.8462255" lon="11.7731523"><ele>1109.0</ele><time>2026-05-03T09:11:13.046Z</time></trkpt><trkpt lat="45.8462683" lon="11.7732779"><ele>1109.0</ele><time>2026-05-03T09:11:14.047Z</time></trkpt><trkpt lat="45.8463067" lon="11.7734136"><ele>1109.0</ele><time>2026-05-03T09:11:15.046Z</time></trkpt><trkpt lat="45.846352" lon="11.7735474"><ele>1109.0</ele><time>2026-05-03T09:11:16.045Z</time></trkpt><trkpt lat="45.8463871" lon="11.7736762"><ele>1109.0</ele><time>2026-05-03T09:11:17.046Z</time></trkpt><trkpt lat="45.84642" lon="11.773808"><ele>1109.0</ele><time>2026-05-03T09:11:18.047Z</time></trkpt><trkpt lat="45.8464936" lon="11.7739077"><ele>1110.2</ele><time>2026-05-03T09:11:19.046Z</time></trkpt><trkpt lat="45.8465622" lon="11.7739925"><ele>1111.4</ele><time>2026-05-03T09:11:20.046Z</time></trkpt><trkpt lat="45.8466404" lon="11.7740569"><ele>1112.6</ele><time>2026-05-03T09:11:21.046Z</time></trkpt><trkpt lat="45.8467313" lon="11.774128"><ele>1113.8</ele><time>2026-05-03T09:11:22.047Z</time></trkpt><trkpt lat="45.846809" lon="11.7742137"><ele>1115.0</ele><time>2026-05-03T09:11:23.045Z</time></trkpt><trkpt lat="45.8469047" lon="11.7743275"><ele>1115.6</ele><time>2026-05-03T09:11:24.046Z</time></trkpt><trkpt lat="45.8469898" lon="11.7744484"><ele>1116.2</ele><time>2026-05-03T09:11:25.047Z</time></trkpt><trkpt lat="45.8470689" lon="11.7745496"><ele>1116.8</ele><time>2026-05-03T09:11:26.046Z</time></trkpt><trkpt lat="45.8471402" lon="11.7746542"><ele>1117.4</ele><time>2026-05-03T09:11:27.046Z</time></trkpt><trkpt lat="45.847207" lon="11.7747671"><ele>1118.0</ele><time>2026-05-03T09:11:28.046Z</time></trkpt><trkpt lat="45.8472595" lon="11.7748608"><ele>1118.0</ele><time>2026-05-03T09:11:29.047Z</time></trkpt><trkpt lat="45.8473206" lon="11.7749539"><ele>1118.0</ele><time>2026-05-03T09:11:30.045Z</time></trkpt><trkpt lat="45.8473695" lon="11.7750353"><ele>1118.0</ele><time>2026-05-03T09:11:31.047Z</time></trkpt><trkpt lat="45.8474792" lon="11.7751045"><ele>1118.0</ele><time>2026-05-03T09:11:33.046Z</time></trkpt><trkpt lat="45.847576" lon="11.7750253"><ele>1118.0</ele><time>2026-05-03T09:11:35.046Z</time></trkpt><trkpt lat="45.8475958" lon="11.7748468"><ele>1118.0</ele><time>2026-05-03T09:11:37.045Z</time></trkpt><trkpt lat="45.8475951" lon="11.7747377"><ele>1118.0</ele><time>2026-05-03T09:11:38.045Z</time></trkpt><trkpt lat="45.8475736" lon="11.774603"><ele>1118.0</ele><time>2026-05-03T09:11:39.047Z</time></trkpt><trkpt lat="45.8475524" lon="11.7744695"><ele>1118.0</ele><time>2026-05-03T09:11:40.047Z</time></trkpt><trkpt lat="45.8475574" lon="11.7743485"><ele>1118.0</ele><time>2026-05-03T09:11:41.046Z</time></trkpt><trkpt lat="45.8475622" lon="11.7742014"><ele>1117.4</ele><time>2026-05-03T09:11:43.045Z</time></trkpt><trkpt lat="45.8475543" lon="11.7740842"><ele>1116.8</ele><time>2026-05-03T09:11:45.046Z</time></trkpt><trkpt lat="45.8475412" lon="11.773948"><ele>1116.2</ele><time>2026-05-03T09:11:48.047Z</time></trkpt><trkpt lat="45.847498" lon="11.7737812"><ele>1115.6</ele><time>2026-05-03T09:11:50.046Z</time></trkpt><trkpt lat="45.8474659" lon="11.773669"><ele>1115.0</ele><time>2026-05-03T09:11:52.046Z</time></trkpt><trkpt lat="45.8474896" lon="11.7738208"><ele>1115.0</ele><time>2026-05-03T09:12:09.046Z</time></trkpt><trkpt lat="45.8475265" lon="11.7739561"><ele>1115.0</ele><time>2026-05-03T09:12:10.046Z</time></trkpt><trkpt lat="45.8475524" lon="11.7740415"><ele>1115.0</ele><time>2026-05-03T09:12:11.046Z</time></trkpt><trkpt lat="45.8475907" lon="11.7741374"><ele>1115.0</ele><time>2026-05-03T09:12:12.045Z</time></trkpt><trkpt lat="45.8476207" lon="11.7742311"><ele>1115.0</ele><time>2026-05-03T09:12:13.047Z</time></trkpt><trkpt lat="45.8476377" lon="11.7743217"><ele>1115.0</ele><time>2026-05-03T09:12:14.047Z</time></trkpt><trkpt lat="45.8476553" lon="11.7745109"><ele>1119.6666666666667</ele><time>2026-05-03T09:12:16.047Z</time></trkpt><trkpt lat="45.8476711" lon="11.7745985"><ele>1124.3333333333335</ele><time>2026-05-03T09:12:17.045Z</time></trkpt><trkpt lat="45.847707" lon="11.7746788"><ele>1129.0</ele><time>2026-05-03T09:12:18.046Z</time></trkpt><trkpt lat="45.847774" lon="11.7748336"><ele>1133.6666666666667</ele><time>2026-05-03T09:12:20.046Z</time></trkpt><trkpt lat="45.8478187" lon="11.7749015"><ele>1138.3333333333333</ele><time>2026-05-03T09:12:21.047Z</time></trkpt><trkpt lat="45.8478693" lon="11.7749778"><ele>1143.0</ele><time>2026-05-03T09:12:22.046Z</time></trkpt><trkpt lat="45.8479226" lon="11.7750314"><ele>1143.0</ele><time>2026-05-03T09:12:23.045Z</time></trkpt><trkpt lat="45.8479774" lon="11.7750894"><ele>1143.0</ele><time>2026-05-03T09:12:24.047Z</time></trkpt><trkpt lat="45.8480299" lon="11.775147"><ele>1143.0</ele><time>2026-05-03T09:12:25.047Z</time></trkpt><trkpt lat="45.8480816" lon="11.7752026"><ele>1143.0</ele><time>2026-05-03T09:12:26.046Z</time></trkpt><trkpt lat="45.8481447" lon="11.7753509"><ele>1143.0</ele><time>2026-05-03T09:12:28.045Z</time></trkpt><trkpt lat="45.8481763" lon="11.7754499"><ele>1143.0</ele><time>2026-05-03T09:12:29.047Z</time></trkpt><trkpt lat="45.8482093" lon="11.7755379"><ele>1141.0</ele><time>2026-05-03T09:12:30.047Z</time></trkpt><trkpt lat="45.848238" lon="11.7756463"><ele>1139.0</ele><time>2026-05-03T09:12:31.046Z</time></trkpt><trkpt lat="45.8482623" lon="11.7757301"><ele>1137.0</ele><time>2026-05-03T09:12:32.045Z</time></trkpt><trkpt lat="45.8482985" lon="11.7758936"><ele>1135.0</ele><time>2026-05-03T09:12:34.046Z</time></trkpt><trkpt lat="45.8483655" lon="11.7760482"><ele>1133.0</ele><time>2026-05-03T09:12:36.047Z</time></trkpt><trkpt lat="45.8484153" lon="11.7761189"><ele>1136.1666666666667</ele><time>2026-05-03T09:12:37.047Z</time></trkpt><trkpt lat="45.8484669" lon="11.7761842"><ele>1139.3333333333335</ele><time>2026-05-03T09:12:38.046Z</time></trkpt><trkpt lat="45.8485157" lon="11.7762617"><ele>1142.5</ele><time>2026-05-03T09:12:39.046Z</time></trkpt><trkpt lat="45.8485621" lon="11.7763543"><ele>1145.6666666666667</ele><time>2026-05-03T09:12:40.047Z</time></trkpt><trkpt lat="45.8486132" lon="11.7764505"><ele>1148.8333333333333</ele><time>2026-05-03T09:12:41.047Z</time></trkpt><trkpt lat="45.8486475" lon="11.776527"><ele>1152.0</ele><time>2026-05-03T09:12:42.046Z</time></trkpt><trkpt lat="45.8487046" lon="11.7766433"><ele>1152.0000000000002</ele><time>2026-05-03T09:12:44.046Z</time></trkpt><trkpt lat="45.8487293" lon="11.7767279"><ele>1152.0</ele><time>2026-05-03T09:12:46.046Z</time></trkpt><trkpt lat="45.8487624" lon="11.7768159"><ele>1152.0</ele><time>2026-05-03T09:14:01.045Z</time></trkpt><trkpt lat="45.8487929" lon="11.7769078"><ele>1152.0</ele><time>2026-05-03T09:14:03.047Z</time></trkpt><trkpt lat="45.8488301" lon="11.7770327"><ele>1152.0</ele><time>2026-05-03T09:14:05.046Z</time></trkpt><trkpt lat="45.8488525" lon="11.7771228"><ele>1152.0000000000002</ele><time>2026-05-03T09:14:06.047Z</time></trkpt><trkpt lat="45.8488901" lon="11.7772098"><ele>1152.0</ele><time>2026-05-03T09:14:07.046Z</time></trkpt><trkpt lat="45.8489307" lon="11.7773075"><ele>1151.3333333333333</ele><time>2026-05-03T09:14:08.046Z</time></trkpt><trkpt lat="45.8489842" lon="11.7773771"><ele>1150.6666666666667</ele><time>2026-05-03T09:14:09.046Z</time></trkpt><trkpt lat="45.8490409" lon="11.7774718"><ele>1150.0</ele><time>2026-05-03T09:14:10.047Z</time></trkpt><trkpt lat="45.8490912" lon="11.777561"><ele>1149.3333333333335</ele><time>2026-05-03T09:14:11.046Z</time></trkpt><trkpt lat="45.8491376" lon="11.7776375"><ele>1148.6666666666667</ele><time>2026-05-03T09:14:12.046Z</time></trkpt><trkpt lat="45.8491988" lon="11.7777309"><ele>1148.0</ele><time>2026-05-03T09:14:13.046Z</time></trkpt><trkpt lat="45.8492573" lon="11.7778193"><ele>1151.8333333333335</ele><time>2026-05-03T09:14:14.046Z</time></trkpt><trkpt lat="45.8493231" lon="11.7778957"><ele>1155.6666666666667</ele><time>2026-05-03T09:14:15.047Z</time></trkpt><trkpt lat="45.8493892" lon="11.7779867"><ele>1159.5</ele><time>2026-05-03T09:14:16.047Z</time></trkpt><trkpt lat="45.8494393" lon="11.7780801"><ele>1163.3333333333333</ele><time>2026-05-03T09:14:17.045Z</time></trkpt><trkpt lat="45.8494433" lon="11.7781941"><ele>1167.1666666666665</ele><time>2026-05-03T09:14:18.047Z</time></trkpt><trkpt lat="45.8494725" lon="11.7782828"><ele>1171.0</ele><time>2026-05-03T09:14:19.045Z</time></trkpt><trkpt lat="45.8495031" lon="11.7784258"><ele>1171.0</ele><time>2026-05-03T09:14:21.047Z</time></trkpt><trkpt lat="45.8495648" lon="11.7784544"><ele>1171.0</ele><time>2026-05-03T09:14:23.047Z</time></trkpt><trkpt lat="45.8496121" lon="11.7783863"><ele>1171.0</ele><time>2026-05-03T09:14:25.047Z</time></trkpt><trkpt lat="45.8495947" lon="11.7782242"><ele>1171.0</ele><time>2026-05-03T09:14:27.047Z</time></trkpt><trkpt lat="45.8495712" lon="11.7781249"><ele>1171.0</ele><time>2026-05-03T09:14:28.048Z</time></trkpt><trkpt lat="45.849557" lon="11.7780139"><ele>1171.0</ele><time>2026-05-03T09:14:29.047Z</time></trkpt><trkpt lat="45.849544" lon="11.7778901"><ele>1171.0</ele><time>2026-05-03T09:14:30.047Z</time></trkpt><trkpt lat="45.8494944" lon="11.7777649"><ele>1171.0</ele><time>2026-05-03T09:14:31.048Z</time></trkpt><trkpt lat="45.8494783" lon="11.7776228"><ele>1171.0</ele><time>2026-05-03T09:14:32.048Z</time></trkpt><trkpt lat="45.8494513" lon="11.777507"><ele>1171.0</ele><time>2026-05-03T09:14:33.047Z</time></trkpt><trkpt lat="45.8494262" lon="11.7773648"><ele>1171.0</ele><time>2026-05-03T09:14:34.047Z</time></trkpt><trkpt lat="45.849407" lon="11.7772348"><ele>1173.3333333333333</ele><time>2026-05-03T09:14:35.046Z</time></trkpt><trkpt lat="45.8493782" lon="11.7771053"><ele>1175.6666666666665</ele><time>2026-05-03T09:14:36.048Z</time></trkpt><trkpt lat="45.8493712" lon="11.776973"><ele>1178.0</ele><time>2026-05-03T09:14:37.046Z</time></trkpt><trkpt lat="45.849351" lon="11.7768737"><ele>1180.3333333333333</ele><time>2026-05-03T09:14:38.048Z</time></trkpt><trkpt lat="45.8493334" lon="11.7767599"><ele>1182.6666666666667</ele><time>2026-05-03T09:14:39.048Z</time></trkpt><trkpt lat="45.8493192" lon="11.77665"><ele>1185.0</ele><time>2026-05-03T09:14:40.047Z</time></trkpt><trkpt lat="45.8493331" lon="11.7765559"><ele>1186.8333333333333</ele><time>2026-05-03T09:14:41.047Z</time></trkpt><trkpt lat="45.849349" lon="11.7763695"><ele>1188.6666666666667</ele><time>2026-05-03T09:14:43.046Z</time></trkpt><trkpt lat="45.8493524" lon="11.7762549"><ele>1190.5</ele><time>2026-05-03T09:14:44.048Z</time></trkpt><trkpt lat="45.8493488" lon="11.7761531"><ele>1192.3333333333335</ele><time>2026-05-03T09:14:45.047Z</time></trkpt><trkpt lat="45.8493416" lon="11.7760595"><ele>1194.1666666666667</ele><time>2026-05-03T09:14:46.048Z</time></trkpt><trkpt lat="45.8492871" lon="11.775948"><ele>1196.0</ele><time>2026-05-03T09:14:47.047Z</time></trkpt><trkpt lat="45.8492463" lon="11.7758569"><ele>1190.0</ele><time>2026-05-03T09:14:48.048Z</time></trkpt><trkpt lat="45.8491996" lon="11.7757519"><ele>1184.0</ele><time>2026-05-03T09:14:49.046Z</time></trkpt><trkpt lat="45.8491513" lon="11.7756271"><ele>1178.0</ele><time>2026-05-03T09:14:50.047Z</time></trkpt><trkpt lat="45.849115" lon="11.775523"><ele>1172.0</ele><time>2026-05-03T09:14:51.047Z</time></trkpt><trkpt lat="45.8490788" lon="11.7753975"><ele>1166.0</ele><time>2026-05-03T09:14:52.047Z</time></trkpt><trkpt lat="45.849039" lon="11.7752714"><ele>1169.6</ele><time>2026-05-03T09:14:53.047Z</time></trkpt><trkpt lat="45.8490073" lon="11.7751431"><ele>1173.1999999999998</ele><time>2026-05-03T09:14:54.047Z</time></trkpt><trkpt lat="45.8489811" lon="11.7750271"><ele>1176.8000000000002</ele><time>2026-05-03T09:14:55.047Z</time></trkpt><trkpt lat="45.8489464" lon="11.7749025"><ele>1180.4</ele><time>2026-05-03T09:14:56.047Z</time></trkpt><trkpt lat="45.848932" lon="11.7747955"><ele>1184.0</ele><time>2026-05-03T09:14:57.047Z</time></trkpt><trkpt lat="45.8489086" lon="11.7746548"><ele>1184.0</ele><time>2026-05-03T09:14:58.047Z</time></trkpt><trkpt lat="45.8488815" lon="11.774531"><ele>1184.0</ele><time>2026-05-03T09:14:59.047Z</time></trkpt><trkpt lat="45.8488619" lon="11.7743959"><ele>1184.0</ele><time>2026-05-03T09:15:00.047Z</time></trkpt><trkpt lat="45.8488188" lon="11.7742691"><ele>1184.0</ele><time>2026-05-03T09:15:01.047Z</time></trkpt><trkpt lat="45.8488008" lon="11.7741566"><ele>1184.0</ele><time>2026-05-03T09:15:02.047Z</time></trkpt><trkpt lat="45.8487739" lon="11.7740636"><ele>1184.0</ele><time>2026-05-03T09:15:03.047Z</time></trkpt><trkpt lat="45.8487917" lon="11.7738898"><ele>1185.8333333333335</ele><time>2026-05-03T09:15:05.047Z</time></trkpt><trkpt lat="45.8487969" lon="11.7737935"><ele>1187.6666666666667</ele><time>2026-05-03T09:15:06.046Z</time></trkpt><trkpt lat="45.8488231" lon="11.7736831"><ele>1189.5</ele><time>2026-05-03T09:15:07.048Z</time></trkpt><trkpt lat="45.8488498" lon="11.7735828"><ele>1191.3333333333333</ele><time>2026-05-03T09:15:08.047Z</time></trkpt><trkpt lat="45.8488796" lon="11.7734888"><ele>1193.1666666666665</ele><time>2026-05-03T09:15:09.048Z</time></trkpt><trkpt lat="45.8489" lon="11.7733579"><ele>1195.0</ele><time>2026-05-03T09:15:10.046Z</time></trkpt><trkpt lat="45.8489069" lon="11.7732531"><ele>1195.6</ele><time>2026-05-03T09:15:11.047Z</time></trkpt><trkpt lat="45.8488729" lon="11.7731451"><ele>1196.2</ele><time>2026-05-03T09:15:12.047Z</time></trkpt><trkpt lat="45.8488851" lon="11.7729804"><ele>1196.8</ele><time>2026-05-03T09:15:14.047Z</time></trkpt><trkpt lat="45.848944" lon="11.7729138"><ele>1197.4</ele><time>2026-05-03T09:15:17.048Z</time></trkpt><trkpt lat="45.849033" lon="11.7729974"><ele>1198.0</ele><time>2026-05-03T09:15:20.046Z</time></trkpt><trkpt lat="45.8490176" lon="11.7731318"><ele>1198.0</ele><time>2026-05-03T09:15:22.047Z</time></trkpt><trkpt lat="45.8490245" lon="11.7732217"><ele>1198.0</ele><time>2026-05-03T09:15:23.047Z</time></trkpt><trkpt lat="45.8490376" lon="11.7733145"><ele>1198.0</ele><time>2026-05-03T09:15:24.047Z</time></trkpt><trkpt lat="45.8490442" lon="11.7734049"><ele>1198.0</ele><time>2026-05-03T09:15:25.047Z</time></trkpt><trkpt lat="45.8490041" lon="11.7735722"><ele>1198.0</ele><time>2026-05-03T09:15:27.047Z</time></trkpt><trkpt lat="45.8489856" lon="11.77374"><ele>1198.0</ele><time>2026-05-03T09:15:29.047Z</time></trkpt><trkpt lat="45.8490121" lon="11.7738368"><ele>1197.5</ele><time>2026-05-03T09:15:30.048Z</time></trkpt><trkpt lat="45.8490447" lon="11.7739428"><ele>1197.0</ele><time>2026-05-03T09:15:31.047Z</time></trkpt><trkpt lat="45.8490682" lon="11.7740331"><ele>1196.5</ele><time>2026-05-03T09:15:32.047Z</time></trkpt><trkpt lat="45.8491149" lon="11.7741276"><ele>1196.0</ele><time>2026-05-03T09:15:33.047Z</time></trkpt><trkpt lat="45.8491494" lon="11.7742356"><ele>1195.5</ele><time>2026-05-03T09:15:34.048Z</time></trkpt><trkpt lat="45.8491771" lon="11.7743523"><ele>1195.0</ele><time>2026-05-03T09:15:35.048Z</time></trkpt><trkpt lat="45.8492178" lon="11.7744636"><ele>1193.1666666666665</ele><time>2026-05-03T09:15:36.047Z</time></trkpt><trkpt lat="45.8492621" lon="11.774559"><ele>1191.3333333333333</ele><time>2026-05-03T09:15:37.046Z</time></trkpt><trkpt lat="45.849314" lon="11.7746364"><ele>1189.5</ele><time>2026-05-03T09:15:38.047Z</time></trkpt><trkpt lat="45.8493751" lon="11.7747183"><ele>1187.6666666666667</ele><time>2026-05-03T09:15:39.047Z</time></trkpt><trkpt lat="45.8494366" lon="11.7747869"><ele>1185.8333333333335</ele><time>2026-05-03T09:15:40.046Z</time></trkpt><trkpt lat="45.8495006" lon="11.7748622"><ele>1184.0</ele><time>2026-05-03T09:15:41.048Z</time></trkpt><trkpt lat="45.8495756" lon="11.7749358"><ele>1187.3333333333335</ele><time>2026-05-03T09:15:42.047Z</time></trkpt><trkpt lat="45.8496523" lon="11.7750053"><ele>1190.6666666666667</ele><time>2026-05-03T09:15:43.047Z</time></trkpt><trkpt lat="45.8497242" lon="11.7750711"><ele>1194.0</ele><time>2026-05-03T09:15:44.047Z</time></trkpt><trkpt lat="45.8498015" lon="11.7751134"><ele>1197.3333333333333</ele><time>2026-05-03T09:15:45.048Z</time></trkpt><trkpt lat="45.8498566" lon="11.7751794"><ele>1200.6666666666665</ele><time>2026-05-03T09:15:46.047Z</time></trkpt><trkpt lat="45.8499077" lon="11.7752656"><ele>1204.0</ele><time>2026-05-03T09:15:47.047Z</time></trkpt><trkpt lat="45.8499665" lon="11.7753475"><ele>1204.0</ele><time>2026-05-03T09:15:48.047Z</time></trkpt><trkpt lat="45.8500091" lon="11.775431"><ele>1204.0</ele><time>2026-05-03T09:15:49.047Z</time></trkpt><trkpt lat="45.8500335" lon="11.7755487"><ele>1204.0</ele><time>2026-05-03T09:15:50.048Z</time></trkpt><trkpt lat="45.8500503" lon="11.7756804"><ele>1204.0</ele><time>2026-05-03T09:15:51.047Z</time></trkpt><trkpt lat="45.8500718" lon="11.7757932"><ele>1204.0</ele><time>2026-05-03T09:15:52.047Z</time></trkpt><trkpt lat="45.8500999" lon="11.7758833"><ele>1204.0</ele><time>2026-05-03T09:15:53.047Z</time></trkpt><trkpt lat="45.8501401" lon="11.7759737"><ele>1210.6666666666665</ele><time>2026-05-03T09:15:54.048Z</time></trkpt><trkpt lat="45.8501936" lon="11.7760482"><ele>1217.3333333333333</ele><time>2026-05-03T09:15:55.047Z</time></trkpt><trkpt lat="45.8502552" lon="11.7761186"><ele>1224.0</ele><time>2026-05-03T09:15:56.046Z</time></trkpt><trkpt lat="45.850311" lon="11.7762129"><ele>1230.6666666666667</ele><time>2026-05-03T09:15:57.047Z</time></trkpt><trkpt lat="45.8503552" lon="11.7763007"><ele>1237.3333333333335</ele><time>2026-05-03T09:15:58.047Z</time></trkpt><trkpt lat="45.8503879" lon="11.7763994"><ele>1244.0</ele><time>2026-05-03T09:15:59.046Z</time></trkpt><trkpt lat="45.850389" lon="11.7765084"><ele>1244.0</ele><time>2026-05-03T09:16:00.047Z</time></trkpt><trkpt lat="45.8504087" lon="11.7766224"><ele>1244.0</ele><time>2026-05-03T09:16:01.047Z</time></trkpt><trkpt lat="45.8504208" lon="11.7767509"><ele>1244.0</ele><time>2026-05-03T09:16:02.047Z</time></trkpt><trkpt lat="45.8504507" lon="11.7768682"><ele>1244.0</ele><time>2026-05-03T09:16:03.047Z</time></trkpt><trkpt lat="45.8504847" lon="11.7769921"><ele>1244.0</ele><time>2026-05-03T09:16:04.048Z</time></trkpt><trkpt lat="45.8505302" lon="11.7771042"><ele>1244.0</ele><time>2026-05-03T09:16:05.047Z</time></trkpt><trkpt lat="45.8505651" lon="11.7772124"><ele>1242.0</ele><time>2026-05-03T09:16:06.046Z</time></trkpt><trkpt lat="45.8506085" lon="11.7773265"><ele>1240.0</ele><time>2026-05-03T09:16:07.047Z</time></trkpt><trkpt lat="45.8506498" lon="11.7774272"><ele>1238.0</ele><time>2026-05-03T09:16:08.047Z</time></trkpt><trkpt lat="45.8507009" lon="11.7775195"><ele>1236.0</ele><time>2026-05-03T09:16:09.047Z</time></trkpt><trkpt lat="45.8507498" lon="11.777578"><ele>1234.0</ele><time>2026-05-03T09:16:10.047Z</time></trkpt><trkpt lat="45.8508226" lon="11.7776313"><ele>1232.0</ele><time>2026-05-03T09:16:11.046Z</time></trkpt><trkpt lat="45.8508891" lon="11.7776825"><ele>1230.0</ele><time>2026-05-03T09:16:12.047Z</time></trkpt><trkpt lat="45.8509504" lon="11.7777496"><ele>1228.0</ele><time>2026-05-03T09:16:13.046Z</time></trkpt><trkpt lat="45.8509931" lon="11.7778339"><ele>1226.0</ele><time>2026-05-03T09:16:14.047Z</time></trkpt><trkpt lat="45.8510279" lon="11.7779198"><ele>1224.0</ele><time>2026-05-03T09:16:15.048Z</time></trkpt><trkpt lat="45.8510171" lon="11.7780307"><ele>1222.0</ele><time>2026-05-03T09:16:16.047Z</time></trkpt><trkpt lat="45.8510345" lon="11.7781553"><ele>1220.0</ele><time>2026-05-03T09:16:17.047Z</time></trkpt><trkpt lat="45.851034" lon="11.7782726"><ele>1225.3333333333335</ele><time>2026-05-03T09:16:18.048Z</time></trkpt><trkpt lat="45.8510505" lon="11.7783818"><ele>1230.6666666666667</ele><time>2026-05-03T09:16:19.047Z</time></trkpt><trkpt lat="45.8510903" lon="11.7785065"><ele>1236.0</ele><time>2026-05-03T09:16:20.047Z</time></trkpt><trkpt lat="45.85113" lon="11.7785957"><ele>1241.3333333333333</ele><time>2026-05-03T09:16:21.047Z</time></trkpt><trkpt lat="45.851169" lon="11.7787105"><ele>1246.6666666666665</ele><time>2026-05-03T09:16:22.047Z</time></trkpt><trkpt lat="45.8512175" lon="11.7788074"><ele>1252.0</ele><time>2026-05-03T09:16:23.047Z</time></trkpt><trkpt lat="45.8512756" lon="11.7788972"><ele>1252.0</ele><time>2026-05-03T09:16:24.047Z</time></trkpt><trkpt lat="45.8513404" lon="11.7789746"><ele>1252.0</ele><time>2026-05-03T09:16:25.047Z</time></trkpt><trkpt lat="45.8514033" lon="11.7790557"><ele>1252.0</ele><time>2026-05-03T09:16:26.048Z</time></trkpt><trkpt lat="45.8514604" lon="11.7791353"><ele>1252.0</ele><time>2026-05-03T09:16:27.048Z</time></trkpt><trkpt lat="45.8515192" lon="11.7792129"><ele>1252.0</ele><time>2026-05-03T09:16:28.047Z</time></trkpt><trkpt lat="45.8515681" lon="11.7792891"><ele>1252.0</ele><time>2026-05-03T09:16:29.048Z</time></trkpt><trkpt lat="45.8515609" lon="11.7793976"><ele>1255.8</ele><time>2026-05-03T09:16:30.047Z</time></trkpt><trkpt lat="45.8516172" lon="11.7795655"><ele>1259.6</ele><time>2026-05-03T09:16:32.046Z</time></trkpt><trkpt lat="45.8517046" lon="11.7796759"><ele>1263.3999999999999</ele><time>2026-05-03T09:16:34.047Z</time></trkpt><trkpt lat="45.8517701" lon="11.7797186"><ele>1267.2</ele><time>2026-05-03T09:16:35.047Z</time></trkpt><trkpt lat="45.8518479" lon="11.7797448"><ele>1271.0</ele><time>2026-05-03T09:16:36.047Z</time></trkpt><trkpt lat="45.8519265" lon="11.7797656"><ele>1271.0</ele><time>2026-05-03T09:16:37.047Z</time></trkpt><trkpt lat="45.8519909" lon="11.7798104"><ele>1271.0</ele><time>2026-05-03T09:16:38.046Z</time></trkpt><trkpt lat="45.8520497" lon="11.7798613"><ele>1271.0</ele><time>2026-05-03T09:16:39.047Z</time></trkpt><trkpt lat="45.8521034" lon="11.7799542"><ele>1271.0</ele><time>2026-05-03T09:16:40.047Z</time></trkpt><trkpt lat="45.8521502" lon="11.7800449"><ele>1271.0</ele><time>2026-05-03T09:16:41.046Z</time></trkpt><trkpt lat="45.852194" lon="11.7801388"><ele>1271.0</ele><time>2026-05-03T09:16:42.048Z</time></trkpt><trkpt lat="45.8522403" lon="11.7802254"><ele>1267.5</ele><time>2026-05-03T09:16:43.046Z</time></trkpt><trkpt lat="45.8522927" lon="11.7803166"><ele>1264.0</ele><time>2026-05-03T09:16:44.047Z</time></trkpt><trkpt lat="45.8523531" lon="11.7803889"><ele>1260.5</ele><time>2026-05-03T09:16:45.047Z</time></trkpt><trkpt lat="45.852419" lon="11.7804649"><ele>1257.0</ele><time>2026-05-03T09:16:46.046Z</time></trkpt><trkpt lat="45.8524676" lon="11.7805484"><ele>1253.5</ele><time>2026-05-03T09:16:47.047Z</time></trkpt><trkpt lat="45.8525014" lon="11.7806468"><ele>1250.0</ele><time>2026-05-03T09:16:48.048Z</time></trkpt><trkpt lat="45.8525212" lon="11.780741"><ele>1250.0</ele><time>2026-05-03T09:16:49.047Z</time></trkpt><trkpt lat="45.852547" lon="11.7808247"><ele>1250.0</ele><time>2026-05-03T09:16:50.048Z</time></trkpt><trkpt lat="45.8526401" lon="11.7809235"><ele>1250.0</ele><time>2026-05-03T09:16:52.047Z</time></trkpt><trkpt lat="45.8527028" lon="11.7809604"><ele>1250.0</ele><time>2026-05-03T09:16:53.048Z</time></trkpt><trkpt lat="45.8527666" lon="11.7810022"><ele>1250.0</ele><time>2026-05-03T09:16:54.048Z</time></trkpt><trkpt lat="45.8528365" lon="11.7810293"><ele>1250.0</ele><time>2026-05-03T09:16:55.048Z</time></trkpt><trkpt lat="45.8529064" lon="11.7810606"><ele>1251.7142857142858</ele><time>2026-05-03T09:16:56.047Z</time></trkpt><trkpt lat="45.852987" lon="11.781091"><ele>1253.4285714285716</ele><time>2026-05-03T09:16:57.047Z</time></trkpt><trkpt lat="45.8530665" lon="11.7811149"><ele>1255.1428571428573</ele><time>2026-05-03T09:16:58.047Z</time></trkpt><trkpt lat="45.853133" lon="11.7811379"><ele>1256.857142857143</ele><time>2026-05-03T09:16:59.048Z</time></trkpt><trkpt lat="45.8531912" lon="11.7811782"><ele>1258.5714285714284</ele><time>2026-05-03T09:17:00.046Z</time></trkpt><trkpt lat="45.8532409" lon="11.7812352"><ele>1260.2857142857144</ele><time>2026-05-03T09:17:01.047Z</time></trkpt><trkpt lat="45.8532827" lon="11.7813126"><ele>1262.0</ele><time>2026-05-03T09:17:02.046Z</time></trkpt><trkpt lat="45.8533201" lon="11.7814063"><ele>1262.0</ele><time>2026-05-03T09:17:03.048Z</time></trkpt><trkpt lat="45.8533657" lon="11.7814985"><ele>1262.0</ele><time>2026-05-03T09:17:04.047Z</time></trkpt><trkpt lat="45.8534159" lon="11.7815908"><ele>1262.0</ele><time>2026-05-03T09:17:05.047Z</time></trkpt><trkpt lat="45.8534724" lon="11.781669"><ele>1262.0</ele><time>2026-05-03T09:17:06.047Z</time></trkpt><trkpt lat="45.8535271" lon="11.7817479"><ele>1262.0</ele><time>2026-05-03T09:17:07.046Z</time></trkpt><trkpt lat="45.8535888" lon="11.781815"><ele>1262.0</ele><time>2026-05-03T09:17:08.048Z</time></trkpt><trkpt lat="45.8536619" lon="11.7818739"><ele>1263.1666666666667</ele><time>2026-05-03T09:17:09.046Z</time></trkpt><trkpt lat="45.8537361" lon="11.7819295"><ele>1264.3333333333335</ele><time>2026-05-03T09:17:10.048Z</time></trkpt><trkpt lat="45.853816" lon="11.781975"><ele>1265.5</ele><time>2026-05-03T09:17:11.047Z</time></trkpt><trkpt lat="45.853893" lon="11.7820208"><ele>1266.6666666666667</ele><time>2026-05-03T09:17:12.047Z</time></trkpt><trkpt lat="45.8539753" lon="11.7820732"><ele>1267.8333333333333</ele><time>2026-05-03T09:17:13.048Z</time></trkpt><trkpt lat="45.8540539" lon="11.7821291"><ele>1269.0</ele><time>2026-05-03T09:17:14.047Z</time></trkpt><trkpt lat="45.854135" lon="11.78219"><ele>1269.0</ele><time>2026-05-03T09:17:15.048Z</time></trkpt><trkpt lat="45.8542039" lon="11.7822576"><ele>1269.0</ele><time>2026-05-03T09:17:16.048Z</time></trkpt><trkpt lat="45.854262" lon="11.7823337"><ele>1269.0</ele><time>2026-05-03T09:17:17.047Z</time></trkpt><trkpt lat="45.8543205" lon="11.7824185"><ele>1269.0</ele><time>2026-05-03T09:17:18.048Z</time></trkpt><trkpt lat="45.8543816" lon="11.7824922"><ele>1269.0</ele><time>2026-05-03T09:17:19.047Z</time></trkpt><trkpt lat="45.8544536" lon="11.7825548"><ele>1269.0</ele><time>2026-05-03T09:17:20.047Z</time></trkpt><trkpt lat="45.8545238" lon="11.7826061"><ele>1271.0</ele><time>2026-05-03T09:17:21.047Z</time></trkpt><trkpt lat="45.8545947" lon="11.7826592"><ele>1273.0</ele><time>2026-05-03T09:17:22.047Z</time></trkpt><trkpt lat="45.854661" lon="11.7827173"><ele>1275.0</ele><time>2026-05-03T09:17:23.047Z</time></trkpt><trkpt lat="45.8547176" lon="11.7827911"><ele>1277.0</ele><time>2026-05-03T09:17:24.047Z</time></trkpt><trkpt lat="45.8547653" lon="11.7828778"><ele>1279.0</ele><time>2026-05-03T09:17:25.047Z</time></trkpt><trkpt lat="45.854803" lon="11.7829716"><ele>1281.0</ele><time>2026-05-03T09:17:26.048Z</time></trkpt><trkpt lat="45.8548354" lon="11.7830746"><ele>1281.0</ele><time>2026-05-03T09:17:27.046Z</time></trkpt><trkpt lat="45.8548734" lon="11.7831816"><ele>1281.0</ele><time>2026-05-03T09:17:28.047Z</time></trkpt><trkpt lat="45.8549087" lon="11.7832853"><ele>1281.0</ele><time>2026-05-03T09:17:29.047Z</time></trkpt><trkpt lat="45.8549414" lon="11.7833991"><ele>1281.0</ele><time>2026-05-03T09:17:30.047Z</time></trkpt><trkpt lat="45.8549678" lon="11.7835135"><ele>1281.0</ele><time>2026-05-03T09:17:31.046Z</time></trkpt><trkpt lat="45.8549933" lon="11.783622"><ele>1281.0</ele><time>2026-05-03T09:17:32.047Z</time></trkpt><trkpt lat="45.8550107" lon="11.7837159"><ele>1282.8</ele><time>2026-05-03T09:17:33.047Z</time></trkpt><trkpt lat="45.8550375" lon="11.7838753"><ele>1284.6</ele><time>2026-05-03T09:17:35.047Z</time></trkpt><trkpt lat="45.8550785" lon="11.783951"><ele>1286.4</ele><time>2026-05-03T09:17:37.047Z</time></trkpt><trkpt lat="45.855141" lon="11.78392"><ele>1288.2</ele><time>2026-05-03T09:17:39.047Z</time></trkpt><trkpt lat="45.8551962" lon="11.783797"><ele>1290.0</ele><time>2026-05-03T09:17:41.048Z</time></trkpt><trkpt lat="45.8552269" lon="11.7836235"><ele>1290.0</ele><time>2026-05-03T09:17:43.048Z</time></trkpt><trkpt lat="45.8552551" lon="11.7835399"><ele>1290.0</ele><time>2026-05-03T09:17:44.047Z</time></trkpt><trkpt lat="45.8552858" lon="11.7834546"><ele>1290.0</ele><time>2026-05-03T09:17:45.047Z</time></trkpt><trkpt lat="45.8553162" lon="11.7833679"><ele>1290.0</ele><time>2026-05-03T09:17:46.046Z</time></trkpt><trkpt lat="45.8553501" lon="11.7832889"><ele>1290.0</ele><time>2026-05-03T09:17:47.047Z</time></trkpt><trkpt lat="45.8554193" lon="11.7831798"><ele>1290.0</ele><time>2026-05-03T09:17:49.047Z</time></trkpt><trkpt lat="45.8555143" lon="11.7831552"><ele>1290.0</ele><time>2026-05-03T09:17:51.046Z</time></trkpt><trkpt lat="45.8556331" lon="11.7832122"><ele>1290.0</ele><time>2026-05-03T09:17:53.047Z</time></trkpt><trkpt lat="45.8556897" lon="11.7832684"><ele>1290.0</ele><time>2026-05-03T09:17:54.048Z</time></trkpt><trkpt lat="45.855736" lon="11.7833463"><ele>1290.0</ele><time>2026-05-03T09:17:55.047Z</time></trkpt><trkpt lat="45.8557815" lon="11.7834379"><ele>1290.0</ele><time>2026-05-03T09:17:56.048Z</time></trkpt><trkpt lat="45.8558268" lon="11.7835352"><ele>1290.0</ele><time>2026-05-03T09:17:57.047Z</time></trkpt><trkpt lat="45.8558758" lon="11.7836349"><ele>1290.0</ele><time>2026-05-03T09:17:58.048Z</time></trkpt><trkpt lat="45.8559287" lon="11.7837337"><ele>1290.0</ele><time>2026-05-03T09:17:59.047Z</time></trkpt><trkpt lat="45.8559761" lon="11.7838349"><ele>1290.0</ele><time>2026-05-03T09:18:00.047Z</time></trkpt><trkpt lat="45.8560199" lon="11.7839396"><ele>1290.0</ele><time>2026-05-03T09:18:01.047Z</time></trkpt><trkpt lat="45.8560604" lon="11.7840433"><ele>1290.0</ele><time>2026-05-03T09:18:02.047Z</time></trkpt><trkpt lat="45.8561036" lon="11.7841494"><ele>1290.0</ele><time>2026-05-03T09:18:03.047Z</time></trkpt><trkpt lat="45.8561418" lon="11.7842523"><ele>1292.6666666666667</ele><time>2026-05-03T09:18:04.046Z</time></trkpt><trkpt lat="45.8561839" lon="11.7843484"><ele>1295.3333333333333</ele><time>2026-05-03T09:18:05.047Z</time></trkpt><trkpt lat="45.8562225" lon="11.7844343"><ele>1298.0</ele><time>2026-05-03T09:18:06.047Z</time></trkpt><trkpt lat="45.8562619" lon="11.7845051"><ele>1300.6666666666665</ele><time>2026-05-03T09:18:07.047Z</time></trkpt><trkpt lat="45.8563616" lon="11.7845887"><ele>1303.3333333333333</ele><time>2026-05-03T09:18:09.047Z</time></trkpt><trkpt lat="45.8564254" lon="11.7846084"><ele>1306.0</ele><time>2026-05-03T09:18:10.048Z</time></trkpt><trkpt lat="45.8564927" lon="11.7846199"><ele>1306.0</ele><time>2026-05-03T09:18:11.047Z</time></trkpt><trkpt lat="45.8565601" lon="11.7846306"><ele>1306.0</ele><time>2026-05-03T09:18:12.047Z</time></trkpt><trkpt lat="45.8566315" lon="11.784636"><ele>1306.0</ele><time>2026-05-03T09:18:13.047Z</time></trkpt><trkpt lat="45.8567053" lon="11.7846542"><ele>1306.0</ele><time>2026-05-03T09:18:14.048Z</time></trkpt><trkpt lat="45.8567794" lon="11.7846915"><ele>1306.0</ele><time>2026-05-03T09:18:15.047Z</time></trkpt><trkpt lat="45.8568517" lon="11.7847394"><ele>1306.0</ele><time>2026-05-03T09:18:16.046Z</time></trkpt><trkpt lat="45.8569215" lon="11.784791"><ele>1310.6666666666665</ele><time>2026-05-03T09:18:17.047Z</time></trkpt><trkpt lat="45.8569914" lon="11.7848418"><ele>1315.3333333333333</ele><time>2026-05-03T09:18:18.047Z</time></trkpt><trkpt lat="45.8570639" lon="11.7848905"><ele>1320.0</ele><time>2026-05-03T09:18:19.047Z</time></trkpt><trkpt lat="45.8571306" lon="11.7849398"><ele>1324.6666666666667</ele><time>2026-05-03T09:18:20.047Z</time></trkpt><trkpt lat="45.8571981" lon="11.7850005"><ele>1329.3333333333335</ele><time>2026-05-03T09:18:21.048Z</time></trkpt><trkpt lat="45.8572681" lon="11.7850639"><ele>1334.0</ele><time>2026-05-03T09:18:22.048Z</time></trkpt><trkpt lat="45.857336" lon="11.7851273"><ele>1333.4</ele><time>2026-05-03T09:18:23.047Z</time></trkpt><trkpt lat="45.8573935" lon="11.7851981"><ele>1332.8000000000002</ele><time>2026-05-03T09:18:24.047Z</time></trkpt><trkpt lat="45.8574421" lon="11.7852675"><ele>1332.1999999999998</ele><time>2026-05-03T09:18:25.048Z</time></trkpt><trkpt lat="45.8575066" lon="11.7854225"><ele>1331.6</ele><time>2026-05-03T09:18:27.047Z</time></trkpt><trkpt lat="45.8575053" lon="11.7855816"><ele>1331.0</ele><time>2026-05-03T09:18:29.048Z</time></trkpt><trkpt lat="45.8574598" lon="11.7857388"><ele>1331.0</ele><time>2026-05-03T09:18:31.047Z</time></trkpt><trkpt lat="45.8573754" lon="11.7858796"><ele>1331.0</ele><time>2026-05-03T09:18:33.046Z</time></trkpt><trkpt lat="45.8573265" lon="11.7859545"><ele>1331.0</ele><time>2026-05-03T09:18:34.046Z</time></trkpt><trkpt lat="45.8572826" lon="11.7860229"><ele>1331.0</ele><time>2026-05-03T09:18:35.048Z</time></trkpt><trkpt lat="45.8572406" lon="11.7860905"><ele>1331.0</ele><time>2026-05-03T09:18:36.046Z</time></trkpt><trkpt lat="45.8572011" lon="11.7862334"><ele>1331.0</ele><time>2026-05-03T09:18:38.046Z</time></trkpt><trkpt lat="45.8572117" lon="11.7863839"><ele>1332.4</ele><time>2026-05-03T09:18:40.047Z</time></trkpt><trkpt lat="45.8572757" lon="11.7864872"><ele>1333.8</ele><time>2026-05-03T09:18:42.047Z</time></trkpt><trkpt lat="45.8573722" lon="11.7865663"><ele>1335.2</ele><time>2026-05-03T09:18:44.047Z</time></trkpt><trkpt lat="45.8574366" lon="11.7867061"><ele>1336.6000000000001</ele><time>2026-05-03T09:18:46.047Z</time></trkpt><trkpt lat="45.8574484" lon="11.786865"><ele>1338.0</ele><time>2026-05-03T09:18:48.047Z</time></trkpt><trkpt lat="45.8574288" lon="11.7870275"><ele>1339.0</ele><time>2026-05-03T09:18:50.047Z</time></trkpt><trkpt lat="45.8574346" lon="11.7871782"><ele>1340.0</ele><time>2026-05-03T09:18:52.047Z</time></trkpt><trkpt lat="45.8574687" lon="11.7873132"><ele>1341.0</ele><time>2026-05-03T09:18:54.047Z</time></trkpt><trkpt lat="45.8575148" lon="11.7874229"><ele>1342.0</ele><time>2026-05-03T09:18:56.047Z</time></trkpt><trkpt lat="45.8575703" lon="11.7875674"><ele>1343.0</ele><time>2026-05-03T09:18:58.048Z</time></trkpt><trkpt lat="45.8575873" lon="11.7876736"><ele>1343.5</ele><time>2026-05-03T09:18:59.047Z</time></trkpt><trkpt lat="45.8576011" lon="11.7877821"><ele>1344.0</ele><time>2026-05-03T09:19:00.048Z</time></trkpt><trkpt lat="45.8576129" lon="11.7878927"><ele>1344.5</ele><time>2026-05-03T09:19:01.047Z</time></trkpt><trkpt lat="45.8576315" lon="11.7880019"><ele>1345.0</ele><time>2026-05-03T09:19:02.048Z</time></trkpt><trkpt lat="45.8576533" lon="11.7881141"><ele>1345.5</ele><time>2026-05-03T09:19:03.047Z</time></trkpt><trkpt lat="45.8576786" lon="11.78822"><ele>1346.0</ele><time>2026-05-03T09:19:04.047Z</time></trkpt><trkpt lat="45.8577046" lon="11.7883266"><ele>1352.0</ele><time>2026-05-03T09:19:05.047Z</time></trkpt><trkpt lat="45.8577307" lon="11.7884288"><ele>1358.0</ele><time>2026-05-03T09:19:06.047Z</time></trkpt><trkpt lat="45.8577494" lon="11.7885274"><ele>1364.0</ele><time>2026-05-03T09:19:07.047Z</time></trkpt><trkpt lat="45.8577534" lon="11.7886214"><ele>1370.0</ele><time>2026-05-03T09:19:08.047Z</time></trkpt><trkpt lat="45.8577395" lon="11.7887123"><ele>1376.0</ele><time>2026-05-03T09:19:09.047Z</time></trkpt><trkpt lat="45.8577153" lon="11.7887998"><ele>1382.0</ele><time>2026-05-03T09:19:10.046Z</time></trkpt><trkpt lat="45.8576765" lon="11.788878"><ele>1388.0</ele><time>2026-05-03T09:19:11.047Z</time></trkpt><trkpt lat="45.8576348" lon="11.7889654"><ele>1384.8333333333335</ele><time>2026-05-03T09:19:12.047Z</time></trkpt><trkpt lat="45.8575885" lon="11.7890569"><ele>1381.6666666666667</ele><time>2026-05-03T09:19:13.046Z</time></trkpt><trkpt lat="45.857549" lon="11.7891592"><ele>1378.5</ele><time>2026-05-03T09:19:14.047Z</time></trkpt><trkpt lat="45.8575112" lon="11.7892677"><ele>1375.3333333333333</ele><time>2026-05-03T09:19:15.047Z</time></trkpt><trkpt lat="45.85748" lon="11.7893806"><ele>1372.1666666666665</ele><time>2026-05-03T09:19:16.047Z</time></trkpt><trkpt lat="45.8574617" lon="11.789498"><ele>1369.0</ele><time>2026-05-03T09:19:17.047Z</time></trkpt><trkpt lat="45.8574455" lon="11.7896141"><ele>1369.0</ele><time>2026-05-03T09:19:18.046Z</time></trkpt><trkpt lat="45.8574348" lon="11.789734"><ele>1369.0</ele><time>2026-05-03T09:19:19.047Z</time></trkpt><trkpt lat="45.857423" lon="11.7898505"><ele>1369.0</ele><time>2026-05-03T09:19:20.046Z</time></trkpt><trkpt lat="45.8574172" lon="11.7899419"><ele>1369.0</ele><time>2026-05-03T09:19:21.047Z</time></trkpt><trkpt lat="45.8573841" lon="11.7900945"><ele>1369.0</ele><time>2026-05-03T09:19:23.046Z</time></trkpt><trkpt lat="45.8572976" lon="11.7901536"><ele>1369.0</ele><time>2026-05-03T09:19:25.047Z</time></trkpt><trkpt lat="45.8571731" lon="11.7901704"><ele>1370.8333333333333</ele><time>2026-05-03T09:19:27.047Z</time></trkpt><trkpt lat="45.8571116" lon="11.7902082"><ele>1372.6666666666665</ele><time>2026-05-03T09:19:28.046Z</time></trkpt><trkpt lat="45.8570499" lon="11.79026"><ele>1374.5</ele><time>2026-05-03T09:19:29.046Z</time></trkpt><trkpt lat="45.8569875" lon="11.7903241"><ele>1376.3333333333333</ele><time>2026-05-03T09:19:30.047Z</time></trkpt><trkpt lat="45.8569224" lon="11.7903927"><ele>1378.1666666666667</ele><time>2026-05-03T09:19:31.047Z</time></trkpt><trkpt lat="45.8568651" lon="11.790464"><ele>1380.0</ele><time>2026-05-03T09:19:32.047Z</time></trkpt><trkpt lat="45.8568113" lon="11.7906132"><ele>1380.0</ele><time>2026-05-03T09:19:34.047Z</time></trkpt><trkpt lat="45.8568072" lon="11.7907111"><ele>1380.0</ele><time>2026-05-03T09:19:35.046Z</time></trkpt><trkpt lat="45.8568089" lon="11.7908172"><ele>1380.0</ele><time>2026-05-03T09:19:36.048Z</time></trkpt><trkpt lat="45.8568189" lon="11.7909253"><ele>1380.0</ele><time>2026-05-03T09:19:37.047Z</time></trkpt><trkpt lat="45.856836" lon="11.7910323"><ele>1380.0</ele><time>2026-05-03T09:19:38.047Z</time></trkpt><trkpt lat="45.8568577" lon="11.7911477"><ele>1380.0</ele><time>2026-05-03T09:19:39.048Z</time></trkpt><trkpt lat="45.8568908" lon="11.7912645"><ele>1378.8333333333333</ele><time>2026-05-03T09:19:40.047Z</time></trkpt><trkpt lat="45.8569219" lon="11.7913809"><ele>1377.6666666666667</ele><time>2026-05-03T09:19:41.047Z</time></trkpt><trkpt lat="45.8569507" lon="11.7914849"><ele>1376.5</ele><time>2026-05-03T09:19:42.046Z</time></trkpt><trkpt lat="45.8569768" lon="11.7915755"><ele>1375.3333333333335</ele><time>2026-05-03T09:19:43.047Z</time></trkpt><trkpt lat="45.8570231" lon="11.7917215"><ele>1374.1666666666667</ele><time>2026-05-03T09:19:45.047Z</time></trkpt><trkpt lat="45.8570923" lon="11.7917946"><ele>1373.0</ele><time>2026-05-03T09:19:47.047Z</time></trkpt><trkpt lat="45.8571879" lon="11.7917915"><ele>1373.0</ele><time>2026-05-03T09:19:49.047Z</time></trkpt><trkpt lat="45.8572901" lon="11.7917038"><ele>1373.0</ele><time>2026-05-03T09:19:51.046Z</time></trkpt><trkpt lat="45.8573417" lon="11.7916226"><ele>1373.0</ele><time>2026-05-03T09:19:52.047Z</time></trkpt><trkpt lat="45.8573998" lon="11.7915295"><ele>1373.0</ele><time>2026-05-03T09:19:53.047Z</time></trkpt><trkpt lat="45.8574589" lon="11.7914382"><ele>1373.0</ele><time>2026-05-03T09:19:54.047Z</time></trkpt><trkpt lat="45.8575247" lon="11.7913441"><ele>1373.0</ele><time>2026-05-03T09:19:55.046Z</time></trkpt><trkpt lat="45.8575905" lon="11.7912574"><ele>1373.0</ele><time>2026-05-03T09:19:56.047Z</time></trkpt><trkpt lat="45.8576552" lon="11.7911809"><ele>1373.0</ele><time>2026-05-03T09:19:57.047Z</time></trkpt><trkpt lat="45.8577225" lon="11.791118"><ele>1373.0</ele><time>2026-05-03T09:19:58.047Z</time></trkpt><trkpt lat="45.8577892" lon="11.7910834"><ele>1373.0</ele><time>2026-05-03T09:19:59.047Z</time></trkpt><trkpt lat="45.8578554" lon="11.7910716"><ele>1373.0</ele><time>2026-05-03T09:20:00.047Z</time></trkpt><trkpt lat="45.8579791" lon="11.7911119"><ele>1376.0</ele><time>2026-05-03T09:20:02.047Z</time></trkpt><trkpt lat="45.8580334" lon="11.791165"><ele>1379.0</ele><time>2026-05-03T09:20:03.047Z</time></trkpt><trkpt lat="45.8580864" lon="11.7912285"><ele>1382.0</ele><time>2026-05-03T09:20:04.048Z</time></trkpt><trkpt lat="45.8581396" lon="11.7912961"><ele>1385.0</ele><time>2026-05-03T09:20:05.047Z</time></trkpt><trkpt lat="45.8581911" lon="11.7913641"><ele>1388.0</ele><time>2026-05-03T09:20:06.047Z</time></trkpt><trkpt lat="45.8582402" lon="11.7914286"><ele>1391.0</ele><time>2026-05-03T09:20:07.047Z</time></trkpt><trkpt lat="45.8582869" lon="11.7914913"><ele>1394.0</ele><time>2026-05-03T09:20:08.048Z</time></trkpt><trkpt lat="45.8583734" lon="11.7916148"><ele>1401.0</ele><time>2026-05-03T09:20:10.046Z</time></trkpt><trkpt lat="45.8584619" lon="11.7917377"><ele>1408.0</ele><time>2026-05-03T09:20:12.047Z</time></trkpt><trkpt lat="45.8585427" lon="11.7918586"><ele>1415.0</ele><time>2026-05-03T09:20:14.047Z</time></trkpt><trkpt lat="45.8585837" lon="11.7919296"><ele>1422.0</ele><time>2026-05-03T09:20:15.047Z</time></trkpt><trkpt lat="45.8586328" lon="11.7920064"><ele>1429.0</ele><time>2026-05-03T09:20:16.048Z</time></trkpt><trkpt lat="45.8586797" lon="11.7920891"><ele>1429.0</ele><time>2026-05-03T09:20:17.047Z</time></trkpt><trkpt lat="45.8587258" lon="11.7921756"><ele>1429.0</ele><time>2026-05-03T09:20:18.047Z</time></trkpt><trkpt lat="45.8587683" lon="11.792259"><ele>1429.0</ele><time>2026-05-03T09:20:19.047Z</time></trkpt><trkpt lat="45.8588003" lon="11.7923382"><ele>1429.0</ele><time>2026-05-03T09:20:20.046Z</time></trkpt><trkpt lat="45.8588167" lon="11.7924926"><ele>1429.0</ele><time>2026-05-03T09:20:22.047Z</time></trkpt><trkpt lat="45.8587539" lon="11.7926465"><ele>1429.0</ele><time>2026-05-03T09:20:24.048Z</time></trkpt><trkpt lat="45.8587054" lon="11.7927191"><ele>1430.2857142857142</ele><time>2026-05-03T09:20:25.048Z</time></trkpt><trkpt lat="45.8586582" lon="11.7927957"><ele>1431.5714285714284</ele><time>2026-05-03T09:20:26.046Z</time></trkpt><trkpt lat="45.8586239" lon="11.7928769"><ele>1432.8571428571427</ele><time>2026-05-03T09:20:27.047Z</time></trkpt><trkpt lat="45.8586046" lon="11.7929705"><ele>1434.142857142857</ele><time>2026-05-03T09:20:28.047Z</time></trkpt><trkpt lat="45.85859" lon="11.7930685"><ele>1435.4285714285713</ele><time>2026-05-03T09:20:29.047Z</time></trkpt><trkpt lat="45.858578" lon="11.7931746"><ele>1436.7142857142856</ele><time>2026-05-03T09:20:30.047Z</time></trkpt><trkpt lat="45.8585673" lon="11.7932885"><ele>1438.0</ele><time>2026-05-03T09:20:31.048Z</time></trkpt><trkpt lat="45.8585574" lon="11.7934009"><ele>1439.6666666666665</ele><time>2026-05-03T09:20:32.047Z</time></trkpt><trkpt lat="45.8585514" lon="11.7935139"><ele>1441.3333333333333</ele><time>2026-05-03T09:20:33.048Z</time></trkpt><trkpt lat="45.8585504" lon="11.7936244"><ele>1443.0</ele><time>2026-05-03T09:20:34.048Z</time></trkpt><trkpt lat="45.8585586" lon="11.7937396"><ele>1444.6666666666667</ele><time>2026-05-03T09:20:35.046Z</time></trkpt><trkpt lat="45.8585647" lon="11.7938537"><ele>1446.3333333333335</ele><time>2026-05-03T09:20:36.047Z</time></trkpt><trkpt lat="45.8585588" lon="11.7939561"><ele>1448.0</ele><time>2026-05-03T09:20:37.047Z</time></trkpt><trkpt lat="45.8585352" lon="11.7940554"><ele>1448.0</ele><time>2026-05-03T09:20:38.048Z</time></trkpt><trkpt lat="45.8585007" lon="11.7941412"><ele>1448.0</ele><time>2026-05-03T09:20:39.047Z</time></trkpt><trkpt lat="45.8584761" lon="11.7942303"><ele>1448.0</ele><time>2026-05-03T09:20:40.048Z</time></trkpt><trkpt lat="45.8584684" lon="11.7944153"><ele>1448.0</ele><time>2026-05-03T09:20:42.047Z</time></trkpt><trkpt lat="45.8584803" lon="11.7945117"><ele>1448.0</ele><time>2026-05-03T09:20:43.046Z</time></trkpt><trkpt lat="45.8585084" lon="11.7946146"><ele>1448.0</ele><time>2026-05-03T09:20:44.046Z</time></trkpt><trkpt lat="45.8585444" lon="11.7947084"><ele>1449.0</ele><time>2026-05-03T09:20:45.048Z</time></trkpt><trkpt lat="45.8585908" lon="11.7947966"><ele>1450.0</ele><time>2026-05-03T09:20:46.046Z</time></trkpt><trkpt lat="45.8586374" lon="11.7948711"><ele>1451.0</ele><time>2026-05-03T09:20:47.047Z</time></trkpt><trkpt lat="45.8586854" lon="11.7950171"><ele>1452.0</ele><time>2026-05-03T09:20:49.048Z</time></trkpt><trkpt lat="45.8586681" lon="11.7951959"><ele>1453.0</ele><time>2026-05-03T09:20:51.047Z</time></trkpt><trkpt lat="45.8586416" lon="11.7952945"><ele>1454.1666666666665</ele><time>2026-05-03T09:20:52.047Z</time></trkpt><trkpt lat="45.8586054" lon="11.7953904"><ele>1455.3333333333333</ele><time>2026-05-03T09:20:53.047Z</time></trkpt><trkpt lat="45.8585567" lon="11.7954779"><ele>1456.5</ele><time>2026-05-03T09:20:54.047Z</time></trkpt><trkpt lat="45.8585074" lon="11.7955607"><ele>1457.6666666666667</ele><time>2026-05-03T09:20:55.047Z</time></trkpt><trkpt lat="45.8584606" lon="11.7956327"><ele>1458.8333333333335</ele><time>2026-05-03T09:20:56.047Z</time></trkpt><trkpt lat="45.8584004" lon="11.7957607"><ele>1460.0</ele><time>2026-05-03T09:20:58.047Z</time></trkpt><trkpt lat="45.8584107" lon="11.7958972"><ele>1459.0</ele><time>2026-05-03T09:21:00.046Z</time></trkpt><trkpt lat="45.8584387" lon="11.7959825"><ele>1458.0</ele><time>2026-05-03T09:21:01.047Z</time></trkpt><trkpt lat="45.8584832" lon="11.7960677"><ele>1457.0</ele><time>2026-05-03T09:21:02.047Z</time></trkpt><trkpt lat="45.8585396" lon="11.7961516"><ele>1456.0</ele><time>2026-05-03T09:21:03.047Z</time></trkpt><trkpt lat="45.858605" lon="11.7962382"><ele>1455.0</ele><time>2026-05-03T09:21:04.047Z</time></trkpt><trkpt lat="45.8586761" lon="11.7963269"><ele>1454.0</ele><time>2026-05-03T09:21:05.047Z</time></trkpt><trkpt lat="45.8587407" lon="11.7964067"><ele>1454.0</ele><time>2026-05-03T09:21:06.047Z</time></trkpt><trkpt lat="45.8587985" lon="11.7964715"><ele>1454.0</ele><time>2026-05-03T09:21:07.048Z</time></trkpt><trkpt lat="45.8588791" lon="11.7965921"><ele>1454.0</ele><time>2026-05-03T09:21:09.047Z</time></trkpt><trkpt lat="45.8588996" lon="11.7967372"><ele>1454.0</ele><time>2026-05-03T09:21:11.048Z</time></trkpt><trkpt lat="45.8588482" lon="11.7968597"><ele>1454.0</ele><time>2026-05-03T09:21:13.047Z</time></trkpt><trkpt lat="45.8587285" lon="11.7969447"><ele>1454.8000000000002</ele><time>2026-05-03T09:21:15.047Z</time></trkpt><trkpt lat="45.8586508" lon="11.7969955"><ele>1455.6000000000001</ele><time>2026-05-03T09:21:16.046Z</time></trkpt><trkpt lat="45.8585829" lon="11.7970529"><ele>1456.4</ele><time>2026-05-03T09:21:17.048Z</time></trkpt><trkpt lat="45.8585053" lon="11.7971747"><ele>1457.2</ele><time>2026-05-03T09:21:19.047Z</time></trkpt><trkpt lat="45.858486" lon="11.7973456"><ele>1458.0</ele><time>2026-05-03T09:21:21.048Z</time></trkpt><trkpt lat="45.8584938" lon="11.7974374"><ele>1458.0</ele><time>2026-05-03T09:21:22.047Z</time></trkpt><trkpt lat="45.8585058" lon="11.7975436"><ele>1458.0</ele><time>2026-05-03T09:21:23.048Z</time></trkpt><trkpt lat="45.8585274" lon="11.7976393"><ele>1458.0</ele><time>2026-05-03T09:21:24.047Z</time></trkpt><trkpt lat="45.8585647" lon="11.7977346"><ele>1458.0</ele><time>2026-05-03T09:21:25.047Z</time></trkpt><trkpt lat="45.8586116" lon="11.7978293"><ele>1458.0</ele><time>2026-05-03T09:21:26.048Z</time></trkpt><trkpt lat="45.8586573" lon="11.797916"><ele>1458.0</ele><time>2026-05-03T09:21:27.048Z</time></trkpt><trkpt lat="45.8586898" lon="11.7980085"><ele>1460.8333333333333</ele><time>2026-05-03T09:21:28.048Z</time></trkpt><trkpt lat="45.8587019" lon="11.7981125"><ele>1463.6666666666667</ele><time>2026-05-03T09:21:29.047Z</time></trkpt><trkpt lat="45.8587066" lon="11.7982269"><ele>1466.5</ele><time>2026-05-03T09:21:30.048Z</time></trkpt><trkpt lat="45.8586925" lon="11.7983443"><ele>1469.3333333333335</ele><time>2026-05-03T09:21:31.047Z</time></trkpt><trkpt lat="45.8586763" lon="11.7984701"><ele>1472.1666666666667</ele><time>2026-05-03T09:21:32.047Z</time></trkpt><trkpt lat="45.8586597" lon="11.7985976"><ele>1475.0</ele><time>2026-05-03T09:21:33.047Z</time></trkpt><trkpt lat="45.8586377" lon="11.7987204"><ele>1477.0</ele><time>2026-05-03T09:21:34.048Z</time></trkpt><trkpt lat="45.8586109" lon="11.7988481"><ele>1479.0</ele><time>2026-05-03T09:21:35.047Z</time></trkpt><trkpt lat="45.8585722" lon="11.7989622"><ele>1481.0</ele><time>2026-05-03T09:21:36.048Z</time></trkpt><trkpt lat="45.8585305" lon="11.7990679"><ele>1483.0</ele><time>2026-05-03T09:21:37.049Z</time></trkpt><trkpt lat="45.8584984" lon="11.799167"><ele>1485.0</ele><time>2026-05-03T09:21:38.048Z</time></trkpt><trkpt lat="45.8584788" lon="11.7992596"><ele>1487.0</ele><time>2026-05-03T09:21:39.048Z</time></trkpt><trkpt lat="45.8584735" lon="11.7993569"><ele>1487.0</ele><time>2026-05-03T09:21:40.047Z</time></trkpt><trkpt lat="45.858504" lon="11.7995279"><ele>1487.0</ele><time>2026-05-03T09:21:42.048Z</time></trkpt><trkpt lat="45.8585346" lon="11.7996111"><ele>1487.0</ele><time>2026-05-03T09:21:43.049Z</time></trkpt><trkpt lat="45.8585777" lon="11.7996932"><ele>1487.0</ele><time>2026-05-03T09:21:44.048Z</time></trkpt><trkpt lat="45.8586277" lon="11.7997748"><ele>1487.0</ele><time>2026-05-03T09:21:45.049Z</time></trkpt><trkpt lat="45.8586827" lon="11.799854"><ele>1487.0</ele><time>2026-05-03T09:21:46.048Z</time></trkpt><trkpt lat="45.8587427" lon="11.7999284"><ele>1487.0</ele><time>2026-05-03T09:21:47.049Z</time></trkpt><trkpt lat="45.8588026" lon="11.8000071"><ele>1487.0</ele><time>2026-05-03T09:21:48.048Z</time></trkpt><trkpt lat="45.8588651" lon="11.8000911"><ele>1487.0</ele><time>2026-05-03T09:21:49.048Z</time></trkpt><trkpt lat="45.8589234" lon="11.8001742"><ele>1487.0</ele><time>2026-05-03T09:21:50.048Z</time></trkpt><trkpt lat="45.8589807" lon="11.800249"><ele>1487.0</ele><time>2026-05-03T09:21:51.048Z</time></trkpt><trkpt lat="45.8590229" lon="11.8003244"><ele>1487.0</ele><time>2026-05-03T09:21:52.048Z</time></trkpt><trkpt lat="45.8590477" lon="11.8004919"><ele>1485.6</ele><time>2026-05-03T09:21:54.048Z</time></trkpt><trkpt lat="45.8590402" lon="11.8005869"><ele>1484.1999999999998</ele><time>2026-05-03T09:21:55.047Z</time></trkpt><trkpt lat="45.8590441" lon="11.8007549"><ele>1482.8</ele><time>2026-05-03T09:21:57.048Z</time></trkpt><trkpt lat="45.8591035" lon="11.8008852"><ele>1481.4</ele><time>2026-05-03T09:21:59.047Z</time></trkpt><trkpt lat="45.8591584" lon="11.8009601"><ele>1480.0</ele><time>2026-05-03T09:22:00.048Z</time></trkpt><trkpt lat="45.8592173" lon="11.8010474"><ele>1479.5</ele><time>2026-05-03T09:22:01.049Z</time></trkpt><trkpt lat="45.8592808" lon="11.8011435"><ele>1479.0</ele><time>2026-05-03T09:22:02.047Z</time></trkpt><trkpt lat="45.8593396" lon="11.8012364"><ele>1478.5</ele><time>2026-05-03T09:22:03.049Z</time></trkpt><trkpt lat="45.8593882" lon="11.8013269"><ele>1478.0</ele><time>2026-05-03T09:22:04.048Z</time></trkpt><trkpt lat="45.8594264" lon="11.8014217"><ele>1477.5</ele><time>2026-05-03T09:22:05.048Z</time></trkpt><trkpt lat="45.8594446" lon="11.8015214"><ele>1477.0</ele><time>2026-05-03T09:22:06.049Z</time></trkpt><trkpt lat="45.859454" lon="11.8016254"><ele>1482.3333333333333</ele><time>2026-05-03T09:22:07.048Z</time></trkpt><trkpt lat="45.8594617" lon="11.8017276"><ele>1487.6666666666665</ele><time>2026-05-03T09:22:08.049Z</time></trkpt><trkpt lat="45.8594752" lon="11.801819"><ele>1493.0</ele><time>2026-05-03T09:22:09.049Z</time></trkpt><trkpt lat="45.8594863" lon="11.8019771"><ele>1498.3333333333333</ele><time>2026-05-03T09:22:11.049Z</time></trkpt><trkpt lat="45.8594507" lon="11.8020926"><ele>1503.6666666666667</ele><time>2026-05-03T09:22:13.049Z</time></trkpt><trkpt lat="45.8593772" lon="11.8021751"><ele>1509.0</ele><time>2026-05-03T09:22:15.048Z</time></trkpt><trkpt lat="45.8593177" lon="11.8022102"><ele>1505.8333333333333</ele><time>2026-05-03T09:22:16.047Z</time></trkpt><trkpt lat="45.8592418" lon="11.8022567"><ele>1502.6666666666667</ele><time>2026-05-03T09:22:17.048Z</time></trkpt><trkpt lat="45.8591593" lon="11.8023119"><ele>1499.5</ele><time>2026-05-03T09:22:18.048Z</time></trkpt><trkpt lat="45.8591003" lon="11.8023746"><ele>1496.3333333333335</ele><time>2026-05-03T09:22:19.047Z</time></trkpt><trkpt lat="45.8590596" lon="11.8024494"><ele>1493.1666666666667</ele><time>2026-05-03T09:22:20.048Z</time></trkpt><trkpt lat="45.8590455" lon="11.8025902"><ele>1490.0</ele><time>2026-05-03T09:22:22.049Z</time></trkpt><trkpt lat="45.8591239" lon="11.8025767"><ele>1490.0</ele><time>2026-05-03T09:22:25.049Z</time></trkpt><trkpt lat="45.8592078" lon="11.8024584"><ele>1490.0</ele><time>2026-05-03T09:22:27.049Z</time></trkpt><trkpt lat="45.8592695" lon="11.8024229"><ele>1490.0</ele><time>2026-05-03T09:22:28.048Z</time></trkpt><trkpt lat="45.8593867" lon="11.8024151"><ele>1490.0</ele><time>2026-05-03T09:22:30.048Z</time></trkpt><trkpt lat="45.8594512" lon="11.8024063"><ele>1490.0</ele><time>2026-05-03T09:22:31.047Z</time></trkpt><trkpt lat="45.8595202" lon="11.8024106"><ele>1490.0</ele><time>2026-05-03T09:22:32.049Z</time></trkpt><trkpt lat="45.8595966" lon="11.8024134"><ele>1493.6666666666667</ele><time>2026-05-03T09:22:33.047Z</time></trkpt><trkpt lat="45.8596727" lon="11.8024158"><ele>1497.3333333333335</ele><time>2026-05-03T09:22:34.047Z</time></trkpt><trkpt lat="45.8597461" lon="11.8024175"><ele>1501.0</ele><time>2026-05-03T09:22:35.048Z</time></trkpt><trkpt lat="45.8598173" lon="11.8024121"><ele>1504.6666666666667</ele><time>2026-05-03T09:22:36.048Z</time></trkpt><trkpt lat="45.8599318" lon="11.8023743"><ele>1508.3333333333333</ele><time>2026-05-03T09:22:38.049Z</time></trkpt><trkpt lat="45.859969" lon="11.8022395"><ele>1512.0</ele><time>2026-05-03T09:22:40.048Z</time></trkpt><trkpt lat="45.8599758" lon="11.8020616"><ele>1512.0</ele><time>2026-05-03T09:22:42.047Z</time></trkpt><trkpt lat="45.8599772" lon="11.8019659"><ele>1512.0</ele><time>2026-05-03T09:22:43.049Z</time></trkpt><trkpt lat="45.8600069" lon="11.8018298"><ele>1512.0</ele><time>2026-05-03T09:22:45.048Z</time></trkpt><trkpt lat="45.8600948" lon="11.8017544"><ele>1512.0</ele><time>2026-05-03T09:22:47.048Z</time></trkpt><trkpt lat="45.8601584" lon="11.801643"><ele>1512.0</ele><time>2026-05-03T09:22:49.048Z</time></trkpt><trkpt lat="45.8601693" lon="11.8014664"><ele>1511.5</ele><time>2026-05-03T09:22:51.049Z</time></trkpt><trkpt lat="45.8601581" lon="11.8013596"><ele>1511.0</ele><time>2026-05-03T09:22:52.048Z</time></trkpt><trkpt lat="45.8601353" lon="11.8012415"><ele>1510.5</ele><time>2026-05-03T09:22:53.048Z</time></trkpt><trkpt lat="45.8601016" lon="11.8011231"><ele>1510.0</ele><time>2026-05-03T09:22:54.048Z</time></trkpt><trkpt lat="45.8600633" lon="11.8010126"><ele>1509.5</ele><time>2026-05-03T09:22:55.048Z</time></trkpt><trkpt lat="45.8600299" lon="11.800897"><ele>1509.0</ele><time>2026-05-03T09:22:56.048Z</time></trkpt><trkpt lat="45.8600165" lon="11.8007791"><ele>1510.1666666666667</ele><time>2026-05-03T09:22:57.048Z</time></trkpt><trkpt lat="45.8600205" lon="11.8006701"><ele>1511.3333333333333</ele><time>2026-05-03T09:22:58.049Z</time></trkpt><trkpt lat="45.860039" lon="11.800571"><ele>1512.5</ele><time>2026-05-03T09:22:59.047Z</time></trkpt><trkpt lat="45.8600732" lon="11.8004799"><ele>1513.6666666666665</ele><time>2026-05-03T09:23:00.048Z</time></trkpt><trkpt lat="45.8601193" lon="11.8003948"><ele>1514.8333333333333</ele><time>2026-05-03T09:23:01.048Z</time></trkpt><trkpt lat="45.8601762" lon="11.8003201"><ele>1516.0</ele><time>2026-05-03T09:23:02.048Z</time></trkpt><trkpt lat="45.8602301" lon="11.8002324"><ele>1519.5</ele><time>2026-05-03T09:23:03.048Z</time></trkpt><trkpt lat="45.8602797" lon="11.800131"><ele>1523.0</ele><time>2026-05-03T09:23:04.048Z</time></trkpt><trkpt lat="45.8603249" lon="11.8000205"><ele>1526.5</ele><time>2026-05-03T09:23:05.048Z</time></trkpt><trkpt lat="45.8603649" lon="11.7999184"><ele>1530.0</ele><time>2026-05-03T09:23:06.048Z</time></trkpt><trkpt lat="45.8604158" lon="11.7998394"><ele>1533.5000000000002</ele><time>2026-05-03T09:23:07.049Z</time></trkpt><trkpt lat="45.8604821" lon="11.7997807"><ele>1537.0</ele><time>2026-05-03T09:23:08.047Z</time></trkpt><trkpt lat="45.8605584" lon="11.799744"><ele>1537.0</ele><time>2026-05-03T09:23:09.048Z</time></trkpt><trkpt lat="45.8606468" lon="11.7997141"><ele>1537.0</ele><time>2026-05-03T09:23:10.048Z</time></trkpt><trkpt lat="45.8607369" lon="11.7996929"><ele>1537.0</ele><time>2026-05-03T09:23:11.048Z</time></trkpt><trkpt lat="45.8608177" lon="11.7996856"><ele>1537.0</ele><time>2026-05-03T09:23:12.048Z</time></trkpt><trkpt lat="45.8608855" lon="11.7996992"><ele>1537.0</ele><time>2026-05-03T09:23:13.049Z</time></trkpt><trkpt lat="45.8609966" lon="11.7996368"><ele>1536.3999999999999</ele><time>2026-05-03T09:23:15.047Z</time></trkpt><trkpt lat="45.8610397" lon="11.7994692"><ele>1535.8</ele><time>2026-05-03T09:23:17.049Z</time></trkpt><trkpt lat="45.8610211" lon="11.7993664"><ele>1535.2</ele><time>2026-05-03T09:23:18.048Z</time></trkpt><trkpt lat="45.860988" lon="11.799259"><ele>1534.6</ele><time>2026-05-03T09:23:19.048Z</time></trkpt><trkpt lat="45.8609478" lon="11.7991415"><ele>1534.0</ele><time>2026-05-03T09:23:20.047Z</time></trkpt><trkpt lat="45.8609078" lon="11.7990095"><ele>1534.0</ele><time>2026-05-03T09:23:21.047Z</time></trkpt><trkpt lat="45.8608821" lon="11.7988748"><ele>1534.0</ele><time>2026-05-03T09:23:22.048Z</time></trkpt><trkpt lat="45.860859" lon="11.7987293"><ele>1534.0</ele><time>2026-05-03T09:23:23.047Z</time></trkpt><trkpt lat="45.8608389" lon="11.7985877"><ele>1534.0</ele><time>2026-05-03T09:23:24.049Z</time></trkpt><trkpt lat="45.8608239" lon="11.7984691"><ele>1534.0</ele><time>2026-05-03T09:23:25.048Z</time></trkpt><trkpt lat="45.8608091" lon="11.7983642"><ele>1535.4</ele><time>2026-05-03T09:23:26.048Z</time></trkpt><trkpt lat="45.8608049" lon="11.7981991"><ele>1536.8000000000002</ele><time>2026-05-03T09:23:28.049Z</time></trkpt><trkpt lat="45.8608713" lon="11.7981597"><ele>1538.1999999999998</ele><time>2026-05-03T09:23:30.048Z</time></trkpt><trkpt lat="45.8608984" lon="11.798266"><ele>1539.6</ele><time>2026-05-03T09:23:32.048Z</time></trkpt><trkpt lat="45.8609239" lon="11.7984186"><ele>1541.0</ele><time>2026-05-03T09:23:34.048Z</time></trkpt><trkpt lat="45.8609625" lon="11.7985302"><ele>1544.9999999999998</ele><time>2026-05-03T09:23:35.048Z</time></trkpt><trkpt lat="45.861012" lon="11.7986443"><ele>1549.0</ele><time>2026-05-03T09:23:36.047Z</time></trkpt><trkpt lat="45.8610642" lon="11.7987572"><ele>1553.0</ele><time>2026-05-03T09:23:37.048Z</time></trkpt><trkpt lat="45.8611063" lon="11.7988596"><ele>1557.0</ele><time>2026-05-03T09:23:38.047Z</time></trkpt><trkpt lat="45.8611518" lon="11.7989463"><ele>1560.9999999999998</ele><time>2026-05-03T09:23:39.048Z</time></trkpt><trkpt lat="45.8612082" lon="11.7990192"><ele>1565.0</ele><time>2026-05-03T09:23:40.048Z</time></trkpt><trkpt lat="45.8612783" lon="11.799079"><ele>1565.0000000000002</ele><time>2026-05-03T09:23:41.048Z</time></trkpt><trkpt lat="45.8613476" lon="11.7991384"><ele>1565.0</ele><time>2026-05-03T09:23:42.048Z</time></trkpt><trkpt lat="45.8614091" lon="11.7992113"><ele>1565.0</ele><time>2026-05-03T09:23:43.048Z</time></trkpt><trkpt lat="45.8614509" lon="11.7992945"><ele>1565.0</ele><time>2026-05-03T09:23:44.048Z</time></trkpt><trkpt lat="45.8614678" lon="11.7993903"><ele>1565.0</ele><time>2026-05-03T09:23:45.049Z</time></trkpt><trkpt lat="45.8614624" lon="11.7994877"><ele>1565.0000000000002</ele><time>2026-05-03T09:23:46.049Z</time></trkpt><trkpt lat="45.8614528" lon="11.7995948"><ele>1565.0</ele><time>2026-05-03T09:23:47.048Z</time></trkpt><trkpt lat="45.8614645" lon="11.799712"><ele>1564.0</ele><time>2026-05-03T09:23:48.047Z</time></trkpt><trkpt lat="45.8614969" lon="11.7998379"><ele>1563.0</ele><time>2026-05-03T09:23:49.048Z</time></trkpt><trkpt lat="45.8615323" lon="11.7999615"><ele>1562.0</ele><time>2026-05-03T09:23:50.049Z</time></trkpt><trkpt lat="45.8615691" lon="11.800085"><ele>1561.0</ele><time>2026-05-03T09:23:51.049Z</time></trkpt><trkpt lat="45.8616082" lon="11.8001937"><ele>1560.0</ele><time>2026-05-03T09:23:52.048Z</time></trkpt><trkpt lat="45.8616597" lon="11.800293"><ele>1560.0</ele><time>2026-05-03T09:23:53.049Z</time></trkpt><trkpt lat="45.8617268" lon="11.8003807"><ele>1560.0</ele><time>2026-05-03T09:23:54.048Z</time></trkpt><trkpt lat="45.8618065" lon="11.8004451"><ele>1560.0</ele><time>2026-05-03T09:23:55.048Z</time></trkpt><trkpt lat="45.8618873" lon="11.8005033"><ele>1560.0</ele><time>2026-05-03T09:23:56.047Z</time></trkpt><trkpt lat="45.8619507" lon="11.8005788"><ele>1560.0</ele><time>2026-05-03T09:23:57.049Z</time></trkpt><trkpt lat="45.8620035" lon="11.8006927"><ele>1563.8</ele><time>2026-05-03T09:23:58.048Z</time></trkpt><trkpt lat="45.8620603" lon="11.8008403"><ele>1567.6</ele><time>2026-05-03T09:23:59.049Z</time></trkpt><trkpt lat="45.862115" lon="11.8009954"><ele>1571.4</ele><time>2026-05-03T09:24:00.048Z</time></trkpt><trkpt lat="45.8621292" lon="11.8011282"><ele>1575.2</ele><time>2026-05-03T09:24:01.049Z</time></trkpt><trkpt lat="45.862094" lon="11.8012438"><ele>1579.0</ele><time>2026-05-03T09:24:02.048Z</time></trkpt><trkpt lat="45.8620325" lon="11.8013409"><ele>1579.0</ele><time>2026-05-03T09:24:03.048Z</time></trkpt><trkpt lat="45.8619965" lon="11.8014603"><ele>1579.0</ele><time>2026-05-03T09:24:04.047Z</time></trkpt><trkpt lat="45.8619917" lon="11.801605"><ele>1579.0</ele><time>2026-05-03T09:24:05.049Z</time></trkpt><trkpt lat="45.8620015" lon="11.8017755"><ele>1579.0</ele><time>2026-05-03T09:24:06.048Z</time></trkpt><trkpt lat="45.862004" lon="11.8019371"><ele>1579.0</ele><time>2026-05-03T09:24:07.049Z</time></trkpt><trkpt lat="45.8619875" lon="11.8021006"><ele>1579.0000000000002</ele><time>2026-05-03T09:24:08.049Z</time></trkpt><trkpt lat="45.8619783" lon="11.8022663"><ele>1579.0</ele><time>2026-05-03T09:24:09.048Z</time></trkpt><trkpt lat="45.8619887" lon="11.8024113"><ele>1579.0</ele><time>2026-05-03T09:24:10.048Z</time></trkpt><trkpt lat="45.862016" lon="11.8025248"><ele>1579.0</ele><time>2026-05-03T09:24:11.047Z</time></trkpt><trkpt lat="45.8620652" lon="11.8025991"><ele>1579.0000000000002</ele><time>2026-05-03T09:24:12.048Z</time></trkpt><trkpt lat="45.8621278" lon="11.8026581"><ele>1579.0</ele><time>2026-05-03T09:24:13.049Z</time></trkpt><trkpt lat="45.8622061" lon="11.8027074"><ele>1579.0000000000002</ele><time>2026-05-03T09:24:14.048Z</time></trkpt><trkpt lat="45.8622874" lon="11.8027153"><ele>1579.0</ele><time>2026-05-03T09:24:15.048Z</time></trkpt><trkpt lat="45.8623634" lon="11.8026878"><ele>1579.0</ele><time>2026-05-03T09:24:16.048Z</time></trkpt><trkpt lat="45.8624325" lon="11.802632"><ele>1579.0</ele><time>2026-05-03T09:24:17.047Z</time></trkpt><trkpt lat="45.8625043" lon="11.8025737"><ele>1579.0000000000002</ele><time>2026-05-03T09:24:18.049Z</time></trkpt><trkpt lat="45.862573" lon="11.802537"><ele>1579.0</ele><time>2026-05-03T09:24:19.047Z</time></trkpt><trkpt lat="45.8626512" lon="11.8025184"><ele>1577.6</ele><time>2026-05-03T09:24:20.048Z</time></trkpt><trkpt lat="45.8627285" lon="11.8025227"><ele>1576.2</ele><time>2026-05-03T09:24:21.048Z</time></trkpt><trkpt lat="45.8628078" lon="11.8025552"><ele>1574.8</ele><time>2026-05-03T09:24:22.048Z</time></trkpt><trkpt lat="45.862886" lon="11.8026217"><ele>1573.3999999999999</ele><time>2026-05-03T09:24:23.048Z</time></trkpt><trkpt lat="45.8629587" lon="11.8027172"><ele>1572.0</ele><time>2026-05-03T09:24:24.048Z</time></trkpt><trkpt lat="45.8630328" lon="11.8028268"><ele>1572.0</ele><time>2026-05-03T09:24:25.048Z</time></trkpt><trkpt lat="45.8631181" lon="11.8029303"><ele>1572.0</ele><time>2026-05-03T09:24:26.048Z</time></trkpt><trkpt lat="45.8632056" lon="11.8029953"><ele>1572.0</ele><time>2026-05-03T09:24:27.048Z</time></trkpt><trkpt lat="45.8632926" lon="11.8030169"><ele>1572.0</ele><time>2026-05-03T09:24:28.048Z</time></trkpt><trkpt lat="45.8633841" lon="11.8029975"><ele>1572.0</ele><time>2026-05-03T09:24:29.048Z</time></trkpt><trkpt lat="45.8634834" lon="11.802955"><ele>1571.0</ele><time>2026-05-03T09:24:30.049Z</time></trkpt><trkpt lat="45.8635872" lon="11.8029051"><ele>1570.0</ele><time>2026-05-03T09:24:31.047Z</time></trkpt><trkpt lat="45.8636906" lon="11.8028506"><ele>1569.0</ele><time>2026-05-03T09:24:32.048Z</time></trkpt><trkpt lat="45.8637932" lon="11.8027975"><ele>1568.0</ele><time>2026-05-03T09:24:33.049Z</time></trkpt><trkpt lat="45.863902" lon="11.8027493"><ele>1567.0</ele><time>2026-05-03T09:24:34.048Z</time></trkpt><trkpt lat="45.8640119" lon="11.8027133"><ele>1567.0</ele><time>2026-05-03T09:24:35.047Z</time></trkpt><trkpt lat="45.8641273" lon="11.8026979"><ele>1567.0</ele><time>2026-05-03T09:24:36.049Z</time></trkpt><trkpt lat="45.8642428" lon="11.8026971"><ele>1567.0</ele><time>2026-05-03T09:24:37.049Z</time></trkpt><trkpt lat="45.8643626" lon="11.802694"><ele>1567.0</ele><time>2026-05-03T09:24:38.048Z</time></trkpt><trkpt lat="45.8644734" lon="11.8027071"><ele>1565.6666666666667</ele><time>2026-05-03T09:24:39.049Z</time></trkpt><trkpt lat="45.8645692" lon="11.8027318"><ele>1564.3333333333335</ele><time>2026-05-03T09:24:40.049Z</time></trkpt><trkpt lat="45.8646518" lon="11.8027302"><ele>1563.0</ele><time>2026-05-03T09:24:41.048Z</time></trkpt><trkpt lat="45.86472" lon="11.8026951"><ele>1561.6666666666665</ele><time>2026-05-03T09:24:42.048Z</time></trkpt><trkpt lat="45.8647629" lon="11.8026237"><ele>1560.3333333333333</ele><time>2026-05-03T09:24:43.048Z</time></trkpt><trkpt lat="45.8647763" lon="11.8025257"><ele>1559.0</ele><time>2026-05-03T09:24:44.048Z</time></trkpt><trkpt lat="45.8647708" lon="11.8024133"><ele>1562.4</ele><time>2026-05-03T09:24:45.049Z</time></trkpt><trkpt lat="45.8647572" lon="11.8022888"><ele>1565.8000000000002</ele><time>2026-05-03T09:24:46.049Z</time></trkpt><trkpt lat="45.8647404" lon="11.8021579"><ele>1569.1999999999998</ele><time>2026-05-03T09:24:47.049Z</time></trkpt><trkpt lat="45.8647215" lon="11.8020238"><ele>1572.6</ele><time>2026-05-03T09:24:48.047Z</time></trkpt><trkpt lat="45.8646952" lon="11.8018916"><ele>1576.0</ele><time>2026-05-03T09:24:49.048Z</time></trkpt><trkpt lat="45.8646629" lon="11.801757"><ele>1577.4</ele><time>2026-05-03T09:24:50.047Z</time></trkpt><trkpt lat="45.8646286" lon="11.8016178"><ele>1578.8</ele><time>2026-05-03T09:24:51.048Z</time></trkpt><trkpt lat="45.8646074" lon="11.8014831"><ele>1580.2</ele><time>2026-05-03T09:24:52.048Z</time></trkpt><trkpt lat="45.8645963" lon="11.8013421"><ele>1581.6000000000001</ele><time>2026-05-03T09:24:53.048Z</time></trkpt><trkpt lat="45.8645984" lon="11.8011987"><ele>1583.0</ele><time>2026-05-03T09:24:54.049Z</time></trkpt><trkpt lat="45.8646157" lon="11.8010685"><ele>1585.4999999999998</ele><time>2026-05-03T09:24:55.049Z</time></trkpt><trkpt lat="45.8646363" lon="11.8009317"><ele>1588.0</ele><time>2026-05-03T09:24:56.047Z</time></trkpt><trkpt lat="45.8646515" lon="11.8008344"><ele>1590.5</ele><time>2026-05-03T09:24:57.049Z</time></trkpt><trkpt lat="45.8646953" lon="11.8006801"><ele>1593.0</ele><time>2026-05-03T09:24:59.048Z</time></trkpt><trkpt lat="45.8647159" lon="11.8005908"><ele>1595.4999999999998</ele><time>2026-05-03T09:25:00.047Z</time></trkpt><trkpt lat="45.8647358" lon="11.8005001"><ele>1598.0</ele><time>2026-05-03T09:25:01.047Z</time></trkpt><trkpt lat="45.8647567" lon="11.8004056"><ele>1597.9999999999998</ele><time>2026-05-03T09:25:02.048Z</time></trkpt><trkpt lat="45.8647785" lon="11.8003116"><ele>1598.0</ele><time>2026-05-03T09:25:03.048Z</time></trkpt><trkpt lat="45.8648056" lon="11.8002243"><ele>1598.0</ele><time>2026-05-03T09:25:04.048Z</time></trkpt><trkpt lat="45.8648298" lon="11.8001362"><ele>1598.0</ele><time>2026-05-03T09:25:05.049Z</time></trkpt><trkpt lat="45.8648592" lon="11.8000559"><ele>1597.9999999999998</ele><time>2026-05-03T09:25:06.047Z</time></trkpt><trkpt lat="45.8649562" lon="11.7999583"><ele>1598.0</ele><time>2026-05-03T09:25:08.048Z</time></trkpt><trkpt lat="45.8650825" lon="11.7999811"><ele>1602.857142857143</ele><time>2026-05-03T09:25:10.049Z</time></trkpt><trkpt lat="45.8651495" lon="11.8000042"><ele>1607.7142857142856</ele><time>2026-05-03T09:25:11.047Z</time></trkpt><trkpt lat="45.8652147" lon="11.8000328"><ele>1612.5714285714284</ele><time>2026-05-03T09:25:12.049Z</time></trkpt><trkpt lat="45.8652833" lon="11.8000588"><ele>1617.4285714285716</ele><time>2026-05-03T09:25:13.048Z</time></trkpt><trkpt lat="45.8653537" lon="11.8000832"><ele>1622.2857142857142</ele><time>2026-05-03T09:25:14.048Z</time></trkpt><trkpt lat="45.8654284" lon="11.8001043"><ele>1627.142857142857</ele><time>2026-05-03T09:25:15.048Z</time></trkpt><trkpt lat="45.8655094" lon="11.8001257"><ele>1632.0</ele><time>2026-05-03T09:25:16.049Z</time></trkpt><trkpt lat="45.8655912" lon="11.8001582"><ele>1630.8333333333333</ele><time>2026-05-03T09:25:17.048Z</time></trkpt><trkpt lat="45.8656724" lon="11.8001947"><ele>1629.6666666666665</ele><time>2026-05-03T09:25:18.049Z</time></trkpt><trkpt lat="45.8657418" lon="11.8002402"><ele>1628.5</ele><time>2026-05-03T09:25:19.048Z</time></trkpt><trkpt lat="45.8658115" lon="11.8002793"><ele>1627.3333333333333</ele><time>2026-05-03T09:25:20.048Z</time></trkpt><trkpt lat="45.8658843" lon="11.8003138"><ele>1626.1666666666665</ele><time>2026-05-03T09:25:21.047Z</time></trkpt><trkpt lat="45.8659534" lon="11.8003453"><ele>1625.0</ele><time>2026-05-03T09:25:22.048Z</time></trkpt><trkpt lat="45.8660208" lon="11.8003754"><ele>1625.0</ele><time>2026-05-03T09:25:23.048Z</time></trkpt><trkpt lat="45.8660927" lon="11.8004064"><ele>1625.0</ele><time>2026-05-03T09:25:24.047Z</time></trkpt><trkpt lat="45.8661592" lon="11.8004409"><ele>1625.0</ele><time>2026-05-03T09:25:25.049Z</time></trkpt><trkpt lat="45.8662252" lon="11.8004782"><ele>1625.0</ele><time>2026-05-03T09:25:26.048Z</time></trkpt><trkpt lat="45.866294" lon="11.8005062"><ele>1625.0</ele><time>2026-05-03T09:25:27.048Z</time></trkpt><trkpt lat="45.8663605" lon="11.8005213"><ele>1625.0</ele><time>2026-05-03T09:25:28.048Z</time></trkpt><trkpt lat="45.8664337" lon="11.8005062"><ele>1625.0</ele><time>2026-05-03T09:25:29.047Z</time></trkpt><trkpt lat="45.8665014" lon="11.8004754"><ele>1625.0</ele><time>2026-05-03T09:25:30.049Z</time></trkpt><trkpt lat="45.8665646" lon="11.8004435"><ele>1625.0</ele><time>2026-05-03T09:25:31.048Z</time></trkpt><trkpt lat="45.86663" lon="11.8004208"><ele>1625.0</ele><time>2026-05-03T09:25:32.047Z</time></trkpt><trkpt lat="45.8666967" lon="11.8004125"><ele>1625.0</ele><time>2026-05-03T09:25:33.049Z</time></trkpt><trkpt lat="45.8667635" lon="11.8004206"><ele>1625.0</ele><time>2026-05-03T09:25:34.047Z</time></trkpt><trkpt lat="45.8668269" lon="11.8004512"><ele>1625.0</ele><time>2026-05-03T09:25:35.048Z</time></trkpt><trkpt lat="45.8668896" lon="11.8004844"><ele>1625.0</ele><time>2026-05-03T09:25:36.048Z</time></trkpt><trkpt lat="45.8669532" lon="11.8005119"><ele>1626.9999999999998</ele><time>2026-05-03T09:25:37.047Z</time></trkpt><trkpt lat="45.8670698" lon="11.8005278"><ele>1629.0</ele><time>2026-05-03T09:25:39.048Z</time></trkpt><trkpt lat="45.8671341" lon="11.8005031"><ele>1631.0</ele><time>2026-05-03T09:25:40.048Z</time></trkpt><trkpt lat="45.8671966" lon="11.8004548"><ele>1633.0</ele><time>2026-05-03T09:25:41.048Z</time></trkpt><trkpt lat="45.8672551" lon="11.8003957"><ele>1634.9999999999998</ele><time>2026-05-03T09:25:42.049Z</time></trkpt><trkpt lat="45.8673127" lon="11.8003393"><ele>1637.0</ele><time>2026-05-03T09:25:43.047Z</time></trkpt><trkpt lat="45.8673729" lon="11.8003093"><ele>1637.0</ele><time>2026-05-03T09:25:44.049Z</time></trkpt><trkpt lat="45.8674368" lon="11.8003113"><ele>1637.0</ele><time>2026-05-03T09:25:45.049Z</time></trkpt><trkpt lat="45.8675058" lon="11.8003388"><ele>1637.0</ele><time>2026-05-03T09:25:46.049Z</time></trkpt><trkpt lat="45.8675727" lon="11.8003697"><ele>1637.0</ele><time>2026-05-03T09:25:47.047Z</time></trkpt><trkpt lat="45.8676371" lon="11.8003968"><ele>1637.0</ele><time>2026-05-03T09:25:48.048Z</time></trkpt><trkpt lat="45.8677053" lon="11.8004094"><ele>1637.0</ele><time>2026-05-03T09:25:49.049Z</time></trkpt><trkpt lat="45.8677721" lon="11.8004159"><ele>1637.0</ele><time>2026-05-03T09:25:50.048Z</time></trkpt><trkpt lat="45.8678375" lon="11.8004253"><ele>1640.142857142857</ele><time>2026-05-03T09:25:51.049Z</time></trkpt><trkpt lat="45.8679026" lon="11.8004483"><ele>1643.2857142857142</ele><time>2026-05-03T09:25:52.049Z</time></trkpt><trkpt lat="45.8679776" lon="11.8004959"><ele>1646.4285714285716</ele><time>2026-05-03T09:25:53.047Z</time></trkpt><trkpt lat="45.8680449" lon="11.8005622"><ele>1649.5714285714284</ele><time>2026-05-03T09:25:54.048Z</time></trkpt><trkpt lat="45.868094" lon="11.8006211"><ele>1652.7142857142858</ele><time>2026-05-03T09:25:55.048Z</time></trkpt><trkpt lat="45.8681422" lon="11.8006834"><ele>1655.857142857143</ele><time>2026-05-03T09:25:56.047Z</time></trkpt><trkpt lat="45.8681913" lon="11.8007526"><ele>1659.0</ele><time>2026-05-03T09:25:57.048Z</time></trkpt><trkpt lat="45.8682464" lon="11.800822"><ele>1659.0</ele><time>2026-05-03T09:25:58.048Z</time></trkpt><trkpt lat="45.868305" lon="11.8008933"><ele>1659.0</ele><time>2026-05-03T09:25:59.047Z</time></trkpt><trkpt lat="45.868358" lon="11.8009734"><ele>1659.0</ele><time>2026-05-03T09:26:00.049Z</time></trkpt><trkpt lat="45.868413" lon="11.8010566"><ele>1659.0</ele><time>2026-05-03T09:26:01.049Z</time></trkpt><trkpt lat="45.8684653" lon="11.8011435"><ele>1659.0</ele><time>2026-05-03T09:26:02.048Z</time></trkpt><trkpt lat="45.8685148" lon="11.8012198"><ele>1659.0</ele><time>2026-05-03T09:26:03.048Z</time></trkpt><trkpt lat="45.8685886" lon="11.8013273"><ele>1661.6666666666667</ele><time>2026-05-03T09:26:05.047Z</time></trkpt><trkpt lat="45.8686609" lon="11.8013742"><ele>1664.3333333333335</ele><time>2026-05-03T09:26:07.048Z</time></trkpt><trkpt lat="45.8686699" lon="11.8012672"><ele>1667.0</ele><time>2026-05-03T09:26:10.048Z</time></trkpt><trkpt lat="45.8686346" lon="11.8011509"><ele>1669.6666666666667</ele><time>2026-05-03T09:26:13.048Z</time></trkpt><trkpt lat="45.8686102" lon="11.8010623"><ele>1672.3333333333335</ele><time>2026-05-03T09:26:15.047Z</time></trkpt><trkpt lat="45.8685748" lon="11.8009323"><ele>1675.0</ele><time>2026-05-03T09:26:17.047Z</time></trkpt><trkpt lat="45.8685361" lon="11.80084"><ele>1679.0000000000002</ele><time>2026-05-03T09:26:19.048Z</time></trkpt><trkpt lat="45.8684992" lon="11.8007497"><ele>1683.0</ele><time>2026-05-03T09:26:22.048Z</time></trkpt><trkpt lat="45.8684689" lon="11.8006701"><ele>1687.0</ele><time>2026-05-03T09:26:24.049Z</time></trkpt><trkpt lat="45.8685367" lon="11.8006126"><ele>1691.0</ele><time>2026-05-03T09:26:28.048Z</time></trkpt><trkpt lat="45.8686247" lon="11.8007279"><ele>1695.0000000000002</ele><time>2026-05-03T09:26:30.048Z</time></trkpt><trkpt lat="45.868676" lon="11.8008009"><ele>1699.0</ele><time>2026-05-03T09:26:31.048Z</time></trkpt><trkpt lat="45.8687319" lon="11.8009045"><ele>1693.0</ele><time>2026-05-03T09:26:32.049Z</time></trkpt><trkpt lat="45.8687928" lon="11.8010102"><ele>1687.0</ele><time>2026-05-03T09:26:33.047Z</time></trkpt><trkpt lat="45.8688706" lon="11.8011323"><ele>1681.0</ele><time>2026-05-03T09:26:34.049Z</time></trkpt><trkpt lat="45.8689559" lon="11.8012598"><ele>1675.0</ele><time>2026-05-03T09:26:35.048Z</time></trkpt><trkpt lat="45.869045" lon="11.8013742"><ele>1675.0</ele><time>2026-05-03T09:26:36.048Z</time></trkpt><trkpt lat="45.8691407" lon="11.8014834"><ele>1675.0</ele><time>2026-05-03T09:26:37.047Z</time></trkpt><trkpt lat="45.8692325" lon="11.8015761"><ele>1675.0</ele><time>2026-05-03T09:26:38.049Z</time></trkpt><trkpt lat="45.8693222" lon="11.801653"><ele>1675.0</ele><time>2026-05-03T09:26:39.049Z</time></trkpt><trkpt lat="45.8694198" lon="11.8017066"><ele>1675.0</ele><time>2026-05-03T09:26:40.049Z</time></trkpt><trkpt lat="45.8695228" lon="11.8017261"><ele>1678.25</ele><time>2026-05-03T09:26:41.048Z</time></trkpt><trkpt lat="45.8696318" lon="11.8017133"><ele>1681.5</ele><time>2026-05-03T09:26:42.048Z</time></trkpt><trkpt lat="45.8697417" lon="11.8016794"><ele>1684.75</ele><time>2026-05-03T09:26:43.048Z</time></trkpt><trkpt lat="45.8698593" lon="11.8016377"><ele>1688.0</ele><time>2026-05-03T09:26:44.047Z</time></trkpt><trkpt lat="45.8699809" lon="11.8015919"><ele>1688.0</ele><time>2026-05-03T09:26:45.049Z</time></trkpt><trkpt lat="45.8701056" lon="11.8015556"><ele>1688.0</ele><time>2026-05-03T09:26:46.049Z</time></trkpt><trkpt lat="45.8702314" lon="11.8015319"><ele>1688.0</ele><time>2026-05-03T09:26:47.047Z</time></trkpt><trkpt lat="45.8703586" lon="11.8015128"><ele>1688.0</ele><time>2026-05-03T09:26:48.048Z</time></trkpt><trkpt lat="45.870484" lon="11.8015084"><ele>1688.25</ele><time>2026-05-03T09:26:49.048Z</time></trkpt><trkpt lat="45.8706046" lon="11.8015264"><ele>1688.5</ele><time>2026-05-03T09:26:50.049Z</time></trkpt><trkpt lat="45.8707202" lon="11.8015602"><ele>1688.75</ele><time>2026-05-03T09:26:51.047Z</time></trkpt><trkpt lat="45.8708378" lon="11.8015528"><ele>1689.0</ele><time>2026-05-03T09:26:52.049Z</time></trkpt><trkpt lat="45.8709522" lon="11.8015073"><ele>1689.0</ele><time>2026-05-03T09:26:53.048Z</time></trkpt><trkpt lat="45.8710602" lon="11.8014286"><ele>1689.0</ele><time>2026-05-03T09:26:54.048Z</time></trkpt><trkpt lat="45.8711661" lon="11.8013393"><ele>1689.0</ele><time>2026-05-03T09:26:55.048Z</time></trkpt><trkpt lat="45.8712718" lon="11.8012585"><ele>1689.0</ele><time>2026-05-03T09:26:56.049Z</time></trkpt><trkpt lat="45.8713749" lon="11.8011783"><ele>1689.0</ele><time>2026-05-03T09:26:57.047Z</time></trkpt><trkpt lat="45.8714876" lon="11.8011257"><ele>1689.0</ele><time>2026-05-03T09:26:58.048Z</time></trkpt><trkpt lat="45.8716065" lon="11.8011213"><ele>1689.0</ele><time>2026-05-03T09:26:59.048Z</time></trkpt><trkpt lat="45.8717266" lon="11.8011439"><ele>1689.0</ele><time>2026-05-03T09:27:00.048Z</time></trkpt><trkpt lat="45.8718455" lon="11.8011716"><ele>1693.75</ele><time>2026-05-03T09:27:01.048Z</time></trkpt><trkpt lat="45.8719662" lon="11.8012006"><ele>1698.5</ele><time>2026-05-03T09:27:02.049Z</time></trkpt><trkpt lat="45.8720852" lon="11.8012319"><ele>1703.25</ele><time>2026-05-03T09:27:03.047Z</time></trkpt><trkpt lat="45.8722003" lon="11.8012611"><ele>1708.0</ele><time>2026-05-03T09:27:04.049Z</time></trkpt><trkpt lat="45.8723135" lon="11.8012976"><ele>1708.0</ele><time>2026-05-03T09:27:05.049Z</time></trkpt><trkpt lat="45.8724231" lon="11.8013425"><ele>1708.0</ele><time>2026-05-03T09:27:06.047Z</time></trkpt><trkpt lat="45.8725287" lon="11.8014048"><ele>1708.0</ele><time>2026-05-03T09:27:07.048Z</time></trkpt><trkpt lat="45.8726284" lon="11.8014826"><ele>1708.0</ele><time>2026-05-03T09:27:08.049Z</time></trkpt><trkpt lat="45.8727187" lon="11.8015811"><ele>1711.5</ele><time>2026-05-03T09:27:09.048Z</time></trkpt><trkpt lat="45.8727969" lon="11.8017012"><ele>1715.0</ele><time>2026-05-03T09:27:10.048Z</time></trkpt><trkpt lat="45.8728645" lon="11.8018337"><ele>1718.5</ele><time>2026-05-03T09:27:11.048Z</time></trkpt><trkpt lat="45.8729289" lon="11.8019758"><ele>1722.0</ele><time>2026-05-03T09:27:12.048Z</time></trkpt><trkpt lat="45.8729839" lon="11.8021254"><ele>1722.0</ele><time>2026-05-03T09:27:13.048Z</time></trkpt><trkpt lat="45.873031" lon="11.8022818"><ele>1722.0</ele><time>2026-05-03T09:27:14.048Z</time></trkpt><trkpt lat="45.8730642" lon="11.8024461"><ele>1722.0</ele><time>2026-05-03T09:27:15.048Z</time></trkpt><trkpt lat="45.8730747" lon="11.8026159"><ele>1722.0</ele><time>2026-05-03T09:27:16.048Z</time></trkpt><trkpt lat="45.8730762" lon="11.8027797"><ele>1721.3999999999999</ele><time>2026-05-03T09:27:17.048Z</time></trkpt><trkpt lat="45.8730871" lon="11.8029286"><ele>1720.7999999999997</ele><time>2026-05-03T09:27:18.049Z</time></trkpt><trkpt lat="45.8731169" lon="11.8030722"><ele>1720.2</ele><time>2026-05-03T09:27:19.048Z</time></trkpt><trkpt lat="45.8731577" lon="11.803211"><ele>1719.6</ele><time>2026-05-03T09:27:20.048Z</time></trkpt><trkpt lat="45.8731966" lon="11.8033357"><ele>1719.0</ele><time>2026-05-03T09:27:21.048Z</time></trkpt><trkpt lat="45.8732333" lon="11.8034375"><ele>1716.6</ele><time>2026-05-03T09:27:22.048Z</time></trkpt><trkpt lat="45.8732709" lon="11.803519"><ele>1714.2</ele><time>2026-05-03T09:27:23.048Z</time></trkpt><trkpt lat="45.8733603" lon="11.8036005"><ele>1711.7999999999997</ele><time>2026-05-03T09:27:25.047Z</time></trkpt><trkpt lat="45.8734367" lon="11.8035428"><ele>1709.3999999999999</ele><time>2026-05-03T09:27:27.048Z</time></trkpt><trkpt lat="45.873489" lon="11.803395"><ele>1707.0</ele><time>2026-05-03T09:27:29.049Z</time></trkpt><trkpt lat="45.8735278" lon="11.803232"><ele>1706.0</ele><time>2026-05-03T09:27:31.047Z</time></trkpt><trkpt lat="45.873559" lon="11.8030675"><ele>1705.0</ele><time>2026-05-03T09:27:33.048Z</time></trkpt><trkpt lat="45.8735809" lon="11.8028909"><ele>1704.0</ele><time>2026-05-03T09:27:35.047Z</time></trkpt><trkpt lat="45.8735822" lon="11.8027335"><ele>1703.0</ele><time>2026-05-03T09:27:37.047Z</time></trkpt><trkpt lat="45.8735551" lon="11.8025891"><ele>1703.0</ele><time>2026-05-03T09:27:39.048Z</time></trkpt><trkpt lat="45.8735719" lon="11.8024526"><ele>1703.0</ele><time>2026-05-03T09:27:41.048Z</time></trkpt><trkpt lat="45.8735692" lon="11.8023152"><ele>1703.0</ele><time>2026-05-03T09:27:43.047Z</time></trkpt><trkpt lat="45.8735534" lon="11.8021928"><ele>1703.0</ele><time>2026-05-03T09:27:45.049Z</time></trkpt><trkpt lat="45.8735282" lon="11.8020419"><ele>1703.0</ele><time>2026-05-03T09:27:47.048Z</time></trkpt><trkpt lat="45.8734971" lon="11.8018868"><ele>1703.6666666666665</ele><time>2026-05-03T09:27:49.048Z</time></trkpt><trkpt lat="45.8734597" lon="11.8017554"><ele>1704.3333333333333</ele><time>2026-05-03T09:27:51.049Z</time></trkpt><trkpt lat="45.8734468" lon="11.8016586"><ele>1705.0</ele><time>2026-05-03T09:27:53.047Z</time></trkpt><trkpt lat="45.8733842" lon="11.8016384"><ele>1705.6666666666665</ele><time>2026-05-03T09:27:56.049Z</time></trkpt><trkpt lat="45.8733433" lon="11.8017648"><ele>1706.3333333333333</ele><time>2026-05-03T09:27:59.049Z</time></trkpt><trkpt lat="45.8733516" lon="11.8018813"><ele>1707.0</ele><time>2026-05-03T09:28:01.048Z</time></trkpt><trkpt lat="45.8733645" lon="11.8020003"><ele>1706.1999999999998</ele><time>2026-05-03T09:28:03.048Z</time></trkpt><trkpt lat="45.873364" lon="11.8021201"><ele>1705.3999999999999</ele><time>2026-05-03T09:28:05.049Z</time></trkpt><trkpt lat="45.8733679" lon="11.8022678"><ele>1704.6</ele><time>2026-05-03T09:28:07.049Z</time></trkpt><trkpt lat="45.8734093" lon="11.8024073"><ele>1703.8000000000002</ele><time>2026-05-03T09:28:09.048Z</time></trkpt><trkpt lat="45.8734705" lon="11.8025153"><ele>1703.0</ele><time>2026-05-03T09:28:11.048Z</time></trkpt><trkpt lat="45.8735184" lon="11.8026287"><ele>1698.9999999999998</ele><time>2026-05-03T09:28:13.048Z</time></trkpt><trkpt lat="45.8735519" lon="11.8027507"><ele>1695.0</ele><time>2026-05-03T09:28:15.048Z</time></trkpt><trkpt lat="45.8735589" lon="11.8029135"><ele>1691.0</ele><time>2026-05-03T09:28:17.049Z</time></trkpt><trkpt lat="45.873546" lon="11.8030059"><ele>1687.0</ele><time>2026-05-03T09:28:18.048Z</time></trkpt><trkpt lat="45.8735257" lon="11.8031092"><ele>1682.9999999999998</ele><time>2026-05-03T09:28:19.047Z</time></trkpt><trkpt lat="45.8735077" lon="11.8032197"><ele>1679.0</ele><time>2026-05-03T09:28:20.049Z</time></trkpt><trkpt lat="45.8734856" lon="11.803331"><ele>1678.9999999999998</ele><time>2026-05-03T09:28:21.048Z</time></trkpt><trkpt lat="45.8734627" lon="11.8034244"><ele>1679.0</ele><time>2026-05-03T09:28:22.049Z</time></trkpt><trkpt lat="45.8734012" lon="11.8035433"><ele>1679.0</ele><time>2026-05-03T09:28:24.047Z</time></trkpt><trkpt lat="45.8732984" lon="11.8035177"><ele>1679.0</ele><time>2026-05-03T09:28:26.049Z</time></trkpt><trkpt lat="45.8732542" lon="11.8034399"><ele>1678.9999999999998</ele><time>2026-05-03T09:28:27.047Z</time></trkpt><trkpt lat="45.873221" lon="11.8033403"><ele>1679.0</ele><time>2026-05-03T09:28:28.049Z</time></trkpt><trkpt lat="45.8731886" lon="11.8032245"><ele>1687.0</ele><time>2026-05-03T09:28:29.048Z</time></trkpt><trkpt lat="45.8731524" lon="11.8031062"><ele>1695.0</ele><time>2026-05-03T09:28:30.048Z</time></trkpt><trkpt lat="45.873122" lon="11.8029752"><ele>1703.0</ele><time>2026-05-03T09:28:31.048Z</time></trkpt><trkpt lat="45.8731094" lon="11.8028363"><ele>1711.0</ele><time>2026-05-03T09:28:32.049Z</time></trkpt><trkpt lat="45.8731056" lon="11.8026978"><ele>1719.0</ele><time>2026-05-03T09:28:33.048Z</time></trkpt><trkpt lat="45.8730994" lon="11.8025564"><ele>1719.6</ele><time>2026-05-03T09:28:34.048Z</time></trkpt><trkpt lat="45.8730826" lon="11.8024074"><ele>1720.2</ele><time>2026-05-03T09:28:35.049Z</time></trkpt><trkpt lat="45.8730555" lon="11.8022597"><ele>1720.7999999999997</ele><time>2026-05-03T09:28:36.048Z</time></trkpt><trkpt lat="45.8730176" lon="11.8021217"><ele>1721.3999999999999</ele><time>2026-05-03T09:28:37.048Z</time></trkpt><trkpt lat="45.8729717" lon="11.8019825"><ele>1722.0</ele><time>2026-05-03T09:28:38.049Z</time></trkpt><trkpt lat="45.8729251" lon="11.8018483"><ele>1722.8</ele><time>2026-05-03T09:28:39.048Z</time></trkpt><trkpt lat="45.8728694" lon="11.8017164"><ele>1723.6</ele><time>2026-05-03T09:28:40.047Z</time></trkpt><trkpt lat="45.8728068" lon="11.8015992"><ele>1724.3999999999999</ele><time>2026-05-03T09:28:41.048Z</time></trkpt><trkpt lat="45.8727317" lon="11.8014895"><ele>1725.1999999999998</ele><time>2026-05-03T09:28:42.048Z</time></trkpt><trkpt lat="45.8726423" lon="11.8013994"><ele>1726.0</ele><time>2026-05-03T09:28:43.048Z</time></trkpt><trkpt lat="45.8725384" lon="11.8013354"><ele>1721.5</ele><time>2026-05-03T09:28:44.048Z</time></trkpt><trkpt lat="45.8724242" lon="11.8012906"><ele>1717.0</ele><time>2026-05-03T09:28:45.048Z</time></trkpt><trkpt lat="45.8723031" lon="11.8012591"><ele>1712.5</ele><time>2026-05-03T09:28:46.048Z</time></trkpt><trkpt lat="45.8721779" lon="11.8012286"><ele>1708.0</ele><time>2026-05-03T09:28:47.048Z</time></trkpt><trkpt lat="45.872063" lon="11.8011953"><ele>1708.0</ele><time>2026-05-03T09:28:48.048Z</time></trkpt><trkpt lat="45.8719495" lon="11.8011621"><ele>1708.0000000000002</ele><time>2026-05-03T09:28:49.049Z</time></trkpt><trkpt lat="45.8718418" lon="11.8011348"><ele>1708.0000000000002</ele><time>2026-05-03T09:28:50.048Z</time></trkpt><trkpt lat="45.8717376" lon="11.8011065"><ele>1708.0</ele><time>2026-05-03T09:28:51.049Z</time></trkpt><trkpt lat="45.8716364" lon="11.801084"><ele>1708.0</ele><time>2026-05-03T09:28:52.049Z</time></trkpt><trkpt lat="45.8715405" lon="11.8010798"><ele>1704.2</ele><time>2026-05-03T09:28:53.048Z</time></trkpt><trkpt lat="45.8714473" lon="11.8011051"><ele>1700.4</ele><time>2026-05-03T09:28:54.048Z</time></trkpt><trkpt lat="45.8713555" lon="11.8011644"><ele>1696.6000000000001</ele><time>2026-05-03T09:28:55.048Z</time></trkpt><trkpt lat="45.871258" lon="11.8012377"><ele>1692.8000000000002</ele><time>2026-05-03T09:28:56.048Z</time></trkpt><trkpt lat="45.8711621" lon="11.8013111"><ele>1689.0</ele><time>2026-05-03T09:28:57.048Z</time></trkpt><trkpt lat="45.871073" lon="11.8013886"><ele>1689.0</ele><time>2026-05-03T09:28:58.049Z</time></trkpt><trkpt lat="45.8709945" lon="11.8014496"><ele>1689.0</ele><time>2026-05-03T09:28:59.048Z</time></trkpt><trkpt lat="45.8709127" lon="11.8014921"><ele>1689.0</ele><time>2026-05-03T09:29:00.047Z</time></trkpt><trkpt lat="45.8708274" lon="11.801498"><ele>1689.0</ele><time>2026-05-03T09:29:01.048Z</time></trkpt><trkpt lat="45.8707419" lon="11.8014804"><ele>1689.0</ele><time>2026-05-03T09:29:02.048Z</time></trkpt><trkpt lat="45.8706501" lon="11.8014649"><ele>1689.0</ele><time>2026-05-03T09:29:03.048Z</time></trkpt><trkpt lat="45.8705537" lon="11.8014532"><ele>1688.75</ele><time>2026-05-03T09:29:04.047Z</time></trkpt><trkpt lat="45.8704532" lon="11.80146"><ele>1688.5</ele><time>2026-05-03T09:29:05.047Z</time></trkpt><trkpt lat="45.8703392" lon="11.8014965"><ele>1688.25</ele><time>2026-05-03T09:29:06.048Z</time></trkpt><trkpt lat="45.8702183" lon="11.8015252"><ele>1688.0</ele><time>2026-05-03T09:29:07.047Z</time></trkpt><trkpt lat="45.8700899" lon="11.8015475"><ele>1688.0</ele><time>2026-05-03T09:29:08.048Z</time></trkpt><trkpt lat="45.869957" lon="11.801592"><ele>1688.0</ele><time>2026-05-03T09:29:09.048Z</time></trkpt><trkpt lat="45.8698343" lon="11.8016416"><ele>1688.0</ele><time>2026-05-03T09:29:10.049Z</time></trkpt><trkpt lat="45.8697154" lon="11.8016798"><ele>1688.0</ele><time>2026-05-03T09:29:11.048Z</time></trkpt><trkpt lat="45.8695956" lon="11.801694"><ele>1688.0</ele><time>2026-05-03T09:29:12.048Z</time></trkpt><trkpt lat="45.8694791" lon="11.8016767"><ele>1688.0</ele><time>2026-05-03T09:29:13.049Z</time></trkpt><trkpt lat="45.8693603" lon="11.8016181"><ele>1688.0</ele><time>2026-05-03T09:29:14.047Z</time></trkpt><trkpt lat="45.8692428" lon="11.8015265"><ele>1688.0</ele><time>2026-05-03T09:29:15.048Z</time></trkpt><trkpt lat="45.8691275" lon="11.8013988"><ele>1690.75</ele><time>2026-05-03T09:29:16.047Z</time></trkpt><trkpt lat="45.869019" lon="11.8012635"><ele>1693.5</ele><time>2026-05-03T09:29:17.048Z</time></trkpt><trkpt lat="45.8689144" lon="11.8011269"><ele>1696.25</ele><time>2026-05-03T09:29:18.048Z</time></trkpt><trkpt lat="45.8688045" lon="11.8009787"><ele>1699.0</ele><time>2026-05-03T09:29:19.047Z</time></trkpt><trkpt lat="45.8686972" lon="11.8008248"><ele>1699.0</ele><time>2026-05-03T09:29:20.049Z</time></trkpt><trkpt lat="45.8685972" lon="11.8006675"><ele>1699.0</ele><time>2026-05-03T09:29:21.049Z</time></trkpt><trkpt lat="45.8684885" lon="11.8005157"><ele>1699.0</ele><time>2026-05-03T09:29:22.048Z</time></trkpt><trkpt lat="45.8683747" lon="11.8003695"><ele>1693.3333333333335</ele><time>2026-05-03T09:29:23.048Z</time></trkpt><trkpt lat="45.8682511" lon="11.8002344"><ele>1687.6666666666665</ele><time>2026-05-03T09:29:24.048Z</time></trkpt><trkpt lat="45.8681264" lon="11.8001199"><ele>1682.0</ele><time>2026-05-03T09:29:25.047Z</time></trkpt><trkpt lat="45.8679929" lon="11.8000172"><ele>1682.0</ele><time>2026-05-03T09:29:26.049Z</time></trkpt><trkpt lat="45.8678567" lon="11.7999247"><ele>1682.0</ele><time>2026-05-03T09:29:27.048Z</time></trkpt><trkpt lat="45.8677126" lon="11.7998533"><ele>1682.0</ele><time>2026-05-03T09:29:28.048Z</time></trkpt><trkpt lat="45.8675555" lon="11.7998142"><ele>1676.0</ele><time>2026-05-03T09:29:29.049Z</time></trkpt><trkpt lat="45.8673934" lon="11.799805"><ele>1670.0</ele><time>2026-05-03T09:29:30.048Z</time></trkpt><trkpt lat="45.8672281" lon="11.7998238"><ele>1664.0</ele><time>2026-05-03T09:29:31.048Z</time></trkpt><trkpt lat="45.8670577" lon="11.799861"><ele>1664.0</ele><time>2026-05-03T09:29:32.048Z</time></trkpt><trkpt lat="45.8668904" lon="11.7998933"><ele>1664.0</ele><time>2026-05-03T09:29:33.048Z</time></trkpt><trkpt lat="45.8667336" lon="11.7999128"><ele>1664.0</ele><time>2026-05-03T09:29:34.048Z</time></trkpt><trkpt lat="45.8665801" lon="11.7999167"><ele>1660.3333333333333</ele><time>2026-05-03T09:29:35.049Z</time></trkpt><trkpt lat="45.8664242" lon="11.7998944"><ele>1656.6666666666665</ele><time>2026-05-03T09:29:36.048Z</time></trkpt><trkpt lat="45.8662793" lon="11.7998384"><ele>1653.0</ele><time>2026-05-03T09:29:37.048Z</time></trkpt><trkpt lat="45.8661403" lon="11.7997547"><ele>1653.0</ele><time>2026-05-03T09:29:38.048Z</time></trkpt><trkpt lat="45.8660147" lon="11.7996512"><ele>1653.0</ele><time>2026-05-03T09:29:39.048Z</time></trkpt><trkpt lat="45.8659296" lon="11.7995299"><ele>1653.0</ele><time>2026-05-03T09:29:40.047Z</time></trkpt><trkpt lat="45.8658743" lon="11.7993755"><ele>1653.0</ele><time>2026-05-03T09:29:41.048Z</time></trkpt><trkpt lat="45.8658462" lon="11.7992025"><ele>1651.4</ele><time>2026-05-03T09:29:42.049Z</time></trkpt><trkpt lat="45.8658375" lon="11.7990296"><ele>1649.8000000000002</ele><time>2026-05-03T09:29:43.048Z</time></trkpt><trkpt lat="45.8658398" lon="11.7988725"><ele>1648.2</ele><time>2026-05-03T09:29:44.047Z</time></trkpt><trkpt lat="45.8658722" lon="11.7987403"><ele>1646.6</ele><time>2026-05-03T09:29:45.048Z</time></trkpt><trkpt lat="45.865935" lon="11.7986451"><ele>1645.0</ele><time>2026-05-03T09:29:46.049Z</time></trkpt><trkpt lat="45.8660262" lon="11.7985784"><ele>1644.0</ele><time>2026-05-03T09:29:47.048Z</time></trkpt><trkpt lat="45.8661331" lon="11.7985173"><ele>1643.0</ele><time>2026-05-03T09:29:48.048Z</time></trkpt><trkpt lat="45.8662537" lon="11.7984542"><ele>1642.0</ele><time>2026-05-03T09:29:49.048Z</time></trkpt><trkpt lat="45.8663843" lon="11.798393"><ele>1641.0</ele><time>2026-05-03T09:29:50.048Z</time></trkpt><trkpt lat="45.8665164" lon="11.7983154"><ele>1641.0</ele><time>2026-05-03T09:29:51.048Z</time></trkpt><trkpt lat="45.8666457" lon="11.7982281"><ele>1641.0</ele><time>2026-05-03T09:29:52.048Z</time></trkpt><trkpt lat="45.8667745" lon="11.7981483"><ele>1641.0</ele><time>2026-05-03T09:29:53.048Z</time></trkpt><trkpt lat="45.8669078" lon="11.7980687"><ele>1641.0</ele><time>2026-05-03T09:29:54.048Z</time></trkpt><trkpt lat="45.8670367" lon="11.7979858"><ele>1638.0</ele><time>2026-05-03T09:29:55.048Z</time></trkpt><trkpt lat="45.8671573" lon="11.7979082"><ele>1635.0</ele><time>2026-05-03T09:29:56.048Z</time></trkpt><trkpt lat="45.8672664" lon="11.797828"><ele>1632.0</ele><time>2026-05-03T09:29:57.049Z</time></trkpt><trkpt lat="45.8673587" lon="11.7977226"><ele>1629.0</ele><time>2026-05-03T09:29:58.048Z</time></trkpt><trkpt lat="45.8674313" lon="11.7975841"><ele>1629.0</ele><time>2026-05-03T09:29:59.048Z</time></trkpt><trkpt lat="45.8674839" lon="11.7974243"><ele>1629.0</ele><time>2026-05-03T09:30:00.049Z</time></trkpt><trkpt lat="45.8675316" lon="11.7972567"><ele>1629.0</ele><time>2026-05-03T09:30:01.048Z</time></trkpt><trkpt lat="45.8675718" lon="11.7970788"><ele>1629.0</ele><time>2026-05-03T09:30:02.049Z</time></trkpt><trkpt lat="45.8675999" lon="11.7968966"><ele>1629.25</ele><time>2026-05-03T09:30:03.047Z</time></trkpt><trkpt lat="45.8676363" lon="11.7967194"><ele>1629.5</ele><time>2026-05-03T09:30:04.047Z</time></trkpt><trkpt lat="45.867683" lon="11.7965512"><ele>1629.75</ele><time>2026-05-03T09:30:05.049Z</time></trkpt><trkpt lat="45.8677513" lon="11.7964101"><ele>1630.0</ele><time>2026-05-03T09:30:06.048Z</time></trkpt><trkpt lat="45.8678365" lon="11.796291"><ele>1630.0</ele><time>2026-05-03T09:30:07.048Z</time></trkpt><trkpt lat="45.8679133" lon="11.796168"><ele>1630.0</ele><time>2026-05-03T09:30:08.048Z</time></trkpt><trkpt lat="45.8679662" lon="11.7960189"><ele>1630.0</ele><time>2026-05-03T09:30:09.048Z</time></trkpt><trkpt lat="45.8679985" lon="11.7958613"><ele>1630.0</ele><time>2026-05-03T09:30:10.048Z</time></trkpt><trkpt lat="45.8680428" lon="11.795721"><ele>1629.4</ele><time>2026-05-03T09:30:11.047Z</time></trkpt><trkpt lat="45.8680983" lon="11.7956001"><ele>1628.8</ele><time>2026-05-03T09:30:12.048Z</time></trkpt><trkpt lat="45.8681694" lon="11.7954925"><ele>1628.1999999999998</ele><time>2026-05-03T09:30:13.049Z</time></trkpt><trkpt lat="45.8682541" lon="11.7954045"><ele>1627.6</ele><time>2026-05-03T09:30:14.048Z</time></trkpt><trkpt lat="45.8683301" lon="11.7953096"><ele>1627.0</ele><time>2026-05-03T09:30:15.048Z</time></trkpt><trkpt lat="45.8683876" lon="11.7951813"><ele>1623.25</ele><time>2026-05-03T09:30:16.048Z</time></trkpt><trkpt lat="45.8684112" lon="11.7950321"><ele>1619.5</ele><time>2026-05-03T09:30:17.048Z</time></trkpt><trkpt lat="45.8684154" lon="11.7948604"><ele>1615.75</ele><time>2026-05-03T09:30:18.049Z</time></trkpt><trkpt lat="45.8684161" lon="11.7946747"><ele>1612.0</ele><time>2026-05-03T09:30:19.047Z</time></trkpt><trkpt lat="45.8684147" lon="11.7944879"><ele>1614.5</ele><time>2026-05-03T09:30:20.049Z</time></trkpt><trkpt lat="45.8684062" lon="11.7943088"><ele>1617.0</ele><time>2026-05-03T09:30:21.047Z</time></trkpt><trkpt lat="45.8684041" lon="11.7941291"><ele>1619.5</ele><time>2026-05-03T09:30:22.048Z</time></trkpt><trkpt lat="45.8684254" lon="11.7939482"><ele>1622.0</ele><time>2026-05-03T09:30:23.048Z</time></trkpt><trkpt lat="45.8684589" lon="11.793758"><ele>1622.0</ele><time>2026-05-03T09:30:24.048Z</time></trkpt><trkpt lat="45.8684927" lon="11.7935656"><ele>1622.0</ele><time>2026-05-03T09:30:25.048Z</time></trkpt><trkpt lat="45.8685212" lon="11.7933751"><ele>1622.0</ele><time>2026-05-03T09:30:26.049Z</time></trkpt><trkpt lat="45.8685484" lon="11.7931943"><ele>1622.0</ele><time>2026-05-03T09:30:27.05Z</time></trkpt><trkpt lat="45.8685836" lon="11.7930193"><ele>1618.75</ele><time>2026-05-03T09:30:28.049Z</time></trkpt><trkpt lat="45.8686386" lon="11.792863"><ele>1615.5</ele><time>2026-05-03T09:30:29.048Z</time></trkpt><trkpt lat="45.8687182" lon="11.7927282"><ele>1612.25</ele><time>2026-05-03T09:30:30.049Z</time></trkpt><trkpt lat="45.8688194" lon="11.7926156"><ele>1609.0</ele><time>2026-05-03T09:30:31.049Z</time></trkpt><trkpt lat="45.8689356" lon="11.792512"><ele>1607.25</ele><time>2026-05-03T09:30:32.049Z</time></trkpt><trkpt lat="45.869058" lon="11.7924069"><ele>1605.5</ele><time>2026-05-03T09:30:33.05Z</time></trkpt><trkpt lat="45.8691859" lon="11.7922989"><ele>1603.75</ele><time>2026-05-03T09:30:34.049Z</time></trkpt><trkpt lat="45.8693112" lon="11.7921849"><ele>1602.0</ele><time>2026-05-03T09:30:35.049Z</time></trkpt><trkpt lat="45.8694272" lon="11.7920793"><ele>1602.0</ele><time>2026-05-03T09:30:36.049Z</time></trkpt><trkpt lat="45.8695426" lon="11.7919754"><ele>1602.0</ele><time>2026-05-03T09:30:37.049Z</time></trkpt><trkpt lat="45.8696597" lon="11.7918799"><ele>1602.0</ele><time>2026-05-03T09:30:38.049Z</time></trkpt><trkpt lat="45.8697717" lon="11.7917933"><ele>1602.0</ele><time>2026-05-03T09:30:39.049Z</time></trkpt><trkpt lat="45.8698792" lon="11.7917154"><ele>1604.1999999999998</ele><time>2026-05-03T09:30:40.05Z</time></trkpt><trkpt lat="45.8699811" lon="11.7916569"><ele>1606.4</ele><time>2026-05-03T09:30:41.049Z</time></trkpt><trkpt lat="45.8700797" lon="11.7915931"><ele>1608.6</ele><time>2026-05-03T09:30:42.049Z</time></trkpt><trkpt lat="45.8701596" lon="11.7914956"><ele>1610.8000000000002</ele><time>2026-05-03T09:30:43.049Z</time></trkpt><trkpt lat="45.8702208" lon="11.7913724"><ele>1613.0</ele><time>2026-05-03T09:30:44.05Z</time></trkpt><trkpt lat="45.8702649" lon="11.7912226"><ele>1613.0</ele><time>2026-05-03T09:30:45.05Z</time></trkpt><trkpt lat="45.8702725" lon="11.7910559"><ele>1613.0</ele><time>2026-05-03T09:30:46.048Z</time></trkpt><trkpt lat="45.8702527" lon="11.7908805"><ele>1613.0</ele><time>2026-05-03T09:30:47.05Z</time></trkpt><trkpt lat="45.8702194" lon="11.7906945"><ele>1613.0</ele><time>2026-05-03T09:30:48.05Z</time></trkpt><trkpt lat="45.870186" lon="11.790503"><ele>1612.25</ele><time>2026-05-03T09:30:49.05Z</time></trkpt><trkpt lat="45.8701532" lon="11.7903094"><ele>1611.5</ele><time>2026-05-03T09:30:50.049Z</time></trkpt><trkpt lat="45.8701207" lon="11.7901258"><ele>1610.75</ele><time>2026-05-03T09:30:51.05Z</time></trkpt><trkpt lat="45.8700896" lon="11.7899471"><ele>1610.0</ele><time>2026-05-03T09:30:52.049Z</time></trkpt><trkpt lat="45.8700627" lon="11.7897711"><ele>1570.0</ele><time>2026-05-03T09:30:53.048Z</time></trkpt></trkseg></trk></gpx>